<?xml version="1.0" encoding="UTF-8" standalone="no" ?>
<gpx xmlns="http://www.topografix.com/GPX/1/1" xmlns:xsi="http://www.w3.org/2001/XMLSchema-instance" xsi:schemaLocation="http://www.topografix.com/GPX/1/1 http://www.topografix.com/GPX/1/1/gpx.xsd" version="1.1" creator="VisuGPX - https://www.visugpx.com">
  <metadata>
    <name>Etape 1 - St Gall</name>
    <desc><![CDATA[Traversée de la Suisse / Italie / Autriche / Allemagne
3 semaines à vélo]]></desc>
  </metadata>
  <trk>
    <name><![CDATA[OR-7856966--Sankt Gallen:sp1]]></name>
    <trkseg>
      <trkpt lat="47.42448" lon="9.37672">
        <ele>681</ele>
        <time>2017-10-22T15:22:32Z</time>
      </trkpt>
      <trkpt lat="47.4243" lon="9.37633">
        <ele>682</ele>
        <time>2017-10-22T15:24:32Z</time>
      </trkpt>
      <trkpt lat="47.4241" lon="9.37594">
        <ele>683</ele>
        <time>2017-10-22T15:26:32Z</time>
      </trkpt>
      <trkpt lat="47.42396" lon="9.3757">
        <ele>683</ele>
        <time>2017-10-22T15:28:32Z</time>
      </trkpt>
      <trkpt lat="47.42391" lon="9.37563">
        <ele>683</ele>
        <time>2017-10-22T15:30:32Z</time>
      </trkpt>
      <trkpt lat="47.42378" lon="9.37547">
        <ele>683</ele>
        <time>2017-10-22T15:32:32Z</time>
      </trkpt>
      <trkpt lat="47.42366" lon="9.37531">
        <ele>683</ele>
        <time>2017-10-22T15:34:32Z</time>
      </trkpt>
      <trkpt lat="47.42366" lon="9.37531">
        <ele>683</ele>
        <time>2017-10-22T15:36:32Z</time>
      </trkpt>
      <trkpt lat="47.42373" lon="9.37524">
        <ele>683</ele>
        <time>2017-10-22T15:38:32Z</time>
      </trkpt>
      <trkpt lat="47.42386" lon="9.37501">
        <ele>684</ele>
        <time>2017-10-22T15:40:32Z</time>
      </trkpt>
      <trkpt lat="47.42395" lon="9.37486">
        <ele>683</ele>
        <time>2017-10-22T15:42:32Z</time>
      </trkpt>
      <trkpt lat="47.42395" lon="9.37486">
        <ele>683</ele>
        <time>2017-10-22T15:44:32Z</time>
      </trkpt>
      <trkpt lat="47.42391" lon="9.3748">
        <ele>683</ele>
        <time>2017-10-22T15:46:32Z</time>
      </trkpt>
      <trkpt lat="47.42374" lon="9.37454">
        <ele>682</ele>
        <time>2017-10-22T15:48:32Z</time>
      </trkpt>
      <trkpt lat="47.42374" lon="9.37454">
        <ele>682</ele>
        <time>2017-10-22T15:50:32Z</time>
      </trkpt>
      <trkpt lat="47.42372" lon="9.37443">
        <ele>682</ele>
        <time>2017-10-22T15:52:32Z</time>
      </trkpt>
      <trkpt lat="47.42372" lon="9.37439">
        <ele>681</ele>
        <time>2017-10-22T15:54:32Z</time>
      </trkpt>
      <trkpt lat="47.42372" lon="9.37437">
        <ele>681</ele>
        <time>2017-10-22T15:56:32Z</time>
      </trkpt>
      <trkpt lat="47.42372" lon="9.37431">
        <ele>681</ele>
        <time>2017-10-22T15:58:32Z</time>
      </trkpt>
      <trkpt lat="47.42379" lon="9.37403">
        <ele>680</ele>
        <time>2017-10-22T16:00:32Z</time>
      </trkpt>
      <trkpt lat="47.42379" lon="9.37403">
        <ele>680</ele>
        <time>2017-10-22T16:02:32Z</time>
      </trkpt>
      <trkpt lat="47.42409" lon="9.37387">
        <ele>678</ele>
        <time>2017-10-22T16:04:32Z</time>
      </trkpt>
      <trkpt lat="47.42443" lon="9.37402">
        <ele>677</ele>
        <time>2017-10-22T16:06:32Z</time>
      </trkpt>
      <trkpt lat="47.42465" lon="9.3741">
        <ele>676</ele>
        <time>2017-10-22T16:08:32Z</time>
      </trkpt>
      <trkpt lat="47.42472" lon="9.37413">
        <ele>676</ele>
        <time>2017-10-22T16:10:32Z</time>
      </trkpt>
      <trkpt lat="47.42507" lon="9.37429">
        <ele>675</ele>
        <time>2017-10-22T16:12:32Z</time>
      </trkpt>
      <trkpt lat="47.42526" lon="9.37437">
        <ele>675</ele>
        <time>2017-10-22T16:14:32Z</time>
      </trkpt>
      <trkpt lat="47.42538" lon="9.37447">
        <ele>675</ele>
        <time>2017-10-22T16:16:32Z</time>
      </trkpt>
      <trkpt lat="47.42543" lon="9.37447">
        <ele>675</ele>
        <time>2017-10-22T16:18:32Z</time>
      </trkpt>
      <trkpt lat="47.42548" lon="9.37446">
        <ele>675</ele>
        <time>2017-10-22T16:20:32Z</time>
      </trkpt>
      <trkpt lat="47.42597" lon="9.37409">
        <ele>676</ele>
        <time>2017-10-22T16:22:32Z</time>
      </trkpt>
      <trkpt lat="47.42603" lon="9.37403">
        <ele>676</ele>
        <time>2017-10-22T16:24:32Z</time>
      </trkpt>
      <trkpt lat="47.42608" lon="9.37397">
        <ele>676</ele>
        <time>2017-10-22T16:26:32Z</time>
      </trkpt>
      <trkpt lat="47.4261" lon="9.37395">
        <ele>676</ele>
        <time>2017-10-22T16:28:32Z</time>
      </trkpt>
      <trkpt lat="47.4262" lon="9.37384">
        <ele>677</ele>
        <time>2017-10-22T16:30:32Z</time>
      </trkpt>
      <trkpt lat="47.4262" lon="9.37384">
        <ele>677</ele>
        <time>2017-10-22T16:32:32Z</time>
      </trkpt>
      <trkpt lat="47.4266" lon="9.37354">
        <ele>679</ele>
        <time>2017-10-22T16:34:32Z</time>
      </trkpt>
      <trkpt lat="47.4266" lon="9.37354">
        <ele>679</ele>
        <time>2017-10-22T16:36:32Z</time>
      </trkpt>
      <trkpt lat="47.42632" lon="9.37309">
        <ele>680</ele>
        <time>2017-10-22T16:38:32Z</time>
      </trkpt>
      <trkpt lat="47.42567" lon="9.37225">
        <ele>678</ele>
        <time>2017-10-22T16:40:32Z</time>
      </trkpt>
      <trkpt lat="47.42557" lon="9.37211">
        <ele>679</ele>
        <time>2017-10-22T16:42:32Z</time>
      </trkpt>
      <trkpt lat="47.42546" lon="9.37194">
        <ele>679</ele>
        <time>2017-10-22T16:44:32Z</time>
      </trkpt>
      <trkpt lat="47.42516" lon="9.37143">
        <ele>678</ele>
        <time>2017-10-22T16:46:32Z</time>
      </trkpt>
      <trkpt lat="47.42496" lon="9.37109">
        <ele>675</ele>
        <time>2017-10-22T16:48:32Z</time>
      </trkpt>
      <trkpt lat="47.42474" lon="9.37072">
        <ele>674</ele>
        <time>2017-10-22T16:50:32Z</time>
      </trkpt>
      <trkpt lat="47.42461" lon="9.37053">
        <ele>675</ele>
        <time>2017-10-22T16:52:32Z</time>
      </trkpt>
      <trkpt lat="47.42425" lon="9.37">
        <ele>674</ele>
        <time>2017-10-22T16:54:32Z</time>
      </trkpt>
      <trkpt lat="47.4242" lon="9.36993">
        <ele>674</ele>
        <time>2017-10-22T16:56:32Z</time>
      </trkpt>
      <trkpt lat="47.42411" lon="9.3698">
        <ele>674</ele>
        <time>2017-10-22T16:58:32Z</time>
      </trkpt>
      <trkpt lat="47.42406" lon="9.36974">
        <ele>675</ele>
        <time>2017-10-22T17:00:32Z</time>
      </trkpt>
      <trkpt lat="47.42393" lon="9.3695">
        <ele>677</ele>
        <time>2017-10-22T17:02:32Z</time>
      </trkpt>
      <trkpt lat="47.4239" lon="9.36942">
        <ele>677</ele>
        <time>2017-10-22T17:04:32Z</time>
      </trkpt>
      <trkpt lat="47.42386" lon="9.36934">
        <ele>678</ele>
        <time>2017-10-22T17:06:32Z</time>
      </trkpt>
      <trkpt lat="47.42381" lon="9.36917">
        <ele>678</ele>
        <time>2017-10-22T17:08:32Z</time>
      </trkpt>
      <trkpt lat="47.4237" lon="9.36882">
        <ele>679</ele>
        <time>2017-10-22T17:10:32Z</time>
      </trkpt>
      <trkpt lat="47.42364" lon="9.36863">
        <ele>679</ele>
        <time>2017-10-22T17:12:32Z</time>
      </trkpt>
      <trkpt lat="47.4234" lon="9.36772">
        <ele>680</ele>
        <time>2017-10-22T17:14:32Z</time>
      </trkpt>
      <trkpt lat="47.4234" lon="9.36772">
        <ele>680</ele>
        <time>2017-10-22T17:16:32Z</time>
      </trkpt>
      <trkpt lat="47.42306" lon="9.36797">
        <ele>676</ele>
        <time>2017-10-22T17:18:32Z</time>
      </trkpt>
      <trkpt lat="47.42293" lon="9.36799">
        <ele>676</ele>
        <time>2017-10-22T17:20:32Z</time>
      </trkpt>
      <trkpt lat="47.4229" lon="9.36798">
        <ele>675</ele>
        <time>2017-10-22T17:22:32Z</time>
      </trkpt>
      <trkpt lat="47.42282" lon="9.36785">
        <ele>675</ele>
        <time>2017-10-22T17:24:32Z</time>
      </trkpt>
      <trkpt lat="47.42263" lon="9.36835">
        <ele>675</ele>
        <time>2017-10-22T17:26:32Z</time>
      </trkpt>
      <trkpt lat="47.42245" lon="9.36884">
        <ele>679</ele>
        <time>2017-10-22T17:28:32Z</time>
      </trkpt>
      <trkpt lat="47.42233" lon="9.36905">
        <ele>681</ele>
        <time>2017-10-22T17:30:32Z</time>
      </trkpt>
      <trkpt lat="47.42233" lon="9.36905">
        <ele>681</ele>
        <time>2017-10-22T17:32:32Z</time>
      </trkpt>
      <trkpt lat="47.42245" lon="9.36884">
        <ele>679</ele>
        <time>2017-10-22T17:34:32Z</time>
      </trkpt>
      <trkpt lat="47.42245" lon="9.36884">
        <ele>679</ele>
        <time>2017-10-22T17:36:32Z</time>
      </trkpt>
      <trkpt lat="47.42263" lon="9.36835">
        <ele>675</ele>
        <time>2017-10-22T17:38:32Z</time>
      </trkpt>
      <trkpt lat="47.42282" lon="9.36785">
        <ele>675</ele>
        <time>2017-10-22T17:40:32Z</time>
      </trkpt>
      <trkpt lat="47.42248" lon="9.36732">
        <ele>672</ele>
        <time>2017-10-22T17:42:32Z</time>
      </trkpt>
      <trkpt lat="47.42259" lon="9.36715">
        <ele>673</ele>
        <time>2017-10-22T17:44:32Z</time>
      </trkpt>
      <trkpt lat="47.42256" lon="9.36712">
        <ele>673</ele>
        <time>2017-10-22T17:46:32Z</time>
      </trkpt>
      <trkpt lat="47.42254" lon="9.36708">
        <ele>673</ele>
        <time>2017-10-22T17:48:32Z</time>
      </trkpt>
      <trkpt lat="47.42244" lon="9.36683">
        <ele>673</ele>
        <time>2017-10-22T17:50:32Z</time>
      </trkpt>
      <trkpt lat="47.4222" lon="9.36626">
        <ele>674</ele>
        <time>2017-10-22T17:52:32Z</time>
      </trkpt>
      <trkpt lat="47.42176" lon="9.36523">
        <ele>676</ele>
        <time>2017-10-22T17:54:32Z</time>
      </trkpt>
      <trkpt lat="47.42176" lon="9.36523">
        <ele>676</ele>
        <time>2017-10-22T17:56:32Z</time>
      </trkpt>
      <trkpt lat="47.42148" lon="9.36546">
        <ele>676</ele>
        <time>2017-10-22T17:58:32Z</time>
      </trkpt>
      <trkpt lat="47.42119" lon="9.36575">
        <ele>674</ele>
        <time>2017-10-22T18:00:32Z</time>
      </trkpt>
      <trkpt lat="47.4211" lon="9.36583">
        <ele>674</ele>
        <time>2017-10-22T18:02:32Z</time>
      </trkpt>
      <trkpt lat="47.42093" lon="9.366">
        <ele>674</ele>
        <time>2017-10-22T18:04:32Z</time>
      </trkpt>
      <trkpt lat="47.42087" lon="9.36603">
        <ele>674</ele>
        <time>2017-10-22T18:06:32Z</time>
      </trkpt>
      <trkpt lat="47.42087" lon="9.36603">
        <ele>674</ele>
        <time>2017-10-22T18:08:32Z</time>
      </trkpt>
      <trkpt lat="47.42087" lon="9.36596">
        <ele>674</ele>
        <time>2017-10-22T18:10:32Z</time>
      </trkpt>
      <trkpt lat="47.42086" lon="9.36591">
        <ele>674</ele>
        <time>2017-10-22T18:12:32Z</time>
      </trkpt>
      <trkpt lat="47.42082" lon="9.36588">
        <ele>674</ele>
        <time>2017-10-22T18:14:32Z</time>
      </trkpt>
      <trkpt lat="47.42069" lon="9.36578">
        <ele>675</ele>
        <time>2017-10-22T18:16:32Z</time>
      </trkpt>
      <trkpt lat="47.42066" lon="9.36575">
        <ele>676</ele>
        <time>2017-10-22T18:18:32Z</time>
      </trkpt>
      <trkpt lat="47.42052" lon="9.36571">
        <ele>677</ele>
        <time>2017-10-22T18:20:32Z</time>
      </trkpt>
      <trkpt lat="47.42037" lon="9.36566">
        <ele>677</ele>
        <time>2017-10-22T18:22:32Z</time>
      </trkpt>
      <trkpt lat="47.42032" lon="9.36557">
        <ele>678</ele>
        <time>2017-10-22T18:24:32Z</time>
      </trkpt>
      <trkpt lat="47.42032" lon="9.36557">
        <ele>678</ele>
        <time>2017-10-22T18:26:32Z</time>
      </trkpt>
      <trkpt lat="47.42022" lon="9.36548">
        <ele>679</ele>
        <time>2017-10-22T18:28:32Z</time>
      </trkpt>
      <trkpt lat="47.41998" lon="9.36515">
        <ele>680</ele>
        <time>2017-10-22T18:30:32Z</time>
      </trkpt>
      <trkpt lat="47.41985" lon="9.36493">
        <ele>680</ele>
        <time>2017-10-22T18:32:32Z</time>
      </trkpt>
      <trkpt lat="47.41972" lon="9.36466">
        <ele>680</ele>
        <time>2017-10-22T18:34:32Z</time>
      </trkpt>
      <trkpt lat="47.41972" lon="9.36466">
        <ele>680</ele>
        <time>2017-10-22T18:36:32Z</time>
      </trkpt>
      <trkpt lat="47.41968" lon="9.36467">
        <ele>680</ele>
        <time>2017-10-22T18:38:32Z</time>
      </trkpt>
      <trkpt lat="47.41965" lon="9.36466">
        <ele>680</ele>
        <time>2017-10-22T18:40:32Z</time>
      </trkpt>
      <trkpt lat="47.41962" lon="9.36465">
        <ele>680</ele>
        <time>2017-10-22T18:42:32Z</time>
      </trkpt>
      <trkpt lat="47.41959" lon="9.36463">
        <ele>679</ele>
        <time>2017-10-22T18:44:32Z</time>
      </trkpt>
      <trkpt lat="47.41957" lon="9.3646">
        <ele>679</ele>
        <time>2017-10-22T18:46:32Z</time>
      </trkpt>
      <trkpt lat="47.41954" lon="9.36456">
        <ele>679</ele>
        <time>2017-10-22T18:48:32Z</time>
      </trkpt>
      <trkpt lat="47.41937" lon="9.36434">
        <ele>678</ele>
        <time>2017-10-22T18:50:32Z</time>
      </trkpt>
      <trkpt lat="47.41935" lon="9.36431">
        <ele>678</ele>
        <time>2017-10-22T18:52:32Z</time>
      </trkpt>
      <trkpt lat="47.41933" lon="9.36428">
        <ele>678</ele>
        <time>2017-10-22T18:54:32Z</time>
      </trkpt>
      <trkpt lat="47.41929" lon="9.36419">
        <ele>678</ele>
        <time>2017-10-22T18:56:32Z</time>
      </trkpt>
      <trkpt lat="47.41926" lon="9.3641">
        <ele>678</ele>
        <time>2017-10-22T18:58:32Z</time>
      </trkpt>
      <trkpt lat="47.4192" lon="9.36386">
        <ele>678</ele>
        <time>2017-10-22T19:00:32Z</time>
      </trkpt>
      <trkpt lat="47.41917" lon="9.36375">
        <ele>679</ele>
        <time>2017-10-22T19:02:32Z</time>
      </trkpt>
      <trkpt lat="47.41916" lon="9.36373">
        <ele>679</ele>
        <time>2017-10-22T19:04:32Z</time>
      </trkpt>
      <trkpt lat="47.41915" lon="9.3637">
        <ele>679</ele>
        <time>2017-10-22T19:06:32Z</time>
      </trkpt>
      <trkpt lat="47.41914" lon="9.36367">
        <ele>679</ele>
        <time>2017-10-22T19:08:32Z</time>
      </trkpt>
      <trkpt lat="47.41912" lon="9.36365">
        <ele>679</ele>
        <time>2017-10-22T19:10:32Z</time>
      </trkpt>
      <trkpt lat="47.41862" lon="9.36304">
        <ele>680</ele>
        <time>2017-10-22T19:12:32Z</time>
      </trkpt>
      <trkpt lat="47.41839" lon="9.36273">
        <ele>681</ele>
        <time>2017-10-22T19:14:32Z</time>
      </trkpt>
      <trkpt lat="47.41806" lon="9.36231">
        <ele>681</ele>
        <time>2017-10-22T19:16:32Z</time>
      </trkpt>
      <trkpt lat="47.41776" lon="9.36189">
        <ele>683</ele>
        <time>2017-10-22T19:18:32Z</time>
      </trkpt>
      <trkpt lat="47.4176" lon="9.3617">
        <ele>683</ele>
        <time>2017-10-22T19:20:32Z</time>
      </trkpt>
      <trkpt lat="47.41748" lon="9.3615">
        <ele>684</ele>
        <time>2017-10-22T19:22:32Z</time>
      </trkpt>
      <trkpt lat="47.41744" lon="9.3614">
        <ele>684</ele>
        <time>2017-10-22T19:24:32Z</time>
      </trkpt>
      <trkpt lat="47.4172" lon="9.36092">
        <ele>684</ele>
        <time>2017-10-22T19:26:32Z</time>
      </trkpt>
      <trkpt lat="47.41705" lon="9.36061">
        <ele>684</ele>
        <time>2017-10-22T19:28:32Z</time>
      </trkpt>
      <trkpt lat="47.41654" lon="9.35949">
        <ele>683</ele>
        <time>2017-10-22T19:30:32Z</time>
      </trkpt>
      <trkpt lat="47.41654" lon="9.35949">
        <ele>683</ele>
        <time>2017-10-22T19:32:32Z</time>
      </trkpt>
      <trkpt lat="47.41616" lon="9.35985">
        <ele>681</ele>
        <time>2017-10-22T19:34:32Z</time>
      </trkpt>
      <trkpt lat="47.4159" lon="9.36009">
        <ele>681</ele>
        <time>2017-10-22T19:36:32Z</time>
      </trkpt>
      <trkpt lat="47.41578" lon="9.3602">
        <ele>682</ele>
        <time>2017-10-22T19:38:32Z</time>
      </trkpt>
      <trkpt lat="47.41564" lon="9.3604">
        <ele>685</ele>
        <time>2017-10-22T19:40:32Z</time>
      </trkpt>
      <trkpt lat="47.41549" lon="9.3606">
        <ele>689</ele>
        <time>2017-10-22T19:42:32Z</time>
      </trkpt>
      <trkpt lat="47.41542" lon="9.3607">
        <ele>691</ele>
        <time>2017-10-22T19:44:32Z</time>
      </trkpt>
      <trkpt lat="47.41542" lon="9.3607">
        <ele>691</ele>
        <time>2017-10-22T19:46:32Z</time>
      </trkpt>
      <trkpt lat="47.4153" lon="9.36052">
        <ele>690</ele>
        <time>2017-10-22T19:48:32Z</time>
      </trkpt>
      <trkpt lat="47.41519" lon="9.36029">
        <ele>689</ele>
        <time>2017-10-22T19:50:32Z</time>
      </trkpt>
      <trkpt lat="47.41499" lon="9.35975">
        <ele>685</ele>
        <time>2017-10-22T19:52:32Z</time>
      </trkpt>
      <trkpt lat="47.41492" lon="9.35953">
        <ele>684</ele>
        <time>2017-10-22T19:54:32Z</time>
      </trkpt>
      <trkpt lat="47.41488" lon="9.3594">
        <ele>683</ele>
        <time>2017-10-22T19:56:32Z</time>
      </trkpt>
      <trkpt lat="47.41474" lon="9.35897">
        <ele>683</ele>
        <time>2017-10-22T19:58:32Z</time>
      </trkpt>
      <trkpt lat="47.4145" lon="9.35824">
        <ele>683</ele>
        <time>2017-10-22T20:00:32Z</time>
      </trkpt>
      <trkpt lat="47.41432" lon="9.35768">
        <ele>682</ele>
        <time>2017-10-22T20:02:32Z</time>
      </trkpt>
      <trkpt lat="47.41428" lon="9.35747">
        <ele>680</ele>
        <time>2017-10-22T20:04:32Z</time>
      </trkpt>
      <trkpt lat="47.41424" lon="9.35709">
        <ele>679</ele>
        <time>2017-10-22T20:06:32Z</time>
      </trkpt>
      <trkpt lat="47.4142" lon="9.35684">
        <ele>679</ele>
        <time>2017-10-22T20:08:32Z</time>
      </trkpt>
      <trkpt lat="47.41411" lon="9.35631">
        <ele>679</ele>
        <time>2017-10-22T20:10:32Z</time>
      </trkpt>
      <trkpt lat="47.41406" lon="9.3558">
        <ele>679</ele>
        <time>2017-10-22T20:12:32Z</time>
      </trkpt>
      <trkpt lat="47.41399" lon="9.3554">
        <ele>681</ele>
        <time>2017-10-22T20:14:32Z</time>
      </trkpt>
      <trkpt lat="47.41388" lon="9.35504">
        <ele>684</ele>
        <time>2017-10-22T20:16:32Z</time>
      </trkpt>
      <trkpt lat="47.41376" lon="9.35465">
        <ele>685</ele>
        <time>2017-10-22T20:18:32Z</time>
      </trkpt>
      <trkpt lat="47.41367" lon="9.35445">
        <ele>686</ele>
        <time>2017-10-22T20:20:32Z</time>
      </trkpt>
      <trkpt lat="47.41359" lon="9.35425">
        <ele>687</ele>
        <time>2017-10-22T20:22:32Z</time>
      </trkpt>
      <trkpt lat="47.41354" lon="9.35401">
        <ele>687</ele>
        <time>2017-10-22T20:24:32Z</time>
      </trkpt>
      <trkpt lat="47.41346" lon="9.35362">
        <ele>687</ele>
        <time>2017-10-22T20:26:32Z</time>
      </trkpt>
      <trkpt lat="47.41327" lon="9.3528">
        <ele>686</ele>
        <time>2017-10-22T20:28:32Z</time>
      </trkpt>
      <trkpt lat="47.41318" lon="9.35244">
        <ele>686</ele>
        <time>2017-10-22T20:30:32Z</time>
      </trkpt>
      <trkpt lat="47.41302" lon="9.35184">
        <ele>684</ele>
        <time>2017-10-22T20:32:32Z</time>
      </trkpt>
      <trkpt lat="47.41293" lon="9.35159">
        <ele>685</ele>
        <time>2017-10-22T20:34:32Z</time>
      </trkpt>
      <trkpt lat="47.41284" lon="9.35131">
        <ele>685</ele>
        <time>2017-10-22T20:36:32Z</time>
      </trkpt>
      <trkpt lat="47.41283" lon="9.35127">
        <ele>685</ele>
        <time>2017-10-22T20:38:32Z</time>
      </trkpt>
      <trkpt lat="47.41279" lon="9.35111">
        <ele>685</ele>
        <time>2017-10-22T20:40:32Z</time>
      </trkpt>
      <trkpt lat="47.41279" lon="9.35111">
        <ele>685</ele>
        <time>2017-10-22T20:42:32Z</time>
      </trkpt>
      <trkpt lat="47.41267" lon="9.35106">
        <ele>687</ele>
        <time>2017-10-22T20:44:32Z</time>
      </trkpt>
      <trkpt lat="47.41259" lon="9.351">
        <ele>687</ele>
        <time>2017-10-22T20:46:32Z</time>
      </trkpt>
      <trkpt lat="47.4125" lon="9.35083">
        <ele>688</ele>
        <time>2017-10-22T20:48:32Z</time>
      </trkpt>
      <trkpt lat="47.4123" lon="9.3504">
        <ele>688</ele>
        <time>2017-10-22T20:50:32Z</time>
      </trkpt>
      <trkpt lat="47.41218" lon="9.35006">
        <ele>687</ele>
        <time>2017-10-22T20:52:32Z</time>
      </trkpt>
      <trkpt lat="47.41199" lon="9.3493">
        <ele>687</ele>
        <time>2017-10-22T20:54:32Z</time>
      </trkpt>
      <trkpt lat="47.41184" lon="9.34877">
        <ele>688</ele>
        <time>2017-10-22T20:56:32Z</time>
      </trkpt>
      <trkpt lat="47.41183" lon="9.34875">
        <ele>688</ele>
        <time>2017-10-22T20:58:32Z</time>
      </trkpt>
      <trkpt lat="47.41171" lon="9.34831">
        <ele>689</ele>
        <time>2017-10-22T21:00:32Z</time>
      </trkpt>
      <trkpt lat="47.41162" lon="9.34812">
        <ele>691</ele>
        <time>2017-10-22T21:02:32Z</time>
      </trkpt>
      <trkpt lat="47.41145" lon="9.34774">
        <ele>695</ele>
        <time>2017-10-22T21:04:32Z</time>
      </trkpt>
      <trkpt lat="47.41141" lon="9.34765">
        <ele>695</ele>
        <time>2017-10-22T21:06:32Z</time>
      </trkpt>
      <trkpt lat="47.41138" lon="9.34758">
        <ele>695</ele>
        <time>2017-10-22T21:08:32Z</time>
      </trkpt>
      <trkpt lat="47.41134" lon="9.3475">
        <ele>696</ele>
        <time>2017-10-22T21:10:32Z</time>
      </trkpt>
      <trkpt lat="47.41123" lon="9.34724">
        <ele>696</ele>
        <time>2017-10-22T21:12:32Z</time>
      </trkpt>
      <trkpt lat="47.41114" lon="9.34692">
        <ele>696</ele>
        <time>2017-10-22T21:14:32Z</time>
      </trkpt>
      <trkpt lat="47.41112" lon="9.34679">
        <ele>695</ele>
        <time>2017-10-22T21:16:32Z</time>
      </trkpt>
      <trkpt lat="47.41109" lon="9.34664">
        <ele>695</ele>
        <time>2017-10-22T21:18:32Z</time>
      </trkpt>
      <trkpt lat="47.41103" lon="9.34637">
        <ele>693</ele>
        <time>2017-10-22T21:20:32Z</time>
      </trkpt>
      <trkpt lat="47.41099" lon="9.3462">
        <ele>692</ele>
        <time>2017-10-22T21:22:32Z</time>
      </trkpt>
      <trkpt lat="47.41089" lon="9.3459">
        <ele>691</ele>
        <time>2017-10-22T21:24:32Z</time>
      </trkpt>
      <trkpt lat="47.41079" lon="9.34566">
        <ele>691</ele>
        <time>2017-10-22T21:26:32Z</time>
      </trkpt>
      <trkpt lat="47.41045" lon="9.34498">
        <ele>690</ele>
        <time>2017-10-22T21:28:32Z</time>
      </trkpt>
      <trkpt lat="47.41023" lon="9.3445">
        <ele>689</ele>
        <time>2017-10-22T21:30:32Z</time>
      </trkpt>
      <trkpt lat="47.40999" lon="9.34401">
        <ele>689</ele>
        <time>2017-10-22T21:32:32Z</time>
      </trkpt>
      <trkpt lat="47.40971" lon="9.3434">
        <ele>691</ele>
        <time>2017-10-22T21:34:32Z</time>
      </trkpt>
      <trkpt lat="47.40957" lon="9.34312">
        <ele>690</ele>
        <time>2017-10-22T21:36:32Z</time>
      </trkpt>
      <trkpt lat="47.40946" lon="9.34287">
        <ele>689</ele>
        <time>2017-10-22T21:38:32Z</time>
      </trkpt>
      <trkpt lat="47.40939" lon="9.34266">
        <ele>688</ele>
        <time>2017-10-22T21:40:32Z</time>
      </trkpt>
      <trkpt lat="47.40929" lon="9.34241">
        <ele>687</ele>
        <time>2017-10-22T21:42:32Z</time>
      </trkpt>
      <trkpt lat="47.40924" lon="9.34223">
        <ele>687</ele>
        <time>2017-10-22T21:44:32Z</time>
      </trkpt>
      <trkpt lat="47.40908" lon="9.34172">
        <ele>688</ele>
        <time>2017-10-22T21:46:32Z</time>
      </trkpt>
      <trkpt lat="47.40887" lon="9.34108">
        <ele>685</ele>
        <time>2017-10-22T21:48:32Z</time>
      </trkpt>
      <trkpt lat="47.40873" lon="9.34068">
        <ele>683</ele>
        <time>2017-10-22T21:50:32Z</time>
      </trkpt>
      <trkpt lat="47.40844" lon="9.33994">
        <ele>680</ele>
        <time>2017-10-22T21:52:32Z</time>
      </trkpt>
      <trkpt lat="47.40837" lon="9.3398">
        <ele>680</ele>
        <time>2017-10-22T21:54:32Z</time>
      </trkpt>
      <trkpt lat="47.408" lon="9.33906">
        <ele>680</ele>
        <time>2017-10-22T21:56:32Z</time>
      </trkpt>
      <trkpt lat="47.40776" lon="9.33859">
        <ele>678</ele>
        <time>2017-10-22T21:58:32Z</time>
      </trkpt>
      <trkpt lat="47.40736" lon="9.33779">
        <ele>676</ele>
        <time>2017-10-22T22:00:32Z</time>
      </trkpt>
      <trkpt lat="47.4072" lon="9.33753">
        <ele>675</ele>
        <time>2017-10-22T22:02:32Z</time>
      </trkpt>
      <trkpt lat="47.40695" lon="9.33708">
        <ele>673</ele>
        <time>2017-10-22T22:04:32Z</time>
      </trkpt>
      <trkpt lat="47.40675" lon="9.3367">
        <ele>674</ele>
        <time>2017-10-22T22:06:32Z</time>
      </trkpt>
      <trkpt lat="47.40664" lon="9.33655">
        <ele>674</ele>
        <time>2017-10-22T22:08:32Z</time>
      </trkpt>
      <trkpt lat="47.40664" lon="9.33655">
        <ele>674</ele>
        <time>2017-10-22T22:10:32Z</time>
      </trkpt>
      <trkpt lat="47.40646" lon="9.33705">
        <ele>673</ele>
        <time>2017-10-22T22:12:32Z</time>
      </trkpt>
      <trkpt lat="47.40643" lon="9.33718">
        <ele>673</ele>
        <time>2017-10-22T22:14:32Z</time>
      </trkpt>
      <trkpt lat="47.4063" lon="9.33768">
        <ele>673</ele>
        <time>2017-10-22T22:16:32Z</time>
      </trkpt>
      <trkpt lat="47.40617" lon="9.33795">
        <ele>674</ele>
        <time>2017-10-22T22:18:32Z</time>
      </trkpt>
      <trkpt lat="47.40593" lon="9.33826">
        <ele>676</ele>
        <time>2017-10-22T22:20:32Z</time>
      </trkpt>
      <trkpt lat="47.40579" lon="9.33835">
        <ele>676</ele>
        <time>2017-10-22T22:22:32Z</time>
      </trkpt>
      <trkpt lat="47.40555" lon="9.33846">
        <ele>677</ele>
        <time>2017-10-22T22:24:32Z</time>
      </trkpt>
      <trkpt lat="47.40534" lon="9.3385">
        <ele>678</ele>
        <time>2017-10-22T22:26:32Z</time>
      </trkpt>
      <trkpt lat="47.40509" lon="9.33853">
        <ele>678</ele>
        <time>2017-10-22T22:28:32Z</time>
      </trkpt>
      <trkpt lat="47.40477" lon="9.33848">
        <ele>678</ele>
        <time>2017-10-22T22:30:32Z</time>
      </trkpt>
      <trkpt lat="47.40467" lon="9.33848">
        <ele>678</ele>
        <time>2017-10-22T22:32:32Z</time>
      </trkpt>
      <trkpt lat="47.40454" lon="9.3385">
        <ele>678</ele>
        <time>2017-10-22T22:34:32Z</time>
      </trkpt>
      <trkpt lat="47.40442" lon="9.33854">
        <ele>679</ele>
        <time>2017-10-22T22:36:32Z</time>
      </trkpt>
      <trkpt lat="47.40423" lon="9.33864">
        <ele>679</ele>
        <time>2017-10-22T22:38:32Z</time>
      </trkpt>
      <trkpt lat="47.40396" lon="9.33887">
        <ele>682</ele>
        <time>2017-10-22T22:40:32Z</time>
      </trkpt>
      <trkpt lat="47.40366" lon="9.33912">
        <ele>684</ele>
        <time>2017-10-22T22:42:32Z</time>
      </trkpt>
      <trkpt lat="47.4035" lon="9.33926">
        <ele>685</ele>
        <time>2017-10-22T22:44:32Z</time>
      </trkpt>
      <trkpt lat="47.40338" lon="9.33937">
        <ele>686</ele>
        <time>2017-10-22T22:46:32Z</time>
      </trkpt>
      <trkpt lat="47.4033" lon="9.33941">
        <ele>686</ele>
        <time>2017-10-22T22:48:32Z</time>
      </trkpt>
      <trkpt lat="47.40325" lon="9.33941">
        <ele>687</ele>
        <time>2017-10-22T22:50:32Z</time>
      </trkpt>
      <trkpt lat="47.40315" lon="9.33936">
        <ele>688</ele>
        <time>2017-10-22T22:52:32Z</time>
      </trkpt>
      <trkpt lat="47.40303" lon="9.33928">
        <ele>689</ele>
        <time>2017-10-22T22:54:32Z</time>
      </trkpt>
      <trkpt lat="47.4029" lon="9.33914">
        <ele>690</ele>
        <time>2017-10-22T22:56:32Z</time>
      </trkpt>
      <trkpt lat="47.40276" lon="9.33903">
        <ele>691</ele>
        <time>2017-10-22T22:58:32Z</time>
      </trkpt>
      <trkpt lat="47.40263" lon="9.33895">
        <ele>691</ele>
        <time>2017-10-22T23:00:32Z</time>
      </trkpt>
      <trkpt lat="47.40247" lon="9.33888">
        <ele>692</ele>
        <time>2017-10-22T23:02:32Z</time>
      </trkpt>
      <trkpt lat="47.40231" lon="9.33884">
        <ele>692</ele>
        <time>2017-10-22T23:04:32Z</time>
      </trkpt>
      <trkpt lat="47.40212" lon="9.33883">
        <ele>692</ele>
        <time>2017-10-22T23:06:32Z</time>
      </trkpt>
      <trkpt lat="47.402" lon="9.33886">
        <ele>693</ele>
        <time>2017-10-22T23:08:32Z</time>
      </trkpt>
      <trkpt lat="47.40191" lon="9.33894">
        <ele>693</ele>
        <time>2017-10-22T23:10:32Z</time>
      </trkpt>
      <trkpt lat="47.40172" lon="9.33914">
        <ele>695</ele>
        <time>2017-10-22T23:12:32Z</time>
      </trkpt>
      <trkpt lat="47.40164" lon="9.33923">
        <ele>694</ele>
        <time>2017-10-22T23:14:32Z</time>
      </trkpt>
      <trkpt lat="47.40156" lon="9.33928">
        <ele>691</ele>
        <time>2017-10-22T23:16:32Z</time>
      </trkpt>
      <trkpt lat="47.40139" lon="9.33939">
        <ele>685</ele>
        <time>2017-10-22T23:18:32Z</time>
      </trkpt>
      <trkpt lat="47.40137" lon="9.33943">
        <ele>684</ele>
        <time>2017-10-22T23:20:32Z</time>
      </trkpt>
      <trkpt lat="47.40085" lon="9.33943">
        <ele>664</ele>
        <time>2017-10-22T23:22:32Z</time>
      </trkpt>
      <trkpt lat="47.39967" lon="9.33936">
        <ele>638</ele>
        <time>2017-10-22T23:24:32Z</time>
      </trkpt>
      <trkpt lat="47.39803" lon="9.33927">
        <ele>681</ele>
        <time>2017-10-22T23:26:32Z</time>
      </trkpt>
      <trkpt lat="47.398" lon="9.33928">
        <ele>681</ele>
        <time>2017-10-22T23:28:32Z</time>
      </trkpt>
      <trkpt lat="47.39794" lon="9.33932">
        <ele>682</ele>
        <time>2017-10-22T23:30:32Z</time>
      </trkpt>
      <trkpt lat="47.39789" lon="9.33938">
        <ele>683</ele>
        <time>2017-10-22T23:32:32Z</time>
      </trkpt>
      <trkpt lat="47.39779" lon="9.33963">
        <ele>684</ele>
        <time>2017-10-22T23:34:32Z</time>
      </trkpt>
      <trkpt lat="47.39765" lon="9.33976">
        <ele>687</ele>
        <time>2017-10-22T23:36:32Z</time>
      </trkpt>
      <trkpt lat="47.3973" lon="9.34003">
        <ele>692</ele>
        <time>2017-10-22T23:38:32Z</time>
      </trkpt>
      <trkpt lat="47.39709" lon="9.34008">
        <ele>693</ele>
        <time>2017-10-22T23:40:32Z</time>
      </trkpt>
      <trkpt lat="47.39644" lon="9.34008">
        <ele>695</ele>
        <time>2017-10-22T23:42:32Z</time>
      </trkpt>
      <trkpt lat="47.39636" lon="9.34009">
        <ele>695</ele>
        <time>2017-10-22T23:44:32Z</time>
      </trkpt>
      <trkpt lat="47.39611" lon="9.34002">
        <ele>696</ele>
        <time>2017-10-22T23:46:32Z</time>
      </trkpt>
      <trkpt lat="47.39591" lon="9.33997">
        <ele>697</ele>
        <time>2017-10-22T23:48:32Z</time>
      </trkpt>
      <trkpt lat="47.39532" lon="9.33986">
        <ele>699</ele>
        <time>2017-10-22T23:50:32Z</time>
      </trkpt>
      <trkpt lat="47.3951" lon="9.33987">
        <ele>700</ele>
        <time>2017-10-22T23:52:32Z</time>
      </trkpt>
      <trkpt lat="47.39458" lon="9.34009">
        <ele>703</ele>
        <time>2017-10-22T23:54:32Z</time>
      </trkpt>
      <trkpt lat="47.3941" lon="9.34021">
        <ele>707</ele>
        <time>2017-10-22T23:56:32Z</time>
      </trkpt>
      <trkpt lat="47.39383" lon="9.34022">
        <ele>710</ele>
        <time>2017-10-22T23:58:32Z</time>
      </trkpt>
      <trkpt lat="47.39354" lon="9.34019">
        <ele>714</ele>
        <time>2017-10-23T00:00:32Z</time>
      </trkpt>
      <trkpt lat="47.39324" lon="9.34014">
        <ele>717</ele>
        <time>2017-10-23T00:02:32Z</time>
      </trkpt>
      <trkpt lat="47.39317" lon="9.34011">
        <ele>718</ele>
        <time>2017-10-23T00:04:32Z</time>
      </trkpt>
      <trkpt lat="47.39305" lon="9.34002">
        <ele>720</ele>
        <time>2017-10-23T00:06:32Z</time>
      </trkpt>
      <trkpt lat="47.39289" lon="9.33986">
        <ele>722</ele>
        <time>2017-10-23T00:08:32Z</time>
      </trkpt>
      <trkpt lat="47.39272" lon="9.33962">
        <ele>725</ele>
        <time>2017-10-23T00:10:32Z</time>
      </trkpt>
      <trkpt lat="47.39261" lon="9.33949">
        <ele>727</ele>
        <time>2017-10-23T00:12:32Z</time>
      </trkpt>
      <trkpt lat="47.39244" lon="9.33936">
        <ele>729</ele>
        <time>2017-10-23T00:14:32Z</time>
      </trkpt>
      <trkpt lat="47.39233" lon="9.33933">
        <ele>730</ele>
        <time>2017-10-23T00:16:32Z</time>
      </trkpt>
      <trkpt lat="47.39222" lon="9.33931">
        <ele>732</ele>
        <time>2017-10-23T00:18:32Z</time>
      </trkpt>
      <trkpt lat="47.39205" lon="9.3393">
        <ele>734</ele>
        <time>2017-10-23T00:20:32Z</time>
      </trkpt>
      <trkpt lat="47.39186" lon="9.33928">
        <ele>736</ele>
        <time>2017-10-23T00:22:32Z</time>
      </trkpt>
      <trkpt lat="47.39169" lon="9.3392">
        <ele>738</ele>
        <time>2017-10-23T00:24:32Z</time>
      </trkpt>
      <trkpt lat="47.39157" lon="9.33913">
        <ele>740</ele>
        <time>2017-10-23T00:26:32Z</time>
      </trkpt>
      <trkpt lat="47.3915" lon="9.33908">
        <ele>740</ele>
        <time>2017-10-23T00:28:32Z</time>
      </trkpt>
      <trkpt lat="47.39145" lon="9.33905">
        <ele>741</ele>
        <time>2017-10-23T00:30:32Z</time>
      </trkpt>
      <trkpt lat="47.39135" lon="9.33903">
        <ele>741</ele>
        <time>2017-10-23T00:32:32Z</time>
      </trkpt>
      <trkpt lat="47.39127" lon="9.33903">
        <ele>742</ele>
        <time>2017-10-23T00:34:32Z</time>
      </trkpt>
      <trkpt lat="47.39118" lon="9.33905">
        <ele>742</ele>
        <time>2017-10-23T00:36:32Z</time>
      </trkpt>
      <trkpt lat="47.39108" lon="9.33911">
        <ele>742</ele>
        <time>2017-10-23T00:38:32Z</time>
      </trkpt>
      <trkpt lat="47.39099" lon="9.33916">
        <ele>742</ele>
        <time>2017-10-23T00:40:32Z</time>
      </trkpt>
      <trkpt lat="47.39072" lon="9.33942">
        <ele>742</ele>
        <time>2017-10-23T00:42:32Z</time>
      </trkpt>
      <trkpt lat="47.3906" lon="9.33953">
        <ele>743</ele>
        <time>2017-10-23T00:44:32Z</time>
      </trkpt>
      <trkpt lat="47.39048" lon="9.33961">
        <ele>744</ele>
        <time>2017-10-23T00:46:32Z</time>
      </trkpt>
      <trkpt lat="47.39008" lon="9.3397">
        <ele>748</ele>
        <time>2017-10-23T00:48:32Z</time>
      </trkpt>
      <trkpt lat="47.38986" lon="9.33974">
        <ele>751</ele>
        <time>2017-10-23T00:50:32Z</time>
      </trkpt>
      <trkpt lat="47.38986" lon="9.33974">
        <ele>751</ele>
        <time>2017-10-23T00:52:32Z</time>
      </trkpt>
      <trkpt lat="47.38971" lon="9.33983">
        <ele>752</ele>
        <time>2017-10-23T00:54:32Z</time>
      </trkpt>
      <trkpt lat="47.38963" lon="9.33988">
        <ele>752</ele>
        <time>2017-10-23T00:56:32Z</time>
      </trkpt>
      <trkpt lat="47.3895" lon="9.33996">
        <ele>753</ele>
        <time>2017-10-23T00:58:32Z</time>
      </trkpt>
      <trkpt lat="47.38923" lon="9.34011">
        <ele>754</ele>
        <time>2017-10-23T01:00:32Z</time>
      </trkpt>
      <trkpt lat="47.38907" lon="9.34021">
        <ele>755</ele>
        <time>2017-10-23T01:02:32Z</time>
      </trkpt>
      <trkpt lat="47.38907" lon="9.34021">
        <ele>755</ele>
        <time>2017-10-23T01:04:32Z</time>
      </trkpt>
      <trkpt lat="47.38938" lon="9.33956">
        <ele>762</ele>
        <time>2017-10-23T01:06:32Z</time>
      </trkpt>
      <trkpt lat="47.38938" lon="9.33956">
        <ele>762</ele>
        <time>2017-10-23T01:08:32Z</time>
      </trkpt>
      <trkpt lat="47.38957" lon="9.33912">
        <ele>767</ele>
        <time>2017-10-23T01:10:32Z</time>
      </trkpt>
      <trkpt lat="47.38972" lon="9.33877">
        <ele>769</ele>
        <time>2017-10-23T01:12:32Z</time>
      </trkpt>
      <trkpt lat="47.38974" lon="9.33868">
        <ele>769</ele>
        <time>2017-10-23T01:14:32Z</time>
      </trkpt>
      <trkpt lat="47.38975" lon="9.33854">
        <ele>771</ele>
        <time>2017-10-23T01:16:32Z</time>
      </trkpt>
      <trkpt lat="47.38972" lon="9.33844">
        <ele>774</ele>
        <time>2017-10-23T01:18:32Z</time>
      </trkpt>
      <trkpt lat="47.38967" lon="9.33836">
        <ele>776</ele>
        <time>2017-10-23T01:20:32Z</time>
      </trkpt>
      <trkpt lat="47.38962" lon="9.33831">
        <ele>778</ele>
        <time>2017-10-23T01:22:32Z</time>
      </trkpt>
      <trkpt lat="47.38956" lon="9.33829">
        <ele>780</ele>
        <time>2017-10-23T01:24:32Z</time>
      </trkpt>
      <trkpt lat="47.38912" lon="9.33832">
        <ele>791</ele>
        <time>2017-10-23T01:26:32Z</time>
      </trkpt>
      <trkpt lat="47.38903" lon="9.33834">
        <ele>793</ele>
        <time>2017-10-23T01:28:32Z</time>
      </trkpt>
      <trkpt lat="47.38895" lon="9.33834">
        <ele>795</ele>
        <time>2017-10-23T01:30:32Z</time>
      </trkpt>
      <trkpt lat="47.38884" lon="9.33828">
        <ele>798</ele>
        <time>2017-10-23T01:32:32Z</time>
      </trkpt>
      <trkpt lat="47.38875" lon="9.33821">
        <ele>800</ele>
        <time>2017-10-23T01:34:32Z</time>
      </trkpt>
      <trkpt lat="47.38867" lon="9.3381">
        <ele>803</ele>
        <time>2017-10-23T01:36:32Z</time>
      </trkpt>
      <trkpt lat="47.38858" lon="9.33797">
        <ele>805</ele>
        <time>2017-10-23T01:38:32Z</time>
      </trkpt>
      <trkpt lat="47.38849" lon="9.33779">
        <ele>807</ele>
        <time>2017-10-23T01:40:32Z</time>
      </trkpt>
      <trkpt lat="47.3883" lon="9.33734">
        <ele>808</ele>
        <time>2017-10-23T01:42:32Z</time>
      </trkpt>
      <trkpt lat="47.38803" lon="9.3367">
        <ele>801</ele>
        <time>2017-10-23T01:44:32Z</time>
      </trkpt>
      <trkpt lat="47.38785" lon="9.33635">
        <ele>800</ele>
        <time>2017-10-23T01:46:32Z</time>
      </trkpt>
      <trkpt lat="47.38754" lon="9.33588">
        <ele>797</ele>
        <time>2017-10-23T01:48:32Z</time>
      </trkpt>
      <trkpt lat="47.38747" lon="9.33581">
        <ele>798</ele>
        <time>2017-10-23T01:50:32Z</time>
      </trkpt>
      <trkpt lat="47.3874" lon="9.33575">
        <ele>799</ele>
        <time>2017-10-23T01:52:32Z</time>
      </trkpt>
      <trkpt lat="47.38725" lon="9.33567">
        <ele>803</ele>
        <time>2017-10-23T01:54:32Z</time>
      </trkpt>
      <trkpt lat="47.38667" lon="9.33538">
        <ele>816</ele>
        <time>2017-10-23T01:56:32Z</time>
      </trkpt>
      <trkpt lat="47.38637" lon="9.33528">
        <ele>817</ele>
        <time>2017-10-23T01:58:32Z</time>
      </trkpt>
      <trkpt lat="47.38626" lon="9.3352">
        <ele>816</ele>
        <time>2017-10-23T02:00:32Z</time>
      </trkpt>
      <trkpt lat="47.38585" lon="9.33486">
        <ele>814</ele>
        <time>2017-10-23T02:02:32Z</time>
      </trkpt>
      <trkpt lat="47.38561" lon="9.33464">
        <ele>813</ele>
        <time>2017-10-23T02:04:32Z</time>
      </trkpt>
      <trkpt lat="47.38561" lon="9.33464">
        <ele>813</ele>
        <time>2017-10-23T02:06:32Z</time>
      </trkpt>
      <trkpt lat="47.3854" lon="9.33459">
        <ele>812</ele>
        <time>2017-10-23T02:08:32Z</time>
      </trkpt>
      <trkpt lat="47.38532" lon="9.33461">
        <ele>813</ele>
        <time>2017-10-23T02:10:32Z</time>
      </trkpt>
      <trkpt lat="47.38499" lon="9.33468">
        <ele>814</ele>
        <time>2017-10-23T02:12:32Z</time>
      </trkpt>
      <trkpt lat="47.38488" lon="9.33476">
        <ele>814</ele>
        <time>2017-10-23T02:14:32Z</time>
      </trkpt>
      <trkpt lat="47.3846" lon="9.33514">
        <ele>817</ele>
        <time>2017-10-23T02:16:32Z</time>
      </trkpt>
      <trkpt lat="47.38449" lon="9.33528">
        <ele>818</ele>
        <time>2017-10-23T02:18:32Z</time>
      </trkpt>
      <trkpt lat="47.38434" lon="9.33553">
        <ele>819</ele>
        <time>2017-10-23T02:20:32Z</time>
      </trkpt>
      <trkpt lat="47.38419" lon="9.33581">
        <ele>819</ele>
        <time>2017-10-23T02:22:32Z</time>
      </trkpt>
      <trkpt lat="47.38403" lon="9.33604">
        <ele>820</ele>
        <time>2017-10-23T02:24:32Z</time>
      </trkpt>
      <trkpt lat="47.38388" lon="9.33622">
        <ele>821</ele>
        <time>2017-10-23T02:26:32Z</time>
      </trkpt>
      <trkpt lat="47.38374" lon="9.33633">
        <ele>822</ele>
        <time>2017-10-23T02:28:32Z</time>
      </trkpt>
      <trkpt lat="47.38374" lon="9.33633">
        <ele>822</ele>
        <time>2017-10-23T02:30:32Z</time>
      </trkpt>
      <trkpt lat="47.38372" lon="9.3363">
        <ele>821</ele>
        <time>2017-10-23T02:32:32Z</time>
      </trkpt>
      <trkpt lat="47.3837" lon="9.33629">
        <ele>821</ele>
        <time>2017-10-23T02:34:32Z</time>
      </trkpt>
      <trkpt lat="47.3835" lon="9.33626">
        <ele>820</ele>
        <time>2017-10-23T02:36:32Z</time>
      </trkpt>
      <trkpt lat="47.38329" lon="9.33623">
        <ele>820</ele>
        <time>2017-10-23T02:38:32Z</time>
      </trkpt>
      <trkpt lat="47.3831" lon="9.3362">
        <ele>820</ele>
        <time>2017-10-23T02:40:32Z</time>
      </trkpt>
      <trkpt lat="47.38273" lon="9.33611">
        <ele>820</ele>
        <time>2017-10-23T02:42:32Z</time>
      </trkpt>
      <trkpt lat="47.38223" lon="9.336">
        <ele>820</ele>
        <time>2017-10-23T02:44:32Z</time>
      </trkpt>
      <trkpt lat="47.38223" lon="9.336">
        <ele>820</ele>
        <time>2017-10-23T02:46:32Z</time>
      </trkpt>
      <trkpt lat="47.38237" lon="9.33617">
        <ele>821</ele>
        <time>2017-10-23T02:48:32Z</time>
      </trkpt>
      <trkpt lat="47.3826" lon="9.33641">
        <ele>823</ele>
        <time>2017-10-23T02:50:32Z</time>
      </trkpt>
      <trkpt lat="47.38271" lon="9.33652">
        <ele>824</ele>
        <time>2017-10-23T02:52:32Z</time>
      </trkpt>
      <trkpt lat="47.38277" lon="9.33661">
        <ele>825</ele>
        <time>2017-10-23T02:54:32Z</time>
      </trkpt>
      <trkpt lat="47.38279" lon="9.33666">
        <ele>825</ele>
        <time>2017-10-23T02:56:32Z</time>
      </trkpt>
      <trkpt lat="47.38279" lon="9.33669">
        <ele>825</ele>
        <time>2017-10-23T02:58:32Z</time>
      </trkpt>
      <trkpt lat="47.38278" lon="9.33673">
        <ele>826</ele>
        <time>2017-10-23T03:00:32Z</time>
      </trkpt>
      <trkpt lat="47.38264" lon="9.33679">
        <ele>826</ele>
        <time>2017-10-23T03:02:32Z</time>
      </trkpt>
      <trkpt lat="47.3823" lon="9.33726">
        <ele>830</ele>
        <time>2017-10-23T03:04:32Z</time>
      </trkpt>
      <trkpt lat="47.38193" lon="9.33786">
        <ele>834</ele>
        <time>2017-10-23T03:06:32Z</time>
      </trkpt>
      <trkpt lat="47.38154" lon="9.33824">
        <ele>837</ele>
        <time>2017-10-23T03:08:32Z</time>
      </trkpt>
      <trkpt lat="47.38124" lon="9.33861">
        <ele>836</ele>
        <time>2017-10-23T03:10:32Z</time>
      </trkpt>
      <trkpt lat="47.38124" lon="9.33861">
        <ele>836</ele>
        <time>2017-10-23T03:12:32Z</time>
      </trkpt>
      <trkpt lat="47.38154" lon="9.33824">
        <ele>837</ele>
        <time>2017-10-23T03:14:32Z</time>
      </trkpt>
      <trkpt lat="47.38193" lon="9.33786">
        <ele>834</ele>
        <time>2017-10-23T03:16:32Z</time>
      </trkpt>
      <trkpt lat="47.3823" lon="9.33726">
        <ele>830</ele>
        <time>2017-10-23T03:18:32Z</time>
      </trkpt>
      <trkpt lat="47.38264" lon="9.33679">
        <ele>826</ele>
        <time>2017-10-23T03:20:32Z</time>
      </trkpt>
      <trkpt lat="47.38278" lon="9.33673">
        <ele>826</ele>
        <time>2017-10-23T03:22:32Z</time>
      </trkpt>
      <trkpt lat="47.38279" lon="9.33669">
        <ele>825</ele>
        <time>2017-10-23T03:24:32Z</time>
      </trkpt>
      <trkpt lat="47.38279" lon="9.33666">
        <ele>825</ele>
        <time>2017-10-23T03:26:32Z</time>
      </trkpt>
      <trkpt lat="47.38277" lon="9.33661">
        <ele>825</ele>
        <time>2017-10-23T03:28:32Z</time>
      </trkpt>
      <trkpt lat="47.38271" lon="9.33652">
        <ele>824</ele>
        <time>2017-10-23T03:30:32Z</time>
      </trkpt>
      <trkpt lat="47.3826" lon="9.33641">
        <ele>823</ele>
        <time>2017-10-23T03:32:32Z</time>
      </trkpt>
      <trkpt lat="47.38237" lon="9.33617">
        <ele>821</ele>
        <time>2017-10-23T03:34:32Z</time>
      </trkpt>
      <trkpt lat="47.38223" lon="9.336">
        <ele>820</ele>
        <time>2017-10-23T03:36:32Z</time>
      </trkpt>
      <trkpt lat="47.38198" lon="9.33601">
        <ele>821</ele>
        <time>2017-10-23T03:38:32Z</time>
      </trkpt>
      <trkpt lat="47.38159" lon="9.33601">
        <ele>821</ele>
        <time>2017-10-23T03:40:32Z</time>
      </trkpt>
      <trkpt lat="47.38131" lon="9.33596">
        <ele>821</ele>
        <time>2017-10-23T03:42:32Z</time>
      </trkpt>
      <trkpt lat="47.38103" lon="9.33584">
        <ele>819</ele>
        <time>2017-10-23T03:44:32Z</time>
      </trkpt>
      <trkpt lat="47.38084" lon="9.33576">
        <ele>818</ele>
        <time>2017-10-23T03:46:32Z</time>
      </trkpt>
      <trkpt lat="47.38063" lon="9.33574">
        <ele>817</ele>
        <time>2017-10-23T03:48:32Z</time>
      </trkpt>
      <trkpt lat="47.38039" lon="9.33574">
        <ele>815</ele>
        <time>2017-10-23T03:50:32Z</time>
      </trkpt>
      <trkpt lat="47.38001" lon="9.33575">
        <ele>813</ele>
        <time>2017-10-23T03:52:32Z</time>
      </trkpt>
      <trkpt lat="47.37978" lon="9.3358">
        <ele>813</ele>
        <time>2017-10-23T03:54:32Z</time>
      </trkpt>
      <trkpt lat="47.37956" lon="9.33587">
        <ele>812</ele>
        <time>2017-10-23T03:56:32Z</time>
      </trkpt>
      <trkpt lat="47.37942" lon="9.33591">
        <ele>812</ele>
        <time>2017-10-23T03:58:32Z</time>
      </trkpt>
      <trkpt lat="47.37932" lon="9.33601">
        <ele>812</ele>
        <time>2017-10-23T04:00:32Z</time>
      </trkpt>
      <trkpt lat="47.37924" lon="9.33618">
        <ele>813</ele>
        <time>2017-10-23T04:02:32Z</time>
      </trkpt>
      <trkpt lat="47.37914" lon="9.33634">
        <ele>813</ele>
        <time>2017-10-23T04:04:32Z</time>
      </trkpt>
      <trkpt lat="47.37894" lon="9.33646">
        <ele>812</ele>
        <time>2017-10-23T04:06:32Z</time>
      </trkpt>
      <trkpt lat="47.37874" lon="9.33653">
        <ele>810</ele>
        <time>2017-10-23T04:08:32Z</time>
      </trkpt>
      <trkpt lat="47.37844" lon="9.33656">
        <ele>808</ele>
        <time>2017-10-23T04:10:32Z</time>
      </trkpt>
      <trkpt lat="47.37799" lon="9.33656">
        <ele>804</ele>
        <time>2017-10-23T04:12:32Z</time>
      </trkpt>
      <trkpt lat="47.37727" lon="9.3366">
        <ele>799</ele>
        <time>2017-10-23T04:14:32Z</time>
      </trkpt>
      <trkpt lat="47.37727" lon="9.3366">
        <ele>799</ele>
        <time>2017-10-23T04:16:32Z</time>
      </trkpt>
      <trkpt lat="47.37705" lon="9.33687">
        <ele>797</ele>
        <time>2017-10-23T04:18:32Z</time>
      </trkpt>
      <trkpt lat="47.3768" lon="9.33715">
        <ele>795</ele>
        <time>2017-10-23T04:20:32Z</time>
      </trkpt>
      <trkpt lat="47.37654" lon="9.33748">
        <ele>793</ele>
        <time>2017-10-23T04:22:32Z</time>
      </trkpt>
      <trkpt lat="47.37648" lon="9.33762">
        <ele>791</ele>
        <time>2017-10-23T04:24:32Z</time>
      </trkpt>
      <trkpt lat="47.37648" lon="9.33762">
        <ele>791</ele>
        <time>2017-10-23T04:26:32Z</time>
      </trkpt>
      <trkpt lat="47.37646" lon="9.33785">
        <ele>790</ele>
        <time>2017-10-23T04:28:32Z</time>
      </trkpt>
      <trkpt lat="47.37645" lon="9.33804">
        <ele>789</ele>
        <time>2017-10-23T04:30:32Z</time>
      </trkpt>
      <trkpt lat="47.37648" lon="9.33826">
        <ele>788</ele>
        <time>2017-10-23T04:32:32Z</time>
      </trkpt>
      <trkpt lat="47.37653" lon="9.33845">
        <ele>788</ele>
        <time>2017-10-23T04:34:32Z</time>
      </trkpt>
      <trkpt lat="47.37657" lon="9.33859">
        <ele>788</ele>
        <time>2017-10-23T04:36:32Z</time>
      </trkpt>
      <trkpt lat="47.37657" lon="9.33876">
        <ele>787</ele>
        <time>2017-10-23T04:38:32Z</time>
      </trkpt>
      <trkpt lat="47.37649" lon="9.33896">
        <ele>787</ele>
        <time>2017-10-23T04:40:32Z</time>
      </trkpt>
      <trkpt lat="47.37632" lon="9.33932">
        <ele>788</ele>
        <time>2017-10-23T04:42:32Z</time>
      </trkpt>
      <trkpt lat="47.37614" lon="9.3398">
        <ele>792</ele>
        <time>2017-10-23T04:44:32Z</time>
      </trkpt>
      <trkpt lat="47.37595" lon="9.34032">
        <ele>796</ele>
        <time>2017-10-23T04:46:32Z</time>
      </trkpt>
      <trkpt lat="47.37595" lon="9.34032">
        <ele>796</ele>
        <time>2017-10-23T04:48:32Z</time>
      </trkpt>
      <trkpt lat="47.37597" lon="9.34054">
        <ele>798</ele>
        <time>2017-10-23T04:50:32Z</time>
      </trkpt>
      <trkpt lat="47.376" lon="9.34075">
        <ele>800</ele>
        <time>2017-10-23T04:52:32Z</time>
      </trkpt>
      <trkpt lat="47.37625" lon="9.34131">
        <ele>801</ele>
        <time>2017-10-23T04:54:32Z</time>
      </trkpt>
      <trkpt lat="47.37633" lon="9.34158">
        <ele>801</ele>
        <time>2017-10-23T04:56:32Z</time>
      </trkpt>
      <trkpt lat="47.37647" lon="9.34215">
        <ele>803</ele>
        <time>2017-10-23T04:58:32Z</time>
      </trkpt>
      <trkpt lat="47.37669" lon="9.34328">
        <ele>808</ele>
        <time>2017-10-23T05:00:32Z</time>
      </trkpt>
      <trkpt lat="47.37669" lon="9.34328">
        <ele>808</ele>
        <time>2017-10-23T05:02:32Z</time>
      </trkpt>
      <trkpt lat="47.37627" lon="9.34331">
        <ele>813</ele>
        <time>2017-10-23T05:04:32Z</time>
      </trkpt>
      <trkpt lat="47.37577" lon="9.34336">
        <ele>818</ele>
        <time>2017-10-23T05:06:32Z</time>
      </trkpt>
      <trkpt lat="47.37538" lon="9.34342">
        <ele>821</ele>
        <time>2017-10-23T05:08:32Z</time>
      </trkpt>
      <trkpt lat="47.37516" lon="9.34345">
        <ele>822</ele>
        <time>2017-10-23T05:10:32Z</time>
      </trkpt>
      <trkpt lat="47.37508" lon="9.34349">
        <ele>822</ele>
        <time>2017-10-23T05:12:32Z</time>
      </trkpt>
      <trkpt lat="47.37502" lon="9.34354">
        <ele>823</ele>
        <time>2017-10-23T05:14:32Z</time>
      </trkpt>
      <trkpt lat="47.37487" lon="9.34382">
        <ele>822</ele>
        <time>2017-10-23T05:16:32Z</time>
      </trkpt>
      <trkpt lat="47.37476" lon="9.34404">
        <ele>822</ele>
        <time>2017-10-23T05:18:32Z</time>
      </trkpt>
      <trkpt lat="47.37459" lon="9.34442">
        <ele>819</ele>
        <time>2017-10-23T05:20:32Z</time>
      </trkpt>
      <trkpt lat="47.37446" lon="9.34486">
        <ele>816</ele>
        <time>2017-10-23T05:22:32Z</time>
      </trkpt>
      <trkpt lat="47.37433" lon="9.34519">
        <ele>815</ele>
        <time>2017-10-23T05:24:32Z</time>
      </trkpt>
      <trkpt lat="47.37423" lon="9.34543">
        <ele>814</ele>
        <time>2017-10-23T05:26:32Z</time>
      </trkpt>
      <trkpt lat="47.37419" lon="9.34554">
        <ele>814</ele>
        <time>2017-10-23T05:28:32Z</time>
      </trkpt>
      <trkpt lat="47.37407" lon="9.34596">
        <ele>813</ele>
        <time>2017-10-23T05:30:32Z</time>
      </trkpt>
      <trkpt lat="47.37407" lon="9.34596">
        <ele>813</ele>
        <time>2017-10-23T05:32:32Z</time>
      </trkpt>
      <trkpt lat="47.37402" lon="9.34626">
        <ele>812</ele>
        <time>2017-10-23T05:34:32Z</time>
      </trkpt>
      <trkpt lat="47.37399" lon="9.34644">
        <ele>812</ele>
        <time>2017-10-23T05:36:32Z</time>
      </trkpt>
      <trkpt lat="47.37398" lon="9.34646">
        <ele>812</ele>
        <time>2017-10-23T05:38:32Z</time>
      </trkpt>
      <trkpt lat="47.37396" lon="9.34658">
        <ele>812</ele>
        <time>2017-10-23T05:40:32Z</time>
      </trkpt>
      <trkpt lat="47.37392" lon="9.3467">
        <ele>811</ele>
        <time>2017-10-23T05:42:32Z</time>
      </trkpt>
      <trkpt lat="47.37389" lon="9.3468">
        <ele>810</ele>
        <time>2017-10-23T05:44:32Z</time>
      </trkpt>
      <trkpt lat="47.37382" lon="9.34695">
        <ele>809</ele>
        <time>2017-10-23T05:46:32Z</time>
      </trkpt>
      <trkpt lat="47.37378" lon="9.34701">
        <ele>808</ele>
        <time>2017-10-23T05:48:32Z</time>
      </trkpt>
      <trkpt lat="47.37371" lon="9.34713">
        <ele>807</ele>
        <time>2017-10-23T05:50:32Z</time>
      </trkpt>
      <trkpt lat="47.37366" lon="9.34718">
        <ele>806</ele>
        <time>2017-10-23T05:52:32Z</time>
      </trkpt>
      <trkpt lat="47.37331" lon="9.34759">
        <ele>801</ele>
        <time>2017-10-23T05:54:32Z</time>
      </trkpt>
      <trkpt lat="47.37323" lon="9.34769">
        <ele>800</ele>
        <time>2017-10-23T05:56:32Z</time>
      </trkpt>
      <trkpt lat="47.37317" lon="9.34778">
        <ele>800</ele>
        <time>2017-10-23T05:58:32Z</time>
      </trkpt>
      <trkpt lat="47.37312" lon="9.34786">
        <ele>799</ele>
        <time>2017-10-23T06:00:32Z</time>
      </trkpt>
      <trkpt lat="47.37308" lon="9.34794">
        <ele>799</ele>
        <time>2017-10-23T06:02:32Z</time>
      </trkpt>
      <trkpt lat="47.37307" lon="9.34795">
        <ele>799</ele>
        <time>2017-10-23T06:04:32Z</time>
      </trkpt>
      <trkpt lat="47.37304" lon="9.34806">
        <ele>798</ele>
        <time>2017-10-23T06:06:32Z</time>
      </trkpt>
      <trkpt lat="47.37297" lon="9.3484">
        <ele>796</ele>
        <time>2017-10-23T06:08:32Z</time>
      </trkpt>
      <trkpt lat="47.37294" lon="9.34863">
        <ele>795</ele>
        <time>2017-10-23T06:10:32Z</time>
      </trkpt>
      <trkpt lat="47.3729" lon="9.34888">
        <ele>793</ele>
        <time>2017-10-23T06:12:32Z</time>
      </trkpt>
      <trkpt lat="47.37286" lon="9.34916">
        <ele>792</ele>
        <time>2017-10-23T06:14:32Z</time>
      </trkpt>
      <trkpt lat="47.37286" lon="9.34936">
        <ele>792</ele>
        <time>2017-10-23T06:16:32Z</time>
      </trkpt>
      <trkpt lat="47.37289" lon="9.34953">
        <ele>791</ele>
        <time>2017-10-23T06:18:32Z</time>
      </trkpt>
      <trkpt lat="47.37293" lon="9.34966">
        <ele>791</ele>
        <time>2017-10-23T06:20:32Z</time>
      </trkpt>
      <trkpt lat="47.37299" lon="9.34978">
        <ele>790</ele>
        <time>2017-10-23T06:22:32Z</time>
      </trkpt>
      <trkpt lat="47.37308" lon="9.34989">
        <ele>789</ele>
        <time>2017-10-23T06:24:32Z</time>
      </trkpt>
      <trkpt lat="47.37311" lon="9.34994">
        <ele>789</ele>
        <time>2017-10-23T06:26:32Z</time>
      </trkpt>
      <trkpt lat="47.37313" lon="9.34997">
        <ele>789</ele>
        <time>2017-10-23T06:28:32Z</time>
      </trkpt>
      <trkpt lat="47.37316" lon="9.35001">
        <ele>788</ele>
        <time>2017-10-23T06:30:32Z</time>
      </trkpt>
      <trkpt lat="47.37325" lon="9.35011">
        <ele>788</ele>
        <time>2017-10-23T06:32:32Z</time>
      </trkpt>
      <trkpt lat="47.3735" lon="9.3504">
        <ele>787</ele>
        <time>2017-10-23T06:34:32Z</time>
      </trkpt>
      <trkpt lat="47.37373" lon="9.35067">
        <ele>785</ele>
        <time>2017-10-23T06:36:32Z</time>
      </trkpt>
      <trkpt lat="47.37394" lon="9.35092">
        <ele>784</ele>
        <time>2017-10-23T06:38:32Z</time>
      </trkpt>
      <trkpt lat="47.37406" lon="9.35106">
        <ele>783</ele>
        <time>2017-10-23T06:40:32Z</time>
      </trkpt>
      <trkpt lat="47.37414" lon="9.35118">
        <ele>783</ele>
        <time>2017-10-23T06:42:32Z</time>
      </trkpt>
      <trkpt lat="47.37421" lon="9.3513">
        <ele>782</ele>
        <time>2017-10-23T06:44:32Z</time>
      </trkpt>
      <trkpt lat="47.37422" lon="9.35135">
        <ele>782</ele>
        <time>2017-10-23T06:46:32Z</time>
      </trkpt>
      <trkpt lat="47.37424" lon="9.35141">
        <ele>782</ele>
        <time>2017-10-23T06:48:32Z</time>
      </trkpt>
      <trkpt lat="47.37426" lon="9.35151">
        <ele>783</ele>
        <time>2017-10-23T06:50:32Z</time>
      </trkpt>
      <trkpt lat="47.37428" lon="9.35166">
        <ele>783</ele>
        <time>2017-10-23T06:52:32Z</time>
      </trkpt>
      <trkpt lat="47.37429" lon="9.35183">
        <ele>782</ele>
        <time>2017-10-23T06:54:32Z</time>
      </trkpt>
      <trkpt lat="47.37429" lon="9.35202">
        <ele>780</ele>
        <time>2017-10-23T06:56:32Z</time>
      </trkpt>
      <trkpt lat="47.37429" lon="9.35213">
        <ele>780</ele>
        <time>2017-10-23T06:58:32Z</time>
      </trkpt>
      <trkpt lat="47.37429" lon="9.35216">
        <ele>779</ele>
        <time>2017-10-23T07:00:32Z</time>
      </trkpt>
      <trkpt lat="47.37428" lon="9.35226">
        <ele>779</ele>
        <time>2017-10-23T07:02:32Z</time>
      </trkpt>
      <trkpt lat="47.37427" lon="9.35233">
        <ele>778</ele>
        <time>2017-10-23T07:04:32Z</time>
      </trkpt>
      <trkpt lat="47.37425" lon="9.3524">
        <ele>778</ele>
        <time>2017-10-23T07:06:32Z</time>
      </trkpt>
      <trkpt lat="47.37423" lon="9.35248">
        <ele>778</ele>
        <time>2017-10-23T07:08:32Z</time>
      </trkpt>
      <trkpt lat="47.37421" lon="9.35254">
        <ele>777</ele>
        <time>2017-10-23T07:10:32Z</time>
      </trkpt>
      <trkpt lat="47.37418" lon="9.3526">
        <ele>777</ele>
        <time>2017-10-23T07:12:32Z</time>
      </trkpt>
      <trkpt lat="47.37413" lon="9.35268">
        <ele>777</ele>
        <time>2017-10-23T07:14:32Z</time>
      </trkpt>
      <trkpt lat="47.37405" lon="9.35279">
        <ele>776</ele>
        <time>2017-10-23T07:16:32Z</time>
      </trkpt>
      <trkpt lat="47.37379" lon="9.3531">
        <ele>775</ele>
        <time>2017-10-23T07:18:32Z</time>
      </trkpt>
      <trkpt lat="47.37365" lon="9.35328">
        <ele>774</ele>
        <time>2017-10-23T07:20:32Z</time>
      </trkpt>
      <trkpt lat="47.37351" lon="9.35346">
        <ele>772</ele>
        <time>2017-10-23T07:22:32Z</time>
      </trkpt>
      <trkpt lat="47.37337" lon="9.3536">
        <ele>771</ele>
        <time>2017-10-23T07:24:32Z</time>
      </trkpt>
      <trkpt lat="47.37331" lon="9.35366">
        <ele>770</ele>
        <time>2017-10-23T07:26:32Z</time>
      </trkpt>
      <trkpt lat="47.37324" lon="9.35371">
        <ele>768</ele>
        <time>2017-10-23T07:28:32Z</time>
      </trkpt>
      <trkpt lat="47.37312" lon="9.35378">
        <ele>766</ele>
        <time>2017-10-23T07:30:32Z</time>
      </trkpt>
      <trkpt lat="47.37296" lon="9.35386">
        <ele>764</ele>
        <time>2017-10-23T07:32:32Z</time>
      </trkpt>
      <trkpt lat="47.37287" lon="9.35389">
        <ele>763</ele>
        <time>2017-10-23T07:34:32Z</time>
      </trkpt>
      <trkpt lat="47.37275" lon="9.35393">
        <ele>761</ele>
        <time>2017-10-23T07:36:32Z</time>
      </trkpt>
      <trkpt lat="47.37267" lon="9.35394">
        <ele>760</ele>
        <time>2017-10-23T07:38:32Z</time>
      </trkpt>
      <trkpt lat="47.37259" lon="9.35394">
        <ele>759</ele>
        <time>2017-10-23T07:40:32Z</time>
      </trkpt>
      <trkpt lat="47.37248" lon="9.35392">
        <ele>759</ele>
        <time>2017-10-23T07:42:32Z</time>
      </trkpt>
      <trkpt lat="47.37234" lon="9.35387">
        <ele>758</ele>
        <time>2017-10-23T07:44:32Z</time>
      </trkpt>
      <trkpt lat="47.37216" lon="9.35381">
        <ele>757</ele>
        <time>2017-10-23T07:46:32Z</time>
      </trkpt>
      <trkpt lat="47.37173" lon="9.35363">
        <ele>755</ele>
        <time>2017-10-23T07:48:32Z</time>
      </trkpt>
      <trkpt lat="47.3715" lon="9.35353">
        <ele>754</ele>
        <time>2017-10-23T07:50:32Z</time>
      </trkpt>
      <trkpt lat="47.37138" lon="9.35346">
        <ele>754</ele>
        <time>2017-10-23T07:52:32Z</time>
      </trkpt>
      <trkpt lat="47.37127" lon="9.35337">
        <ele>754</ele>
        <time>2017-10-23T07:54:32Z</time>
      </trkpt>
      <trkpt lat="47.37113" lon="9.35325">
        <ele>755</ele>
        <time>2017-10-23T07:56:32Z</time>
      </trkpt>
      <trkpt lat="47.37105" lon="9.35316">
        <ele>756</ele>
        <time>2017-10-23T07:58:32Z</time>
      </trkpt>
      <trkpt lat="47.37094" lon="9.35306">
        <ele>756</ele>
        <time>2017-10-23T08:00:32Z</time>
      </trkpt>
      <trkpt lat="47.37085" lon="9.35299">
        <ele>757</ele>
        <time>2017-10-23T08:02:32Z</time>
      </trkpt>
      <trkpt lat="47.37079" lon="9.35294">
        <ele>757</ele>
        <time>2017-10-23T08:04:32Z</time>
      </trkpt>
      <trkpt lat="47.37071" lon="9.35289">
        <ele>757</ele>
        <time>2017-10-23T08:06:32Z</time>
      </trkpt>
      <trkpt lat="47.37053" lon="9.3528">
        <ele>755</ele>
        <time>2017-10-23T08:08:32Z</time>
      </trkpt>
      <trkpt lat="47.37032" lon="9.3527">
        <ele>753</ele>
        <time>2017-10-23T08:10:32Z</time>
      </trkpt>
      <trkpt lat="47.37005" lon="9.35258">
        <ele>749</ele>
        <time>2017-10-23T08:12:32Z</time>
      </trkpt>
      <trkpt lat="47.36984" lon="9.3525">
        <ele>747</ele>
        <time>2017-10-23T08:14:32Z</time>
      </trkpt>
      <trkpt lat="47.36962" lon="9.35241">
        <ele>743</ele>
        <time>2017-10-23T08:16:32Z</time>
      </trkpt>
      <trkpt lat="47.36952" lon="9.35238">
        <ele>742</ele>
        <time>2017-10-23T08:18:32Z</time>
      </trkpt>
      <trkpt lat="47.36937" lon="9.35237">
        <ele>739</ele>
        <time>2017-10-23T08:20:32Z</time>
      </trkpt>
      <trkpt lat="47.36921" lon="9.35236">
        <ele>735</ele>
        <time>2017-10-23T08:22:32Z</time>
      </trkpt>
      <trkpt lat="47.36888" lon="9.35235">
        <ele>733</ele>
        <time>2017-10-23T08:24:32Z</time>
      </trkpt>
      <trkpt lat="47.36864" lon="9.35235">
        <ele>733</ele>
        <time>2017-10-23T08:26:32Z</time>
      </trkpt>
      <trkpt lat="47.36862" lon="9.35234">
        <ele>733</ele>
        <time>2017-10-23T08:28:32Z</time>
      </trkpt>
      <trkpt lat="47.36835" lon="9.35235">
        <ele>732</ele>
        <time>2017-10-23T08:30:32Z</time>
      </trkpt>
      <trkpt lat="47.36811" lon="9.35238">
        <ele>732</ele>
        <time>2017-10-23T08:32:32Z</time>
      </trkpt>
      <trkpt lat="47.36804" lon="9.3524">
        <ele>732</ele>
        <time>2017-10-23T08:34:32Z</time>
      </trkpt>
      <trkpt lat="47.36783" lon="9.35245">
        <ele>731</ele>
        <time>2017-10-23T08:36:32Z</time>
      </trkpt>
      <trkpt lat="47.36755" lon="9.3525">
        <ele>731</ele>
        <time>2017-10-23T08:38:32Z</time>
      </trkpt>
      <trkpt lat="47.36728" lon="9.35253">
        <ele>730</ele>
        <time>2017-10-23T08:40:32Z</time>
      </trkpt>
      <trkpt lat="47.36705" lon="9.35254">
        <ele>729</ele>
        <time>2017-10-23T08:42:32Z</time>
      </trkpt>
      <trkpt lat="47.36686" lon="9.35258">
        <ele>729</ele>
        <time>2017-10-23T08:44:32Z</time>
      </trkpt>
      <trkpt lat="47.36673" lon="9.35263">
        <ele>728</ele>
        <time>2017-10-23T08:46:32Z</time>
      </trkpt>
      <trkpt lat="47.36661" lon="9.3527">
        <ele>728</ele>
        <time>2017-10-23T08:48:32Z</time>
      </trkpt>
      <trkpt lat="47.3665" lon="9.35278">
        <ele>727</ele>
        <time>2017-10-23T08:50:32Z</time>
      </trkpt>
      <trkpt lat="47.36627" lon="9.35295">
        <ele>727</ele>
        <time>2017-10-23T08:52:32Z</time>
      </trkpt>
      <trkpt lat="47.36609" lon="9.35308">
        <ele>726</ele>
        <time>2017-10-23T08:54:32Z</time>
      </trkpt>
      <trkpt lat="47.36591" lon="9.35322">
        <ele>725</ele>
        <time>2017-10-23T08:56:32Z</time>
      </trkpt>
      <trkpt lat="47.36516" lon="9.35378">
        <ele>726</ele>
        <time>2017-10-23T08:58:32Z</time>
      </trkpt>
      <trkpt lat="47.36503" lon="9.35389">
        <ele>726</ele>
        <time>2017-10-23T09:00:32Z</time>
      </trkpt>
      <trkpt lat="47.36493" lon="9.35396">
        <ele>726</ele>
        <time>2017-10-23T09:02:32Z</time>
      </trkpt>
      <trkpt lat="47.36485" lon="9.35403">
        <ele>726</ele>
        <time>2017-10-23T09:04:32Z</time>
      </trkpt>
      <trkpt lat="47.36474" lon="9.35411">
        <ele>726</ele>
        <time>2017-10-23T09:06:32Z</time>
      </trkpt>
      <trkpt lat="47.36464" lon="9.35419">
        <ele>727</ele>
        <time>2017-10-23T09:08:32Z</time>
      </trkpt>
      <trkpt lat="47.36453" lon="9.35429">
        <ele>727</ele>
        <time>2017-10-23T09:10:32Z</time>
      </trkpt>
      <trkpt lat="47.36436" lon="9.35446">
        <ele>728</ele>
        <time>2017-10-23T09:12:32Z</time>
      </trkpt>
      <trkpt lat="47.36416" lon="9.35472">
        <ele>729</ele>
        <time>2017-10-23T09:14:32Z</time>
      </trkpt>
      <trkpt lat="47.36402" lon="9.35493">
        <ele>733</ele>
        <time>2017-10-23T09:16:32Z</time>
      </trkpt>
      <trkpt lat="47.36395" lon="9.35508">
        <ele>735</ele>
        <time>2017-10-23T09:18:32Z</time>
      </trkpt>
      <trkpt lat="47.36391" lon="9.35518">
        <ele>735</ele>
        <time>2017-10-23T09:20:32Z</time>
      </trkpt>
      <trkpt lat="47.36386" lon="9.35532">
        <ele>736</ele>
        <time>2017-10-23T09:22:32Z</time>
      </trkpt>
      <trkpt lat="47.36381" lon="9.35558">
        <ele>735</ele>
        <time>2017-10-23T09:24:32Z</time>
      </trkpt>
      <trkpt lat="47.36375" lon="9.3558">
        <ele>734</ele>
        <time>2017-10-23T09:26:32Z</time>
      </trkpt>
      <trkpt lat="47.36371" lon="9.35595">
        <ele>734</ele>
        <time>2017-10-23T09:28:32Z</time>
      </trkpt>
      <trkpt lat="47.36365" lon="9.35611">
        <ele>734</ele>
        <time>2017-10-23T09:30:32Z</time>
      </trkpt>
      <trkpt lat="47.36358" lon="9.35626">
        <ele>734</ele>
        <time>2017-10-23T09:32:32Z</time>
      </trkpt>
      <trkpt lat="47.3635" lon="9.35638">
        <ele>734</ele>
        <time>2017-10-23T09:34:32Z</time>
      </trkpt>
      <trkpt lat="47.36343" lon="9.35646">
        <ele>734</ele>
        <time>2017-10-23T09:36:32Z</time>
      </trkpt>
      <trkpt lat="47.36334" lon="9.35654">
        <ele>735</ele>
        <time>2017-10-23T09:38:32Z</time>
      </trkpt>
      <trkpt lat="47.36323" lon="9.35661">
        <ele>734</ele>
        <time>2017-10-23T09:40:32Z</time>
      </trkpt>
      <trkpt lat="47.36313" lon="9.35663">
        <ele>733</ele>
        <time>2017-10-23T09:42:32Z</time>
      </trkpt>
      <trkpt lat="47.36302" lon="9.35664">
        <ele>733</ele>
        <time>2017-10-23T09:44:32Z</time>
      </trkpt>
      <trkpt lat="47.3629" lon="9.35661">
        <ele>733</ele>
        <time>2017-10-23T09:46:32Z</time>
      </trkpt>
      <trkpt lat="47.36255" lon="9.35653">
        <ele>734</ele>
        <time>2017-10-23T09:48:32Z</time>
      </trkpt>
      <trkpt lat="47.36204" lon="9.35638">
        <ele>735</ele>
        <time>2017-10-23T09:50:32Z</time>
      </trkpt>
      <trkpt lat="47.36191" lon="9.35635">
        <ele>735</ele>
        <time>2017-10-23T09:52:32Z</time>
      </trkpt>
      <trkpt lat="47.36178" lon="9.35631">
        <ele>735</ele>
        <time>2017-10-23T09:54:32Z</time>
      </trkpt>
      <trkpt lat="47.36168" lon="9.35626">
        <ele>735</ele>
        <time>2017-10-23T09:56:32Z</time>
      </trkpt>
      <trkpt lat="47.36156" lon="9.35616">
        <ele>735</ele>
        <time>2017-10-23T09:58:32Z</time>
      </trkpt>
      <trkpt lat="47.36138" lon="9.35599">
        <ele>735</ele>
        <time>2017-10-23T10:00:32Z</time>
      </trkpt>
      <trkpt lat="47.36065" lon="9.35524">
        <ele>734</ele>
        <time>2017-10-23T10:02:32Z</time>
      </trkpt>
      <trkpt lat="47.36065" lon="9.35524">
        <ele>734</ele>
        <time>2017-10-23T10:04:32Z</time>
      </trkpt>
      <trkpt lat="47.36066" lon="9.35548">
        <ele>732</ele>
        <time>2017-10-23T10:06:32Z</time>
      </trkpt>
      <trkpt lat="47.3607" lon="9.35592">
        <ele>728</ele>
        <time>2017-10-23T10:08:32Z</time>
      </trkpt>
      <trkpt lat="47.36079" lon="9.35668">
        <ele>723</ele>
        <time>2017-10-23T10:10:32Z</time>
      </trkpt>
      <trkpt lat="47.36088" lon="9.35758">
        <ele>720</ele>
        <time>2017-10-23T10:12:32Z</time>
      </trkpt>
      <trkpt lat="47.36098" lon="9.35841">
        <ele>717</ele>
        <time>2017-10-23T10:14:32Z</time>
      </trkpt>
      <trkpt lat="47.361" lon="9.35861">
        <ele>716</ele>
        <time>2017-10-23T10:16:32Z</time>
      </trkpt>
      <trkpt lat="47.36102" lon="9.35884">
        <ele>716</ele>
        <time>2017-10-23T10:18:32Z</time>
      </trkpt>
      <trkpt lat="47.36103" lon="9.35895">
        <ele>716</ele>
        <time>2017-10-23T10:20:32Z</time>
      </trkpt>
      <trkpt lat="47.36103" lon="9.35903">
        <ele>715</ele>
        <time>2017-10-23T10:22:32Z</time>
      </trkpt>
      <trkpt lat="47.36102" lon="9.35918">
        <ele>715</ele>
        <time>2017-10-23T10:24:32Z</time>
      </trkpt>
      <trkpt lat="47.361" lon="9.35928">
        <ele>715</ele>
        <time>2017-10-23T10:26:32Z</time>
      </trkpt>
      <trkpt lat="47.36098" lon="9.3594">
        <ele>714</ele>
        <time>2017-10-23T10:28:32Z</time>
      </trkpt>
      <trkpt lat="47.36098" lon="9.35952">
        <ele>713</ele>
        <time>2017-10-23T10:30:32Z</time>
      </trkpt>
      <trkpt lat="47.361" lon="9.35967">
        <ele>713</ele>
        <time>2017-10-23T10:32:32Z</time>
      </trkpt>
      <trkpt lat="47.36103" lon="9.35986">
        <ele>712</ele>
        <time>2017-10-23T10:34:32Z</time>
      </trkpt>
      <trkpt lat="47.36108" lon="9.36011">
        <ele>711</ele>
        <time>2017-10-23T10:36:32Z</time>
      </trkpt>
      <trkpt lat="47.36115" lon="9.36042">
        <ele>710</ele>
        <time>2017-10-23T10:38:32Z</time>
      </trkpt>
      <trkpt lat="47.36124" lon="9.36074">
        <ele>710</ele>
        <time>2017-10-23T10:40:32Z</time>
      </trkpt>
      <trkpt lat="47.3613" lon="9.36097">
        <ele>710</ele>
        <time>2017-10-23T10:42:32Z</time>
      </trkpt>
      <trkpt lat="47.36131" lon="9.36106">
        <ele>709</ele>
        <time>2017-10-23T10:44:32Z</time>
      </trkpt>
      <trkpt lat="47.36131" lon="9.36113">
        <ele>709</ele>
        <time>2017-10-23T10:46:32Z</time>
      </trkpt>
      <trkpt lat="47.36128" lon="9.36119">
        <ele>708</ele>
        <time>2017-10-23T10:48:32Z</time>
      </trkpt>
      <trkpt lat="47.36124" lon="9.36122">
        <ele>707</ele>
        <time>2017-10-23T10:50:32Z</time>
      </trkpt>
      <trkpt lat="47.3612" lon="9.36121">
        <ele>707</ele>
        <time>2017-10-23T10:52:32Z</time>
      </trkpt>
      <trkpt lat="47.36115" lon="9.36116">
        <ele>706</ele>
        <time>2017-10-23T10:54:32Z</time>
      </trkpt>
      <trkpt lat="47.36114" lon="9.3611">
        <ele>707</ele>
        <time>2017-10-23T10:56:32Z</time>
      </trkpt>
      <trkpt lat="47.36113" lon="9.36102">
        <ele>707</ele>
        <time>2017-10-23T10:58:32Z</time>
      </trkpt>
      <trkpt lat="47.36113" lon="9.36093">
        <ele>707</ele>
        <time>2017-10-23T11:00:32Z</time>
      </trkpt>
      <trkpt lat="47.36112" lon="9.36086">
        <ele>708</ele>
        <time>2017-10-23T11:02:32Z</time>
      </trkpt>
      <trkpt lat="47.3611" lon="9.3608">
        <ele>708</ele>
        <time>2017-10-23T11:04:32Z</time>
      </trkpt>
      <trkpt lat="47.36107" lon="9.36078">
        <ele>707</ele>
        <time>2017-10-23T11:06:32Z</time>
      </trkpt>
      <trkpt lat="47.36104" lon="9.36079">
        <ele>707</ele>
        <time>2017-10-23T11:08:32Z</time>
      </trkpt>
      <trkpt lat="47.36102" lon="9.36082">
        <ele>706</ele>
        <time>2017-10-23T11:10:32Z</time>
      </trkpt>
      <trkpt lat="47.36101" lon="9.3609">
        <ele>706</ele>
        <time>2017-10-23T11:12:32Z</time>
      </trkpt>
      <trkpt lat="47.36102" lon="9.36106">
        <ele>705</ele>
        <time>2017-10-23T11:14:32Z</time>
      </trkpt>
      <trkpt lat="47.36102" lon="9.36114">
        <ele>704</ele>
        <time>2017-10-23T11:16:32Z</time>
      </trkpt>
      <trkpt lat="47.36101" lon="9.36124">
        <ele>704</ele>
        <time>2017-10-23T11:18:32Z</time>
      </trkpt>
      <trkpt lat="47.361" lon="9.36133">
        <ele>703</ele>
        <time>2017-10-23T11:20:32Z</time>
      </trkpt>
      <trkpt lat="47.36097" lon="9.36143">
        <ele>702</ele>
        <time>2017-10-23T11:22:32Z</time>
      </trkpt>
      <trkpt lat="47.36095" lon="9.36152">
        <ele>701</ele>
        <time>2017-10-23T11:24:32Z</time>
      </trkpt>
      <trkpt lat="47.36093" lon="9.36163">
        <ele>700</ele>
        <time>2017-10-23T11:26:32Z</time>
      </trkpt>
      <trkpt lat="47.36093" lon="9.36172">
        <ele>700</ele>
        <time>2017-10-23T11:28:32Z</time>
      </trkpt>
      <trkpt lat="47.36094" lon="9.36182">
        <ele>700</ele>
        <time>2017-10-23T11:30:32Z</time>
      </trkpt>
      <trkpt lat="47.36098" lon="9.36199">
        <ele>699</ele>
        <time>2017-10-23T11:32:32Z</time>
      </trkpt>
      <trkpt lat="47.36104" lon="9.3622">
        <ele>699</ele>
        <time>2017-10-23T11:34:32Z</time>
      </trkpt>
      <trkpt lat="47.36116" lon="9.36247">
        <ele>698</ele>
        <time>2017-10-23T11:36:32Z</time>
      </trkpt>
      <trkpt lat="47.36125" lon="9.36266">
        <ele>699</ele>
        <time>2017-10-23T11:38:32Z</time>
      </trkpt>
      <trkpt lat="47.36132" lon="9.3628">
        <ele>699</ele>
        <time>2017-10-23T11:40:32Z</time>
      </trkpt>
      <trkpt lat="47.3614" lon="9.36293">
        <ele>700</ele>
        <time>2017-10-23T11:42:32Z</time>
      </trkpt>
      <trkpt lat="47.36148" lon="9.36302">
        <ele>701</ele>
        <time>2017-10-23T11:44:32Z</time>
      </trkpt>
      <trkpt lat="47.36155" lon="9.36312">
        <ele>701</ele>
        <time>2017-10-23T11:46:32Z</time>
      </trkpt>
      <trkpt lat="47.36163" lon="9.36324">
        <ele>702</ele>
        <time>2017-10-23T11:48:32Z</time>
      </trkpt>
      <trkpt lat="47.3617" lon="9.36341">
        <ele>703</ele>
        <time>2017-10-23T11:50:32Z</time>
      </trkpt>
      <trkpt lat="47.36176" lon="9.36362">
        <ele>704</ele>
        <time>2017-10-23T11:52:32Z</time>
      </trkpt>
      <trkpt lat="47.3618" lon="9.3638">
        <ele>705</ele>
        <time>2017-10-23T11:54:32Z</time>
      </trkpt>
      <trkpt lat="47.36185" lon="9.36399">
        <ele>707</ele>
        <time>2017-10-23T11:56:32Z</time>
      </trkpt>
      <trkpt lat="47.3619" lon="9.36409">
        <ele>707</ele>
        <time>2017-10-23T11:58:32Z</time>
      </trkpt>
      <trkpt lat="47.36197" lon="9.3642">
        <ele>709</ele>
        <time>2017-10-23T12:00:32Z</time>
      </trkpt>
      <trkpt lat="47.36213" lon="9.36438">
        <ele>712</ele>
        <time>2017-10-23T12:02:32Z</time>
      </trkpt>
      <trkpt lat="47.36225" lon="9.36451">
        <ele>714</ele>
        <time>2017-10-23T12:04:32Z</time>
      </trkpt>
      <trkpt lat="47.36236" lon="9.36465">
        <ele>715</ele>
        <time>2017-10-23T12:06:32Z</time>
      </trkpt>
      <trkpt lat="47.36245" lon="9.36479">
        <ele>716</ele>
        <time>2017-10-23T12:08:32Z</time>
      </trkpt>
      <trkpt lat="47.36258" lon="9.36509">
        <ele>718</ele>
        <time>2017-10-23T12:10:32Z</time>
      </trkpt>
      <trkpt lat="47.36272" lon="9.36536">
        <ele>720</ele>
        <time>2017-10-23T12:12:32Z</time>
      </trkpt>
      <trkpt lat="47.36286" lon="9.36567">
        <ele>723</ele>
        <time>2017-10-23T12:14:32Z</time>
      </trkpt>
      <trkpt lat="47.363" lon="9.36598">
        <ele>726</ele>
        <time>2017-10-23T12:16:32Z</time>
      </trkpt>
      <trkpt lat="47.36316" lon="9.36643">
        <ele>731</ele>
        <time>2017-10-23T12:18:32Z</time>
      </trkpt>
      <trkpt lat="47.36324" lon="9.36676">
        <ele>732</ele>
        <time>2017-10-23T12:20:32Z</time>
      </trkpt>
      <trkpt lat="47.36329" lon="9.36696">
        <ele>733</ele>
        <time>2017-10-23T12:22:32Z</time>
      </trkpt>
      <trkpt lat="47.36336" lon="9.36716">
        <ele>733</ele>
        <time>2017-10-23T12:24:32Z</time>
      </trkpt>
      <trkpt lat="47.36344" lon="9.36735">
        <ele>734</ele>
        <time>2017-10-23T12:26:32Z</time>
      </trkpt>
      <trkpt lat="47.36352" lon="9.36754">
        <ele>735</ele>
        <time>2017-10-23T12:28:32Z</time>
      </trkpt>
      <trkpt lat="47.36362" lon="9.36772">
        <ele>737</ele>
        <time>2017-10-23T12:30:32Z</time>
      </trkpt>
      <trkpt lat="47.36371" lon="9.36785">
        <ele>739</ele>
        <time>2017-10-23T12:32:32Z</time>
      </trkpt>
      <trkpt lat="47.36377" lon="9.36793">
        <ele>740</ele>
        <time>2017-10-23T12:34:32Z</time>
      </trkpt>
      <trkpt lat="47.36381" lon="9.36796">
        <ele>740</ele>
        <time>2017-10-23T12:36:32Z</time>
      </trkpt>
      <trkpt lat="47.36381" lon="9.36796">
        <ele>740</ele>
        <time>2017-10-23T12:38:32Z</time>
      </trkpt>
      <trkpt lat="47.36361" lon="9.36833">
        <ele>740</ele>
        <time>2017-10-23T12:40:32Z</time>
      </trkpt>
      <trkpt lat="47.36351" lon="9.36844">
        <ele>742</ele>
        <time>2017-10-23T12:42:32Z</time>
      </trkpt>
      <trkpt lat="47.36341" lon="9.36852">
        <ele>743</ele>
        <time>2017-10-23T12:44:32Z</time>
      </trkpt>
      <trkpt lat="47.36329" lon="9.36858">
        <ele>744</ele>
        <time>2017-10-23T12:46:32Z</time>
      </trkpt>
      <trkpt lat="47.36317" lon="9.36861">
        <ele>746</ele>
        <time>2017-10-23T12:48:32Z</time>
      </trkpt>
      <trkpt lat="47.36305" lon="9.36858">
        <ele>746</ele>
        <time>2017-10-23T12:50:32Z</time>
      </trkpt>
      <trkpt lat="47.36296" lon="9.36854">
        <ele>746</ele>
        <time>2017-10-23T12:52:32Z</time>
      </trkpt>
      <trkpt lat="47.3629" lon="9.36849">
        <ele>745</ele>
        <time>2017-10-23T12:54:32Z</time>
      </trkpt>
      <trkpt lat="47.36284" lon="9.36843">
        <ele>744</ele>
        <time>2017-10-23T12:56:32Z</time>
      </trkpt>
      <trkpt lat="47.36279" lon="9.36836">
        <ele>742</ele>
        <time>2017-10-23T12:58:32Z</time>
      </trkpt>
      <trkpt lat="47.36267" lon="9.36822">
        <ele>741</ele>
        <time>2017-10-23T13:00:32Z</time>
      </trkpt>
      <trkpt lat="47.36242" lon="9.3679">
        <ele>739</ele>
        <time>2017-10-23T13:02:32Z</time>
      </trkpt>
      <trkpt lat="47.3622" lon="9.36762">
        <ele>739</ele>
        <time>2017-10-23T13:04:32Z</time>
      </trkpt>
      <trkpt lat="47.36205" lon="9.36743">
        <ele>739</ele>
        <time>2017-10-23T13:06:32Z</time>
      </trkpt>
      <trkpt lat="47.36192" lon="9.36729">
        <ele>740</ele>
        <time>2017-10-23T13:08:32Z</time>
      </trkpt>
      <trkpt lat="47.36182" lon="9.36721">
        <ele>741</ele>
        <time>2017-10-23T13:10:32Z</time>
      </trkpt>
      <trkpt lat="47.3617" lon="9.36717">
        <ele>742</ele>
        <time>2017-10-23T13:12:32Z</time>
      </trkpt>
      <trkpt lat="47.36158" lon="9.36716">
        <ele>742</ele>
        <time>2017-10-23T13:14:32Z</time>
      </trkpt>
      <trkpt lat="47.36152" lon="9.36718">
        <ele>742</ele>
        <time>2017-10-23T13:16:32Z</time>
      </trkpt>
      <trkpt lat="47.36144" lon="9.36721">
        <ele>742</ele>
        <time>2017-10-23T13:18:32Z</time>
      </trkpt>
      <trkpt lat="47.36139" lon="9.36725">
        <ele>742</ele>
        <time>2017-10-23T13:20:32Z</time>
      </trkpt>
      <trkpt lat="47.36132" lon="9.36733">
        <ele>742</ele>
        <time>2017-10-23T13:22:32Z</time>
      </trkpt>
      <trkpt lat="47.36127" lon="9.36742">
        <ele>742</ele>
        <time>2017-10-23T13:24:32Z</time>
      </trkpt>
      <trkpt lat="47.36125" lon="9.36746">
        <ele>742</ele>
        <time>2017-10-23T13:26:32Z</time>
      </trkpt>
      <trkpt lat="47.36122" lon="9.36755">
        <ele>743</ele>
        <time>2017-10-23T13:28:32Z</time>
      </trkpt>
      <trkpt lat="47.36119" lon="9.36768">
        <ele>743</ele>
        <time>2017-10-23T13:30:32Z</time>
      </trkpt>
      <trkpt lat="47.36115" lon="9.36789">
        <ele>743</ele>
        <time>2017-10-23T13:32:32Z</time>
      </trkpt>
      <trkpt lat="47.36112" lon="9.36812">
        <ele>744</ele>
        <time>2017-10-23T13:34:32Z</time>
      </trkpt>
      <trkpt lat="47.36108" lon="9.36842">
        <ele>745</ele>
        <time>2017-10-23T13:36:32Z</time>
      </trkpt>
      <trkpt lat="47.36105" lon="9.36868">
        <ele>745</ele>
        <time>2017-10-23T13:38:32Z</time>
      </trkpt>
      <trkpt lat="47.36101" lon="9.36893">
        <ele>745</ele>
        <time>2017-10-23T13:40:32Z</time>
      </trkpt>
      <trkpt lat="47.36098" lon="9.36908">
        <ele>745</ele>
        <time>2017-10-23T13:42:32Z</time>
      </trkpt>
      <trkpt lat="47.36093" lon="9.36921">
        <ele>745</ele>
        <time>2017-10-23T13:44:32Z</time>
      </trkpt>
      <trkpt lat="47.36088" lon="9.3693">
        <ele>745</ele>
        <time>2017-10-23T13:46:32Z</time>
      </trkpt>
      <trkpt lat="47.36082" lon="9.36935">
        <ele>745</ele>
        <time>2017-10-23T13:48:32Z</time>
      </trkpt>
      <trkpt lat="47.36077" lon="9.36938">
        <ele>745</ele>
        <time>2017-10-23T13:50:32Z</time>
      </trkpt>
      <trkpt lat="47.36071" lon="9.36942">
        <ele>745</ele>
        <time>2017-10-23T13:52:32Z</time>
      </trkpt>
      <trkpt lat="47.3606" lon="9.36942">
        <ele>745</ele>
        <time>2017-10-23T13:54:32Z</time>
      </trkpt>
      <trkpt lat="47.36051" lon="9.3694">
        <ele>745</ele>
        <time>2017-10-23T13:56:32Z</time>
      </trkpt>
      <trkpt lat="47.36041" lon="9.36935">
        <ele>745</ele>
        <time>2017-10-23T13:58:32Z</time>
      </trkpt>
      <trkpt lat="47.3603" lon="9.36928">
        <ele>744</ele>
        <time>2017-10-23T14:00:32Z</time>
      </trkpt>
      <trkpt lat="47.36014" lon="9.36917">
        <ele>743</ele>
        <time>2017-10-23T14:02:32Z</time>
      </trkpt>
      <trkpt lat="47.36005" lon="9.3691">
        <ele>743</ele>
        <time>2017-10-23T14:04:32Z</time>
      </trkpt>
      <trkpt lat="47.3599" lon="9.36901">
        <ele>741</ele>
        <time>2017-10-23T14:06:32Z</time>
      </trkpt>
      <trkpt lat="47.35976" lon="9.36896">
        <ele>740</ele>
        <time>2017-10-23T14:08:32Z</time>
      </trkpt>
      <trkpt lat="47.35964" lon="9.36895">
        <ele>739</ele>
        <time>2017-10-23T14:10:32Z</time>
      </trkpt>
      <trkpt lat="47.35951" lon="9.36897">
        <ele>738</ele>
        <time>2017-10-23T14:12:32Z</time>
      </trkpt>
      <trkpt lat="47.35935" lon="9.36902">
        <ele>738</ele>
        <time>2017-10-23T14:14:32Z</time>
      </trkpt>
      <trkpt lat="47.35889" lon="9.3692">
        <ele>737</ele>
        <time>2017-10-23T14:16:32Z</time>
      </trkpt>
      <trkpt lat="47.35846" lon="9.36937">
        <ele>736</ele>
        <time>2017-10-23T14:18:32Z</time>
      </trkpt>
      <trkpt lat="47.35827" lon="9.36944">
        <ele>736</ele>
        <time>2017-10-23T14:20:32Z</time>
      </trkpt>
      <trkpt lat="47.35816" lon="9.36953">
        <ele>735</ele>
        <time>2017-10-23T14:22:32Z</time>
      </trkpt>
      <trkpt lat="47.35809" lon="9.3696">
        <ele>735</ele>
        <time>2017-10-23T14:24:32Z</time>
      </trkpt>
      <trkpt lat="47.35804" lon="9.36969">
        <ele>736</ele>
        <time>2017-10-23T14:26:32Z</time>
      </trkpt>
      <trkpt lat="47.35799" lon="9.36979">
        <ele>736</ele>
        <time>2017-10-23T14:28:32Z</time>
      </trkpt>
      <trkpt lat="47.35796" lon="9.36991">
        <ele>737</ele>
        <time>2017-10-23T14:30:32Z</time>
      </trkpt>
      <trkpt lat="47.35795" lon="9.37001">
        <ele>738</ele>
        <time>2017-10-23T14:32:32Z</time>
      </trkpt>
      <trkpt lat="47.35796" lon="9.37032">
        <ele>741</ele>
        <time>2017-10-23T14:34:32Z</time>
      </trkpt>
      <trkpt lat="47.35795" lon="9.37041">
        <ele>742</ele>
        <time>2017-10-23T14:36:32Z</time>
      </trkpt>
      <trkpt lat="47.35797" lon="9.37082">
        <ele>747</ele>
        <time>2017-10-23T14:38:32Z</time>
      </trkpt>
      <trkpt lat="47.35797" lon="9.37104">
        <ele>749</ele>
        <time>2017-10-23T14:40:32Z</time>
      </trkpt>
      <trkpt lat="47.35796" lon="9.37146">
        <ele>752</ele>
        <time>2017-10-23T14:42:32Z</time>
      </trkpt>
      <trkpt lat="47.35795" lon="9.37166">
        <ele>753</ele>
        <time>2017-10-23T14:44:32Z</time>
      </trkpt>
      <trkpt lat="47.35792" lon="9.37181">
        <ele>754</ele>
        <time>2017-10-23T14:46:32Z</time>
      </trkpt>
      <trkpt lat="47.35788" lon="9.37194">
        <ele>755</ele>
        <time>2017-10-23T14:48:32Z</time>
      </trkpt>
      <trkpt lat="47.35785" lon="9.37199">
        <ele>755</ele>
        <time>2017-10-23T14:50:32Z</time>
      </trkpt>
      <trkpt lat="47.35782" lon="9.37205">
        <ele>755</ele>
        <time>2017-10-23T14:52:32Z</time>
      </trkpt>
      <trkpt lat="47.35777" lon="9.37211">
        <ele>755</ele>
        <time>2017-10-23T14:54:32Z</time>
      </trkpt>
      <trkpt lat="47.35776" lon="9.37213">
        <ele>755</ele>
        <time>2017-10-23T14:56:32Z</time>
      </trkpt>
      <trkpt lat="47.35768" lon="9.37218">
        <ele>754</ele>
        <time>2017-10-23T14:58:32Z</time>
      </trkpt>
      <trkpt lat="47.3576" lon="9.37221">
        <ele>752</ele>
        <time>2017-10-23T15:00:32Z</time>
      </trkpt>
      <trkpt lat="47.35747" lon="9.37222">
        <ele>749</ele>
        <time>2017-10-23T15:02:32Z</time>
      </trkpt>
      <trkpt lat="47.35729" lon="9.37218">
        <ele>747</ele>
        <time>2017-10-23T15:04:32Z</time>
      </trkpt>
      <trkpt lat="47.35718" lon="9.37215">
        <ele>746</ele>
        <time>2017-10-23T15:06:32Z</time>
      </trkpt>
      <trkpt lat="47.35709" lon="9.37213">
        <ele>745</ele>
        <time>2017-10-23T15:08:32Z</time>
      </trkpt>
      <trkpt lat="47.35694" lon="9.3721">
        <ele>743</ele>
        <time>2017-10-23T15:10:32Z</time>
      </trkpt>
      <trkpt lat="47.3568" lon="9.37214">
        <ele>742</ele>
        <time>2017-10-23T15:12:32Z</time>
      </trkpt>
      <trkpt lat="47.3567" lon="9.37221">
        <ele>742</ele>
        <time>2017-10-23T15:14:32Z</time>
      </trkpt>
      <trkpt lat="47.35663" lon="9.37231">
        <ele>741</ele>
        <time>2017-10-23T15:16:32Z</time>
      </trkpt>
      <trkpt lat="47.35657" lon="9.37245">
        <ele>742</ele>
        <time>2017-10-23T15:18:32Z</time>
      </trkpt>
      <trkpt lat="47.35655" lon="9.37259">
        <ele>742</ele>
        <time>2017-10-23T15:20:32Z</time>
      </trkpt>
      <trkpt lat="47.35656" lon="9.37271">
        <ele>742</ele>
        <time>2017-10-23T15:22:32Z</time>
      </trkpt>
      <trkpt lat="47.35659" lon="9.37291">
        <ele>743</ele>
        <time>2017-10-23T15:24:32Z</time>
      </trkpt>
      <trkpt lat="47.35661" lon="9.373">
        <ele>743</ele>
        <time>2017-10-23T15:26:32Z</time>
      </trkpt>
      <trkpt lat="47.35666" lon="9.37322">
        <ele>745</ele>
        <time>2017-10-23T15:28:32Z</time>
      </trkpt>
      <trkpt lat="47.35673" lon="9.37353">
        <ele>747</ele>
        <time>2017-10-23T15:30:32Z</time>
      </trkpt>
      <trkpt lat="47.3568" lon="9.37383">
        <ele>749</ele>
        <time>2017-10-23T15:32:32Z</time>
      </trkpt>
      <trkpt lat="47.35683" lon="9.37406">
        <ele>750</ele>
        <time>2017-10-23T15:34:32Z</time>
      </trkpt>
      <trkpt lat="47.35683" lon="9.3742">
        <ele>751</ele>
        <time>2017-10-23T15:36:32Z</time>
      </trkpt>
      <trkpt lat="47.35681" lon="9.37435">
        <ele>752</ele>
        <time>2017-10-23T15:38:32Z</time>
      </trkpt>
      <trkpt lat="47.35678" lon="9.37447">
        <ele>753</ele>
        <time>2017-10-23T15:40:32Z</time>
      </trkpt>
      <trkpt lat="47.35671" lon="9.37465">
        <ele>753</ele>
        <time>2017-10-23T15:42:32Z</time>
      </trkpt>
      <trkpt lat="47.3566" lon="9.37484">
        <ele>753</ele>
        <time>2017-10-23T15:44:32Z</time>
      </trkpt>
      <trkpt lat="47.35638" lon="9.37518">
        <ele>754</ele>
        <time>2017-10-23T15:46:32Z</time>
      </trkpt>
      <trkpt lat="47.35564" lon="9.37633">
        <ele>752</ele>
        <time>2017-10-23T15:48:32Z</time>
      </trkpt>
      <trkpt lat="47.35543" lon="9.3767">
        <ele>753</ele>
        <time>2017-10-23T15:50:32Z</time>
      </trkpt>
      <trkpt lat="47.35501" lon="9.37738">
        <ele>753</ele>
        <time>2017-10-23T15:52:32Z</time>
      </trkpt>
      <trkpt lat="47.35489" lon="9.37758">
        <ele>753</ele>
        <time>2017-10-23T15:54:32Z</time>
      </trkpt>
      <trkpt lat="47.35459" lon="9.37807">
        <ele>753</ele>
        <time>2017-10-23T15:56:32Z</time>
      </trkpt>
      <trkpt lat="47.35451" lon="9.3782">
        <ele>753</ele>
        <time>2017-10-23T15:58:32Z</time>
      </trkpt>
      <trkpt lat="47.35426" lon="9.37862">
        <ele>751</ele>
        <time>2017-10-23T16:00:32Z</time>
      </trkpt>
      <trkpt lat="47.35389" lon="9.37924">
        <ele>753</ele>
        <time>2017-10-23T16:02:32Z</time>
      </trkpt>
      <trkpt lat="47.35368" lon="9.37958">
        <ele>753</ele>
        <time>2017-10-23T16:04:32Z</time>
      </trkpt>
      <trkpt lat="47.35355" lon="9.3798">
        <ele>753</ele>
        <time>2017-10-23T16:06:32Z</time>
      </trkpt>
      <trkpt lat="47.35337" lon="9.38008">
        <ele>753</ele>
        <time>2017-10-23T16:08:32Z</time>
      </trkpt>
      <trkpt lat="47.35324" lon="9.38025">
        <ele>754</ele>
        <time>2017-10-23T16:10:32Z</time>
      </trkpt>
      <trkpt lat="47.3531" lon="9.38039">
        <ele>754</ele>
        <time>2017-10-23T16:12:32Z</time>
      </trkpt>
      <trkpt lat="47.35299" lon="9.38048">
        <ele>755</ele>
        <time>2017-10-23T16:14:32Z</time>
      </trkpt>
      <trkpt lat="47.35288" lon="9.38055">
        <ele>755</ele>
        <time>2017-10-23T16:16:32Z</time>
      </trkpt>
      <trkpt lat="47.35266" lon="9.38067">
        <ele>755</ele>
        <time>2017-10-23T16:18:32Z</time>
      </trkpt>
      <trkpt lat="47.3523" lon="9.38085">
        <ele>755</ele>
        <time>2017-10-23T16:20:32Z</time>
      </trkpt>
      <trkpt lat="47.35198" lon="9.38102">
        <ele>757</ele>
        <time>2017-10-23T16:22:32Z</time>
      </trkpt>
      <trkpt lat="47.35192" lon="9.38104">
        <ele>757</ele>
        <time>2017-10-23T16:24:32Z</time>
      </trkpt>
      <trkpt lat="47.35179" lon="9.38112">
        <ele>757</ele>
        <time>2017-10-23T16:26:32Z</time>
      </trkpt>
      <trkpt lat="47.35162" lon="9.38127">
        <ele>757</ele>
        <time>2017-10-23T16:28:32Z</time>
      </trkpt>
      <trkpt lat="47.35153" lon="9.38141">
        <ele>758</ele>
        <time>2017-10-23T16:30:32Z</time>
      </trkpt>
      <trkpt lat="47.35148" lon="9.38158">
        <ele>758</ele>
        <time>2017-10-23T16:32:32Z</time>
      </trkpt>
      <trkpt lat="47.35147" lon="9.38176">
        <ele>759</ele>
        <time>2017-10-23T16:34:32Z</time>
      </trkpt>
      <trkpt lat="47.35148" lon="9.38199">
        <ele>760</ele>
        <time>2017-10-23T16:36:32Z</time>
      </trkpt>
      <trkpt lat="47.35149" lon="9.38207">
        <ele>760</ele>
        <time>2017-10-23T16:38:32Z</time>
      </trkpt>
      <trkpt lat="47.35152" lon="9.38229">
        <ele>761</ele>
        <time>2017-10-23T16:40:32Z</time>
      </trkpt>
      <trkpt lat="47.35158" lon="9.38275">
        <ele>763</ele>
        <time>2017-10-23T16:42:32Z</time>
      </trkpt>
      <trkpt lat="47.35165" lon="9.38325">
        <ele>765</ele>
        <time>2017-10-23T16:44:32Z</time>
      </trkpt>
      <trkpt lat="47.35173" lon="9.3838">
        <ele>768</ele>
        <time>2017-10-23T16:46:32Z</time>
      </trkpt>
      <trkpt lat="47.35181" lon="9.38444">
        <ele>770</ele>
        <time>2017-10-23T16:48:32Z</time>
      </trkpt>
      <trkpt lat="47.35188" lon="9.38496">
        <ele>771</ele>
        <time>2017-10-23T16:50:32Z</time>
      </trkpt>
      <trkpt lat="47.35193" lon="9.38537">
        <ele>771</ele>
        <time>2017-10-23T16:52:32Z</time>
      </trkpt>
      <trkpt lat="47.35198" lon="9.38578">
        <ele>772</ele>
        <time>2017-10-23T16:54:32Z</time>
      </trkpt>
      <trkpt lat="47.35203" lon="9.38622">
        <ele>772</ele>
        <time>2017-10-23T16:56:32Z</time>
      </trkpt>
      <trkpt lat="47.35206" lon="9.38652">
        <ele>772</ele>
        <time>2017-10-23T16:58:32Z</time>
      </trkpt>
      <trkpt lat="47.35207" lon="9.38676">
        <ele>773</ele>
        <time>2017-10-23T17:00:32Z</time>
      </trkpt>
      <trkpt lat="47.35208" lon="9.387">
        <ele>774</ele>
        <time>2017-10-23T17:02:32Z</time>
      </trkpt>
      <trkpt lat="47.35206" lon="9.38717">
        <ele>775</ele>
        <time>2017-10-23T17:04:32Z</time>
      </trkpt>
      <trkpt lat="47.35203" lon="9.38741">
        <ele>775</ele>
        <time>2017-10-23T17:06:32Z</time>
      </trkpt>
      <trkpt lat="47.35195" lon="9.38786">
        <ele>775</ele>
        <time>2017-10-23T17:08:32Z</time>
      </trkpt>
      <trkpt lat="47.35186" lon="9.3883">
        <ele>775</ele>
        <time>2017-10-23T17:10:32Z</time>
      </trkpt>
      <trkpt lat="47.35177" lon="9.38875">
        <ele>775</ele>
        <time>2017-10-23T17:12:32Z</time>
      </trkpt>
      <trkpt lat="47.35174" lon="9.38896">
        <ele>775</ele>
        <time>2017-10-23T17:14:32Z</time>
      </trkpt>
      <trkpt lat="47.35171" lon="9.38923">
        <ele>775</ele>
        <time>2017-10-23T17:16:32Z</time>
      </trkpt>
      <trkpt lat="47.35169" lon="9.38946">
        <ele>775</ele>
        <time>2017-10-23T17:18:32Z</time>
      </trkpt>
      <trkpt lat="47.35167" lon="9.3898">
        <ele>776</ele>
        <time>2017-10-23T17:20:32Z</time>
      </trkpt>
      <trkpt lat="47.35165" lon="9.39011">
        <ele>776</ele>
        <time>2017-10-23T17:22:32Z</time>
      </trkpt>
      <trkpt lat="47.35163" lon="9.39026">
        <ele>777</ele>
        <time>2017-10-23T17:24:32Z</time>
      </trkpt>
      <trkpt lat="47.3516" lon="9.3904">
        <ele>777</ele>
        <time>2017-10-23T17:26:32Z</time>
      </trkpt>
      <trkpt lat="47.35157" lon="9.39052">
        <ele>777</ele>
        <time>2017-10-23T17:28:32Z</time>
      </trkpt>
      <trkpt lat="47.35152" lon="9.39068">
        <ele>777</ele>
        <time>2017-10-23T17:30:32Z</time>
      </trkpt>
      <trkpt lat="47.35136" lon="9.39104">
        <ele>777</ele>
        <time>2017-10-23T17:32:32Z</time>
      </trkpt>
      <trkpt lat="47.35124" lon="9.3913">
        <ele>778</ele>
        <time>2017-10-23T17:34:32Z</time>
      </trkpt>
      <trkpt lat="47.35085" lon="9.39204">
        <ele>777</ele>
        <time>2017-10-23T17:36:32Z</time>
      </trkpt>
      <trkpt lat="47.35062" lon="9.3925">
        <ele>776</ele>
        <time>2017-10-23T17:38:32Z</time>
      </trkpt>
      <trkpt lat="47.35047" lon="9.39285">
        <ele>776</ele>
        <time>2017-10-23T17:40:32Z</time>
      </trkpt>
      <trkpt lat="47.35039" lon="9.39318">
        <ele>778</ele>
        <time>2017-10-23T17:42:32Z</time>
      </trkpt>
      <trkpt lat="47.35033" lon="9.3934">
        <ele>779</ele>
        <time>2017-10-23T17:44:32Z</time>
      </trkpt>
      <trkpt lat="47.35027" lon="9.39358">
        <ele>779</ele>
        <time>2017-10-23T17:46:32Z</time>
      </trkpt>
      <trkpt lat="47.3502" lon="9.39369">
        <ele>778</ele>
        <time>2017-10-23T17:48:32Z</time>
      </trkpt>
      <trkpt lat="47.35013" lon="9.39376">
        <ele>777</ele>
        <time>2017-10-23T17:50:32Z</time>
      </trkpt>
      <trkpt lat="47.35007" lon="9.39381">
        <ele>777</ele>
        <time>2017-10-23T17:52:32Z</time>
      </trkpt>
      <trkpt lat="47.34996" lon="9.39387">
        <ele>775</ele>
        <time>2017-10-23T17:54:32Z</time>
      </trkpt>
      <trkpt lat="47.34976" lon="9.39398">
        <ele>772</ele>
        <time>2017-10-23T17:56:32Z</time>
      </trkpt>
      <trkpt lat="47.34962" lon="9.39407">
        <ele>770</ele>
        <time>2017-10-23T17:58:32Z</time>
      </trkpt>
      <trkpt lat="47.34954" lon="9.39417">
        <ele>769</ele>
        <time>2017-10-23T18:00:32Z</time>
      </trkpt>
      <trkpt lat="47.34947" lon="9.39426">
        <ele>768</ele>
        <time>2017-10-23T18:02:32Z</time>
      </trkpt>
      <trkpt lat="47.34942" lon="9.3944">
        <ele>767</ele>
        <time>2017-10-23T18:04:32Z</time>
      </trkpt>
      <trkpt lat="47.34937" lon="9.39464">
        <ele>768</ele>
        <time>2017-10-23T18:06:32Z</time>
      </trkpt>
      <trkpt lat="47.34936" lon="9.39508">
        <ele>770</ele>
        <time>2017-10-23T18:08:32Z</time>
      </trkpt>
      <trkpt lat="47.34933" lon="9.39568">
        <ele>774</ele>
        <time>2017-10-23T18:10:32Z</time>
      </trkpt>
      <trkpt lat="47.34933" lon="9.39574">
        <ele>775</ele>
        <time>2017-10-23T18:12:32Z</time>
      </trkpt>
      <trkpt lat="47.34931" lon="9.39604">
        <ele>775</ele>
        <time>2017-10-23T18:14:32Z</time>
      </trkpt>
      <trkpt lat="47.3493" lon="9.39628">
        <ele>775</ele>
        <time>2017-10-23T18:16:32Z</time>
      </trkpt>
      <trkpt lat="47.34928" lon="9.39652">
        <ele>775</ele>
        <time>2017-10-23T18:18:32Z</time>
      </trkpt>
      <trkpt lat="47.34925" lon="9.39671">
        <ele>775</ele>
        <time>2017-10-23T18:20:32Z</time>
      </trkpt>
      <trkpt lat="47.34921" lon="9.39688">
        <ele>774</ele>
        <time>2017-10-23T18:22:32Z</time>
      </trkpt>
      <trkpt lat="47.34916" lon="9.39702">
        <ele>773</ele>
        <time>2017-10-23T18:24:32Z</time>
      </trkpt>
      <trkpt lat="47.34911" lon="9.39711">
        <ele>772</ele>
        <time>2017-10-23T18:26:32Z</time>
      </trkpt>
      <trkpt lat="47.34905" lon="9.39721">
        <ele>772</ele>
        <time>2017-10-23T18:28:32Z</time>
      </trkpt>
      <trkpt lat="47.34886" lon="9.3974">
        <ele>771</ele>
        <time>2017-10-23T18:30:32Z</time>
      </trkpt>
      <trkpt lat="47.34851" lon="9.39765">
        <ele>772</ele>
        <time>2017-10-23T18:32:32Z</time>
      </trkpt>
      <trkpt lat="47.34817" lon="9.3979">
        <ele>772</ele>
        <time>2017-10-23T18:34:32Z</time>
      </trkpt>
      <trkpt lat="47.34797" lon="9.39806">
        <ele>771</ele>
        <time>2017-10-23T18:36:32Z</time>
      </trkpt>
      <trkpt lat="47.34785" lon="9.39821">
        <ele>770</ele>
        <time>2017-10-23T18:38:32Z</time>
      </trkpt>
      <trkpt lat="47.34777" lon="9.39836">
        <ele>771</ele>
        <time>2017-10-23T18:40:32Z</time>
      </trkpt>
      <trkpt lat="47.34768" lon="9.39855">
        <ele>771</ele>
        <time>2017-10-23T18:42:32Z</time>
      </trkpt>
      <trkpt lat="47.34761" lon="9.39882">
        <ele>773</ele>
        <time>2017-10-23T18:44:32Z</time>
      </trkpt>
      <trkpt lat="47.34754" lon="9.39903">
        <ele>774</ele>
        <time>2017-10-23T18:46:32Z</time>
      </trkpt>
      <trkpt lat="47.34746" lon="9.39919">
        <ele>774</ele>
        <time>2017-10-23T18:48:32Z</time>
      </trkpt>
      <trkpt lat="47.34736" lon="9.39931">
        <ele>775</ele>
        <time>2017-10-23T18:50:32Z</time>
      </trkpt>
      <trkpt lat="47.34721" lon="9.3994">
        <ele>774</ele>
        <time>2017-10-23T18:52:32Z</time>
      </trkpt>
      <trkpt lat="47.34705" lon="9.39945">
        <ele>774</ele>
        <time>2017-10-23T18:54:32Z</time>
      </trkpt>
      <trkpt lat="47.34689" lon="9.39952">
        <ele>773</ele>
        <time>2017-10-23T18:56:32Z</time>
      </trkpt>
      <trkpt lat="47.34675" lon="9.39962">
        <ele>773</ele>
        <time>2017-10-23T18:58:32Z</time>
      </trkpt>
      <trkpt lat="47.34664" lon="9.39983">
        <ele>774</ele>
        <time>2017-10-23T19:00:32Z</time>
      </trkpt>
      <trkpt lat="47.34656" lon="9.4001">
        <ele>775</ele>
        <time>2017-10-23T19:02:32Z</time>
      </trkpt>
      <trkpt lat="47.3465" lon="9.40046">
        <ele>777</ele>
        <time>2017-10-23T19:04:32Z</time>
      </trkpt>
      <trkpt lat="47.34645" lon="9.40074">
        <ele>779</ele>
        <time>2017-10-23T19:06:32Z</time>
      </trkpt>
      <trkpt lat="47.34639" lon="9.40102">
        <ele>781</ele>
        <time>2017-10-23T19:08:32Z</time>
      </trkpt>
      <trkpt lat="47.34637" lon="9.40108">
        <ele>782</ele>
        <time>2017-10-23T19:10:32Z</time>
      </trkpt>
      <trkpt lat="47.34634" lon="9.4012">
        <ele>783</ele>
        <time>2017-10-23T19:12:32Z</time>
      </trkpt>
      <trkpt lat="47.34624" lon="9.40139">
        <ele>786</ele>
        <time>2017-10-23T19:14:32Z</time>
      </trkpt>
      <trkpt lat="47.34616" lon="9.40148">
        <ele>787</ele>
        <time>2017-10-23T19:16:32Z</time>
      </trkpt>
      <trkpt lat="47.34611" lon="9.40153">
        <ele>788</ele>
        <time>2017-10-23T19:18:32Z</time>
      </trkpt>
      <trkpt lat="47.34602" lon="9.40159">
        <ele>790</ele>
        <time>2017-10-23T19:20:32Z</time>
      </trkpt>
      <trkpt lat="47.34591" lon="9.40163">
        <ele>792</ele>
        <time>2017-10-23T19:22:32Z</time>
      </trkpt>
      <trkpt lat="47.34584" lon="9.40164">
        <ele>792</ele>
        <time>2017-10-23T19:24:32Z</time>
      </trkpt>
      <trkpt lat="47.34576" lon="9.40164">
        <ele>793</ele>
        <time>2017-10-23T19:26:32Z</time>
      </trkpt>
      <trkpt lat="47.34574" lon="9.40164">
        <ele>794</ele>
        <time>2017-10-23T19:28:32Z</time>
      </trkpt>
      <trkpt lat="47.34549" lon="9.40161">
        <ele>796</ele>
        <time>2017-10-23T19:30:32Z</time>
      </trkpt>
      <trkpt lat="47.34513" lon="9.40155">
        <ele>799</ele>
        <time>2017-10-23T19:32:32Z</time>
      </trkpt>
      <trkpt lat="47.34491" lon="9.40144">
        <ele>797</ele>
        <time>2017-10-23T19:34:32Z</time>
      </trkpt>
      <trkpt lat="47.34462" lon="9.40127">
        <ele>792</ele>
        <time>2017-10-23T19:36:32Z</time>
      </trkpt>
      <trkpt lat="47.34425" lon="9.40106">
        <ele>788</ele>
        <time>2017-10-23T19:38:32Z</time>
      </trkpt>
      <trkpt lat="47.34397" lon="9.4009">
        <ele>785</ele>
        <time>2017-10-23T19:40:32Z</time>
      </trkpt>
      <trkpt lat="47.34384" lon="9.40084">
        <ele>783</ele>
        <time>2017-10-23T19:42:32Z</time>
      </trkpt>
      <trkpt lat="47.34376" lon="9.40081">
        <ele>782</ele>
        <time>2017-10-23T19:44:32Z</time>
      </trkpt>
      <trkpt lat="47.34351" lon="9.40079">
        <ele>782</ele>
        <time>2017-10-23T19:46:32Z</time>
      </trkpt>
      <trkpt lat="47.3433" lon="9.40076">
        <ele>782</ele>
        <time>2017-10-23T19:48:32Z</time>
      </trkpt>
      <trkpt lat="47.34322" lon="9.40073">
        <ele>783</ele>
        <time>2017-10-23T19:50:32Z</time>
      </trkpt>
      <trkpt lat="47.34315" lon="9.40069">
        <ele>783</ele>
        <time>2017-10-23T19:52:32Z</time>
      </trkpt>
      <trkpt lat="47.34305" lon="9.40062">
        <ele>783</ele>
        <time>2017-10-23T19:54:32Z</time>
      </trkpt>
      <trkpt lat="47.34297" lon="9.40054">
        <ele>783</ele>
        <time>2017-10-23T19:56:32Z</time>
      </trkpt>
      <trkpt lat="47.34292" lon="9.40047">
        <ele>783</ele>
        <time>2017-10-23T19:58:32Z</time>
      </trkpt>
      <trkpt lat="47.34276" lon="9.40025">
        <ele>782</ele>
        <time>2017-10-23T20:00:32Z</time>
      </trkpt>
      <trkpt lat="47.34261" lon="9.40003">
        <ele>782</ele>
        <time>2017-10-23T20:02:32Z</time>
      </trkpt>
      <trkpt lat="47.34241" lon="9.39972">
        <ele>781</ele>
        <time>2017-10-23T20:04:32Z</time>
      </trkpt>
      <trkpt lat="47.3423" lon="9.39957">
        <ele>781</ele>
        <time>2017-10-23T20:06:32Z</time>
      </trkpt>
      <trkpt lat="47.34215" lon="9.39945">
        <ele>781</ele>
        <time>2017-10-23T20:08:32Z</time>
      </trkpt>
      <trkpt lat="47.34209" lon="9.39941">
        <ele>781</ele>
        <time>2017-10-23T20:10:32Z</time>
      </trkpt>
      <trkpt lat="47.34203" lon="9.39939">
        <ele>782</ele>
        <time>2017-10-23T20:12:32Z</time>
      </trkpt>
      <trkpt lat="47.34195" lon="9.39937">
        <ele>782</ele>
        <time>2017-10-23T20:14:32Z</time>
      </trkpt>
      <trkpt lat="47.34188" lon="9.39937">
        <ele>783</ele>
        <time>2017-10-23T20:16:32Z</time>
      </trkpt>
      <trkpt lat="47.34181" lon="9.39939">
        <ele>783</ele>
        <time>2017-10-23T20:18:32Z</time>
      </trkpt>
      <trkpt lat="47.34173" lon="9.39942">
        <ele>784</ele>
        <time>2017-10-23T20:20:32Z</time>
      </trkpt>
      <trkpt lat="47.34168" lon="9.39945">
        <ele>785</ele>
        <time>2017-10-23T20:22:32Z</time>
      </trkpt>
      <trkpt lat="47.34159" lon="9.39952">
        <ele>785</ele>
        <time>2017-10-23T20:24:32Z</time>
      </trkpt>
      <trkpt lat="47.34151" lon="9.39959">
        <ele>785</ele>
        <time>2017-10-23T20:26:32Z</time>
      </trkpt>
      <trkpt lat="47.34144" lon="9.39967">
        <ele>785</ele>
        <time>2017-10-23T20:28:32Z</time>
      </trkpt>
      <trkpt lat="47.34098" lon="9.40023">
        <ele>785</ele>
        <time>2017-10-23T20:30:32Z</time>
      </trkpt>
      <trkpt lat="47.34056" lon="9.40075">
        <ele>781</ele>
        <time>2017-10-23T20:32:32Z</time>
      </trkpt>
      <trkpt lat="47.34034" lon="9.40102">
        <ele>779</ele>
        <time>2017-10-23T20:34:32Z</time>
      </trkpt>
      <trkpt lat="47.34013" lon="9.40132">
        <ele>778</ele>
        <time>2017-10-23T20:36:32Z</time>
      </trkpt>
      <trkpt lat="47.33993" lon="9.40171">
        <ele>776</ele>
        <time>2017-10-23T20:38:32Z</time>
      </trkpt>
      <trkpt lat="47.33984" lon="9.4019">
        <ele>775</ele>
        <time>2017-10-23T20:40:32Z</time>
      </trkpt>
      <trkpt lat="47.33972" lon="9.40211">
        <ele>773</ele>
        <time>2017-10-23T20:42:32Z</time>
      </trkpt>
      <trkpt lat="47.33962" lon="9.40225">
        <ele>772</ele>
        <time>2017-10-23T20:44:32Z</time>
      </trkpt>
      <trkpt lat="47.33948" lon="9.40241">
        <ele>770</ele>
        <time>2017-10-23T20:46:32Z</time>
      </trkpt>
      <trkpt lat="47.33936" lon="9.40253">
        <ele>769</ele>
        <time>2017-10-23T20:48:32Z</time>
      </trkpt>
      <trkpt lat="47.33926" lon="9.4026">
        <ele>768</ele>
        <time>2017-10-23T20:50:32Z</time>
      </trkpt>
      <trkpt lat="47.33913" lon="9.40269">
        <ele>768</ele>
        <time>2017-10-23T20:52:32Z</time>
      </trkpt>
      <trkpt lat="47.3389" lon="9.40285">
        <ele>768</ele>
        <time>2017-10-23T20:54:32Z</time>
      </trkpt>
      <trkpt lat="47.33876" lon="9.40295">
        <ele>768</ele>
        <time>2017-10-23T20:56:32Z</time>
      </trkpt>
      <trkpt lat="47.3385" lon="9.40316">
        <ele>769</ele>
        <time>2017-10-23T20:58:32Z</time>
      </trkpt>
      <trkpt lat="47.33829" lon="9.40337">
        <ele>769</ele>
        <time>2017-10-23T21:00:32Z</time>
      </trkpt>
      <trkpt lat="47.33809" lon="9.40356">
        <ele>768</ele>
        <time>2017-10-23T21:02:32Z</time>
      </trkpt>
      <trkpt lat="47.33784" lon="9.40382">
        <ele>767</ele>
        <time>2017-10-23T21:04:32Z</time>
      </trkpt>
      <trkpt lat="47.3376" lon="9.40409">
        <ele>765</ele>
        <time>2017-10-23T21:06:32Z</time>
      </trkpt>
      <trkpt lat="47.33735" lon="9.40436">
        <ele>765</ele>
        <time>2017-10-23T21:08:32Z</time>
      </trkpt>
      <trkpt lat="47.337" lon="9.40471">
        <ele>764</ele>
        <time>2017-10-23T21:10:32Z</time>
      </trkpt>
      <trkpt lat="47.33677" lon="9.40491">
        <ele>764</ele>
        <time>2017-10-23T21:12:32Z</time>
      </trkpt>
      <trkpt lat="47.33639" lon="9.40525">
        <ele>764</ele>
        <time>2017-10-23T21:14:32Z</time>
      </trkpt>
      <trkpt lat="47.33625" lon="9.40537">
        <ele>764</ele>
        <time>2017-10-23T21:16:32Z</time>
      </trkpt>
      <trkpt lat="47.33594" lon="9.40566">
        <ele>764</ele>
        <time>2017-10-23T21:18:32Z</time>
      </trkpt>
      <trkpt lat="47.3358" lon="9.4058">
        <ele>763</ele>
        <time>2017-10-23T21:20:32Z</time>
      </trkpt>
      <trkpt lat="47.33569" lon="9.4059">
        <ele>763</ele>
        <time>2017-10-23T21:22:32Z</time>
      </trkpt>
      <trkpt lat="47.33557" lon="9.40598">
        <ele>763</ele>
        <time>2017-10-23T21:24:32Z</time>
      </trkpt>
      <trkpt lat="47.33548" lon="9.40604">
        <ele>764</ele>
        <time>2017-10-23T21:26:32Z</time>
      </trkpt>
      <trkpt lat="47.33538" lon="9.4061">
        <ele>764</ele>
        <time>2017-10-23T21:28:32Z</time>
      </trkpt>
      <trkpt lat="47.33529" lon="9.40616">
        <ele>764</ele>
        <time>2017-10-23T21:30:32Z</time>
      </trkpt>
      <trkpt lat="47.33518" lon="9.40623">
        <ele>764</ele>
        <time>2017-10-23T21:32:32Z</time>
      </trkpt>
      <trkpt lat="47.33511" lon="9.40628">
        <ele>765</ele>
        <time>2017-10-23T21:34:32Z</time>
      </trkpt>
      <trkpt lat="47.33508" lon="9.40628">
        <ele>765</ele>
        <time>2017-10-23T21:36:32Z</time>
      </trkpt>
      <trkpt lat="47.335" lon="9.40634">
        <ele>765</ele>
        <time>2017-10-23T21:38:32Z</time>
      </trkpt>
      <trkpt lat="47.335" lon="9.40634">
        <ele>765</ele>
        <time>2017-10-23T21:40:32Z</time>
      </trkpt>
      <trkpt lat="47.33499" lon="9.40633">
        <ele>765</ele>
        <time>2017-10-23T21:42:32Z</time>
      </trkpt>
      <trkpt lat="47.33498" lon="9.40632">
        <ele>765</ele>
        <time>2017-10-23T21:44:32Z</time>
      </trkpt>
      <trkpt lat="47.33496" lon="9.40632">
        <ele>765</ele>
        <time>2017-10-23T21:46:32Z</time>
      </trkpt>
      <trkpt lat="47.33494" lon="9.40632">
        <ele>765</ele>
        <time>2017-10-23T21:48:32Z</time>
      </trkpt>
      <trkpt lat="47.33493" lon="9.40632">
        <ele>765</ele>
        <time>2017-10-23T21:50:32Z</time>
      </trkpt>
      <trkpt lat="47.33491" lon="9.40632">
        <ele>765</ele>
        <time>2017-10-23T21:52:32Z</time>
      </trkpt>
      <trkpt lat="47.3349" lon="9.40633">
        <ele>765</ele>
        <time>2017-10-23T21:54:32Z</time>
      </trkpt>
      <trkpt lat="47.33489" lon="9.40634">
        <ele>765</ele>
        <time>2017-10-23T21:56:32Z</time>
      </trkpt>
      <trkpt lat="47.33488" lon="9.40634">
        <ele>765</ele>
        <time>2017-10-23T21:58:32Z</time>
      </trkpt>
      <trkpt lat="47.33486" lon="9.40636">
        <ele>765</ele>
        <time>2017-10-23T22:00:32Z</time>
      </trkpt>
      <trkpt lat="47.33485" lon="9.40639">
        <ele>765</ele>
        <time>2017-10-23T22:02:32Z</time>
      </trkpt>
      <trkpt lat="47.33484" lon="9.40641">
        <ele>765</ele>
        <time>2017-10-23T22:04:32Z</time>
      </trkpt>
      <trkpt lat="47.33484" lon="9.40643">
        <ele>765</ele>
        <time>2017-10-23T22:06:32Z</time>
      </trkpt>
      <trkpt lat="47.33484" lon="9.40646">
        <ele>765</ele>
        <time>2017-10-23T22:08:32Z</time>
      </trkpt>
      <trkpt lat="47.33484" lon="9.40648">
        <ele>766</ele>
        <time>2017-10-23T22:10:32Z</time>
      </trkpt>
      <trkpt lat="47.33484" lon="9.4065">
        <ele>766</ele>
        <time>2017-10-23T22:12:32Z</time>
      </trkpt>
      <trkpt lat="47.33485" lon="9.40654">
        <ele>766</ele>
        <time>2017-10-23T22:14:32Z</time>
      </trkpt>
      <trkpt lat="47.33487" lon="9.40657">
        <ele>766</ele>
        <time>2017-10-23T22:16:32Z</time>
      </trkpt>
      <trkpt lat="47.33488" lon="9.40658">
        <ele>766</ele>
        <time>2017-10-23T22:18:32Z</time>
      </trkpt>
      <trkpt lat="47.3349" lon="9.40659">
        <ele>766</ele>
        <time>2017-10-23T22:20:32Z</time>
      </trkpt>
      <trkpt lat="47.33493" lon="9.40659">
        <ele>766</ele>
        <time>2017-10-23T22:22:32Z</time>
      </trkpt>
      <trkpt lat="47.33497" lon="9.40674">
        <ele>766</ele>
        <time>2017-10-23T22:24:32Z</time>
      </trkpt>
      <trkpt lat="47.33501" lon="9.4069">
        <ele>766</ele>
        <time>2017-10-23T22:26:32Z</time>
      </trkpt>
      <trkpt lat="47.33506" lon="9.40699">
        <ele>766</ele>
        <time>2017-10-23T22:28:32Z</time>
      </trkpt>
      <trkpt lat="47.3352" lon="9.40762">
        <ele>766</ele>
        <time>2017-10-23T22:30:32Z</time>
      </trkpt>
      <trkpt lat="47.33525" lon="9.4079">
        <ele>767</ele>
        <time>2017-10-23T22:32:32Z</time>
      </trkpt>
      <trkpt lat="47.33527" lon="9.40797">
        <ele>767</ele>
        <time>2017-10-23T22:34:32Z</time>
      </trkpt>
      <trkpt lat="47.33533" lon="9.40831">
        <ele>767</ele>
        <time>2017-10-23T22:36:32Z</time>
      </trkpt>
      <trkpt lat="47.33536" lon="9.40864">
        <ele>768</ele>
        <time>2017-10-23T22:38:32Z</time>
      </trkpt>
      <trkpt lat="47.33537" lon="9.409">
        <ele>769</ele>
        <time>2017-10-23T22:40:32Z</time>
      </trkpt>
      <trkpt lat="47.33535" lon="9.40929">
        <ele>770</ele>
        <time>2017-10-23T22:42:32Z</time>
      </trkpt>
      <trkpt lat="47.33531" lon="9.40955">
        <ele>771</ele>
        <time>2017-10-23T22:44:32Z</time>
      </trkpt>
      <trkpt lat="47.33523" lon="9.4099">
        <ele>773</ele>
        <time>2017-10-23T22:46:32Z</time>
      </trkpt>
      <trkpt lat="47.33517" lon="9.41008">
        <ele>773</ele>
        <time>2017-10-23T22:48:32Z</time>
      </trkpt>
      <trkpt lat="47.33514" lon="9.41017">
        <ele>773</ele>
        <time>2017-10-23T22:50:32Z</time>
      </trkpt>
      <trkpt lat="47.33504" lon="9.41042">
        <ele>773</ele>
        <time>2017-10-23T22:52:32Z</time>
      </trkpt>
      <trkpt lat="47.33493" lon="9.41064">
        <ele>773</ele>
        <time>2017-10-23T22:54:32Z</time>
      </trkpt>
      <trkpt lat="47.33481" lon="9.41083">
        <ele>773</ele>
        <time>2017-10-23T22:56:32Z</time>
      </trkpt>
      <trkpt lat="47.33462" lon="9.41112">
        <ele>774</ele>
        <time>2017-10-23T22:58:32Z</time>
      </trkpt>
      <trkpt lat="47.33459" lon="9.41117">
        <ele>774</ele>
        <time>2017-10-23T23:00:32Z</time>
      </trkpt>
      <trkpt lat="47.3345" lon="9.41133">
        <ele>774</ele>
        <time>2017-10-23T23:02:32Z</time>
      </trkpt>
      <trkpt lat="47.33444" lon="9.41142">
        <ele>774</ele>
        <time>2017-10-23T23:04:32Z</time>
      </trkpt>
      <trkpt lat="47.33432" lon="9.41162">
        <ele>774</ele>
        <time>2017-10-23T23:06:32Z</time>
      </trkpt>
      <trkpt lat="47.33428" lon="9.41168">
        <ele>773</ele>
        <time>2017-10-23T23:08:32Z</time>
      </trkpt>
      <trkpt lat="47.33419" lon="9.41187">
        <ele>773</ele>
        <time>2017-10-23T23:10:32Z</time>
      </trkpt>
      <trkpt lat="47.33419" lon="9.41187">
        <ele>773</ele>
        <time>2017-10-23T23:12:32Z</time>
      </trkpt>
      <trkpt lat="47.33403" lon="9.41171">
        <ele>773</ele>
        <time>2017-10-23T23:14:32Z</time>
      </trkpt>
      <trkpt lat="47.3339" lon="9.41161">
        <ele>773</ele>
        <time>2017-10-23T23:16:32Z</time>
      </trkpt>
      <trkpt lat="47.3338" lon="9.41154">
        <ele>773</ele>
        <time>2017-10-23T23:18:32Z</time>
      </trkpt>
      <trkpt lat="47.33375" lon="9.41152">
        <ele>774</ele>
        <time>2017-10-23T23:20:32Z</time>
      </trkpt>
      <trkpt lat="47.33336" lon="9.41144">
        <ele>775</ele>
        <time>2017-10-23T23:22:32Z</time>
      </trkpt>
      <trkpt lat="47.33317" lon="9.4114">
        <ele>775</ele>
        <time>2017-10-23T23:24:32Z</time>
      </trkpt>
      <trkpt lat="47.33286" lon="9.41115">
        <ele>775</ele>
        <time>2017-10-23T23:26:32Z</time>
      </trkpt>
      <trkpt lat="47.3326" lon="9.41091">
        <ele>774</ele>
        <time>2017-10-23T23:28:32Z</time>
      </trkpt>
      <trkpt lat="47.33238" lon="9.41077">
        <ele>774</ele>
        <time>2017-10-23T23:30:32Z</time>
      </trkpt>
      <trkpt lat="47.33214" lon="9.41065">
        <ele>774</ele>
        <time>2017-10-23T23:32:32Z</time>
      </trkpt>
      <trkpt lat="47.33197" lon="9.41062">
        <ele>774</ele>
        <time>2017-10-23T23:34:32Z</time>
      </trkpt>
      <trkpt lat="47.33179" lon="9.41067">
        <ele>774</ele>
        <time>2017-10-23T23:36:32Z</time>
      </trkpt>
      <trkpt lat="47.33142" lon="9.41081">
        <ele>776</ele>
        <time>2017-10-23T23:38:32Z</time>
      </trkpt>
      <trkpt lat="47.33133" lon="9.41087">
        <ele>776</ele>
        <time>2017-10-23T23:40:32Z</time>
      </trkpt>
      <trkpt lat="47.33124" lon="9.41097">
        <ele>777</ele>
        <time>2017-10-23T23:42:32Z</time>
      </trkpt>
      <trkpt lat="47.33119" lon="9.41107">
        <ele>777</ele>
        <time>2017-10-23T23:44:32Z</time>
      </trkpt>
      <trkpt lat="47.33116" lon="9.41116">
        <ele>777</ele>
        <time>2017-10-23T23:46:32Z</time>
      </trkpt>
      <trkpt lat="47.33112" lon="9.41132">
        <ele>777</ele>
        <time>2017-10-23T23:48:32Z</time>
      </trkpt>
      <trkpt lat="47.33112" lon="9.41132">
        <ele>777</ele>
        <time>2017-10-23T23:50:32Z</time>
      </trkpt>
      <trkpt lat="47.331" lon="9.4117">
        <ele>777</ele>
        <time>2017-10-23T23:52:32Z</time>
      </trkpt>
      <trkpt lat="47.33094" lon="9.41206">
        <ele>777</ele>
        <time>2017-10-23T23:54:32Z</time>
      </trkpt>
      <trkpt lat="47.3309" lon="9.41223">
        <ele>777</ele>
        <time>2017-10-23T23:56:32Z</time>
      </trkpt>
      <trkpt lat="47.33087" lon="9.41236">
        <ele>776</ele>
        <time>2017-10-23T23:58:32Z</time>
      </trkpt>
      <trkpt lat="47.33086" lon="9.41241">
        <ele>776</ele>
        <time>2017-10-24T00:00:32Z</time>
      </trkpt>
      <trkpt lat="47.33084" lon="9.41246">
        <ele>776</ele>
        <time>2017-10-24T00:02:32Z</time>
      </trkpt>
      <trkpt lat="47.3308" lon="9.41255">
        <ele>776</ele>
        <time>2017-10-24T00:04:32Z</time>
      </trkpt>
      <trkpt lat="47.33042" lon="9.41315">
        <ele>776</ele>
        <time>2017-10-24T00:06:32Z</time>
      </trkpt>
      <trkpt lat="47.33015" lon="9.41344">
        <ele>775</ele>
        <time>2017-10-24T00:08:32Z</time>
      </trkpt>
      <trkpt lat="47.33004" lon="9.41356">
        <ele>776</ele>
        <time>2017-10-24T00:10:32Z</time>
      </trkpt>
      <trkpt lat="47.32997" lon="9.41365">
        <ele>776</ele>
        <time>2017-10-24T00:12:32Z</time>
      </trkpt>
      <trkpt lat="47.32993" lon="9.41372">
        <ele>776</ele>
        <time>2017-10-24T00:14:32Z</time>
      </trkpt>
      <trkpt lat="47.32989" lon="9.4138">
        <ele>777</ele>
        <time>2017-10-24T00:16:32Z</time>
      </trkpt>
      <trkpt lat="47.32983" lon="9.41393">
        <ele>777</ele>
        <time>2017-10-24T00:18:32Z</time>
      </trkpt>
      <trkpt lat="47.32976" lon="9.41409">
        <ele>778</ele>
        <time>2017-10-24T00:20:32Z</time>
      </trkpt>
      <trkpt lat="47.32969" lon="9.41426">
        <ele>778</ele>
        <time>2017-10-24T00:22:32Z</time>
      </trkpt>
      <trkpt lat="47.32964" lon="9.41441">
        <ele>778</ele>
        <time>2017-10-24T00:24:32Z</time>
      </trkpt>
      <trkpt lat="47.3296" lon="9.41456">
        <ele>778</ele>
        <time>2017-10-24T00:26:32Z</time>
      </trkpt>
      <trkpt lat="47.32957" lon="9.41474">
        <ele>777</ele>
        <time>2017-10-24T00:28:32Z</time>
      </trkpt>
      <trkpt lat="47.32954" lon="9.41498">
        <ele>777</ele>
        <time>2017-10-24T00:30:32Z</time>
      </trkpt>
      <trkpt lat="47.32947" lon="9.41567">
        <ele>777</ele>
        <time>2017-10-24T00:32:32Z</time>
      </trkpt>
      <trkpt lat="47.32947" lon="9.41567">
        <ele>777</ele>
        <time>2017-10-24T00:34:32Z</time>
      </trkpt>
      <trkpt lat="47.32943" lon="9.41588">
        <ele>777</ele>
        <time>2017-10-24T00:36:32Z</time>
      </trkpt>
      <trkpt lat="47.32933" lon="9.41644">
        <ele>778</ele>
        <time>2017-10-24T00:38:32Z</time>
      </trkpt>
      <trkpt lat="47.32932" lon="9.41653">
        <ele>779</ele>
        <time>2017-10-24T00:40:32Z</time>
      </trkpt>
      <trkpt lat="47.3293" lon="9.41662">
        <ele>779</ele>
        <time>2017-10-24T00:42:32Z</time>
      </trkpt>
      <trkpt lat="47.32927" lon="9.41672">
        <ele>779</ele>
        <time>2017-10-24T00:44:32Z</time>
      </trkpt>
      <trkpt lat="47.32926" lon="9.41677">
        <ele>779</ele>
        <time>2017-10-24T00:46:32Z</time>
      </trkpt>
      <trkpt lat="47.32926" lon="9.41677">
        <ele>779</ele>
        <time>2017-10-24T00:48:32Z</time>
      </trkpt>
      <trkpt lat="47.32913" lon="9.41706">
        <ele>779</ele>
        <time>2017-10-24T00:50:32Z</time>
      </trkpt>
      <trkpt lat="47.32909" lon="9.41713">
        <ele>779</ele>
        <time>2017-10-24T00:52:32Z</time>
      </trkpt>
      <trkpt lat="47.32905" lon="9.41724">
        <ele>779</ele>
        <time>2017-10-24T00:54:32Z</time>
      </trkpt>
      <trkpt lat="47.32881" lon="9.4178">
        <ele>781</ele>
        <time>2017-10-24T00:56:32Z</time>
      </trkpt>
      <trkpt lat="47.32881" lon="9.4178">
        <ele>781</ele>
        <time>2017-10-24T00:58:32Z</time>
      </trkpt>
      <trkpt lat="47.32878" lon="9.41794">
        <ele>781</ele>
        <time>2017-10-24T01:00:32Z</time>
      </trkpt>
      <trkpt lat="47.32876" lon="9.41806">
        <ele>781</ele>
        <time>2017-10-24T01:02:32Z</time>
      </trkpt>
      <trkpt lat="47.32876" lon="9.41812">
        <ele>781</ele>
        <time>2017-10-24T01:04:32Z</time>
      </trkpt>
      <trkpt lat="47.32876" lon="9.41821">
        <ele>781</ele>
        <time>2017-10-24T01:06:32Z</time>
      </trkpt>
      <trkpt lat="47.32878" lon="9.41844">
        <ele>782</ele>
        <time>2017-10-24T01:08:32Z</time>
      </trkpt>
      <trkpt lat="47.32881" lon="9.41877">
        <ele>782</ele>
        <time>2017-10-24T01:10:32Z</time>
      </trkpt>
      <trkpt lat="47.32884" lon="9.41911">
        <ele>783</ele>
        <time>2017-10-24T01:12:32Z</time>
      </trkpt>
      <trkpt lat="47.32888" lon="9.41954">
        <ele>785</ele>
        <time>2017-10-24T01:14:32Z</time>
      </trkpt>
      <trkpt lat="47.3289" lon="9.41973">
        <ele>787</ele>
        <time>2017-10-24T01:16:32Z</time>
      </trkpt>
      <trkpt lat="47.32893" lon="9.42">
        <ele>788</ele>
        <time>2017-10-24T01:18:32Z</time>
      </trkpt>
      <trkpt lat="47.32896" lon="9.42019">
        <ele>790</ele>
        <time>2017-10-24T01:20:32Z</time>
      </trkpt>
      <trkpt lat="47.32903" lon="9.4205">
        <ele>793</ele>
        <time>2017-10-24T01:22:32Z</time>
      </trkpt>
      <trkpt lat="47.32909" lon="9.42074">
        <ele>795</ele>
        <time>2017-10-24T01:24:32Z</time>
      </trkpt>
      <trkpt lat="47.3291" lon="9.4208">
        <ele>795</ele>
        <time>2017-10-24T01:26:32Z</time>
      </trkpt>
      <trkpt lat="47.3291" lon="9.42085">
        <ele>795</ele>
        <time>2017-10-24T01:28:32Z</time>
      </trkpt>
      <trkpt lat="47.3291" lon="9.42089">
        <ele>795</ele>
        <time>2017-10-24T01:30:32Z</time>
      </trkpt>
      <trkpt lat="47.32908" lon="9.42099">
        <ele>796</ele>
        <time>2017-10-24T01:32:32Z</time>
      </trkpt>
      <trkpt lat="47.32898" lon="9.42132">
        <ele>797</ele>
        <time>2017-10-24T01:34:32Z</time>
      </trkpt>
      <trkpt lat="47.32893" lon="9.42146">
        <ele>798</ele>
        <time>2017-10-24T01:36:32Z</time>
      </trkpt>
      <trkpt lat="47.32886" lon="9.42161">
        <ele>799</ele>
        <time>2017-10-24T01:38:32Z</time>
      </trkpt>
      <trkpt lat="47.32866" lon="9.422">
        <ele>800</ele>
        <time>2017-10-24T01:40:32Z</time>
      </trkpt>
      <trkpt lat="47.32857" lon="9.42222">
        <ele>801</ele>
        <time>2017-10-24T01:42:32Z</time>
      </trkpt>
      <trkpt lat="47.32846" lon="9.42251">
        <ele>802</ele>
        <time>2017-10-24T01:44:32Z</time>
      </trkpt>
      <trkpt lat="47.32841" lon="9.42272">
        <ele>803</ele>
        <time>2017-10-24T01:46:32Z</time>
      </trkpt>
      <trkpt lat="47.32836" lon="9.42299">
        <ele>803</ele>
        <time>2017-10-24T01:48:32Z</time>
      </trkpt>
      <trkpt lat="47.32828" lon="9.42343">
        <ele>803</ele>
        <time>2017-10-24T01:50:32Z</time>
      </trkpt>
      <trkpt lat="47.32822" lon="9.42369">
        <ele>804</ele>
        <time>2017-10-24T01:52:32Z</time>
      </trkpt>
      <trkpt lat="47.32819" lon="9.42389">
        <ele>805</ele>
        <time>2017-10-24T01:54:32Z</time>
      </trkpt>
      <trkpt lat="47.32817" lon="9.42414">
        <ele>805</ele>
        <time>2017-10-24T01:56:32Z</time>
      </trkpt>
      <trkpt lat="47.32817" lon="9.42414">
        <ele>805</ele>
        <time>2017-10-24T01:58:32Z</time>
      </trkpt>
      <trkpt lat="47.32767" lon="9.42453">
        <ele>810</ele>
        <time>2017-10-24T02:00:32Z</time>
      </trkpt>
      <trkpt lat="47.32719" lon="9.42493">
        <ele>811</ele>
        <time>2017-10-24T02:02:32Z</time>
      </trkpt>
      <trkpt lat="47.32719" lon="9.42493">
        <ele>811</ele>
        <time>2017-10-24T02:04:32Z</time>
      </trkpt>
      <trkpt lat="47.32767" lon="9.42453">
        <ele>810</ele>
        <time>2017-10-24T02:06:32Z</time>
      </trkpt>
      <trkpt lat="47.32817" lon="9.42414">
        <ele>805</ele>
        <time>2017-10-24T02:08:32Z</time>
      </trkpt>
      <trkpt lat="47.32817" lon="9.42414">
        <ele>805</ele>
        <time>2017-10-24T02:10:32Z</time>
      </trkpt>
      <trkpt lat="47.32816" lon="9.42476">
        <ele>807</ele>
        <time>2017-10-24T02:12:32Z</time>
      </trkpt>
      <trkpt lat="47.32814" lon="9.42495">
        <ele>807</ele>
        <time>2017-10-24T02:14:32Z</time>
      </trkpt>
      <trkpt lat="47.32811" lon="9.42524">
        <ele>808</ele>
        <time>2017-10-24T02:16:32Z</time>
      </trkpt>
      <trkpt lat="47.32809" lon="9.42547">
        <ele>809</ele>
        <time>2017-10-24T02:18:32Z</time>
      </trkpt>
      <trkpt lat="47.32805" lon="9.42572">
        <ele>810</ele>
        <time>2017-10-24T02:20:32Z</time>
      </trkpt>
      <trkpt lat="47.32798" lon="9.42599">
        <ele>811</ele>
        <time>2017-10-24T02:22:32Z</time>
      </trkpt>
      <trkpt lat="47.32793" lon="9.42615">
        <ele>812</ele>
        <time>2017-10-24T02:24:32Z</time>
      </trkpt>
      <trkpt lat="47.32788" lon="9.42628">
        <ele>812</ele>
        <time>2017-10-24T02:26:32Z</time>
      </trkpt>
      <trkpt lat="47.32785" lon="9.42638">
        <ele>813</ele>
        <time>2017-10-24T02:28:32Z</time>
      </trkpt>
      <trkpt lat="47.32767" lon="9.4268">
        <ele>815</ele>
        <time>2017-10-24T02:30:32Z</time>
      </trkpt>
      <trkpt lat="47.32767" lon="9.4268">
        <ele>815</ele>
        <time>2017-10-24T02:32:32Z</time>
      </trkpt>
      <trkpt lat="47.32719" lon="9.42667">
        <ele>814</ele>
        <time>2017-10-24T02:34:32Z</time>
      </trkpt>
      <trkpt lat="47.32701" lon="9.42665">
        <ele>814</ele>
        <time>2017-10-24T02:36:32Z</time>
      </trkpt>
      <trkpt lat="47.32673" lon="9.42657">
        <ele>813</ele>
        <time>2017-10-24T02:38:32Z</time>
      </trkpt>
      <trkpt lat="47.32659" lon="9.42653">
        <ele>813</ele>
        <time>2017-10-24T02:40:32Z</time>
      </trkpt>
      <trkpt lat="47.32578" lon="9.42627">
        <ele>815</ele>
        <time>2017-10-24T02:42:32Z</time>
      </trkpt>
      <trkpt lat="47.32568" lon="9.42625">
        <ele>815</ele>
        <time>2017-10-24T02:44:32Z</time>
      </trkpt>
      <trkpt lat="47.32556" lon="9.42622">
        <ele>815</ele>
        <time>2017-10-24T02:46:32Z</time>
      </trkpt>
      <trkpt lat="47.32537" lon="9.42621">
        <ele>814</ele>
        <time>2017-10-24T02:48:32Z</time>
      </trkpt>
      <trkpt lat="47.32509" lon="9.42623">
        <ele>813</ele>
        <time>2017-10-24T02:50:32Z</time>
      </trkpt>
      <trkpt lat="47.32477" lon="9.42634">
        <ele>812</ele>
        <time>2017-10-24T02:52:32Z</time>
      </trkpt>
      <trkpt lat="47.32463" lon="9.42642">
        <ele>811</ele>
        <time>2017-10-24T02:54:32Z</time>
      </trkpt>
      <trkpt lat="47.32451" lon="9.42651">
        <ele>810</ele>
        <time>2017-10-24T02:56:32Z</time>
      </trkpt>
      <trkpt lat="47.32446" lon="9.42654">
        <ele>810</ele>
        <time>2017-10-24T02:58:32Z</time>
      </trkpt>
      <trkpt lat="47.32442" lon="9.42658">
        <ele>809</ele>
        <time>2017-10-24T03:00:32Z</time>
      </trkpt>
      <trkpt lat="47.32432" lon="9.42668">
        <ele>809</ele>
        <time>2017-10-24T03:02:32Z</time>
      </trkpt>
      <trkpt lat="47.32405" lon="9.42696">
        <ele>807</ele>
        <time>2017-10-24T03:04:32Z</time>
      </trkpt>
      <trkpt lat="47.32385" lon="9.4272">
        <ele>806</ele>
        <time>2017-10-24T03:06:32Z</time>
      </trkpt>
      <trkpt lat="47.32373" lon="9.42733">
        <ele>806</ele>
        <time>2017-10-24T03:08:32Z</time>
      </trkpt>
      <trkpt lat="47.32361" lon="9.42744">
        <ele>806</ele>
        <time>2017-10-24T03:10:32Z</time>
      </trkpt>
      <trkpt lat="47.32352" lon="9.42751">
        <ele>806</ele>
        <time>2017-10-24T03:12:32Z</time>
      </trkpt>
      <trkpt lat="47.32344" lon="9.42757">
        <ele>805</ele>
        <time>2017-10-24T03:14:32Z</time>
      </trkpt>
      <trkpt lat="47.32336" lon="9.42761">
        <ele>804</ele>
        <time>2017-10-24T03:16:32Z</time>
      </trkpt>
      <trkpt lat="47.32265" lon="9.42792">
        <ele>798</ele>
        <time>2017-10-24T03:18:32Z</time>
      </trkpt>
      <trkpt lat="47.32239" lon="9.42803">
        <ele>796</ele>
        <time>2017-10-24T03:20:32Z</time>
      </trkpt>
      <trkpt lat="47.32223" lon="9.42812">
        <ele>796</ele>
        <time>2017-10-24T03:22:32Z</time>
      </trkpt>
      <trkpt lat="47.32211" lon="9.4282">
        <ele>795</ele>
        <time>2017-10-24T03:24:32Z</time>
      </trkpt>
      <trkpt lat="47.32203" lon="9.42826">
        <ele>795</ele>
        <time>2017-10-24T03:26:32Z</time>
      </trkpt>
      <trkpt lat="47.32193" lon="9.42834">
        <ele>795</ele>
        <time>2017-10-24T03:28:32Z</time>
      </trkpt>
      <trkpt lat="47.32185" lon="9.42843">
        <ele>795</ele>
        <time>2017-10-24T03:30:32Z</time>
      </trkpt>
      <trkpt lat="47.32176" lon="9.42854">
        <ele>794</ele>
        <time>2017-10-24T03:32:32Z</time>
      </trkpt>
      <trkpt lat="47.32163" lon="9.42872">
        <ele>794</ele>
        <time>2017-10-24T03:34:32Z</time>
      </trkpt>
      <trkpt lat="47.32158" lon="9.4288">
        <ele>794</ele>
        <time>2017-10-24T03:36:32Z</time>
      </trkpt>
      <trkpt lat="47.32148" lon="9.42894">
        <ele>795</ele>
        <time>2017-10-24T03:38:32Z</time>
      </trkpt>
      <trkpt lat="47.32136" lon="9.42913">
        <ele>795</ele>
        <time>2017-10-24T03:40:32Z</time>
      </trkpt>
      <trkpt lat="47.32135" lon="9.42916">
        <ele>795</ele>
        <time>2017-10-24T03:42:32Z</time>
      </trkpt>
      <trkpt lat="47.32119" lon="9.42945">
        <ele>797</ele>
        <time>2017-10-24T03:44:32Z</time>
      </trkpt>
      <trkpt lat="47.32088" lon="9.43004">
        <ele>799</ele>
        <time>2017-10-24T03:46:32Z</time>
      </trkpt>
      <trkpt lat="47.32088" lon="9.43004">
        <ele>799</ele>
        <time>2017-10-24T03:48:32Z</time>
      </trkpt>
      <trkpt lat="47.3209" lon="9.4301">
        <ele>799</ele>
        <time>2017-10-24T03:50:32Z</time>
      </trkpt>
      <trkpt lat="47.32095" lon="9.43022">
        <ele>800</ele>
        <time>2017-10-24T03:52:32Z</time>
      </trkpt>
      <trkpt lat="47.32095" lon="9.43022">
        <ele>800</ele>
        <time>2017-10-24T03:54:32Z</time>
      </trkpt>
      <trkpt lat="47.32096" lon="9.43035">
        <ele>800</ele>
        <time>2017-10-24T03:56:32Z</time>
      </trkpt>
      <trkpt lat="47.32096" lon="9.43042">
        <ele>801</ele>
        <time>2017-10-24T03:58:32Z</time>
      </trkpt>
      <trkpt lat="47.32096" lon="9.43047">
        <ele>801</ele>
        <time>2017-10-24T04:00:32Z</time>
      </trkpt>
      <trkpt lat="47.32095" lon="9.43056">
        <ele>801</ele>
        <time>2017-10-24T04:02:32Z</time>
      </trkpt>
      <trkpt lat="47.32093" lon="9.43064">
        <ele>801</ele>
        <time>2017-10-24T04:04:32Z</time>
      </trkpt>
      <trkpt lat="47.3209" lon="9.43076">
        <ele>802</ele>
        <time>2017-10-24T04:06:32Z</time>
      </trkpt>
      <trkpt lat="47.32075" lon="9.4312">
        <ele>805</ele>
        <time>2017-10-24T04:08:32Z</time>
      </trkpt>
      <trkpt lat="47.32056" lon="9.43176">
        <ele>808</ele>
        <time>2017-10-24T04:10:32Z</time>
      </trkpt>
      <trkpt lat="47.32038" lon="9.4322">
        <ele>810</ele>
        <time>2017-10-24T04:12:32Z</time>
      </trkpt>
      <trkpt lat="47.32034" lon="9.43228">
        <ele>811</ele>
        <time>2017-10-24T04:14:32Z</time>
      </trkpt>
      <trkpt lat="47.32026" lon="9.43245">
        <ele>811</ele>
        <time>2017-10-24T04:16:32Z</time>
      </trkpt>
      <trkpt lat="47.32017" lon="9.43259">
        <ele>812</ele>
        <time>2017-10-24T04:18:32Z</time>
      </trkpt>
      <trkpt lat="47.32008" lon="9.43269">
        <ele>812</ele>
        <time>2017-10-24T04:20:32Z</time>
      </trkpt>
      <trkpt lat="47.31984" lon="9.43292">
        <ele>814</ele>
        <time>2017-10-24T04:22:32Z</time>
      </trkpt>
      <trkpt lat="47.31941" lon="9.43336">
        <ele>818</ele>
        <time>2017-10-24T04:24:32Z</time>
      </trkpt>
      <trkpt lat="47.31914" lon="9.43362">
        <ele>819</ele>
        <time>2017-10-24T04:26:32Z</time>
      </trkpt>
      <trkpt lat="47.31909" lon="9.43368">
        <ele>819</ele>
        <time>2017-10-24T04:28:32Z</time>
      </trkpt>
      <trkpt lat="47.31902" lon="9.43376">
        <ele>819</ele>
        <time>2017-10-24T04:30:32Z</time>
      </trkpt>
      <trkpt lat="47.31895" lon="9.43389">
        <ele>820</ele>
        <time>2017-10-24T04:32:32Z</time>
      </trkpt>
      <trkpt lat="47.31891" lon="9.43398">
        <ele>820</ele>
        <time>2017-10-24T04:34:32Z</time>
      </trkpt>
      <trkpt lat="47.31886" lon="9.43411">
        <ele>821</ele>
        <time>2017-10-24T04:36:32Z</time>
      </trkpt>
      <trkpt lat="47.31874" lon="9.43448">
        <ele>821</ele>
        <time>2017-10-24T04:38:32Z</time>
      </trkpt>
      <trkpt lat="47.31856" lon="9.43502">
        <ele>823</ele>
        <time>2017-10-24T04:40:32Z</time>
      </trkpt>
      <trkpt lat="47.31852" lon="9.43511">
        <ele>824</ele>
        <time>2017-10-24T04:42:32Z</time>
      </trkpt>
      <trkpt lat="47.31849" lon="9.43516">
        <ele>824</ele>
        <time>2017-10-24T04:44:32Z</time>
      </trkpt>
      <trkpt lat="47.31847" lon="9.4352">
        <ele>825</ele>
        <time>2017-10-24T04:46:32Z</time>
      </trkpt>
      <trkpt lat="47.31841" lon="9.43527">
        <ele>826</ele>
        <time>2017-10-24T04:48:32Z</time>
      </trkpt>
      <trkpt lat="47.3183" lon="9.43535">
        <ele>827</ele>
        <time>2017-10-24T04:50:32Z</time>
      </trkpt>
      <trkpt lat="47.31825" lon="9.43538">
        <ele>827</ele>
        <time>2017-10-24T04:52:32Z</time>
      </trkpt>
      <trkpt lat="47.3182" lon="9.4354">
        <ele>828</ele>
        <time>2017-10-24T04:54:32Z</time>
      </trkpt>
      <trkpt lat="47.31812" lon="9.43542">
        <ele>828</ele>
        <time>2017-10-24T04:56:32Z</time>
      </trkpt>
      <trkpt lat="47.31782" lon="9.43546">
        <ele>830</ele>
        <time>2017-10-24T04:58:32Z</time>
      </trkpt>
      <trkpt lat="47.31734" lon="9.4355">
        <ele>832</ele>
        <time>2017-10-24T05:00:32Z</time>
      </trkpt>
      <trkpt lat="47.31712" lon="9.43553">
        <ele>832</ele>
        <time>2017-10-24T05:02:32Z</time>
      </trkpt>
      <trkpt lat="47.31712" lon="9.43553">
        <ele>832</ele>
        <time>2017-10-24T05:04:32Z</time>
      </trkpt>
      <trkpt lat="47.31704" lon="9.43553">
        <ele>832</ele>
        <time>2017-10-24T05:06:32Z</time>
      </trkpt>
      <trkpt lat="47.31698" lon="9.43554">
        <ele>831</ele>
        <time>2017-10-24T05:08:32Z</time>
      </trkpt>
      <trkpt lat="47.31687" lon="9.43558">
        <ele>832</ele>
        <time>2017-10-24T05:10:32Z</time>
      </trkpt>
      <trkpt lat="47.31679" lon="9.43565">
        <ele>832</ele>
        <time>2017-10-24T05:12:32Z</time>
      </trkpt>
      <trkpt lat="47.31668" lon="9.43576">
        <ele>833</ele>
        <time>2017-10-24T05:14:32Z</time>
      </trkpt>
      <trkpt lat="47.31654" lon="9.43597">
        <ele>833</ele>
        <time>2017-10-24T05:16:32Z</time>
      </trkpt>
      <trkpt lat="47.31624" lon="9.43651">
        <ele>833</ele>
        <time>2017-10-24T05:18:32Z</time>
      </trkpt>
      <trkpt lat="47.31614" lon="9.43667">
        <ele>833</ele>
        <time>2017-10-24T05:20:32Z</time>
      </trkpt>
      <trkpt lat="47.31591" lon="9.43707">
        <ele>835</ele>
        <time>2017-10-24T05:22:32Z</time>
      </trkpt>
      <trkpt lat="47.31566" lon="9.43745">
        <ele>837</ele>
        <time>2017-10-24T05:24:32Z</time>
      </trkpt>
      <trkpt lat="47.31555" lon="9.43758">
        <ele>838</ele>
        <time>2017-10-24T05:26:32Z</time>
      </trkpt>
      <trkpt lat="47.31547" lon="9.43763">
        <ele>838</ele>
        <time>2017-10-24T05:28:32Z</time>
      </trkpt>
      <trkpt lat="47.31507" lon="9.43784">
        <ele>839</ele>
        <time>2017-10-24T05:30:32Z</time>
      </trkpt>
      <trkpt lat="47.31479" lon="9.43798">
        <ele>841</ele>
        <time>2017-10-24T05:32:32Z</time>
      </trkpt>
      <trkpt lat="47.31461" lon="9.43806">
        <ele>841</ele>
        <time>2017-10-24T05:34:32Z</time>
      </trkpt>
      <trkpt lat="47.31408" lon="9.43831">
        <ele>845</ele>
        <time>2017-10-24T05:36:32Z</time>
      </trkpt>
      <trkpt lat="47.31403" lon="9.43833">
        <ele>846</ele>
        <time>2017-10-24T05:38:32Z</time>
      </trkpt>
      <trkpt lat="47.31398" lon="9.43834">
        <ele>846</ele>
        <time>2017-10-24T05:40:32Z</time>
      </trkpt>
      <trkpt lat="47.3139" lon="9.43837">
        <ele>848</ele>
        <time>2017-10-24T05:42:32Z</time>
      </trkpt>
      <trkpt lat="47.31383" lon="9.43837">
        <ele>848</ele>
        <time>2017-10-24T05:44:32Z</time>
      </trkpt>
      <trkpt lat="47.31372" lon="9.43836">
        <ele>849</ele>
        <time>2017-10-24T05:46:32Z</time>
      </trkpt>
      <trkpt lat="47.31361" lon="9.43836">
        <ele>850</ele>
        <time>2017-10-24T05:48:32Z</time>
      </trkpt>
      <trkpt lat="47.31336" lon="9.43831">
        <ele>850</ele>
        <time>2017-10-24T05:50:32Z</time>
      </trkpt>
      <trkpt lat="47.3133" lon="9.43831">
        <ele>851</ele>
        <time>2017-10-24T05:52:32Z</time>
      </trkpt>
      <trkpt lat="47.31323" lon="9.4383">
        <ele>851</ele>
        <time>2017-10-24T05:54:32Z</time>
      </trkpt>
      <trkpt lat="47.31317" lon="9.4383">
        <ele>851</ele>
        <time>2017-10-24T05:56:32Z</time>
      </trkpt>
      <trkpt lat="47.31287" lon="9.43834">
        <ele>852</ele>
        <time>2017-10-24T05:58:32Z</time>
      </trkpt>
      <trkpt lat="47.3125" lon="9.43841">
        <ele>853</ele>
        <time>2017-10-24T06:00:32Z</time>
      </trkpt>
      <trkpt lat="47.31228" lon="9.43847">
        <ele>853</ele>
        <time>2017-10-24T06:02:32Z</time>
      </trkpt>
      <trkpt lat="47.31217" lon="9.43851">
        <ele>853</ele>
        <time>2017-10-24T06:04:32Z</time>
      </trkpt>
      <trkpt lat="47.31209" lon="9.43857">
        <ele>854</ele>
        <time>2017-10-24T06:06:32Z</time>
      </trkpt>
      <trkpt lat="47.31197" lon="9.43866">
        <ele>855</ele>
        <time>2017-10-24T06:08:32Z</time>
      </trkpt>
      <trkpt lat="47.31188" lon="9.43876">
        <ele>856</ele>
        <time>2017-10-24T06:10:32Z</time>
      </trkpt>
      <trkpt lat="47.3118" lon="9.43887">
        <ele>858</ele>
        <time>2017-10-24T06:12:32Z</time>
      </trkpt>
      <trkpt lat="47.31159" lon="9.43917">
        <ele>862</ele>
        <time>2017-10-24T06:14:32Z</time>
      </trkpt>
      <trkpt lat="47.31137" lon="9.43951">
        <ele>867</ele>
        <time>2017-10-24T06:16:32Z</time>
      </trkpt>
      <trkpt lat="47.31127" lon="9.43963">
        <ele>868</ele>
        <time>2017-10-24T06:18:32Z</time>
      </trkpt>
      <trkpt lat="47.31116" lon="9.43974">
        <ele>869</ele>
        <time>2017-10-24T06:20:32Z</time>
      </trkpt>
      <trkpt lat="47.31105" lon="9.4398">
        <ele>870</ele>
        <time>2017-10-24T06:22:32Z</time>
      </trkpt>
      <trkpt lat="47.31096" lon="9.43984">
        <ele>870</ele>
        <time>2017-10-24T06:24:32Z</time>
      </trkpt>
      <trkpt lat="47.3103" lon="9.43998">
        <ele>872</ele>
        <time>2017-10-24T06:26:32Z</time>
      </trkpt>
      <trkpt lat="47.30985" lon="9.44009">
        <ele>875</ele>
        <time>2017-10-24T06:28:32Z</time>
      </trkpt>
      <trkpt lat="47.30942" lon="9.44019">
        <ele>878</ele>
        <time>2017-10-24T06:30:32Z</time>
      </trkpt>
      <trkpt lat="47.30933" lon="9.44022">
        <ele>879</ele>
        <time>2017-10-24T06:32:32Z</time>
      </trkpt>
      <trkpt lat="47.30927" lon="9.44024">
        <ele>880</ele>
        <time>2017-10-24T06:34:32Z</time>
      </trkpt>
      <trkpt lat="47.3092" lon="9.44027">
        <ele>881</ele>
        <time>2017-10-24T06:36:32Z</time>
      </trkpt>
      <trkpt lat="47.30913" lon="9.44032">
        <ele>882</ele>
        <time>2017-10-24T06:38:32Z</time>
      </trkpt>
      <trkpt lat="47.30908" lon="9.44036">
        <ele>882</ele>
        <time>2017-10-24T06:40:32Z</time>
      </trkpt>
      <trkpt lat="47.309" lon="9.44043">
        <ele>884</ele>
        <time>2017-10-24T06:42:32Z</time>
      </trkpt>
      <trkpt lat="47.30883" lon="9.44057">
        <ele>886</ele>
        <time>2017-10-24T06:44:32Z</time>
      </trkpt>
      <trkpt lat="47.30866" lon="9.4407">
        <ele>888</ele>
        <time>2017-10-24T06:46:32Z</time>
      </trkpt>
      <trkpt lat="47.3086" lon="9.44074">
        <ele>888</ele>
        <time>2017-10-24T06:48:32Z</time>
      </trkpt>
      <trkpt lat="47.30855" lon="9.44077">
        <ele>889</ele>
        <time>2017-10-24T06:50:32Z</time>
      </trkpt>
      <trkpt lat="47.30838" lon="9.44086">
        <ele>890</ele>
        <time>2017-10-24T06:52:32Z</time>
      </trkpt>
      <trkpt lat="47.30823" lon="9.44094">
        <ele>891</ele>
        <time>2017-10-24T06:54:32Z</time>
      </trkpt>
      <trkpt lat="47.3081" lon="9.44104">
        <ele>892</ele>
        <time>2017-10-24T06:56:32Z</time>
      </trkpt>
      <trkpt lat="47.30803" lon="9.44112">
        <ele>893</ele>
        <time>2017-10-24T06:58:32Z</time>
      </trkpt>
      <trkpt lat="47.30793" lon="9.44124">
        <ele>895</ele>
        <time>2017-10-24T07:00:32Z</time>
      </trkpt>
      <trkpt lat="47.3077" lon="9.44154">
        <ele>898</ele>
        <time>2017-10-24T07:02:32Z</time>
      </trkpt>
      <trkpt lat="47.30748" lon="9.44185">
        <ele>900</ele>
        <time>2017-10-24T07:04:32Z</time>
      </trkpt>
      <trkpt lat="47.3074" lon="9.44198">
        <ele>899</ele>
        <time>2017-10-24T07:06:32Z</time>
      </trkpt>
      <trkpt lat="47.30737" lon="9.44204">
        <ele>898</ele>
        <time>2017-10-24T07:08:32Z</time>
      </trkpt>
      <trkpt lat="47.30735" lon="9.44212">
        <ele>899</ele>
        <time>2017-10-24T07:10:32Z</time>
      </trkpt>
      <trkpt lat="47.30734" lon="9.4422">
        <ele>899</ele>
        <time>2017-10-24T07:12:32Z</time>
      </trkpt>
      <trkpt lat="47.30733" lon="9.44227">
        <ele>900</ele>
        <time>2017-10-24T07:14:32Z</time>
      </trkpt>
      <trkpt lat="47.30733" lon="9.44236">
        <ele>901</ele>
        <time>2017-10-24T07:16:32Z</time>
      </trkpt>
      <trkpt lat="47.30734" lon="9.44243">
        <ele>901</ele>
        <time>2017-10-24T07:18:32Z</time>
      </trkpt>
      <trkpt lat="47.30735" lon="9.44251">
        <ele>902</ele>
        <time>2017-10-24T07:20:32Z</time>
      </trkpt>
      <trkpt lat="47.30741" lon="9.44274">
        <ele>904</ele>
        <time>2017-10-24T07:22:32Z</time>
      </trkpt>
      <trkpt lat="47.3075" lon="9.44303">
        <ele>906</ele>
        <time>2017-10-24T07:24:32Z</time>
      </trkpt>
      <trkpt lat="47.30752" lon="9.44312">
        <ele>906</ele>
        <time>2017-10-24T07:26:32Z</time>
      </trkpt>
      <trkpt lat="47.30753" lon="9.4432">
        <ele>906</ele>
        <time>2017-10-24T07:28:32Z</time>
      </trkpt>
      <trkpt lat="47.30754" lon="9.44327">
        <ele>907</ele>
        <time>2017-10-24T07:30:32Z</time>
      </trkpt>
      <trkpt lat="47.30754" lon="9.44334">
        <ele>907</ele>
        <time>2017-10-24T07:32:32Z</time>
      </trkpt>
      <trkpt lat="47.30753" lon="9.4434">
        <ele>907</ele>
        <time>2017-10-24T07:34:32Z</time>
      </trkpt>
      <trkpt lat="47.30752" lon="9.44346">
        <ele>907</ele>
        <time>2017-10-24T07:36:32Z</time>
      </trkpt>
      <trkpt lat="47.30748" lon="9.44365">
        <ele>908</ele>
        <time>2017-10-24T07:38:32Z</time>
      </trkpt>
      <trkpt lat="47.3074" lon="9.44381">
        <ele>909</ele>
        <time>2017-10-24T07:40:32Z</time>
      </trkpt>
      <trkpt lat="47.30724" lon="9.444">
        <ele>909</ele>
        <time>2017-10-24T07:42:32Z</time>
      </trkpt>
      <trkpt lat="47.30718" lon="9.44407">
        <ele>910</ele>
        <time>2017-10-24T07:44:32Z</time>
      </trkpt>
      <trkpt lat="47.30713" lon="9.44411">
        <ele>910</ele>
        <time>2017-10-24T07:46:32Z</time>
      </trkpt>
      <trkpt lat="47.30706" lon="9.44417">
        <ele>910</ele>
        <time>2017-10-24T07:48:32Z</time>
      </trkpt>
      <trkpt lat="47.30697" lon="9.44422">
        <ele>911</ele>
        <time>2017-10-24T07:50:32Z</time>
      </trkpt>
      <trkpt lat="47.30685" lon="9.44429">
        <ele>912</ele>
        <time>2017-10-24T07:52:32Z</time>
      </trkpt>
      <trkpt lat="47.30677" lon="9.44432">
        <ele>912</ele>
        <time>2017-10-24T07:54:32Z</time>
      </trkpt>
      <trkpt lat="47.3067" lon="9.44433">
        <ele>912</ele>
        <time>2017-10-24T07:56:32Z</time>
      </trkpt>
      <trkpt lat="47.30661" lon="9.44434">
        <ele>912</ele>
        <time>2017-10-24T07:58:32Z</time>
      </trkpt>
      <trkpt lat="47.30652" lon="9.44433">
        <ele>912</ele>
        <time>2017-10-24T08:00:32Z</time>
      </trkpt>
      <trkpt lat="47.30638" lon="9.4443">
        <ele>911</ele>
        <time>2017-10-24T08:02:32Z</time>
      </trkpt>
      <trkpt lat="47.30606" lon="9.44422">
        <ele>910</ele>
        <time>2017-10-24T08:04:32Z</time>
      </trkpt>
      <trkpt lat="47.30605" lon="9.44422">
        <ele>910</ele>
        <time>2017-10-24T08:06:32Z</time>
      </trkpt>
      <trkpt lat="47.30563" lon="9.44412">
        <ele>907</ele>
        <time>2017-10-24T08:08:32Z</time>
      </trkpt>
      <trkpt lat="47.30551" lon="9.44411">
        <ele>906</ele>
        <time>2017-10-24T08:10:32Z</time>
      </trkpt>
      <trkpt lat="47.30548" lon="9.44411">
        <ele>905</ele>
        <time>2017-10-24T08:12:32Z</time>
      </trkpt>
      <trkpt lat="47.30539" lon="9.44413">
        <ele>905</ele>
        <time>2017-10-24T08:14:32Z</time>
      </trkpt>
      <trkpt lat="47.30536" lon="9.44416">
        <ele>905</ele>
        <time>2017-10-24T08:16:32Z</time>
      </trkpt>
      <trkpt lat="47.30524" lon="9.44423">
        <ele>905</ele>
        <time>2017-10-24T08:18:32Z</time>
      </trkpt>
      <trkpt lat="47.30515" lon="9.44432">
        <ele>906</ele>
        <time>2017-10-24T08:20:32Z</time>
      </trkpt>
      <trkpt lat="47.30508" lon="9.44442">
        <ele>906</ele>
        <time>2017-10-24T08:22:32Z</time>
      </trkpt>
      <trkpt lat="47.30502" lon="9.44455">
        <ele>907</ele>
        <time>2017-10-24T08:24:32Z</time>
      </trkpt>
      <trkpt lat="47.30498" lon="9.44464">
        <ele>907</ele>
        <time>2017-10-24T08:26:32Z</time>
      </trkpt>
      <trkpt lat="47.30495" lon="9.44474">
        <ele>907</ele>
        <time>2017-10-24T08:28:32Z</time>
      </trkpt>
      <trkpt lat="47.30493" lon="9.44487">
        <ele>908</ele>
        <time>2017-10-24T08:30:32Z</time>
      </trkpt>
      <trkpt lat="47.30491" lon="9.44508">
        <ele>909</ele>
        <time>2017-10-24T08:32:32Z</time>
      </trkpt>
      <trkpt lat="47.30491" lon="9.44519">
        <ele>910</ele>
        <time>2017-10-24T08:34:32Z</time>
      </trkpt>
      <trkpt lat="47.30492" lon="9.44537">
        <ele>911</ele>
        <time>2017-10-24T08:36:32Z</time>
      </trkpt>
      <trkpt lat="47.30493" lon="9.44554">
        <ele>912</ele>
        <time>2017-10-24T08:38:32Z</time>
      </trkpt>
      <trkpt lat="47.30507" lon="9.44647">
        <ele>915</ele>
        <time>2017-10-24T08:40:32Z</time>
      </trkpt>
      <trkpt lat="47.3052" lon="9.44731">
        <ele>915</ele>
        <time>2017-10-24T08:42:32Z</time>
      </trkpt>
      <trkpt lat="47.30523" lon="9.44757">
        <ele>915</ele>
        <time>2017-10-24T08:44:32Z</time>
      </trkpt>
      <trkpt lat="47.30523" lon="9.44766">
        <ele>915</ele>
        <time>2017-10-24T08:46:32Z</time>
      </trkpt>
      <trkpt lat="47.30523" lon="9.44776">
        <ele>915</ele>
        <time>2017-10-24T08:48:32Z</time>
      </trkpt>
      <trkpt lat="47.30523" lon="9.44786">
        <ele>915</ele>
        <time>2017-10-24T08:50:32Z</time>
      </trkpt>
      <trkpt lat="47.30521" lon="9.44808">
        <ele>915</ele>
        <time>2017-10-24T08:52:32Z</time>
      </trkpt>
      <trkpt lat="47.30517" lon="9.4483">
        <ele>914</ele>
        <time>2017-10-24T08:54:32Z</time>
      </trkpt>
      <trkpt lat="47.30515" lon="9.44839">
        <ele>914</ele>
        <time>2017-10-24T08:56:32Z</time>
      </trkpt>
      <trkpt lat="47.30511" lon="9.44851">
        <ele>914</ele>
        <time>2017-10-24T08:58:32Z</time>
      </trkpt>
      <trkpt lat="47.30506" lon="9.44862">
        <ele>914</ele>
        <time>2017-10-24T09:00:32Z</time>
      </trkpt>
      <trkpt lat="47.30498" lon="9.44876">
        <ele>913</ele>
        <time>2017-10-24T09:02:32Z</time>
      </trkpt>
      <trkpt lat="47.30487" lon="9.44893">
        <ele>913</ele>
        <time>2017-10-24T09:04:32Z</time>
      </trkpt>
      <trkpt lat="47.30471" lon="9.44911">
        <ele>913</ele>
        <time>2017-10-24T09:06:32Z</time>
      </trkpt>
      <trkpt lat="47.30437" lon="9.44938">
        <ele>912</ele>
        <time>2017-10-24T09:08:32Z</time>
      </trkpt>
      <trkpt lat="47.3038" lon="9.44986">
        <ele>916</ele>
        <time>2017-10-24T09:10:32Z</time>
      </trkpt>
      <trkpt lat="47.30342" lon="9.45011">
        <ele>917</ele>
        <time>2017-10-24T09:12:32Z</time>
      </trkpt>
      <trkpt lat="47.30312" lon="9.45023">
        <ele>916</ele>
        <time>2017-10-24T09:14:32Z</time>
      </trkpt>
      <trkpt lat="47.303" lon="9.4503">
        <ele>915</ele>
        <time>2017-10-24T09:16:32Z</time>
      </trkpt>
      <trkpt lat="47.3029" lon="9.45036">
        <ele>915</ele>
        <time>2017-10-24T09:18:32Z</time>
      </trkpt>
      <trkpt lat="47.30281" lon="9.45042">
        <ele>914</ele>
        <time>2017-10-24T09:20:32Z</time>
      </trkpt>
      <trkpt lat="47.3027" lon="9.45054">
        <ele>914</ele>
        <time>2017-10-24T09:22:32Z</time>
      </trkpt>
      <trkpt lat="47.30267" lon="9.45057">
        <ele>914</ele>
        <time>2017-10-24T09:24:32Z</time>
      </trkpt>
      <trkpt lat="47.30264" lon="9.45061">
        <ele>914</ele>
        <time>2017-10-24T09:26:32Z</time>
      </trkpt>
      <trkpt lat="47.30258" lon="9.45069">
        <ele>914</ele>
        <time>2017-10-24T09:28:32Z</time>
      </trkpt>
      <trkpt lat="47.30238" lon="9.45105">
        <ele>915</ele>
        <time>2017-10-24T09:30:32Z</time>
      </trkpt>
      <trkpt lat="47.30204" lon="9.45189">
        <ele>919</ele>
        <time>2017-10-24T09:32:32Z</time>
      </trkpt>
      <trkpt lat="47.30192" lon="9.45218">
        <ele>920</ele>
        <time>2017-10-24T09:34:32Z</time>
      </trkpt>
      <trkpt lat="47.30186" lon="9.4523">
        <ele>920</ele>
        <time>2017-10-24T09:36:32Z</time>
      </trkpt>
      <trkpt lat="47.30182" lon="9.45236">
        <ele>920</ele>
        <time>2017-10-24T09:38:32Z</time>
      </trkpt>
      <trkpt lat="47.30178" lon="9.45242">
        <ele>921</ele>
        <time>2017-10-24T09:40:32Z</time>
      </trkpt>
      <trkpt lat="47.30162" lon="9.45259">
        <ele>921</ele>
        <time>2017-10-24T09:42:32Z</time>
      </trkpt>
      <trkpt lat="47.30143" lon="9.45273">
        <ele>921</ele>
        <time>2017-10-24T09:44:32Z</time>
      </trkpt>
      <trkpt lat="47.301" lon="9.45306">
        <ele>919</ele>
        <time>2017-10-24T09:46:32Z</time>
      </trkpt>
      <trkpt lat="47.3009" lon="9.45313">
        <ele>918</ele>
        <time>2017-10-24T09:48:32Z</time>
      </trkpt>
      <trkpt lat="47.30085" lon="9.45318">
        <ele>918</ele>
        <time>2017-10-24T09:50:32Z</time>
      </trkpt>
      <trkpt lat="47.3008" lon="9.45323">
        <ele>918</ele>
        <time>2017-10-24T09:52:32Z</time>
      </trkpt>
      <trkpt lat="47.30067" lon="9.45339">
        <ele>917</ele>
        <time>2017-10-24T09:54:32Z</time>
      </trkpt>
      <trkpt lat="47.30051" lon="9.45362">
        <ele>918</ele>
        <time>2017-10-24T09:56:32Z</time>
      </trkpt>
      <trkpt lat="47.30028" lon="9.45397">
        <ele>920</ele>
        <time>2017-10-24T09:58:32Z</time>
      </trkpt>
      <trkpt lat="47.30017" lon="9.45414">
        <ele>920</ele>
        <time>2017-10-24T10:00:32Z</time>
      </trkpt>
      <trkpt lat="47.30012" lon="9.45422">
        <ele>920</ele>
        <time>2017-10-24T10:02:32Z</time>
      </trkpt>
      <trkpt lat="47.30002" lon="9.45435">
        <ele>920</ele>
        <time>2017-10-24T10:04:32Z</time>
      </trkpt>
      <trkpt lat="47.29994" lon="9.45443">
        <ele>919</ele>
        <time>2017-10-24T10:06:32Z</time>
      </trkpt>
      <trkpt lat="47.29987" lon="9.4545">
        <ele>919</ele>
        <time>2017-10-24T10:08:32Z</time>
      </trkpt>
      <trkpt lat="47.29976" lon="9.45458">
        <ele>919</ele>
        <time>2017-10-24T10:10:32Z</time>
      </trkpt>
      <trkpt lat="47.29932" lon="9.4548">
        <ele>917</ele>
        <time>2017-10-24T10:12:32Z</time>
      </trkpt>
      <trkpt lat="47.29915" lon="9.45488">
        <ele>917</ele>
        <time>2017-10-24T10:14:32Z</time>
      </trkpt>
      <trkpt lat="47.29888" lon="9.45502">
        <ele>917</ele>
        <time>2017-10-24T10:16:32Z</time>
      </trkpt>
      <trkpt lat="47.29806" lon="9.45539">
        <ele>918</ele>
        <time>2017-10-24T10:18:32Z</time>
      </trkpt>
      <trkpt lat="47.29729" lon="9.45574">
        <ele>921</ele>
        <time>2017-10-24T10:20:32Z</time>
      </trkpt>
      <trkpt lat="47.29724" lon="9.45575">
        <ele>921</ele>
        <time>2017-10-24T10:22:32Z</time>
      </trkpt>
      <trkpt lat="47.2972" lon="9.45575">
        <ele>920</ele>
        <time>2017-10-24T10:24:32Z</time>
      </trkpt>
      <trkpt lat="47.29713" lon="9.45579">
        <ele>920</ele>
        <time>2017-10-24T10:26:32Z</time>
      </trkpt>
      <trkpt lat="47.29713" lon="9.45579">
        <ele>920</ele>
        <time>2017-10-24T10:28:32Z</time>
      </trkpt>
      <trkpt lat="47.29715" lon="9.456">
        <ele>922</ele>
        <time>2017-10-24T10:30:32Z</time>
      </trkpt>
      <trkpt lat="47.29716" lon="9.45614">
        <ele>923</ele>
        <time>2017-10-24T10:32:32Z</time>
      </trkpt>
      <trkpt lat="47.29717" lon="9.45628">
        <ele>924</ele>
        <time>2017-10-24T10:34:32Z</time>
      </trkpt>
      <trkpt lat="47.29719" lon="9.45643">
        <ele>925</ele>
        <time>2017-10-24T10:36:32Z</time>
      </trkpt>
      <trkpt lat="47.29721" lon="9.45648">
        <ele>925</ele>
        <time>2017-10-24T10:38:32Z</time>
      </trkpt>
      <trkpt lat="47.29725" lon="9.45659">
        <ele>926</ele>
        <time>2017-10-24T10:40:32Z</time>
      </trkpt>
      <trkpt lat="47.29725" lon="9.45659">
        <ele>926</ele>
        <time>2017-10-24T10:42:32Z</time>
      </trkpt>
      <trkpt lat="47.29729" lon="9.45674">
        <ele>927</ele>
        <time>2017-10-24T10:44:32Z</time>
      </trkpt>
      <trkpt lat="47.29737" lon="9.45713">
        <ele>927</ele>
        <time>2017-10-24T10:46:32Z</time>
      </trkpt>
      <trkpt lat="47.29742" lon="9.45735">
        <ele>928</ele>
        <time>2017-10-24T10:48:32Z</time>
      </trkpt>
      <trkpt lat="47.2975" lon="9.4576">
        <ele>928</ele>
        <time>2017-10-24T10:50:32Z</time>
      </trkpt>
      <trkpt lat="47.29769" lon="9.45814">
        <ele>929</ele>
        <time>2017-10-24T10:52:32Z</time>
      </trkpt>
      <trkpt lat="47.29794" lon="9.45874">
        <ele>934</ele>
        <time>2017-10-24T10:54:32Z</time>
      </trkpt>
      <trkpt lat="47.29835" lon="9.45972">
        <ele>941</ele>
        <time>2017-10-24T10:56:32Z</time>
      </trkpt>
      <trkpt lat="47.29851" lon="9.46007">
        <ele>942</ele>
        <time>2017-10-24T10:58:32Z</time>
      </trkpt>
      <trkpt lat="47.29855" lon="9.46016">
        <ele>943</ele>
        <time>2017-10-24T11:00:32Z</time>
      </trkpt>
      <trkpt lat="47.29857" lon="9.46026">
        <ele>944</ele>
        <time>2017-10-24T11:02:32Z</time>
      </trkpt>
      <trkpt lat="47.29857" lon="9.46026">
        <ele>944</ele>
        <time>2017-10-24T11:04:32Z</time>
      </trkpt>
      <trkpt lat="47.29846" lon="9.46037">
        <ele>945</ele>
        <time>2017-10-24T11:06:32Z</time>
      </trkpt>
      <trkpt lat="47.29816" lon="9.46061">
        <ele>948</ele>
        <time>2017-10-24T11:08:32Z</time>
      </trkpt>
      <trkpt lat="47.29772" lon="9.46073">
        <ele>948</ele>
        <time>2017-10-24T11:10:32Z</time>
      </trkpt>
      <trkpt lat="47.29733" lon="9.46079">
        <ele>947</ele>
        <time>2017-10-24T11:12:32Z</time>
      </trkpt>
      <trkpt lat="47.29719" lon="9.46084">
        <ele>947</ele>
        <time>2017-10-24T11:14:32Z</time>
      </trkpt>
      <trkpt lat="47.29716" lon="9.46092">
        <ele>948</ele>
        <time>2017-10-24T11:16:32Z</time>
      </trkpt>
      <trkpt lat="47.29712" lon="9.4615">
        <ele>955</ele>
        <time>2017-10-24T11:18:32Z</time>
      </trkpt>
      <trkpt lat="47.29708" lon="9.46218">
        <ele>964</ele>
        <time>2017-10-24T11:20:32Z</time>
      </trkpt>
      <trkpt lat="47.29708" lon="9.46259">
        <ele>971</ele>
        <time>2017-10-24T11:22:32Z</time>
      </trkpt>
      <trkpt lat="47.2971" lon="9.46265">
        <ele>972</ele>
        <time>2017-10-24T11:24:32Z</time>
      </trkpt>
      <trkpt lat="47.29719" lon="9.46272">
        <ele>974</ele>
        <time>2017-10-24T11:26:32Z</time>
      </trkpt>
      <trkpt lat="47.29742" lon="9.46275">
        <ele>975</ele>
        <time>2017-10-24T11:28:32Z</time>
      </trkpt>
      <trkpt lat="47.29768" lon="9.46276">
        <ele>977</ele>
        <time>2017-10-24T11:30:32Z</time>
      </trkpt>
      <trkpt lat="47.29795" lon="9.46296">
        <ele>984</ele>
        <time>2017-10-24T11:32:32Z</time>
      </trkpt>
      <trkpt lat="47.29807" lon="9.46298">
        <ele>985</ele>
        <time>2017-10-24T11:34:32Z</time>
      </trkpt>
      <trkpt lat="47.29814" lon="9.46302">
        <ele>987</ele>
        <time>2017-10-24T11:36:32Z</time>
      </trkpt>
      <trkpt lat="47.29816" lon="9.46308">
        <ele>988</ele>
        <time>2017-10-24T11:38:32Z</time>
      </trkpt>
      <trkpt lat="47.29813" lon="9.46316">
        <ele>990</ele>
        <time>2017-10-24T11:40:32Z</time>
      </trkpt>
      <trkpt lat="47.29802" lon="9.46323">
        <ele>990</ele>
        <time>2017-10-24T11:42:32Z</time>
      </trkpt>
      <trkpt lat="47.29787" lon="9.46329">
        <ele>990</ele>
        <time>2017-10-24T11:44:32Z</time>
      </trkpt>
      <trkpt lat="47.29774" lon="9.46336">
        <ele>990</ele>
        <time>2017-10-24T11:46:32Z</time>
      </trkpt>
      <trkpt lat="47.29762" lon="9.46345">
        <ele>991</ele>
        <time>2017-10-24T11:48:32Z</time>
      </trkpt>
      <trkpt lat="47.29761" lon="9.46353">
        <ele>993</ele>
        <time>2017-10-24T11:50:32Z</time>
      </trkpt>
      <trkpt lat="47.29764" lon="9.46362">
        <ele>995</ele>
        <time>2017-10-24T11:52:32Z</time>
      </trkpt>
      <trkpt lat="47.29774" lon="9.46364">
        <ele>997</ele>
        <time>2017-10-24T11:54:32Z</time>
      </trkpt>
      <trkpt lat="47.29789" lon="9.4637">
        <ele>999</ele>
        <time>2017-10-24T11:56:32Z</time>
      </trkpt>
      <trkpt lat="47.29802" lon="9.46376">
        <ele>1001</ele>
        <time>2017-10-24T11:58:32Z</time>
      </trkpt>
      <trkpt lat="47.29819" lon="9.4639">
        <ele>1005</ele>
        <time>2017-10-24T12:00:32Z</time>
      </trkpt>
      <trkpt lat="47.29827" lon="9.46403">
        <ele>1008</ele>
        <time>2017-10-24T12:02:32Z</time>
      </trkpt>
      <trkpt lat="47.29834" lon="9.46419">
        <ele>1011</ele>
        <time>2017-10-24T12:04:32Z</time>
      </trkpt>
      <trkpt lat="47.29835" lon="9.46437">
        <ele>1013</ele>
        <time>2017-10-24T12:06:32Z</time>
      </trkpt>
      <trkpt lat="47.29834" lon="9.46445">
        <ele>1015</ele>
        <time>2017-10-24T12:08:32Z</time>
      </trkpt>
      <trkpt lat="47.29832" lon="9.46483">
        <ele>1020</ele>
        <time>2017-10-24T12:10:32Z</time>
      </trkpt>
      <trkpt lat="47.29837" lon="9.4651">
        <ele>1022</ele>
        <time>2017-10-24T12:12:32Z</time>
      </trkpt>
      <trkpt lat="47.29845" lon="9.46535">
        <ele>1023</ele>
        <time>2017-10-24T12:14:32Z</time>
      </trkpt>
      <trkpt lat="47.29846" lon="9.46536">
        <ele>1023</ele>
        <time>2017-10-24T12:16:32Z</time>
      </trkpt>
      <trkpt lat="47.29856" lon="9.46563">
        <ele>1024</ele>
        <time>2017-10-24T12:18:32Z</time>
      </trkpt>
      <trkpt lat="47.29862" lon="9.46584">
        <ele>1025</ele>
        <time>2017-10-24T12:20:32Z</time>
      </trkpt>
      <trkpt lat="47.29865" lon="9.46596">
        <ele>1026</ele>
        <time>2017-10-24T12:22:32Z</time>
      </trkpt>
      <trkpt lat="47.29862" lon="9.46605">
        <ele>1027</ele>
        <time>2017-10-24T12:24:32Z</time>
      </trkpt>
      <trkpt lat="47.29854" lon="9.46621">
        <ele>1030</ele>
        <time>2017-10-24T12:26:32Z</time>
      </trkpt>
      <trkpt lat="47.29839" lon="9.46645">
        <ele>1034</ele>
        <time>2017-10-24T12:28:32Z</time>
      </trkpt>
      <trkpt lat="47.29833" lon="9.4666">
        <ele>1035</ele>
        <time>2017-10-24T12:30:32Z</time>
      </trkpt>
      <trkpt lat="47.29832" lon="9.46675">
        <ele>1037</ele>
        <time>2017-10-24T12:32:32Z</time>
      </trkpt>
      <trkpt lat="47.29832" lon="9.46688">
        <ele>1038</ele>
        <time>2017-10-24T12:34:32Z</time>
      </trkpt>
      <trkpt lat="47.29838" lon="9.46699">
        <ele>1039</ele>
        <time>2017-10-24T12:36:32Z</time>
      </trkpt>
      <trkpt lat="47.29846" lon="9.46711">
        <ele>1040</ele>
        <time>2017-10-24T12:38:32Z</time>
      </trkpt>
      <trkpt lat="47.29855" lon="9.46723">
        <ele>1041</ele>
        <time>2017-10-24T12:40:32Z</time>
      </trkpt>
      <trkpt lat="47.29862" lon="9.46734">
        <ele>1041</ele>
        <time>2017-10-24T12:42:32Z</time>
      </trkpt>
      <trkpt lat="47.2987" lon="9.46749">
        <ele>1043</ele>
        <time>2017-10-24T12:44:32Z</time>
      </trkpt>
      <trkpt lat="47.29868" lon="9.46759">
        <ele>1044</ele>
        <time>2017-10-24T12:46:32Z</time>
      </trkpt>
      <trkpt lat="47.29858" lon="9.46766">
        <ele>1046</ele>
        <time>2017-10-24T12:48:32Z</time>
      </trkpt>
      <trkpt lat="47.29844" lon="9.46774">
        <ele>1048</ele>
        <time>2017-10-24T12:50:32Z</time>
      </trkpt>
      <trkpt lat="47.29829" lon="9.4678">
        <ele>1051</ele>
        <time>2017-10-24T12:52:32Z</time>
      </trkpt>
      <trkpt lat="47.2981" lon="9.46778">
        <ele>1053</ele>
        <time>2017-10-24T12:54:32Z</time>
      </trkpt>
      <trkpt lat="47.29775" lon="9.46763">
        <ele>1057</ele>
        <time>2017-10-24T12:56:32Z</time>
      </trkpt>
      <trkpt lat="47.29772" lon="9.46762">
        <ele>1057</ele>
        <time>2017-10-24T12:58:32Z</time>
      </trkpt>
      <trkpt lat="47.29744" lon="9.46753">
        <ele>1060</ele>
        <time>2017-10-24T13:00:32Z</time>
      </trkpt>
      <trkpt lat="47.29721" lon="9.46756">
        <ele>1064</ele>
        <time>2017-10-24T13:02:32Z</time>
      </trkpt>
      <trkpt lat="47.29711" lon="9.46764">
        <ele>1066</ele>
        <time>2017-10-24T13:04:32Z</time>
      </trkpt>
      <trkpt lat="47.29692" lon="9.46778">
        <ele>1071</ele>
        <time>2017-10-24T13:06:32Z</time>
      </trkpt>
      <trkpt lat="47.29657" lon="9.46809">
        <ele>1078</ele>
        <time>2017-10-24T13:08:32Z</time>
      </trkpt>
      <trkpt lat="47.29632" lon="9.46838">
        <ele>1082</ele>
        <time>2017-10-24T13:10:32Z</time>
      </trkpt>
      <trkpt lat="47.29605" lon="9.46857">
        <ele>1086</ele>
        <time>2017-10-24T13:12:32Z</time>
      </trkpt>
      <trkpt lat="47.29587" lon="9.46862">
        <ele>1087</ele>
        <time>2017-10-24T13:14:32Z</time>
      </trkpt>
      <trkpt lat="47.29568" lon="9.46861">
        <ele>1088</ele>
        <time>2017-10-24T13:16:32Z</time>
      </trkpt>
      <trkpt lat="47.29548" lon="9.4687">
        <ele>1091</ele>
        <time>2017-10-24T13:18:32Z</time>
      </trkpt>
      <trkpt lat="47.29532" lon="9.46882">
        <ele>1094</ele>
        <time>2017-10-24T13:20:32Z</time>
      </trkpt>
      <trkpt lat="47.29513" lon="9.46896">
        <ele>1097</ele>
        <time>2017-10-24T13:22:32Z</time>
      </trkpt>
      <trkpt lat="47.295" lon="9.46911">
        <ele>1101</ele>
        <time>2017-10-24T13:24:32Z</time>
      </trkpt>
      <trkpt lat="47.29499" lon="9.46922">
        <ele>1103</ele>
        <time>2017-10-24T13:26:32Z</time>
      </trkpt>
      <trkpt lat="47.29508" lon="9.46936">
        <ele>1105</ele>
        <time>2017-10-24T13:28:32Z</time>
      </trkpt>
      <trkpt lat="47.29524" lon="9.46956">
        <ele>1107</ele>
        <time>2017-10-24T13:30:32Z</time>
      </trkpt>
      <trkpt lat="47.29535" lon="9.46981">
        <ele>1111</ele>
        <time>2017-10-24T13:32:32Z</time>
      </trkpt>
      <trkpt lat="47.2954" lon="9.47014">
        <ele>1117</ele>
        <time>2017-10-24T13:34:32Z</time>
      </trkpt>
      <trkpt lat="47.29558" lon="9.47047">
        <ele>1122</ele>
        <time>2017-10-24T13:36:32Z</time>
      </trkpt>
      <trkpt lat="47.29579" lon="9.47077">
        <ele>1127</ele>
        <time>2017-10-24T13:38:32Z</time>
      </trkpt>
      <trkpt lat="47.29598" lon="9.47099">
        <ele>1128</ele>
        <time>2017-10-24T13:40:32Z</time>
      </trkpt>
      <trkpt lat="47.29615" lon="9.47116">
        <ele>1127</ele>
        <time>2017-10-24T13:42:32Z</time>
      </trkpt>
      <trkpt lat="47.29621" lon="9.4713">
        <ele>1128</ele>
        <time>2017-10-24T13:44:32Z</time>
      </trkpt>
      <trkpt lat="47.29622" lon="9.47134">
        <ele>1129</ele>
        <time>2017-10-24T13:46:32Z</time>
      </trkpt>
      <trkpt lat="47.29623" lon="9.47151">
        <ele>1131</ele>
        <time>2017-10-24T13:48:32Z</time>
      </trkpt>
      <trkpt lat="47.29618" lon="9.47161">
        <ele>1133</ele>
        <time>2017-10-24T13:50:32Z</time>
      </trkpt>
      <trkpt lat="47.29609" lon="9.47172">
        <ele>1136</ele>
        <time>2017-10-24T13:52:32Z</time>
      </trkpt>
      <trkpt lat="47.29598" lon="9.47191">
        <ele>1141</ele>
        <time>2017-10-24T13:54:32Z</time>
      </trkpt>
      <trkpt lat="47.29597" lon="9.47211">
        <ele>1145</ele>
        <time>2017-10-24T13:56:32Z</time>
      </trkpt>
      <trkpt lat="47.29602" lon="9.47245">
        <ele>1149</ele>
        <time>2017-10-24T13:58:32Z</time>
      </trkpt>
      <trkpt lat="47.29614" lon="9.47315">
        <ele>1157</ele>
        <time>2017-10-24T14:00:32Z</time>
      </trkpt>
      <trkpt lat="47.29623" lon="9.47342">
        <ele>1160</ele>
        <time>2017-10-24T14:02:32Z</time>
      </trkpt>
      <trkpt lat="47.29624" lon="9.47363">
        <ele>1162</ele>
        <time>2017-10-24T14:04:32Z</time>
      </trkpt>
      <trkpt lat="47.29623" lon="9.47388">
        <ele>1165</ele>
        <time>2017-10-24T14:06:32Z</time>
      </trkpt>
      <trkpt lat="47.29622" lon="9.47397">
        <ele>1166</ele>
        <time>2017-10-24T14:08:32Z</time>
      </trkpt>
      <trkpt lat="47.29633" lon="9.47427">
        <ele>1167</ele>
        <time>2017-10-24T14:10:32Z</time>
      </trkpt>
      <trkpt lat="47.29633" lon="9.47468">
        <ele>1174</ele>
        <time>2017-10-24T14:12:32Z</time>
      </trkpt>
      <trkpt lat="47.29627" lon="9.47503">
        <ele>1180</ele>
        <time>2017-10-24T14:14:32Z</time>
      </trkpt>
      <trkpt lat="47.29614" lon="9.47526">
        <ele>1186</ele>
        <time>2017-10-24T14:16:32Z</time>
      </trkpt>
      <trkpt lat="47.29604" lon="9.47543">
        <ele>1191</ele>
        <time>2017-10-24T14:18:32Z</time>
      </trkpt>
      <trkpt lat="47.29611" lon="9.47565">
        <ele>1191</ele>
        <time>2017-10-24T14:20:32Z</time>
      </trkpt>
      <trkpt lat="47.29614" lon="9.47577">
        <ele>1192</ele>
        <time>2017-10-24T14:22:32Z</time>
      </trkpt>
      <trkpt lat="47.29613" lon="9.47614">
        <ele>1194</ele>
        <time>2017-10-24T14:24:32Z</time>
      </trkpt>
      <trkpt lat="47.296" lon="9.47695">
        <ele>1203</ele>
        <time>2017-10-24T14:26:32Z</time>
      </trkpt>
      <trkpt lat="47.29598" lon="9.47727">
        <ele>1206</ele>
        <time>2017-10-24T14:28:32Z</time>
      </trkpt>
      <trkpt lat="47.29595" lon="9.47759">
        <ele>1210</ele>
        <time>2017-10-24T14:30:32Z</time>
      </trkpt>
      <trkpt lat="47.29587" lon="9.4778">
        <ele>1214</ele>
        <time>2017-10-24T14:32:32Z</time>
      </trkpt>
      <trkpt lat="47.29562" lon="9.47828">
        <ele>1223</ele>
        <time>2017-10-24T14:34:32Z</time>
      </trkpt>
      <trkpt lat="47.29556" lon="9.47838">
        <ele>1225</ele>
        <time>2017-10-24T14:36:32Z</time>
      </trkpt>
      <trkpt lat="47.29553" lon="9.47849">
        <ele>1226</ele>
        <time>2017-10-24T14:38:32Z</time>
      </trkpt>
      <trkpt lat="47.29551" lon="9.47861">
        <ele>1227</ele>
        <time>2017-10-24T14:40:32Z</time>
      </trkpt>
      <trkpt lat="47.29553" lon="9.47874">
        <ele>1228</ele>
        <time>2017-10-24T14:42:32Z</time>
      </trkpt>
      <trkpt lat="47.29558" lon="9.47888">
        <ele>1227</ele>
        <time>2017-10-24T14:44:32Z</time>
      </trkpt>
      <trkpt lat="47.29561" lon="9.47902">
        <ele>1228</ele>
        <time>2017-10-24T14:46:32Z</time>
      </trkpt>
      <trkpt lat="47.29558" lon="9.47918">
        <ele>1229</ele>
        <time>2017-10-24T14:48:32Z</time>
      </trkpt>
      <trkpt lat="47.29551" lon="9.47928">
        <ele>1231</ele>
        <time>2017-10-24T14:50:32Z</time>
      </trkpt>
      <trkpt lat="47.29542" lon="9.47933">
        <ele>1233</ele>
        <time>2017-10-24T14:52:32Z</time>
      </trkpt>
      <trkpt lat="47.29531" lon="9.47938">
        <ele>1236</ele>
        <time>2017-10-24T14:54:32Z</time>
      </trkpt>
      <trkpt lat="47.29518" lon="9.47943">
        <ele>1239</ele>
        <time>2017-10-24T14:56:32Z</time>
      </trkpt>
      <trkpt lat="47.29508" lon="9.47943">
        <ele>1241</ele>
        <time>2017-10-24T14:58:32Z</time>
      </trkpt>
      <trkpt lat="47.29501" lon="9.47937">
        <ele>1242</ele>
        <time>2017-10-24T15:00:32Z</time>
      </trkpt>
      <trkpt lat="47.29497" lon="9.47927">
        <ele>1242</ele>
        <time>2017-10-24T15:02:32Z</time>
      </trkpt>
      <trkpt lat="47.29493" lon="9.47906">
        <ele>1242</ele>
        <time>2017-10-24T15:04:32Z</time>
      </trkpt>
      <trkpt lat="47.29488" lon="9.47881">
        <ele>1243</ele>
        <time>2017-10-24T15:06:32Z</time>
      </trkpt>
      <trkpt lat="47.29482" lon="9.47861">
        <ele>1243</ele>
        <time>2017-10-24T15:08:32Z</time>
      </trkpt>
      <trkpt lat="47.29475" lon="9.47843">
        <ele>1244</ele>
        <time>2017-10-24T15:10:32Z</time>
      </trkpt>
      <trkpt lat="47.29465" lon="9.47825">
        <ele>1245</ele>
        <time>2017-10-24T15:12:32Z</time>
      </trkpt>
      <trkpt lat="47.29455" lon="9.47815">
        <ele>1246</ele>
        <time>2017-10-24T15:14:32Z</time>
      </trkpt>
      <trkpt lat="47.29446" lon="9.4781">
        <ele>1248</ele>
        <time>2017-10-24T15:16:32Z</time>
      </trkpt>
      <trkpt lat="47.29438" lon="9.4781">
        <ele>1250</ele>
        <time>2017-10-24T15:18:32Z</time>
      </trkpt>
      <trkpt lat="47.29429" lon="9.47811">
        <ele>1252</ele>
        <time>2017-10-24T15:20:32Z</time>
      </trkpt>
      <trkpt lat="47.2942" lon="9.47812">
        <ele>1255</ele>
        <time>2017-10-24T15:22:32Z</time>
      </trkpt>
      <trkpt lat="47.29409" lon="9.47816">
        <ele>1257</ele>
        <time>2017-10-24T15:24:32Z</time>
      </trkpt>
      <trkpt lat="47.294" lon="9.47819">
        <ele>1259</ele>
        <time>2017-10-24T15:26:32Z</time>
      </trkpt>
      <trkpt lat="47.29389" lon="9.47821">
        <ele>1260</ele>
        <time>2017-10-24T15:28:32Z</time>
      </trkpt>
      <trkpt lat="47.29378" lon="9.4782">
        <ele>1262</ele>
        <time>2017-10-24T15:30:32Z</time>
      </trkpt>
      <trkpt lat="47.29369" lon="9.47817">
        <ele>1263</ele>
        <time>2017-10-24T15:32:32Z</time>
      </trkpt>
      <trkpt lat="47.29357" lon="9.47815">
        <ele>1264</ele>
        <time>2017-10-24T15:34:32Z</time>
      </trkpt>
      <trkpt lat="47.29346" lon="9.47812">
        <ele>1265</ele>
        <time>2017-10-24T15:36:32Z</time>
      </trkpt>
      <trkpt lat="47.29324" lon="9.47812">
        <ele>1268</ele>
        <time>2017-10-24T15:38:32Z</time>
      </trkpt>
      <trkpt lat="47.2929" lon="9.47814">
        <ele>1273</ele>
        <time>2017-10-24T15:40:32Z</time>
      </trkpt>
      <trkpt lat="47.29283" lon="9.47815">
        <ele>1274</ele>
        <time>2017-10-24T15:42:32Z</time>
      </trkpt>
      <trkpt lat="47.29283" lon="9.47815">
        <ele>1274</ele>
        <time>2017-10-24T15:44:32Z</time>
      </trkpt>
      <trkpt lat="47.29284" lon="9.47823">
        <ele>1275</ele>
        <time>2017-10-24T15:46:32Z</time>
      </trkpt>
      <trkpt lat="47.29285" lon="9.47833">
        <ele>1277</ele>
        <time>2017-10-24T15:48:32Z</time>
      </trkpt>
      <trkpt lat="47.29287" lon="9.4784">
        <ele>1278</ele>
        <time>2017-10-24T15:50:32Z</time>
      </trkpt>
      <trkpt lat="47.29289" lon="9.47847">
        <ele>1279</ele>
        <time>2017-10-24T15:52:32Z</time>
      </trkpt>
      <trkpt lat="47.2929" lon="9.47853">
        <ele>1279</ele>
        <time>2017-10-24T15:54:32Z</time>
      </trkpt>
      <trkpt lat="47.2929" lon="9.47855">
        <ele>1280</ele>
        <time>2017-10-24T15:56:32Z</time>
      </trkpt>
      <trkpt lat="47.2929" lon="9.47855">
        <ele>1280</ele>
        <time>2017-10-24T15:58:32Z</time>
      </trkpt>
      <trkpt lat="47.29316" lon="9.47898">
        <ele>1283</ele>
        <time>2017-10-24T16:00:32Z</time>
      </trkpt>
      <trkpt lat="47.29342" lon="9.47916">
        <ele>1283</ele>
        <time>2017-10-24T16:02:32Z</time>
      </trkpt>
      <trkpt lat="47.29358" lon="9.47944">
        <ele>1283</ele>
        <time>2017-10-24T16:04:32Z</time>
      </trkpt>
      <trkpt lat="47.29388" lon="9.47986">
        <ele>1281</ele>
        <time>2017-10-24T16:06:32Z</time>
      </trkpt>
      <trkpt lat="47.29436" lon="9.48022">
        <ele>1270</ele>
        <time>2017-10-24T16:08:32Z</time>
      </trkpt>
      <trkpt lat="47.29463" lon="9.48045">
        <ele>1266</ele>
        <time>2017-10-24T16:10:32Z</time>
      </trkpt>
      <trkpt lat="47.29472" lon="9.48058">
        <ele>1265</ele>
        <time>2017-10-24T16:12:32Z</time>
      </trkpt>
      <trkpt lat="47.29477" lon="9.48065">
        <ele>1265</ele>
        <time>2017-10-24T16:14:32Z</time>
      </trkpt>
      <trkpt lat="47.29479" lon="9.48073">
        <ele>1266</ele>
        <time>2017-10-24T16:16:32Z</time>
      </trkpt>
      <trkpt lat="47.29484" lon="9.48089">
        <ele>1267</ele>
        <time>2017-10-24T16:18:32Z</time>
      </trkpt>
      <trkpt lat="47.29491" lon="9.48112">
        <ele>1271</ele>
        <time>2017-10-24T16:20:32Z</time>
      </trkpt>
      <trkpt lat="47.29498" lon="9.48143">
        <ele>1276</ele>
        <time>2017-10-24T16:22:32Z</time>
      </trkpt>
      <trkpt lat="47.29502" lon="9.48159">
        <ele>1278</ele>
        <time>2017-10-24T16:24:32Z</time>
      </trkpt>
      <trkpt lat="47.29506" lon="9.48165">
        <ele>1278</ele>
        <time>2017-10-24T16:26:32Z</time>
      </trkpt>
      <trkpt lat="47.29528" lon="9.48191">
        <ele>1278</ele>
        <time>2017-10-24T16:28:32Z</time>
      </trkpt>
      <trkpt lat="47.29537" lon="9.48205">
        <ele>1278</ele>
        <time>2017-10-24T16:30:32Z</time>
      </trkpt>
      <trkpt lat="47.29542" lon="9.48217">
        <ele>1279</ele>
        <time>2017-10-24T16:32:32Z</time>
      </trkpt>
      <trkpt lat="47.29545" lon="9.48237">
        <ele>1282</ele>
        <time>2017-10-24T16:34:32Z</time>
      </trkpt>
      <trkpt lat="47.29544" lon="9.4825">
        <ele>1285</ele>
        <time>2017-10-24T16:36:32Z</time>
      </trkpt>
      <trkpt lat="47.29541" lon="9.48261">
        <ele>1287</ele>
        <time>2017-10-24T16:38:32Z</time>
      </trkpt>
      <trkpt lat="47.29534" lon="9.48276">
        <ele>1292</ele>
        <time>2017-10-24T16:40:32Z</time>
      </trkpt>
      <trkpt lat="47.2953" lon="9.48283">
        <ele>1294</ele>
        <time>2017-10-24T16:42:32Z</time>
      </trkpt>
      <trkpt lat="47.29518" lon="9.48296">
        <ele>1301</ele>
        <time>2017-10-24T16:44:32Z</time>
      </trkpt>
      <trkpt lat="47.2952" lon="9.48316">
        <ele>1304</ele>
        <time>2017-10-24T16:46:32Z</time>
      </trkpt>
      <trkpt lat="47.29521" lon="9.48337">
        <ele>1307</ele>
        <time>2017-10-24T16:48:32Z</time>
      </trkpt>
      <trkpt lat="47.29521" lon="9.48355">
        <ele>1307</ele>
        <time>2017-10-24T16:50:32Z</time>
      </trkpt>
      <trkpt lat="47.29518" lon="9.48435">
        <ele>1312</ele>
        <time>2017-10-24T16:52:32Z</time>
      </trkpt>
      <trkpt lat="47.29575" lon="9.48533">
        <ele>1301</ele>
        <time>2017-10-24T16:54:32Z</time>
      </trkpt>
      <trkpt lat="47.29607" lon="9.48576">
        <ele>1298</ele>
        <time>2017-10-24T16:56:32Z</time>
      </trkpt>
      <trkpt lat="47.29671" lon="9.486">
        <ele>1288</ele>
        <time>2017-10-24T16:58:32Z</time>
      </trkpt>
      <trkpt lat="47.29689" lon="9.48613">
        <ele>1287</ele>
        <time>2017-10-24T17:00:32Z</time>
      </trkpt>
      <trkpt lat="47.29726" lon="9.48616">
        <ele>1281</ele>
        <time>2017-10-24T17:02:32Z</time>
      </trkpt>
      <trkpt lat="47.29783" lon="9.48624">
        <ele>1273</ele>
        <time>2017-10-24T17:04:32Z</time>
      </trkpt>
      <trkpt lat="47.29864" lon="9.48669">
        <ele>1274</ele>
        <time>2017-10-24T17:06:32Z</time>
      </trkpt>
      <trkpt lat="47.29904" lon="9.4871">
        <ele>1276</ele>
        <time>2017-10-24T17:08:32Z</time>
      </trkpt>
      <trkpt lat="47.29935" lon="9.48755">
        <ele>1279</ele>
        <time>2017-10-24T17:10:32Z</time>
      </trkpt>
      <trkpt lat="47.30004" lon="9.48846">
        <ele>1277</ele>
        <time>2017-10-24T17:12:32Z</time>
      </trkpt>
      <trkpt lat="47.3009" lon="9.48974">
        <ele>1280</ele>
        <time>2017-10-24T17:14:32Z</time>
      </trkpt>
      <trkpt lat="47.30108" lon="9.49002">
        <ele>1283</ele>
        <time>2017-10-24T17:16:32Z</time>
      </trkpt>
      <trkpt lat="47.30144" lon="9.49017">
        <ele>1278</ele>
        <time>2017-10-24T17:18:32Z</time>
      </trkpt>
      <trkpt lat="47.3018" lon="9.49058">
        <ele>1281</ele>
        <time>2017-10-24T17:20:32Z</time>
      </trkpt>
      <trkpt lat="47.30234" lon="9.49106">
        <ele>1282</ele>
        <time>2017-10-24T17:22:32Z</time>
      </trkpt>
      <trkpt lat="47.30293" lon="9.49164">
        <ele>1287</ele>
        <time>2017-10-24T17:24:32Z</time>
      </trkpt>
      <trkpt lat="47.30328" lon="9.4922">
        <ele>1288</ele>
        <time>2017-10-24T17:26:32Z</time>
      </trkpt>
      <trkpt lat="47.30371" lon="9.49317">
        <ele>1289</ele>
        <time>2017-10-24T17:28:32Z</time>
      </trkpt>
      <trkpt lat="47.30403" lon="9.49382">
        <ele>1290</ele>
        <time>2017-10-24T17:30:32Z</time>
      </trkpt>
      <trkpt lat="47.30413" lon="9.49397">
        <ele>1290</ele>
        <time>2017-10-24T17:32:32Z</time>
      </trkpt>
      <trkpt lat="47.30425" lon="9.49416">
        <ele>1290</ele>
        <time>2017-10-24T17:34:32Z</time>
      </trkpt>
      <trkpt lat="47.30429" lon="9.49422">
        <ele>1290</ele>
        <time>2017-10-24T17:36:32Z</time>
      </trkpt>
      <trkpt lat="47.30447" lon="9.49452">
        <ele>1291</ele>
        <time>2017-10-24T17:38:32Z</time>
      </trkpt>
      <trkpt lat="47.30452" lon="9.49462">
        <ele>1291</ele>
        <time>2017-10-24T17:40:32Z</time>
      </trkpt>
      <trkpt lat="47.30464" lon="9.49496">
        <ele>1292</ele>
        <time>2017-10-24T17:42:32Z</time>
      </trkpt>
      <trkpt lat="47.30467" lon="9.49501">
        <ele>1292</ele>
        <time>2017-10-24T17:44:32Z</time>
      </trkpt>
      <trkpt lat="47.30479" lon="9.49513">
        <ele>1291</ele>
        <time>2017-10-24T17:46:32Z</time>
      </trkpt>
      <trkpt lat="47.30485" lon="9.49523">
        <ele>1290</ele>
        <time>2017-10-24T17:48:32Z</time>
      </trkpt>
      <trkpt lat="47.30499" lon="9.49546">
        <ele>1289</ele>
        <time>2017-10-24T17:50:32Z</time>
      </trkpt>
      <trkpt lat="47.3053" lon="9.49596">
        <ele>1291</ele>
        <time>2017-10-24T17:52:32Z</time>
      </trkpt>
      <trkpt lat="47.30545" lon="9.49622">
        <ele>1292</ele>
        <time>2017-10-24T17:54:32Z</time>
      </trkpt>
      <trkpt lat="47.30552" lon="9.49637">
        <ele>1293</ele>
        <time>2017-10-24T17:56:32Z</time>
      </trkpt>
      <trkpt lat="47.30558" lon="9.49654">
        <ele>1293</ele>
        <time>2017-10-24T17:58:32Z</time>
      </trkpt>
      <trkpt lat="47.30572" lon="9.49673">
        <ele>1292</ele>
        <time>2017-10-24T18:00:32Z</time>
      </trkpt>
      <trkpt lat="47.3058" lon="9.49683">
        <ele>1291</ele>
        <time>2017-10-24T18:02:32Z</time>
      </trkpt>
      <trkpt lat="47.30589" lon="9.49702">
        <ele>1291</ele>
        <time>2017-10-24T18:04:32Z</time>
      </trkpt>
      <trkpt lat="47.30598" lon="9.49723">
        <ele>1291</ele>
        <time>2017-10-24T18:06:32Z</time>
      </trkpt>
      <trkpt lat="47.30601" lon="9.49732">
        <ele>1291</ele>
        <time>2017-10-24T18:08:32Z</time>
      </trkpt>
      <trkpt lat="47.30602" lon="9.49739">
        <ele>1292</ele>
        <time>2017-10-24T18:10:32Z</time>
      </trkpt>
      <trkpt lat="47.30602" lon="9.49747">
        <ele>1292</ele>
        <time>2017-10-24T18:12:32Z</time>
      </trkpt>
      <trkpt lat="47.30595" lon="9.49783">
        <ele>1293</ele>
        <time>2017-10-24T18:14:32Z</time>
      </trkpt>
      <trkpt lat="47.3059" lon="9.49801">
        <ele>1295</ele>
        <time>2017-10-24T18:16:32Z</time>
      </trkpt>
      <trkpt lat="47.30581" lon="9.49816">
        <ele>1299</ele>
        <time>2017-10-24T18:18:32Z</time>
      </trkpt>
      <trkpt lat="47.30578" lon="9.4983">
        <ele>1301</ele>
        <time>2017-10-24T18:20:32Z</time>
      </trkpt>
      <trkpt lat="47.30577" lon="9.49847">
        <ele>1302</ele>
        <time>2017-10-24T18:22:32Z</time>
      </trkpt>
      <trkpt lat="47.30579" lon="9.49877">
        <ele>1300</ele>
        <time>2017-10-24T18:24:32Z</time>
      </trkpt>
      <trkpt lat="47.3058" lon="9.49889">
        <ele>1299</ele>
        <time>2017-10-24T18:26:32Z</time>
      </trkpt>
      <trkpt lat="47.3058" lon="9.49901">
        <ele>1298</ele>
        <time>2017-10-24T18:28:32Z</time>
      </trkpt>
      <trkpt lat="47.30578" lon="9.49913">
        <ele>1299</ele>
        <time>2017-10-24T18:30:32Z</time>
      </trkpt>
      <trkpt lat="47.30574" lon="9.49936">
        <ele>1301</ele>
        <time>2017-10-24T18:32:32Z</time>
      </trkpt>
      <trkpt lat="47.30569" lon="9.49959">
        <ele>1303</ele>
        <time>2017-10-24T18:34:32Z</time>
      </trkpt>
      <trkpt lat="47.30566" lon="9.50039">
        <ele>1299</ele>
        <time>2017-10-24T18:36:32Z</time>
      </trkpt>
      <trkpt lat="47.30548" lon="9.50094">
        <ele>1299</ele>
        <time>2017-10-24T18:38:32Z</time>
      </trkpt>
      <trkpt lat="47.30538" lon="9.50133">
        <ele>1299</ele>
        <time>2017-10-24T18:40:32Z</time>
      </trkpt>
      <trkpt lat="47.30536" lon="9.50157">
        <ele>1297</ele>
        <time>2017-10-24T18:42:32Z</time>
      </trkpt>
      <trkpt lat="47.30541" lon="9.50171">
        <ele>1296</ele>
        <time>2017-10-24T18:44:32Z</time>
      </trkpt>
      <trkpt lat="47.30554" lon="9.50185">
        <ele>1295</ele>
        <time>2017-10-24T18:46:32Z</time>
      </trkpt>
      <trkpt lat="47.30569" lon="9.502">
        <ele>1295</ele>
        <time>2017-10-24T18:48:32Z</time>
      </trkpt>
      <trkpt lat="47.30588" lon="9.50224">
        <ele>1295</ele>
        <time>2017-10-24T18:50:32Z</time>
      </trkpt>
      <trkpt lat="47.30597" lon="9.50237">
        <ele>1293</ele>
        <time>2017-10-24T18:52:32Z</time>
      </trkpt>
      <trkpt lat="47.30603" lon="9.5025">
        <ele>1293</ele>
        <time>2017-10-24T18:54:32Z</time>
      </trkpt>
      <trkpt lat="47.30607" lon="9.50264">
        <ele>1294</ele>
        <time>2017-10-24T18:56:32Z</time>
      </trkpt>
      <trkpt lat="47.30613" lon="9.5029">
        <ele>1296</ele>
        <time>2017-10-24T18:58:32Z</time>
      </trkpt>
      <trkpt lat="47.3062" lon="9.5032">
        <ele>1298</ele>
        <time>2017-10-24T19:00:32Z</time>
      </trkpt>
      <trkpt lat="47.30625" lon="9.50343">
        <ele>1299</ele>
        <time>2017-10-24T19:02:32Z</time>
      </trkpt>
      <trkpt lat="47.3063" lon="9.50358">
        <ele>1297</ele>
        <time>2017-10-24T19:04:32Z</time>
      </trkpt>
      <trkpt lat="47.30634" lon="9.50372">
        <ele>1295</ele>
        <time>2017-10-24T19:06:32Z</time>
      </trkpt>
      <trkpt lat="47.3064" lon="9.50383">
        <ele>1293</ele>
        <time>2017-10-24T19:08:32Z</time>
      </trkpt>
      <trkpt lat="47.30652" lon="9.50391">
        <ele>1289</ele>
        <time>2017-10-24T19:10:32Z</time>
      </trkpt>
      <trkpt lat="47.30659" lon="9.50398">
        <ele>1286</ele>
        <time>2017-10-24T19:12:32Z</time>
      </trkpt>
      <trkpt lat="47.30679" lon="9.50425">
        <ele>1280</ele>
        <time>2017-10-24T19:14:32Z</time>
      </trkpt>
      <trkpt lat="47.30697" lon="9.50451">
        <ele>1276</ele>
        <time>2017-10-24T19:16:32Z</time>
      </trkpt>
      <trkpt lat="47.30715" lon="9.50487">
        <ele>1271</ele>
        <time>2017-10-24T19:18:32Z</time>
      </trkpt>
      <trkpt lat="47.30726" lon="9.50509">
        <ele>1268</ele>
        <time>2017-10-24T19:20:32Z</time>
      </trkpt>
      <trkpt lat="47.30729" lon="9.50517">
        <ele>1267</ele>
        <time>2017-10-24T19:22:32Z</time>
      </trkpt>
      <trkpt lat="47.30732" lon="9.50526">
        <ele>1267</ele>
        <time>2017-10-24T19:24:32Z</time>
      </trkpt>
      <trkpt lat="47.30733" lon="9.50536">
        <ele>1267</ele>
        <time>2017-10-24T19:26:32Z</time>
      </trkpt>
      <trkpt lat="47.30732" lon="9.50578">
        <ele>1270</ele>
        <time>2017-10-24T19:28:32Z</time>
      </trkpt>
      <trkpt lat="47.30732" lon="9.5064">
        <ele>1271</ele>
        <time>2017-10-24T19:30:32Z</time>
      </trkpt>
      <trkpt lat="47.30732" lon="9.50662">
        <ele>1271</ele>
        <time>2017-10-24T19:32:32Z</time>
      </trkpt>
      <trkpt lat="47.30724" lon="9.50716">
        <ele>1272</ele>
        <time>2017-10-24T19:34:32Z</time>
      </trkpt>
      <trkpt lat="47.30722" lon="9.50726">
        <ele>1273</ele>
        <time>2017-10-24T19:36:32Z</time>
      </trkpt>
      <trkpt lat="47.30727" lon="9.508">
        <ele>1265</ele>
        <time>2017-10-24T19:38:32Z</time>
      </trkpt>
      <trkpt lat="47.30733" lon="9.50862">
        <ele>1257</ele>
        <time>2017-10-24T19:40:32Z</time>
      </trkpt>
      <trkpt lat="47.30738" lon="9.509">
        <ele>1252</ele>
        <time>2017-10-24T19:42:32Z</time>
      </trkpt>
      <trkpt lat="47.30738" lon="9.50908">
        <ele>1252</ele>
        <time>2017-10-24T19:44:32Z</time>
      </trkpt>
      <trkpt lat="47.30732" lon="9.50941">
        <ele>1250</ele>
        <time>2017-10-24T19:46:32Z</time>
      </trkpt>
      <trkpt lat="47.30729" lon="9.50958">
        <ele>1249</ele>
        <time>2017-10-24T19:48:32Z</time>
      </trkpt>
      <trkpt lat="47.30724" lon="9.51011">
        <ele>1243</ele>
        <time>2017-10-24T19:50:32Z</time>
      </trkpt>
      <trkpt lat="47.30723" lon="9.51019">
        <ele>1243</ele>
        <time>2017-10-24T19:52:32Z</time>
      </trkpt>
      <trkpt lat="47.30722" lon="9.51026">
        <ele>1242</ele>
        <time>2017-10-24T19:54:32Z</time>
      </trkpt>
      <trkpt lat="47.30715" lon="9.51032">
        <ele>1243</ele>
        <time>2017-10-24T19:56:32Z</time>
      </trkpt>
      <trkpt lat="47.30695" lon="9.51042">
        <ele>1247</ele>
        <time>2017-10-24T19:58:32Z</time>
      </trkpt>
      <trkpt lat="47.30686" lon="9.51049">
        <ele>1248</ele>
        <time>2017-10-24T20:00:32Z</time>
      </trkpt>
      <trkpt lat="47.30679" lon="9.51058">
        <ele>1247</ele>
        <time>2017-10-24T20:02:32Z</time>
      </trkpt>
      <trkpt lat="47.30669" lon="9.51081">
        <ele>1243</ele>
        <time>2017-10-24T20:04:32Z</time>
      </trkpt>
      <trkpt lat="47.30668" lon="9.51094">
        <ele>1241</ele>
        <time>2017-10-24T20:06:32Z</time>
      </trkpt>
      <trkpt lat="47.30671" lon="9.51107">
        <ele>1238</ele>
        <time>2017-10-24T20:08:32Z</time>
      </trkpt>
      <trkpt lat="47.30676" lon="9.51126">
        <ele>1234</ele>
        <time>2017-10-24T20:10:32Z</time>
      </trkpt>
      <trkpt lat="47.30679" lon="9.51137">
        <ele>1232</ele>
        <time>2017-10-24T20:12:32Z</time>
      </trkpt>
      <trkpt lat="47.3068" lon="9.51146">
        <ele>1231</ele>
        <time>2017-10-24T20:14:32Z</time>
      </trkpt>
      <trkpt lat="47.30678" lon="9.51156">
        <ele>1229</ele>
        <time>2017-10-24T20:16:32Z</time>
      </trkpt>
      <trkpt lat="47.30672" lon="9.51176">
        <ele>1226</ele>
        <time>2017-10-24T20:18:32Z</time>
      </trkpt>
      <trkpt lat="47.30663" lon="9.51195">
        <ele>1225</ele>
        <time>2017-10-24T20:20:32Z</time>
      </trkpt>
      <trkpt lat="47.30641" lon="9.51228">
        <ele>1222</ele>
        <time>2017-10-24T20:22:32Z</time>
      </trkpt>
      <trkpt lat="47.30625" lon="9.51257">
        <ele>1219</ele>
        <time>2017-10-24T20:24:32Z</time>
      </trkpt>
      <trkpt lat="47.30625" lon="9.51257">
        <ele>1219</ele>
        <time>2017-10-24T20:26:32Z</time>
      </trkpt>
      <trkpt lat="47.3063" lon="9.51293">
        <ele>1218</ele>
        <time>2017-10-24T20:28:32Z</time>
      </trkpt>
      <trkpt lat="47.30635" lon="9.5132">
        <ele>1218</ele>
        <time>2017-10-24T20:30:32Z</time>
      </trkpt>
      <trkpt lat="47.30636" lon="9.51327">
        <ele>1218</ele>
        <time>2017-10-24T20:32:32Z</time>
      </trkpt>
      <trkpt lat="47.30636" lon="9.51358">
        <ele>1215</ele>
        <time>2017-10-24T20:34:32Z</time>
      </trkpt>
      <trkpt lat="47.30636" lon="9.51384">
        <ele>1212</ele>
        <time>2017-10-24T20:36:32Z</time>
      </trkpt>
      <trkpt lat="47.3064" lon="9.514">
        <ele>1210</ele>
        <time>2017-10-24T20:38:32Z</time>
      </trkpt>
      <trkpt lat="47.30652" lon="9.51428">
        <ele>1209</ele>
        <time>2017-10-24T20:40:32Z</time>
      </trkpt>
      <trkpt lat="47.30666" lon="9.5146">
        <ele>1207</ele>
        <time>2017-10-24T20:42:32Z</time>
      </trkpt>
      <trkpt lat="47.30673" lon="9.5148">
        <ele>1203</ele>
        <time>2017-10-24T20:44:32Z</time>
      </trkpt>
      <trkpt lat="47.30679" lon="9.51497">
        <ele>1200</ele>
        <time>2017-10-24T20:46:32Z</time>
      </trkpt>
      <trkpt lat="47.30681" lon="9.515">
        <ele>1200</ele>
        <time>2017-10-24T20:48:32Z</time>
      </trkpt>
      <trkpt lat="47.30684" lon="9.51504">
        <ele>1198</ele>
        <time>2017-10-24T20:50:32Z</time>
      </trkpt>
      <trkpt lat="47.3069" lon="9.51509">
        <ele>1196</ele>
        <time>2017-10-24T20:52:32Z</time>
      </trkpt>
      <trkpt lat="47.30692" lon="9.5151">
        <ele>1196</ele>
        <time>2017-10-24T20:54:32Z</time>
      </trkpt>
      <trkpt lat="47.30696" lon="9.5151">
        <ele>1195</ele>
        <time>2017-10-24T20:56:32Z</time>
      </trkpt>
      <trkpt lat="47.30703" lon="9.51509">
        <ele>1195</ele>
        <time>2017-10-24T20:58:32Z</time>
      </trkpt>
      <trkpt lat="47.30711" lon="9.51505">
        <ele>1196</ele>
        <time>2017-10-24T21:00:32Z</time>
      </trkpt>
      <trkpt lat="47.30722" lon="9.51496">
        <ele>1197</ele>
        <time>2017-10-24T21:02:32Z</time>
      </trkpt>
      <trkpt lat="47.30731" lon="9.51487">
        <ele>1198</ele>
        <time>2017-10-24T21:04:32Z</time>
      </trkpt>
      <trkpt lat="47.30738" lon="9.51476">
        <ele>1199</ele>
        <time>2017-10-24T21:06:32Z</time>
      </trkpt>
      <trkpt lat="47.30746" lon="9.51465">
        <ele>1201</ele>
        <time>2017-10-24T21:08:32Z</time>
      </trkpt>
      <trkpt lat="47.30751" lon="9.51458">
        <ele>1202</ele>
        <time>2017-10-24T21:10:32Z</time>
      </trkpt>
      <trkpt lat="47.30756" lon="9.51453">
        <ele>1202</ele>
        <time>2017-10-24T21:12:32Z</time>
      </trkpt>
      <trkpt lat="47.30767" lon="9.51447">
        <ele>1202</ele>
        <time>2017-10-24T21:14:32Z</time>
      </trkpt>
      <trkpt lat="47.30782" lon="9.51445">
        <ele>1200</ele>
        <time>2017-10-24T21:16:32Z</time>
      </trkpt>
      <trkpt lat="47.30786" lon="9.51443">
        <ele>1199</ele>
        <time>2017-10-24T21:18:32Z</time>
      </trkpt>
      <trkpt lat="47.30806" lon="9.51439">
        <ele>1197</ele>
        <time>2017-10-24T21:20:32Z</time>
      </trkpt>
      <trkpt lat="47.30814" lon="9.51437">
        <ele>1196</ele>
        <time>2017-10-24T21:22:32Z</time>
      </trkpt>
      <trkpt lat="47.30816" lon="9.51437">
        <ele>1196</ele>
        <time>2017-10-24T21:24:32Z</time>
      </trkpt>
      <trkpt lat="47.30822" lon="9.51439">
        <ele>1195</ele>
        <time>2017-10-24T21:26:32Z</time>
      </trkpt>
      <trkpt lat="47.30822" lon="9.51439">
        <ele>1195</ele>
        <time>2017-10-24T21:28:32Z</time>
      </trkpt>
      <trkpt lat="47.30824" lon="9.51448">
        <ele>1193</ele>
        <time>2017-10-24T21:30:32Z</time>
      </trkpt>
      <trkpt lat="47.30825" lon="9.51453">
        <ele>1192</ele>
        <time>2017-10-24T21:32:32Z</time>
      </trkpt>
      <trkpt lat="47.30825" lon="9.51457">
        <ele>1191</ele>
        <time>2017-10-24T21:34:32Z</time>
      </trkpt>
      <trkpt lat="47.30823" lon="9.51461">
        <ele>1191</ele>
        <time>2017-10-24T21:36:32Z</time>
      </trkpt>
      <trkpt lat="47.30819" lon="9.51465">
        <ele>1190</ele>
        <time>2017-10-24T21:38:32Z</time>
      </trkpt>
      <trkpt lat="47.30816" lon="9.51467">
        <ele>1191</ele>
        <time>2017-10-24T21:40:32Z</time>
      </trkpt>
      <trkpt lat="47.30811" lon="9.51469">
        <ele>1191</ele>
        <time>2017-10-24T21:42:32Z</time>
      </trkpt>
      <trkpt lat="47.30798" lon="9.51471">
        <ele>1192</ele>
        <time>2017-10-24T21:44:32Z</time>
      </trkpt>
      <trkpt lat="47.30791" lon="9.51475">
        <ele>1193</ele>
        <time>2017-10-24T21:46:32Z</time>
      </trkpt>
      <trkpt lat="47.30786" lon="9.51479">
        <ele>1193</ele>
        <time>2017-10-24T21:48:32Z</time>
      </trkpt>
      <trkpt lat="47.30781" lon="9.51486">
        <ele>1192</ele>
        <time>2017-10-24T21:50:32Z</time>
      </trkpt>
      <trkpt lat="47.30761" lon="9.51516">
        <ele>1186</ele>
        <time>2017-10-24T21:52:32Z</time>
      </trkpt>
      <trkpt lat="47.30751" lon="9.51528">
        <ele>1184</ele>
        <time>2017-10-24T21:54:32Z</time>
      </trkpt>
      <trkpt lat="47.30739" lon="9.51544">
        <ele>1179</ele>
        <time>2017-10-24T21:56:32Z</time>
      </trkpt>
      <trkpt lat="47.3073" lon="9.51546">
        <ele>1180</ele>
        <time>2017-10-24T21:58:32Z</time>
      </trkpt>
      <trkpt lat="47.30722" lon="9.51549">
        <ele>1179</ele>
        <time>2017-10-24T22:00:32Z</time>
      </trkpt>
      <trkpt lat="47.30718" lon="9.51552">
        <ele>1179</ele>
        <time>2017-10-24T22:02:32Z</time>
      </trkpt>
      <trkpt lat="47.30685" lon="9.51573">
        <ele>1175</ele>
        <time>2017-10-24T22:04:32Z</time>
      </trkpt>
      <trkpt lat="47.30673" lon="9.51583">
        <ele>1173</ele>
        <time>2017-10-24T22:06:32Z</time>
      </trkpt>
      <trkpt lat="47.3066" lon="9.51588">
        <ele>1171</ele>
        <time>2017-10-24T22:08:32Z</time>
      </trkpt>
      <trkpt lat="47.3065" lon="9.51589">
        <ele>1169</ele>
        <time>2017-10-24T22:10:32Z</time>
      </trkpt>
      <trkpt lat="47.30645" lon="9.51589">
        <ele>1169</ele>
        <time>2017-10-24T22:12:32Z</time>
      </trkpt>
      <trkpt lat="47.30636" lon="9.51587">
        <ele>1168</ele>
        <time>2017-10-24T22:14:32Z</time>
      </trkpt>
      <trkpt lat="47.30632" lon="9.51585">
        <ele>1168</ele>
        <time>2017-10-24T22:16:32Z</time>
      </trkpt>
      <trkpt lat="47.30627" lon="9.51585">
        <ele>1167</ele>
        <time>2017-10-24T22:18:32Z</time>
      </trkpt>
      <trkpt lat="47.30621" lon="9.51584">
        <ele>1167</ele>
        <time>2017-10-24T22:20:32Z</time>
      </trkpt>
      <trkpt lat="47.30616" lon="9.51582">
        <ele>1166</ele>
        <time>2017-10-24T22:22:32Z</time>
      </trkpt>
      <trkpt lat="47.30603" lon="9.51573">
        <ele>1167</ele>
        <time>2017-10-24T22:24:32Z</time>
      </trkpt>
      <trkpt lat="47.30576" lon="9.51558">
        <ele>1166</ele>
        <time>2017-10-24T22:26:32Z</time>
      </trkpt>
      <trkpt lat="47.3057" lon="9.51558">
        <ele>1166</ele>
        <time>2017-10-24T22:28:32Z</time>
      </trkpt>
      <trkpt lat="47.30565" lon="9.51559">
        <ele>1166</ele>
        <time>2017-10-24T22:30:32Z</time>
      </trkpt>
      <trkpt lat="47.30562" lon="9.51566">
        <ele>1164</ele>
        <time>2017-10-24T22:32:32Z</time>
      </trkpt>
      <trkpt lat="47.30563" lon="9.51576">
        <ele>1162</ele>
        <time>2017-10-24T22:34:32Z</time>
      </trkpt>
      <trkpt lat="47.30563" lon="9.51577">
        <ele>1162</ele>
        <time>2017-10-24T22:36:32Z</time>
      </trkpt>
      <trkpt lat="47.30564" lon="9.5158">
        <ele>1161</ele>
        <time>2017-10-24T22:38:32Z</time>
      </trkpt>
      <trkpt lat="47.30565" lon="9.51581">
        <ele>1161</ele>
        <time>2017-10-24T22:40:32Z</time>
      </trkpt>
      <trkpt lat="47.30568" lon="9.51584">
        <ele>1160</ele>
        <time>2017-10-24T22:42:32Z</time>
      </trkpt>
      <trkpt lat="47.30578" lon="9.5159">
        <ele>1159</ele>
        <time>2017-10-24T22:44:32Z</time>
      </trkpt>
      <trkpt lat="47.30587" lon="9.51602">
        <ele>1157</ele>
        <time>2017-10-24T22:46:32Z</time>
      </trkpt>
      <trkpt lat="47.30596" lon="9.51618">
        <ele>1155</ele>
        <time>2017-10-24T22:48:32Z</time>
      </trkpt>
      <trkpt lat="47.30602" lon="9.51629">
        <ele>1152</ele>
        <time>2017-10-24T22:50:32Z</time>
      </trkpt>
      <trkpt lat="47.30606" lon="9.5164">
        <ele>1150</ele>
        <time>2017-10-24T22:52:32Z</time>
      </trkpt>
      <trkpt lat="47.30609" lon="9.51658">
        <ele>1145</ele>
        <time>2017-10-24T22:54:32Z</time>
      </trkpt>
      <trkpt lat="47.30611" lon="9.51674">
        <ele>1141</ele>
        <time>2017-10-24T22:56:32Z</time>
      </trkpt>
      <trkpt lat="47.3061" lon="9.5168">
        <ele>1139</ele>
        <time>2017-10-24T22:58:32Z</time>
      </trkpt>
      <trkpt lat="47.30609" lon="9.51689">
        <ele>1136</ele>
        <time>2017-10-24T23:00:32Z</time>
      </trkpt>
      <trkpt lat="47.30605" lon="9.51696">
        <ele>1133</ele>
        <time>2017-10-24T23:02:32Z</time>
      </trkpt>
      <trkpt lat="47.306" lon="9.51697">
        <ele>1133</ele>
        <time>2017-10-24T23:04:32Z</time>
      </trkpt>
      <trkpt lat="47.30597" lon="9.51695">
        <ele>1134</ele>
        <time>2017-10-24T23:06:32Z</time>
      </trkpt>
      <trkpt lat="47.30592" lon="9.51687">
        <ele>1137</ele>
        <time>2017-10-24T23:08:32Z</time>
      </trkpt>
      <trkpt lat="47.30587" lon="9.51677">
        <ele>1140</ele>
        <time>2017-10-24T23:10:32Z</time>
      </trkpt>
      <trkpt lat="47.30583" lon="9.51672">
        <ele>1141</ele>
        <time>2017-10-24T23:12:32Z</time>
      </trkpt>
      <trkpt lat="47.30575" lon="9.5167">
        <ele>1141</ele>
        <time>2017-10-24T23:14:32Z</time>
      </trkpt>
      <trkpt lat="47.3057" lon="9.51671">
        <ele>1140</ele>
        <time>2017-10-24T23:16:32Z</time>
      </trkpt>
      <trkpt lat="47.30558" lon="9.51669">
        <ele>1138</ele>
        <time>2017-10-24T23:18:32Z</time>
      </trkpt>
      <trkpt lat="47.30543" lon="9.51665">
        <ele>1137</ele>
        <time>2017-10-24T23:20:32Z</time>
      </trkpt>
      <trkpt lat="47.30536" lon="9.51666">
        <ele>1135</ele>
        <time>2017-10-24T23:22:32Z</time>
      </trkpt>
      <trkpt lat="47.30533" lon="9.51669">
        <ele>1134</ele>
        <time>2017-10-24T23:24:32Z</time>
      </trkpt>
      <trkpt lat="47.30531" lon="9.51676">
        <ele>1132</ele>
        <time>2017-10-24T23:26:32Z</time>
      </trkpt>
      <trkpt lat="47.3053" lon="9.51681">
        <ele>1131</ele>
        <time>2017-10-24T23:28:32Z</time>
      </trkpt>
      <trkpt lat="47.30533" lon="9.51687">
        <ele>1130</ele>
        <time>2017-10-24T23:30:32Z</time>
      </trkpt>
      <trkpt lat="47.30539" lon="9.51691">
        <ele>1130</ele>
        <time>2017-10-24T23:32:32Z</time>
      </trkpt>
      <trkpt lat="47.30546" lon="9.51695">
        <ele>1130</ele>
        <time>2017-10-24T23:34:32Z</time>
      </trkpt>
      <trkpt lat="47.3055" lon="9.51702">
        <ele>1129</ele>
        <time>2017-10-24T23:36:32Z</time>
      </trkpt>
      <trkpt lat="47.30556" lon="9.51713">
        <ele>1127</ele>
        <time>2017-10-24T23:38:32Z</time>
      </trkpt>
      <trkpt lat="47.30559" lon="9.51718">
        <ele>1126</ele>
        <time>2017-10-24T23:40:32Z</time>
      </trkpt>
      <trkpt lat="47.30567" lon="9.51721">
        <ele>1126</ele>
        <time>2017-10-24T23:42:32Z</time>
      </trkpt>
      <trkpt lat="47.30571" lon="9.51723">
        <ele>1126</ele>
        <time>2017-10-24T23:44:32Z</time>
      </trkpt>
      <trkpt lat="47.30574" lon="9.51726">
        <ele>1126</ele>
        <time>2017-10-24T23:46:32Z</time>
      </trkpt>
      <trkpt lat="47.30578" lon="9.51729">
        <ele>1125</ele>
        <time>2017-10-24T23:48:32Z</time>
      </trkpt>
      <trkpt lat="47.30579" lon="9.51733">
        <ele>1124</ele>
        <time>2017-10-24T23:50:32Z</time>
      </trkpt>
      <trkpt lat="47.3058" lon="9.51736">
        <ele>1124</ele>
        <time>2017-10-24T23:52:32Z</time>
      </trkpt>
      <trkpt lat="47.30581" lon="9.51738">
        <ele>1123</ele>
        <time>2017-10-24T23:54:32Z</time>
      </trkpt>
      <trkpt lat="47.30581" lon="9.51741">
        <ele>1122</ele>
        <time>2017-10-24T23:56:32Z</time>
      </trkpt>
      <trkpt lat="47.3058" lon="9.51744">
        <ele>1121</ele>
        <time>2017-10-24T23:58:32Z</time>
      </trkpt>
      <trkpt lat="47.30579" lon="9.51746">
        <ele>1121</ele>
        <time>2017-10-25T00:00:32Z</time>
      </trkpt>
      <trkpt lat="47.30576" lon="9.51749">
        <ele>1120</ele>
        <time>2017-10-25T00:02:32Z</time>
      </trkpt>
      <trkpt lat="47.30572" lon="9.5175">
        <ele>1119</ele>
        <time>2017-10-25T00:04:32Z</time>
      </trkpt>
      <trkpt lat="47.3056" lon="9.51746">
        <ele>1119</ele>
        <time>2017-10-25T00:06:32Z</time>
      </trkpt>
      <trkpt lat="47.30554" lon="9.51746">
        <ele>1119</ele>
        <time>2017-10-25T00:08:32Z</time>
      </trkpt>
      <trkpt lat="47.3055" lon="9.51747">
        <ele>1118</ele>
        <time>2017-10-25T00:10:32Z</time>
      </trkpt>
      <trkpt lat="47.30546" lon="9.5175">
        <ele>1117</ele>
        <time>2017-10-25T00:12:32Z</time>
      </trkpt>
      <trkpt lat="47.30542" lon="9.51754">
        <ele>1116</ele>
        <time>2017-10-25T00:14:32Z</time>
      </trkpt>
      <trkpt lat="47.30534" lon="9.51762">
        <ele>1113</ele>
        <time>2017-10-25T00:16:32Z</time>
      </trkpt>
      <trkpt lat="47.30524" lon="9.51772">
        <ele>1110</ele>
        <time>2017-10-25T00:18:32Z</time>
      </trkpt>
      <trkpt lat="47.3052" lon="9.51776">
        <ele>1109</ele>
        <time>2017-10-25T00:20:32Z</time>
      </trkpt>
      <trkpt lat="47.30517" lon="9.51785">
        <ele>1107</ele>
        <time>2017-10-25T00:22:32Z</time>
      </trkpt>
      <trkpt lat="47.30515" lon="9.518">
        <ele>1103</ele>
        <time>2017-10-25T00:24:32Z</time>
      </trkpt>
      <trkpt lat="47.30516" lon="9.51816">
        <ele>1099</ele>
        <time>2017-10-25T00:26:32Z</time>
      </trkpt>
      <trkpt lat="47.30518" lon="9.51828">
        <ele>1096</ele>
        <time>2017-10-25T00:28:32Z</time>
      </trkpt>
      <trkpt lat="47.30524" lon="9.51836">
        <ele>1094</ele>
        <time>2017-10-25T00:30:32Z</time>
      </trkpt>
      <trkpt lat="47.3053" lon="9.51839">
        <ele>1093</ele>
        <time>2017-10-25T00:32:32Z</time>
      </trkpt>
      <trkpt lat="47.30538" lon="9.5184">
        <ele>1092</ele>
        <time>2017-10-25T00:34:32Z</time>
      </trkpt>
      <trkpt lat="47.30546" lon="9.51841">
        <ele>1092</ele>
        <time>2017-10-25T00:36:32Z</time>
      </trkpt>
      <trkpt lat="47.30556" lon="9.51835">
        <ele>1094</ele>
        <time>2017-10-25T00:38:32Z</time>
      </trkpt>
      <trkpt lat="47.30566" lon="9.51826">
        <ele>1097</ele>
        <time>2017-10-25T00:40:32Z</time>
      </trkpt>
      <trkpt lat="47.30569" lon="9.51814">
        <ele>1101</ele>
        <time>2017-10-25T00:42:32Z</time>
      </trkpt>
      <trkpt lat="47.30573" lon="9.51806">
        <ele>1103</ele>
        <time>2017-10-25T00:44:32Z</time>
      </trkpt>
      <trkpt lat="47.30577" lon="9.51804">
        <ele>1104</ele>
        <time>2017-10-25T00:46:32Z</time>
      </trkpt>
      <trkpt lat="47.3059" lon="9.51802">
        <ele>1103</ele>
        <time>2017-10-25T00:48:32Z</time>
      </trkpt>
      <trkpt lat="47.30612" lon="9.51795">
        <ele>1099</ele>
        <time>2017-10-25T00:50:32Z</time>
      </trkpt>
      <trkpt lat="47.30639" lon="9.51786">
        <ele>1095</ele>
        <time>2017-10-25T00:52:32Z</time>
      </trkpt>
      <trkpt lat="47.30648" lon="9.51783">
        <ele>1094</ele>
        <time>2017-10-25T00:54:32Z</time>
      </trkpt>
      <trkpt lat="47.30657" lon="9.51782">
        <ele>1093</ele>
        <time>2017-10-25T00:56:32Z</time>
      </trkpt>
      <trkpt lat="47.30666" lon="9.51782">
        <ele>1090</ele>
        <time>2017-10-25T00:58:32Z</time>
      </trkpt>
      <trkpt lat="47.30674" lon="9.51782">
        <ele>1089</ele>
        <time>2017-10-25T01:00:32Z</time>
      </trkpt>
      <trkpt lat="47.30683" lon="9.51783">
        <ele>1086</ele>
        <time>2017-10-25T01:02:32Z</time>
      </trkpt>
      <trkpt lat="47.30692" lon="9.51782">
        <ele>1085</ele>
        <time>2017-10-25T01:04:32Z</time>
      </trkpt>
      <trkpt lat="47.30698" lon="9.5178">
        <ele>1084</ele>
        <time>2017-10-25T01:06:32Z</time>
      </trkpt>
      <trkpt lat="47.30706" lon="9.51774">
        <ele>1085</ele>
        <time>2017-10-25T01:08:32Z</time>
      </trkpt>
      <trkpt lat="47.30718" lon="9.51768">
        <ele>1084</ele>
        <time>2017-10-25T01:10:32Z</time>
      </trkpt>
      <trkpt lat="47.30722" lon="9.51767">
        <ele>1084</ele>
        <time>2017-10-25T01:12:32Z</time>
      </trkpt>
      <trkpt lat="47.30726" lon="9.51769">
        <ele>1082</ele>
        <time>2017-10-25T01:14:32Z</time>
      </trkpt>
      <trkpt lat="47.30729" lon="9.51772">
        <ele>1080</ele>
        <time>2017-10-25T01:16:32Z</time>
      </trkpt>
      <trkpt lat="47.30731" lon="9.51775">
        <ele>1079</ele>
        <time>2017-10-25T01:18:32Z</time>
      </trkpt>
      <trkpt lat="47.30731" lon="9.5178">
        <ele>1077</ele>
        <time>2017-10-25T01:20:32Z</time>
      </trkpt>
      <trkpt lat="47.3073" lon="9.51785">
        <ele>1076</ele>
        <time>2017-10-25T01:22:32Z</time>
      </trkpt>
      <trkpt lat="47.30729" lon="9.51791">
        <ele>1074</ele>
        <time>2017-10-25T01:24:32Z</time>
      </trkpt>
      <trkpt lat="47.30723" lon="9.51797">
        <ele>1073</ele>
        <time>2017-10-25T01:26:32Z</time>
      </trkpt>
      <trkpt lat="47.30688" lon="9.51817">
        <ele>1072</ele>
        <time>2017-10-25T01:28:32Z</time>
      </trkpt>
      <trkpt lat="47.30673" lon="9.51824">
        <ele>1071</ele>
        <time>2017-10-25T01:30:32Z</time>
      </trkpt>
      <trkpt lat="47.30648" lon="9.51845">
        <ele>1070</ele>
        <time>2017-10-25T01:32:32Z</time>
      </trkpt>
      <trkpt lat="47.30617" lon="9.51877">
        <ele>1069</ele>
        <time>2017-10-25T01:34:32Z</time>
      </trkpt>
      <trkpt lat="47.30592" lon="9.51897">
        <ele>1069</ele>
        <time>2017-10-25T01:36:32Z</time>
      </trkpt>
      <trkpt lat="47.30568" lon="9.51926">
        <ele>1060</ele>
        <time>2017-10-25T01:38:32Z</time>
      </trkpt>
      <trkpt lat="47.3056" lon="9.51943">
        <ele>1053</ele>
        <time>2017-10-25T01:40:32Z</time>
      </trkpt>
      <trkpt lat="47.30556" lon="9.51957">
        <ele>1048</ele>
        <time>2017-10-25T01:42:32Z</time>
      </trkpt>
      <trkpt lat="47.30556" lon="9.51967">
        <ele>1045</ele>
        <time>2017-10-25T01:44:32Z</time>
      </trkpt>
      <trkpt lat="47.30558" lon="9.51977">
        <ele>1042</ele>
        <time>2017-10-25T01:46:32Z</time>
      </trkpt>
      <trkpt lat="47.30563" lon="9.51991">
        <ele>1038</ele>
        <time>2017-10-25T01:48:32Z</time>
      </trkpt>
      <trkpt lat="47.30568" lon="9.52">
        <ele>1036</ele>
        <time>2017-10-25T01:50:32Z</time>
      </trkpt>
      <trkpt lat="47.30576" lon="9.52004">
        <ele>1037</ele>
        <time>2017-10-25T01:52:32Z</time>
      </trkpt>
      <trkpt lat="47.30585" lon="9.52009">
        <ele>1037</ele>
        <time>2017-10-25T01:54:32Z</time>
      </trkpt>
      <trkpt lat="47.30599" lon="9.5202">
        <ele>1032</ele>
        <time>2017-10-25T01:56:32Z</time>
      </trkpt>
      <trkpt lat="47.30612" lon="9.52026">
        <ele>1028</ele>
        <time>2017-10-25T01:58:32Z</time>
      </trkpt>
      <trkpt lat="47.30612" lon="9.52026">
        <ele>1028</ele>
        <time>2017-10-25T02:00:32Z</time>
      </trkpt>
      <trkpt lat="47.30623" lon="9.52035">
        <ele>1025</ele>
        <time>2017-10-25T02:02:32Z</time>
      </trkpt>
      <trkpt lat="47.30625" lon="9.52041">
        <ele>1023</ele>
        <time>2017-10-25T02:04:32Z</time>
      </trkpt>
      <trkpt lat="47.30627" lon="9.52046">
        <ele>1022</ele>
        <time>2017-10-25T02:06:32Z</time>
      </trkpt>
      <trkpt lat="47.30627" lon="9.52053">
        <ele>1021</ele>
        <time>2017-10-25T02:08:32Z</time>
      </trkpt>
      <trkpt lat="47.30625" lon="9.52058">
        <ele>1020</ele>
        <time>2017-10-25T02:10:32Z</time>
      </trkpt>
      <trkpt lat="47.30622" lon="9.52063">
        <ele>1019</ele>
        <time>2017-10-25T02:12:32Z</time>
      </trkpt>
      <trkpt lat="47.30617" lon="9.52066">
        <ele>1020</ele>
        <time>2017-10-25T02:14:32Z</time>
      </trkpt>
      <trkpt lat="47.30612" lon="9.52066">
        <ele>1020</ele>
        <time>2017-10-25T02:16:32Z</time>
      </trkpt>
      <trkpt lat="47.30607" lon="9.52065">
        <ele>1021</ele>
        <time>2017-10-25T02:18:32Z</time>
      </trkpt>
      <trkpt lat="47.30599" lon="9.52061">
        <ele>1023</ele>
        <time>2017-10-25T02:20:32Z</time>
      </trkpt>
      <trkpt lat="47.30592" lon="9.52061">
        <ele>1024</ele>
        <time>2017-10-25T02:22:32Z</time>
      </trkpt>
      <trkpt lat="47.30581" lon="9.52065">
        <ele>1024</ele>
        <time>2017-10-25T02:24:32Z</time>
      </trkpt>
      <trkpt lat="47.30565" lon="9.52075">
        <ele>1019</ele>
        <time>2017-10-25T02:26:32Z</time>
      </trkpt>
      <trkpt lat="47.30553" lon="9.5208">
        <ele>1016</ele>
        <time>2017-10-25T02:28:32Z</time>
      </trkpt>
      <trkpt lat="47.30545" lon="9.5208">
        <ele>1014</ele>
        <time>2017-10-25T02:30:32Z</time>
      </trkpt>
      <trkpt lat="47.30539" lon="9.52074">
        <ele>1014</ele>
        <time>2017-10-25T02:32:32Z</time>
      </trkpt>
      <trkpt lat="47.30534" lon="9.52069">
        <ele>1014</ele>
        <time>2017-10-25T02:34:32Z</time>
      </trkpt>
      <trkpt lat="47.30527" lon="9.5206">
        <ele>1015</ele>
        <time>2017-10-25T02:36:32Z</time>
      </trkpt>
      <trkpt lat="47.30509" lon="9.52031">
        <ele>1017</ele>
        <time>2017-10-25T02:38:32Z</time>
      </trkpt>
      <trkpt lat="47.30506" lon="9.52026">
        <ele>1018</ele>
        <time>2017-10-25T02:40:32Z</time>
      </trkpt>
      <trkpt lat="47.30503" lon="9.52023">
        <ele>1018</ele>
        <time>2017-10-25T02:42:32Z</time>
      </trkpt>
      <trkpt lat="47.305" lon="9.52021">
        <ele>1017</ele>
        <time>2017-10-25T02:44:32Z</time>
      </trkpt>
      <trkpt lat="47.3049" lon="9.5202">
        <ele>1013</ele>
        <time>2017-10-25T02:46:32Z</time>
      </trkpt>
      <trkpt lat="47.30484" lon="9.52019">
        <ele>1011</ele>
        <time>2017-10-25T02:48:32Z</time>
      </trkpt>
      <trkpt lat="47.30479" lon="9.52015">
        <ele>1009</ele>
        <time>2017-10-25T02:50:32Z</time>
      </trkpt>
      <trkpt lat="47.30474" lon="9.5201">
        <ele>1008</ele>
        <time>2017-10-25T02:52:32Z</time>
      </trkpt>
      <trkpt lat="47.30469" lon="9.52003">
        <ele>1007</ele>
        <time>2017-10-25T02:54:32Z</time>
      </trkpt>
      <trkpt lat="47.30461" lon="9.51995">
        <ele>1006</ele>
        <time>2017-10-25T02:56:32Z</time>
      </trkpt>
      <trkpt lat="47.30459" lon="9.5199">
        <ele>1007</ele>
        <time>2017-10-25T02:58:32Z</time>
      </trkpt>
      <trkpt lat="47.30457" lon="9.51984">
        <ele>1008</ele>
        <time>2017-10-25T03:00:32Z</time>
      </trkpt>
      <trkpt lat="47.30455" lon="9.51977">
        <ele>1010</ele>
        <time>2017-10-25T03:02:32Z</time>
      </trkpt>
      <trkpt lat="47.30452" lon="9.51974">
        <ele>1010</ele>
        <time>2017-10-25T03:04:32Z</time>
      </trkpt>
      <trkpt lat="47.3045" lon="9.51973">
        <ele>1009</ele>
        <time>2017-10-25T03:06:32Z</time>
      </trkpt>
      <trkpt lat="47.30448" lon="9.51973">
        <ele>1008</ele>
        <time>2017-10-25T03:08:32Z</time>
      </trkpt>
      <trkpt lat="47.30446" lon="9.51976">
        <ele>1006</ele>
        <time>2017-10-25T03:10:32Z</time>
      </trkpt>
      <trkpt lat="47.30444" lon="9.51979">
        <ele>1004</ele>
        <time>2017-10-25T03:12:32Z</time>
      </trkpt>
      <trkpt lat="47.30443" lon="9.51987">
        <ele>1000</ele>
        <time>2017-10-25T03:14:32Z</time>
      </trkpt>
      <trkpt lat="47.30444" lon="9.51992">
        <ele>999</ele>
        <time>2017-10-25T03:16:32Z</time>
      </trkpt>
      <trkpt lat="47.30446" lon="9.51997">
        <ele>998</ele>
        <time>2017-10-25T03:18:32Z</time>
      </trkpt>
      <trkpt lat="47.30453" lon="9.52009">
        <ele>998</ele>
        <time>2017-10-25T03:20:32Z</time>
      </trkpt>
      <trkpt lat="47.30458" lon="9.52023">
        <ele>998</ele>
        <time>2017-10-25T03:22:32Z</time>
      </trkpt>
      <trkpt lat="47.30462" lon="9.52054">
        <ele>994</ele>
        <time>2017-10-25T03:24:32Z</time>
      </trkpt>
      <trkpt lat="47.30466" lon="9.52074">
        <ele>992</ele>
        <time>2017-10-25T03:26:32Z</time>
      </trkpt>
      <trkpt lat="47.30474" lon="9.52097">
        <ele>990</ele>
        <time>2017-10-25T03:28:32Z</time>
      </trkpt>
      <trkpt lat="47.3048" lon="9.52116">
        <ele>987</ele>
        <time>2017-10-25T03:30:32Z</time>
      </trkpt>
      <trkpt lat="47.30481" lon="9.52124">
        <ele>986</ele>
        <time>2017-10-25T03:32:32Z</time>
      </trkpt>
      <trkpt lat="47.3048" lon="9.52144">
        <ele>980</ele>
        <time>2017-10-25T03:34:32Z</time>
      </trkpt>
      <trkpt lat="47.30481" lon="9.52156">
        <ele>978</ele>
        <time>2017-10-25T03:36:32Z</time>
      </trkpt>
      <trkpt lat="47.30488" lon="9.52177">
        <ele>976</ele>
        <time>2017-10-25T03:38:32Z</time>
      </trkpt>
      <trkpt lat="47.30494" lon="9.52194">
        <ele>974</ele>
        <time>2017-10-25T03:40:32Z</time>
      </trkpt>
      <trkpt lat="47.30508" lon="9.5222">
        <ele>973</ele>
        <time>2017-10-25T03:42:32Z</time>
      </trkpt>
      <trkpt lat="47.30517" lon="9.52239">
        <ele>971</ele>
        <time>2017-10-25T03:44:32Z</time>
      </trkpt>
      <trkpt lat="47.30527" lon="9.52257">
        <ele>970</ele>
        <time>2017-10-25T03:46:32Z</time>
      </trkpt>
      <trkpt lat="47.30535" lon="9.52266">
        <ele>970</ele>
        <time>2017-10-25T03:48:32Z</time>
      </trkpt>
      <trkpt lat="47.3054" lon="9.52274">
        <ele>970</ele>
        <time>2017-10-25T03:50:32Z</time>
      </trkpt>
      <trkpt lat="47.30542" lon="9.5228">
        <ele>969</ele>
        <time>2017-10-25T03:52:32Z</time>
      </trkpt>
      <trkpt lat="47.30543" lon="9.52289">
        <ele>967</ele>
        <time>2017-10-25T03:54:32Z</time>
      </trkpt>
      <trkpt lat="47.30541" lon="9.52305">
        <ele>963</ele>
        <time>2017-10-25T03:56:32Z</time>
      </trkpt>
      <trkpt lat="47.30541" lon="9.52312">
        <ele>961</ele>
        <time>2017-10-25T03:58:32Z</time>
      </trkpt>
      <trkpt lat="47.30545" lon="9.52324">
        <ele>960</ele>
        <time>2017-10-25T04:00:32Z</time>
      </trkpt>
      <trkpt lat="47.30552" lon="9.5234">
        <ele>959</ele>
        <time>2017-10-25T04:02:32Z</time>
      </trkpt>
      <trkpt lat="47.30555" lon="9.52349">
        <ele>959</ele>
        <time>2017-10-25T04:04:32Z</time>
      </trkpt>
      <trkpt lat="47.30555" lon="9.52358">
        <ele>957</ele>
        <time>2017-10-25T04:06:32Z</time>
      </trkpt>
      <trkpt lat="47.30553" lon="9.5238">
        <ele>953</ele>
        <time>2017-10-25T04:08:32Z</time>
      </trkpt>
      <trkpt lat="47.30552" lon="9.52402">
        <ele>949</ele>
        <time>2017-10-25T04:10:32Z</time>
      </trkpt>
      <trkpt lat="47.30552" lon="9.52416">
        <ele>947</ele>
        <time>2017-10-25T04:12:32Z</time>
      </trkpt>
      <trkpt lat="47.30554" lon="9.52431">
        <ele>947</ele>
        <time>2017-10-25T04:14:32Z</time>
      </trkpt>
      <trkpt lat="47.30551" lon="9.52439">
        <ele>945</ele>
        <time>2017-10-25T04:16:32Z</time>
      </trkpt>
      <trkpt lat="47.30546" lon="9.5244">
        <ele>943</ele>
        <time>2017-10-25T04:18:32Z</time>
      </trkpt>
      <trkpt lat="47.30543" lon="9.52438">
        <ele>942</ele>
        <time>2017-10-25T04:20:32Z</time>
      </trkpt>
      <trkpt lat="47.3054" lon="9.52432">
        <ele>941</ele>
        <time>2017-10-25T04:22:32Z</time>
      </trkpt>
      <trkpt lat="47.30538" lon="9.52422">
        <ele>941</ele>
        <time>2017-10-25T04:24:32Z</time>
      </trkpt>
      <trkpt lat="47.3053" lon="9.52393">
        <ele>942</ele>
        <time>2017-10-25T04:26:32Z</time>
      </trkpt>
      <trkpt lat="47.30529" lon="9.52368">
        <ele>946</ele>
        <time>2017-10-25T04:28:32Z</time>
      </trkpt>
      <trkpt lat="47.30527" lon="9.5235">
        <ele>948</ele>
        <time>2017-10-25T04:30:32Z</time>
      </trkpt>
      <trkpt lat="47.30521" lon="9.52339">
        <ele>948</ele>
        <time>2017-10-25T04:32:32Z</time>
      </trkpt>
      <trkpt lat="47.30516" lon="9.52331">
        <ele>948</ele>
        <time>2017-10-25T04:34:32Z</time>
      </trkpt>
      <trkpt lat="47.30512" lon="9.52329">
        <ele>947</ele>
        <time>2017-10-25T04:36:32Z</time>
      </trkpt>
      <trkpt lat="47.30504" lon="9.52329">
        <ele>945</ele>
        <time>2017-10-25T04:38:32Z</time>
      </trkpt>
      <trkpt lat="47.30489" lon="9.52335">
        <ele>938</ele>
        <time>2017-10-25T04:40:32Z</time>
      </trkpt>
      <trkpt lat="47.30479" lon="9.52336">
        <ele>935</ele>
        <time>2017-10-25T04:42:32Z</time>
      </trkpt>
      <trkpt lat="47.30471" lon="9.52336">
        <ele>933</ele>
        <time>2017-10-25T04:44:32Z</time>
      </trkpt>
      <trkpt lat="47.30461" lon="9.5233">
        <ele>932</ele>
        <time>2017-10-25T04:46:32Z</time>
      </trkpt>
      <trkpt lat="47.30452" lon="9.52326">
        <ele>930</ele>
        <time>2017-10-25T04:48:32Z</time>
      </trkpt>
      <trkpt lat="47.30425" lon="9.52325">
        <ele>922</ele>
        <time>2017-10-25T04:50:32Z</time>
      </trkpt>
      <trkpt lat="47.30415" lon="9.52319">
        <ele>920</ele>
        <time>2017-10-25T04:52:32Z</time>
      </trkpt>
      <trkpt lat="47.30407" lon="9.52313">
        <ele>919</ele>
        <time>2017-10-25T04:54:32Z</time>
      </trkpt>
      <trkpt lat="47.30402" lon="9.52303">
        <ele>920</ele>
        <time>2017-10-25T04:56:32Z</time>
      </trkpt>
      <trkpt lat="47.30396" lon="9.52289">
        <ele>920</ele>
        <time>2017-10-25T04:58:32Z</time>
      </trkpt>
      <trkpt lat="47.30378" lon="9.52266">
        <ele>918</ele>
        <time>2017-10-25T05:00:32Z</time>
      </trkpt>
      <trkpt lat="47.30372" lon="9.52261">
        <ele>916</ele>
        <time>2017-10-25T05:02:32Z</time>
      </trkpt>
      <trkpt lat="47.30367" lon="9.5225">
        <ele>916</ele>
        <time>2017-10-25T05:04:32Z</time>
      </trkpt>
      <trkpt lat="47.30359" lon="9.52231">
        <ele>915</ele>
        <time>2017-10-25T05:06:32Z</time>
      </trkpt>
      <trkpt lat="47.30351" lon="9.52218">
        <ele>914</ele>
        <time>2017-10-25T05:08:32Z</time>
      </trkpt>
      <trkpt lat="47.30345" lon="9.52211">
        <ele>912</ele>
        <time>2017-10-25T05:10:32Z</time>
      </trkpt>
      <trkpt lat="47.30331" lon="9.52204">
        <ele>907</ele>
        <time>2017-10-25T05:12:32Z</time>
      </trkpt>
      <trkpt lat="47.30322" lon="9.52195">
        <ele>904</ele>
        <time>2017-10-25T05:14:32Z</time>
      </trkpt>
      <trkpt lat="47.30318" lon="9.52191">
        <ele>903</ele>
        <time>2017-10-25T05:16:32Z</time>
      </trkpt>
      <trkpt lat="47.30314" lon="9.52192">
        <ele>901</ele>
        <time>2017-10-25T05:18:32Z</time>
      </trkpt>
      <trkpt lat="47.3031" lon="9.52194">
        <ele>899</ele>
        <time>2017-10-25T05:20:32Z</time>
      </trkpt>
      <trkpt lat="47.30308" lon="9.52198">
        <ele>898</ele>
        <time>2017-10-25T05:22:32Z</time>
      </trkpt>
      <trkpt lat="47.30307" lon="9.52202">
        <ele>897</ele>
        <time>2017-10-25T05:24:32Z</time>
      </trkpt>
      <trkpt lat="47.30307" lon="9.52208">
        <ele>897</ele>
        <time>2017-10-25T05:26:32Z</time>
      </trkpt>
      <trkpt lat="47.30311" lon="9.52221">
        <ele>898</ele>
        <time>2017-10-25T05:28:32Z</time>
      </trkpt>
      <trkpt lat="47.30315" lon="9.52235">
        <ele>898</ele>
        <time>2017-10-25T05:30:32Z</time>
      </trkpt>
      <trkpt lat="47.30318" lon="9.52244">
        <ele>899</ele>
        <time>2017-10-25T05:32:32Z</time>
      </trkpt>
      <trkpt lat="47.30317" lon="9.52249">
        <ele>898</ele>
        <time>2017-10-25T05:34:32Z</time>
      </trkpt>
      <trkpt lat="47.30315" lon="9.52255">
        <ele>897</ele>
        <time>2017-10-25T05:36:32Z</time>
      </trkpt>
      <trkpt lat="47.30311" lon="9.52257">
        <ele>896</ele>
        <time>2017-10-25T05:38:32Z</time>
      </trkpt>
      <trkpt lat="47.30307" lon="9.52256">
        <ele>895</ele>
        <time>2017-10-25T05:40:32Z</time>
      </trkpt>
      <trkpt lat="47.30282" lon="9.52228">
        <ele>887</ele>
        <time>2017-10-25T05:42:32Z</time>
      </trkpt>
      <trkpt lat="47.30274" lon="9.52222">
        <ele>884</ele>
        <time>2017-10-25T05:44:32Z</time>
      </trkpt>
      <trkpt lat="47.30268" lon="9.5222">
        <ele>882</ele>
        <time>2017-10-25T05:46:32Z</time>
      </trkpt>
      <trkpt lat="47.30262" lon="9.52221">
        <ele>880</ele>
        <time>2017-10-25T05:48:32Z</time>
      </trkpt>
      <trkpt lat="47.30258" lon="9.52223">
        <ele>879</ele>
        <time>2017-10-25T05:50:32Z</time>
      </trkpt>
      <trkpt lat="47.30251" lon="9.5223">
        <ele>877</ele>
        <time>2017-10-25T05:52:32Z</time>
      </trkpt>
      <trkpt lat="47.30244" lon="9.5224">
        <ele>873</ele>
        <time>2017-10-25T05:54:32Z</time>
      </trkpt>
      <trkpt lat="47.30241" lon="9.52245">
        <ele>872</ele>
        <time>2017-10-25T05:56:32Z</time>
      </trkpt>
      <trkpt lat="47.30238" lon="9.52249">
        <ele>870</ele>
        <time>2017-10-25T05:58:32Z</time>
      </trkpt>
      <trkpt lat="47.30238" lon="9.52252">
        <ele>870</ele>
        <time>2017-10-25T06:00:32Z</time>
      </trkpt>
      <trkpt lat="47.30238" lon="9.52263">
        <ele>871</ele>
        <time>2017-10-25T06:02:32Z</time>
      </trkpt>
      <trkpt lat="47.30238" lon="9.52271">
        <ele>871</ele>
        <time>2017-10-25T06:04:32Z</time>
      </trkpt>
      <trkpt lat="47.30241" lon="9.52286">
        <ele>874</ele>
        <time>2017-10-25T06:06:32Z</time>
      </trkpt>
      <trkpt lat="47.30244" lon="9.52302">
        <ele>878</ele>
        <time>2017-10-25T06:08:32Z</time>
      </trkpt>
      <trkpt lat="47.30248" lon="9.52311">
        <ele>881</ele>
        <time>2017-10-25T06:10:32Z</time>
      </trkpt>
      <trkpt lat="47.30252" lon="9.52319">
        <ele>883</ele>
        <time>2017-10-25T06:12:32Z</time>
      </trkpt>
      <trkpt lat="47.30262" lon="9.52327">
        <ele>885</ele>
        <time>2017-10-25T06:14:32Z</time>
      </trkpt>
      <trkpt lat="47.30272" lon="9.52335">
        <ele>887</ele>
        <time>2017-10-25T06:16:32Z</time>
      </trkpt>
      <trkpt lat="47.30285" lon="9.52342">
        <ele>889</ele>
        <time>2017-10-25T06:18:32Z</time>
      </trkpt>
      <trkpt lat="47.30309" lon="9.52356">
        <ele>891</ele>
        <time>2017-10-25T06:20:32Z</time>
      </trkpt>
      <trkpt lat="47.30316" lon="9.5236">
        <ele>891</ele>
        <time>2017-10-25T06:22:32Z</time>
      </trkpt>
      <trkpt lat="47.30324" lon="9.5237">
        <ele>892</ele>
        <time>2017-10-25T06:24:32Z</time>
      </trkpt>
      <trkpt lat="47.30334" lon="9.52388">
        <ele>891</ele>
        <time>2017-10-25T06:26:32Z</time>
      </trkpt>
      <trkpt lat="47.30345" lon="9.52407">
        <ele>890</ele>
        <time>2017-10-25T06:28:32Z</time>
      </trkpt>
      <trkpt lat="47.30362" lon="9.52425">
        <ele>890</ele>
        <time>2017-10-25T06:30:32Z</time>
      </trkpt>
      <trkpt lat="47.30401" lon="9.52468">
        <ele>888</ele>
        <time>2017-10-25T06:32:32Z</time>
      </trkpt>
      <trkpt lat="47.30409" lon="9.5248">
        <ele>888</ele>
        <time>2017-10-25T06:34:32Z</time>
      </trkpt>
      <trkpt lat="47.30412" lon="9.5249">
        <ele>887</ele>
        <time>2017-10-25T06:36:32Z</time>
      </trkpt>
      <trkpt lat="47.30412" lon="9.52495">
        <ele>887</ele>
        <time>2017-10-25T06:38:32Z</time>
      </trkpt>
      <trkpt lat="47.30411" lon="9.52502">
        <ele>886</ele>
        <time>2017-10-25T06:40:32Z</time>
      </trkpt>
      <trkpt lat="47.30407" lon="9.52518">
        <ele>884</ele>
        <time>2017-10-25T06:42:32Z</time>
      </trkpt>
      <trkpt lat="47.304" lon="9.52538">
        <ele>881</ele>
        <time>2017-10-25T06:44:32Z</time>
      </trkpt>
      <trkpt lat="47.30396" lon="9.52556">
        <ele>878</ele>
        <time>2017-10-25T06:46:32Z</time>
      </trkpt>
      <trkpt lat="47.30392" lon="9.52589">
        <ele>872</ele>
        <time>2017-10-25T06:48:32Z</time>
      </trkpt>
      <trkpt lat="47.30392" lon="9.52602">
        <ele>869</ele>
        <time>2017-10-25T06:50:32Z</time>
      </trkpt>
      <trkpt lat="47.30392" lon="9.52633">
        <ele>859</ele>
        <time>2017-10-25T06:52:32Z</time>
      </trkpt>
      <trkpt lat="47.30403" lon="9.52663">
        <ele>856</ele>
        <time>2017-10-25T06:54:32Z</time>
      </trkpt>
      <trkpt lat="47.30416" lon="9.52675">
        <ele>857</ele>
        <time>2017-10-25T06:56:32Z</time>
      </trkpt>
      <trkpt lat="47.30439" lon="9.52679">
        <ele>864</ele>
        <time>2017-10-25T06:58:32Z</time>
      </trkpt>
      <trkpt lat="47.30455" lon="9.52698">
        <ele>863</ele>
        <time>2017-10-25T07:00:32Z</time>
      </trkpt>
      <trkpt lat="47.30466" lon="9.52717">
        <ele>861</ele>
        <time>2017-10-25T07:02:32Z</time>
      </trkpt>
      <trkpt lat="47.3047" lon="9.52724">
        <ele>860</ele>
        <time>2017-10-25T07:04:32Z</time>
      </trkpt>
      <trkpt lat="47.30472" lon="9.52731">
        <ele>859</ele>
        <time>2017-10-25T07:06:32Z</time>
      </trkpt>
      <trkpt lat="47.30472" lon="9.52738">
        <ele>856</ele>
        <time>2017-10-25T07:08:32Z</time>
      </trkpt>
      <trkpt lat="47.30469" lon="9.5275">
        <ele>850</ele>
        <time>2017-10-25T07:10:32Z</time>
      </trkpt>
      <trkpt lat="47.30469" lon="9.52757">
        <ele>849</ele>
        <time>2017-10-25T07:12:32Z</time>
      </trkpt>
      <trkpt lat="47.30472" lon="9.52767">
        <ele>848</ele>
        <time>2017-10-25T07:14:32Z</time>
      </trkpt>
      <trkpt lat="47.3048" lon="9.52779">
        <ele>851</ele>
        <time>2017-10-25T07:16:32Z</time>
      </trkpt>
      <trkpt lat="47.3049" lon="9.52794">
        <ele>854</ele>
        <time>2017-10-25T07:18:32Z</time>
      </trkpt>
      <trkpt lat="47.30496" lon="9.52807">
        <ele>855</ele>
        <time>2017-10-25T07:20:32Z</time>
      </trkpt>
      <trkpt lat="47.30498" lon="9.52815">
        <ele>855</ele>
        <time>2017-10-25T07:22:32Z</time>
      </trkpt>
      <trkpt lat="47.30494" lon="9.52844">
        <ele>848</ele>
        <time>2017-10-25T07:24:32Z</time>
      </trkpt>
      <trkpt lat="47.30477" lon="9.52921">
        <ele>831</ele>
        <time>2017-10-25T07:26:32Z</time>
      </trkpt>
      <trkpt lat="47.30473" lon="9.52947">
        <ele>827</ele>
        <time>2017-10-25T07:28:32Z</time>
      </trkpt>
      <trkpt lat="47.30477" lon="9.52972">
        <ele>829</ele>
        <time>2017-10-25T07:30:32Z</time>
      </trkpt>
      <trkpt lat="47.3048" lon="9.52996">
        <ele>830</ele>
        <time>2017-10-25T07:32:32Z</time>
      </trkpt>
      <trkpt lat="47.30477" lon="9.53012">
        <ele>828</ele>
        <time>2017-10-25T07:34:32Z</time>
      </trkpt>
      <trkpt lat="47.30474" lon="9.53028">
        <ele>825</ele>
        <time>2017-10-25T07:36:32Z</time>
      </trkpt>
      <trkpt lat="47.30468" lon="9.53061">
        <ele>820</ele>
        <time>2017-10-25T07:38:32Z</time>
      </trkpt>
      <trkpt lat="47.30468" lon="9.53077">
        <ele>819</ele>
        <time>2017-10-25T07:40:32Z</time>
      </trkpt>
      <trkpt lat="47.3047" lon="9.53099">
        <ele>818</ele>
        <time>2017-10-25T07:42:32Z</time>
      </trkpt>
      <trkpt lat="47.30477" lon="9.53116">
        <ele>820</ele>
        <time>2017-10-25T07:44:32Z</time>
      </trkpt>
      <trkpt lat="47.30485" lon="9.53129">
        <ele>823</ele>
        <time>2017-10-25T07:46:32Z</time>
      </trkpt>
      <trkpt lat="47.30486" lon="9.53131">
        <ele>823</ele>
        <time>2017-10-25T07:48:32Z</time>
      </trkpt>
      <trkpt lat="47.30492" lon="9.53142">
        <ele>825</ele>
        <time>2017-10-25T07:50:32Z</time>
      </trkpt>
      <trkpt lat="47.30494" lon="9.53152">
        <ele>825</ele>
        <time>2017-10-25T07:52:32Z</time>
      </trkpt>
      <trkpt lat="47.30493" lon="9.53166">
        <ele>823</ele>
        <time>2017-10-25T07:54:32Z</time>
      </trkpt>
      <trkpt lat="47.30489" lon="9.53183">
        <ele>821</ele>
        <time>2017-10-25T07:56:32Z</time>
      </trkpt>
      <trkpt lat="47.30474" lon="9.53214">
        <ele>814</ele>
        <time>2017-10-25T07:58:32Z</time>
      </trkpt>
      <trkpt lat="47.30463" lon="9.53233">
        <ele>810</ele>
        <time>2017-10-25T08:00:32Z</time>
      </trkpt>
      <trkpt lat="47.30458" lon="9.53247">
        <ele>808</ele>
        <time>2017-10-25T08:02:32Z</time>
      </trkpt>
      <trkpt lat="47.3044" lon="9.5333">
        <ele>809</ele>
        <time>2017-10-25T08:04:32Z</time>
      </trkpt>
      <trkpt lat="47.30429" lon="9.53359">
        <ele>807</ele>
        <time>2017-10-25T08:06:32Z</time>
      </trkpt>
      <trkpt lat="47.30411" lon="9.5339">
        <ele>803</ele>
        <time>2017-10-25T08:08:32Z</time>
      </trkpt>
      <trkpt lat="47.3039" lon="9.5344">
        <ele>794</ele>
        <time>2017-10-25T08:10:32Z</time>
      </trkpt>
      <trkpt lat="47.30386" lon="9.53461">
        <ele>791</ele>
        <time>2017-10-25T08:12:32Z</time>
      </trkpt>
      <trkpt lat="47.30382" lon="9.53539">
        <ele>789</ele>
        <time>2017-10-25T08:14:32Z</time>
      </trkpt>
      <trkpt lat="47.30385" lon="9.53576">
        <ele>791</ele>
        <time>2017-10-25T08:16:32Z</time>
      </trkpt>
      <trkpt lat="47.30386" lon="9.53618">
        <ele>786</ele>
        <time>2017-10-25T08:18:32Z</time>
      </trkpt>
      <trkpt lat="47.3039" lon="9.53643">
        <ele>784</ele>
        <time>2017-10-25T08:20:32Z</time>
      </trkpt>
      <trkpt lat="47.30428" lon="9.5375">
        <ele>781</ele>
        <time>2017-10-25T08:22:32Z</time>
      </trkpt>
      <trkpt lat="47.30445" lon="9.53824">
        <ele>772</ele>
        <time>2017-10-25T08:24:32Z</time>
      </trkpt>
      <trkpt lat="47.30453" lon="9.53844">
        <ele>772</ele>
        <time>2017-10-25T08:26:32Z</time>
      </trkpt>
      <trkpt lat="47.30454" lon="9.5385">
        <ele>772</ele>
        <time>2017-10-25T08:28:32Z</time>
      </trkpt>
      <trkpt lat="47.30454" lon="9.53857">
        <ele>771</ele>
        <time>2017-10-25T08:30:32Z</time>
      </trkpt>
      <trkpt lat="47.30451" lon="9.53866">
        <ele>769</ele>
        <time>2017-10-25T08:32:32Z</time>
      </trkpt>
      <trkpt lat="47.30446" lon="9.5387">
        <ele>768</ele>
        <time>2017-10-25T08:34:32Z</time>
      </trkpt>
      <trkpt lat="47.30441" lon="9.5387">
        <ele>766</ele>
        <time>2017-10-25T08:36:32Z</time>
      </trkpt>
      <trkpt lat="47.30437" lon="9.53867">
        <ele>765</ele>
        <time>2017-10-25T08:38:32Z</time>
      </trkpt>
      <trkpt lat="47.30434" lon="9.53863">
        <ele>765</ele>
        <time>2017-10-25T08:40:32Z</time>
      </trkpt>
      <trkpt lat="47.30432" lon="9.53856">
        <ele>765</ele>
        <time>2017-10-25T08:42:32Z</time>
      </trkpt>
      <trkpt lat="47.30425" lon="9.53839">
        <ele>765</ele>
        <time>2017-10-25T08:44:32Z</time>
      </trkpt>
      <trkpt lat="47.30419" lon="9.5383">
        <ele>764</ele>
        <time>2017-10-25T08:46:32Z</time>
      </trkpt>
      <trkpt lat="47.30412" lon="9.53816">
        <ele>764</ele>
        <time>2017-10-25T08:48:32Z</time>
      </trkpt>
      <trkpt lat="47.30402" lon="9.53791">
        <ele>763</ele>
        <time>2017-10-25T08:50:32Z</time>
      </trkpt>
      <trkpt lat="47.30397" lon="9.53781">
        <ele>762</ele>
        <time>2017-10-25T08:52:32Z</time>
      </trkpt>
      <trkpt lat="47.30391" lon="9.53771">
        <ele>760</ele>
        <time>2017-10-25T08:54:32Z</time>
      </trkpt>
      <trkpt lat="47.30386" lon="9.53756">
        <ele>759</ele>
        <time>2017-10-25T08:56:32Z</time>
      </trkpt>
      <trkpt lat="47.30373" lon="9.5372">
        <ele>759</ele>
        <time>2017-10-25T08:58:32Z</time>
      </trkpt>
      <trkpt lat="47.30367" lon="9.53708">
        <ele>759</ele>
        <time>2017-10-25T09:00:32Z</time>
      </trkpt>
      <trkpt lat="47.30363" lon="9.53704">
        <ele>758</ele>
        <time>2017-10-25T09:02:32Z</time>
      </trkpt>
      <trkpt lat="47.30355" lon="9.53695">
        <ele>756</ele>
        <time>2017-10-25T09:04:32Z</time>
      </trkpt>
      <trkpt lat="47.30333" lon="9.53679">
        <ele>749</ele>
        <time>2017-10-25T09:06:32Z</time>
      </trkpt>
      <trkpt lat="47.30312" lon="9.53665">
        <ele>738</ele>
        <time>2017-10-25T09:08:32Z</time>
      </trkpt>
      <trkpt lat="47.30299" lon="9.53647">
        <ele>732</ele>
        <time>2017-10-25T09:10:32Z</time>
      </trkpt>
      <trkpt lat="47.30289" lon="9.53622">
        <ele>729</ele>
        <time>2017-10-25T09:12:32Z</time>
      </trkpt>
      <trkpt lat="47.30275" lon="9.53584">
        <ele>727</ele>
        <time>2017-10-25T09:14:32Z</time>
      </trkpt>
      <trkpt lat="47.30266" lon="9.53536">
        <ele>725</ele>
        <time>2017-10-25T09:16:32Z</time>
      </trkpt>
      <trkpt lat="47.30263" lon="9.5348">
        <ele>726</ele>
        <time>2017-10-25T09:18:32Z</time>
      </trkpt>
      <trkpt lat="47.30257" lon="9.53425">
        <ele>722</ele>
        <time>2017-10-25T09:20:32Z</time>
      </trkpt>
      <trkpt lat="47.30246" lon="9.53371">
        <ele>713</ele>
        <time>2017-10-25T09:22:32Z</time>
      </trkpt>
      <trkpt lat="47.30237" lon="9.53297">
        <ele>703</ele>
        <time>2017-10-25T09:24:32Z</time>
      </trkpt>
      <trkpt lat="47.30236" lon="9.53278">
        <ele>702</ele>
        <time>2017-10-25T09:26:32Z</time>
      </trkpt>
      <trkpt lat="47.30234" lon="9.53231">
        <ele>699</ele>
        <time>2017-10-25T09:28:32Z</time>
      </trkpt>
      <trkpt lat="47.30232" lon="9.53216">
        <ele>698</ele>
        <time>2017-10-25T09:30:32Z</time>
      </trkpt>
      <trkpt lat="47.30227" lon="9.53203">
        <ele>696</ele>
        <time>2017-10-25T09:32:32Z</time>
      </trkpt>
      <trkpt lat="47.30222" lon="9.53189">
        <ele>694</ele>
        <time>2017-10-25T09:34:32Z</time>
      </trkpt>
      <trkpt lat="47.30211" lon="9.53161">
        <ele>689</ele>
        <time>2017-10-25T09:36:32Z</time>
      </trkpt>
      <trkpt lat="47.30198" lon="9.53124">
        <ele>684</ele>
        <time>2017-10-25T09:38:32Z</time>
      </trkpt>
      <trkpt lat="47.30195" lon="9.53112">
        <ele>683</ele>
        <time>2017-10-25T09:40:32Z</time>
      </trkpt>
      <trkpt lat="47.3019" lon="9.531">
        <ele>681</ele>
        <time>2017-10-25T09:42:32Z</time>
      </trkpt>
      <trkpt lat="47.30189" lon="9.53092">
        <ele>681</ele>
        <time>2017-10-25T09:44:32Z</time>
      </trkpt>
      <trkpt lat="47.30187" lon="9.53075">
        <ele>681</ele>
        <time>2017-10-25T09:46:32Z</time>
      </trkpt>
      <trkpt lat="47.30185" lon="9.53055">
        <ele>682</ele>
        <time>2017-10-25T09:48:32Z</time>
      </trkpt>
      <trkpt lat="47.30184" lon="9.53047">
        <ele>682</ele>
        <time>2017-10-25T09:50:32Z</time>
      </trkpt>
      <trkpt lat="47.3018" lon="9.53036">
        <ele>681</ele>
        <time>2017-10-25T09:52:32Z</time>
      </trkpt>
      <trkpt lat="47.3017" lon="9.53022">
        <ele>679</ele>
        <time>2017-10-25T09:54:32Z</time>
      </trkpt>
      <trkpt lat="47.3016" lon="9.53007">
        <ele>676</ele>
        <time>2017-10-25T09:56:32Z</time>
      </trkpt>
      <trkpt lat="47.30156" lon="9.52999">
        <ele>676</ele>
        <time>2017-10-25T09:58:32Z</time>
      </trkpt>
      <trkpt lat="47.30155" lon="9.52991">
        <ele>675</ele>
        <time>2017-10-25T10:00:32Z</time>
      </trkpt>
      <trkpt lat="47.30155" lon="9.52981">
        <ele>676</ele>
        <time>2017-10-25T10:02:32Z</time>
      </trkpt>
      <trkpt lat="47.30156" lon="9.52973">
        <ele>677</ele>
        <time>2017-10-25T10:04:32Z</time>
      </trkpt>
      <trkpt lat="47.30156" lon="9.52965">
        <ele>677</ele>
        <time>2017-10-25T10:06:32Z</time>
      </trkpt>
      <trkpt lat="47.30155" lon="9.52959">
        <ele>677</ele>
        <time>2017-10-25T10:08:32Z</time>
      </trkpt>
      <trkpt lat="47.30152" lon="9.52956">
        <ele>676</ele>
        <time>2017-10-25T10:10:32Z</time>
      </trkpt>
      <trkpt lat="47.30149" lon="9.52952">
        <ele>675</ele>
        <time>2017-10-25T10:12:32Z</time>
      </trkpt>
      <trkpt lat="47.30146" lon="9.5295">
        <ele>674</ele>
        <time>2017-10-25T10:14:32Z</time>
      </trkpt>
      <trkpt lat="47.30143" lon="9.52949">
        <ele>673</ele>
        <time>2017-10-25T10:16:32Z</time>
      </trkpt>
      <trkpt lat="47.30141" lon="9.52949">
        <ele>672</ele>
        <time>2017-10-25T10:18:32Z</time>
      </trkpt>
      <trkpt lat="47.30138" lon="9.5295">
        <ele>671</ele>
        <time>2017-10-25T10:20:32Z</time>
      </trkpt>
      <trkpt lat="47.30136" lon="9.52952">
        <ele>670</ele>
        <time>2017-10-25T10:22:32Z</time>
      </trkpt>
      <trkpt lat="47.30134" lon="9.52956">
        <ele>669</ele>
        <time>2017-10-25T10:24:32Z</time>
      </trkpt>
      <trkpt lat="47.30132" lon="9.52965">
        <ele>667</ele>
        <time>2017-10-25T10:26:32Z</time>
      </trkpt>
      <trkpt lat="47.30132" lon="9.52972">
        <ele>667</ele>
        <time>2017-10-25T10:28:32Z</time>
      </trkpt>
      <trkpt lat="47.30133" lon="9.52984">
        <ele>667</ele>
        <time>2017-10-25T10:30:32Z</time>
      </trkpt>
      <trkpt lat="47.3014" lon="9.53007">
        <ele>668</ele>
        <time>2017-10-25T10:32:32Z</time>
      </trkpt>
      <trkpt lat="47.30145" lon="9.53026">
        <ele>668</ele>
        <time>2017-10-25T10:34:32Z</time>
      </trkpt>
      <trkpt lat="47.30148" lon="9.53041">
        <ele>668</ele>
        <time>2017-10-25T10:36:32Z</time>
      </trkpt>
      <trkpt lat="47.3015" lon="9.53055">
        <ele>667</ele>
        <time>2017-10-25T10:38:32Z</time>
      </trkpt>
      <trkpt lat="47.30153" lon="9.53081">
        <ele>665</ele>
        <time>2017-10-25T10:40:32Z</time>
      </trkpt>
      <trkpt lat="47.30153" lon="9.53098">
        <ele>664</ele>
        <time>2017-10-25T10:42:32Z</time>
      </trkpt>
      <trkpt lat="47.30145" lon="9.53158">
        <ele>656</ele>
        <time>2017-10-25T10:44:32Z</time>
      </trkpt>
      <trkpt lat="47.30143" lon="9.53197">
        <ele>652</ele>
        <time>2017-10-25T10:46:32Z</time>
      </trkpt>
      <trkpt lat="47.30143" lon="9.5322">
        <ele>651</ele>
        <time>2017-10-25T10:48:32Z</time>
      </trkpt>
      <trkpt lat="47.30146" lon="9.53247">
        <ele>651</ele>
        <time>2017-10-25T10:50:32Z</time>
      </trkpt>
      <trkpt lat="47.30147" lon="9.53259">
        <ele>652</ele>
        <time>2017-10-25T10:52:32Z</time>
      </trkpt>
      <trkpt lat="47.30148" lon="9.53267">
        <ele>653</ele>
        <time>2017-10-25T10:54:32Z</time>
      </trkpt>
      <trkpt lat="47.30147" lon="9.53278">
        <ele>652</ele>
        <time>2017-10-25T10:56:32Z</time>
      </trkpt>
      <trkpt lat="47.30139" lon="9.53349">
        <ele>647</ele>
        <time>2017-10-25T10:58:32Z</time>
      </trkpt>
      <trkpt lat="47.30141" lon="9.53447">
        <ele>644</ele>
        <time>2017-10-25T11:00:32Z</time>
      </trkpt>
      <trkpt lat="47.30141" lon="9.53494">
        <ele>642</ele>
        <time>2017-10-25T11:02:32Z</time>
      </trkpt>
      <trkpt lat="47.30141" lon="9.5353">
        <ele>636</ele>
        <time>2017-10-25T11:04:32Z</time>
      </trkpt>
      <trkpt lat="47.30145" lon="9.53572">
        <ele>631</ele>
        <time>2017-10-25T11:06:32Z</time>
      </trkpt>
      <trkpt lat="47.30151" lon="9.53607">
        <ele>628</ele>
        <time>2017-10-25T11:08:32Z</time>
      </trkpt>
      <trkpt lat="47.3016" lon="9.53634">
        <ele>628</ele>
        <time>2017-10-25T11:10:32Z</time>
      </trkpt>
      <trkpt lat="47.30164" lon="9.53652">
        <ele>626</ele>
        <time>2017-10-25T11:12:32Z</time>
      </trkpt>
      <trkpt lat="47.30164" lon="9.5368">
        <ele>621</ele>
        <time>2017-10-25T11:14:32Z</time>
      </trkpt>
      <trkpt lat="47.3016" lon="9.53718">
        <ele>613</ele>
        <time>2017-10-25T11:16:32Z</time>
      </trkpt>
      <trkpt lat="47.30156" lon="9.53758">
        <ele>607</ele>
        <time>2017-10-25T11:18:32Z</time>
      </trkpt>
      <trkpt lat="47.30154" lon="9.53793">
        <ele>605</ele>
        <time>2017-10-25T11:20:32Z</time>
      </trkpt>
      <trkpt lat="47.30152" lon="9.53818">
        <ele>604</ele>
        <time>2017-10-25T11:22:32Z</time>
      </trkpt>
      <trkpt lat="47.30147" lon="9.53879">
        <ele>599</ele>
        <time>2017-10-25T11:24:32Z</time>
      </trkpt>
      <trkpt lat="47.30144" lon="9.53902">
        <ele>597</ele>
        <time>2017-10-25T11:26:32Z</time>
      </trkpt>
      <trkpt lat="47.30138" lon="9.53947">
        <ele>590</ele>
        <time>2017-10-25T11:28:32Z</time>
      </trkpt>
      <trkpt lat="47.30142" lon="9.54006">
        <ele>587</ele>
        <time>2017-10-25T11:30:32Z</time>
      </trkpt>
      <trkpt lat="47.30158" lon="9.54066">
        <ele>583</ele>
        <time>2017-10-25T11:32:32Z</time>
      </trkpt>
      <trkpt lat="47.30176" lon="9.54105">
        <ele>584</ele>
        <time>2017-10-25T11:34:32Z</time>
      </trkpt>
      <trkpt lat="47.30196" lon="9.5417">
        <ele>574</ele>
        <time>2017-10-25T11:36:32Z</time>
      </trkpt>
      <trkpt lat="47.30214" lon="9.54223">
        <ele>567</ele>
        <time>2017-10-25T11:38:32Z</time>
      </trkpt>
      <trkpt lat="47.30229" lon="9.54272">
        <ele>560</ele>
        <time>2017-10-25T11:40:32Z</time>
      </trkpt>
      <trkpt lat="47.30238" lon="9.54291">
        <ele>558</ele>
        <time>2017-10-25T11:42:32Z</time>
      </trkpt>
      <trkpt lat="47.30267" lon="9.54324">
        <ele>559</ele>
        <time>2017-10-25T11:44:32Z</time>
      </trkpt>
      <trkpt lat="47.30299" lon="9.54353">
        <ele>560</ele>
        <time>2017-10-25T11:46:32Z</time>
      </trkpt>
      <trkpt lat="47.3034" lon="9.54405">
        <ele>552</ele>
        <time>2017-10-25T11:48:32Z</time>
      </trkpt>
      <trkpt lat="47.30342" lon="9.54408">
        <ele>551</ele>
        <time>2017-10-25T11:50:32Z</time>
      </trkpt>
      <trkpt lat="47.30344" lon="9.54413">
        <ele>550</ele>
        <time>2017-10-25T11:52:32Z</time>
      </trkpt>
      <trkpt lat="47.30344" lon="9.54417">
        <ele>548</ele>
        <time>2017-10-25T11:54:32Z</time>
      </trkpt>
      <trkpt lat="47.30344" lon="9.54423">
        <ele>546</ele>
        <time>2017-10-25T11:56:32Z</time>
      </trkpt>
      <trkpt lat="47.30344" lon="9.54425">
        <ele>545</ele>
        <time>2017-10-25T11:58:32Z</time>
      </trkpt>
      <trkpt lat="47.30343" lon="9.54426">
        <ele>544</ele>
        <time>2017-10-25T12:00:32Z</time>
      </trkpt>
      <trkpt lat="47.30342" lon="9.54427">
        <ele>544</ele>
        <time>2017-10-25T12:02:32Z</time>
      </trkpt>
      <trkpt lat="47.30341" lon="9.54428">
        <ele>543</ele>
        <time>2017-10-25T12:04:32Z</time>
      </trkpt>
      <trkpt lat="47.3034" lon="9.54429">
        <ele>542</ele>
        <time>2017-10-25T12:06:32Z</time>
      </trkpt>
      <trkpt lat="47.30338" lon="9.5443">
        <ele>542</ele>
        <time>2017-10-25T12:08:32Z</time>
      </trkpt>
      <trkpt lat="47.30335" lon="9.5443">
        <ele>541</ele>
        <time>2017-10-25T12:10:32Z</time>
      </trkpt>
      <trkpt lat="47.30332" lon="9.5443">
        <ele>540</ele>
        <time>2017-10-25T12:12:32Z</time>
      </trkpt>
      <trkpt lat="47.30327" lon="9.54427">
        <ele>540</ele>
        <time>2017-10-25T12:14:32Z</time>
      </trkpt>
      <trkpt lat="47.30323" lon="9.54424">
        <ele>540</ele>
        <time>2017-10-25T12:16:32Z</time>
      </trkpt>
      <trkpt lat="47.30308" lon="9.54411">
        <ele>540</ele>
        <time>2017-10-25T12:18:32Z</time>
      </trkpt>
      <trkpt lat="47.30287" lon="9.54398">
        <ele>539</ele>
        <time>2017-10-25T12:20:32Z</time>
      </trkpt>
      <trkpt lat="47.30265" lon="9.5439">
        <ele>534</ele>
        <time>2017-10-25T12:22:32Z</time>
      </trkpt>
      <trkpt lat="47.30235" lon="9.54376">
        <ele>529</ele>
        <time>2017-10-25T12:24:32Z</time>
      </trkpt>
      <trkpt lat="47.30201" lon="9.54342">
        <ele>527</ele>
        <time>2017-10-25T12:26:32Z</time>
      </trkpt>
      <trkpt lat="47.30175" lon="9.54312">
        <ele>525</ele>
        <time>2017-10-25T12:28:32Z</time>
      </trkpt>
      <trkpt lat="47.30162" lon="9.54291">
        <ele>523</ele>
        <time>2017-10-25T12:30:32Z</time>
      </trkpt>
      <trkpt lat="47.30142" lon="9.54253">
        <ele>522</ele>
        <time>2017-10-25T12:32:32Z</time>
      </trkpt>
      <trkpt lat="47.3013" lon="9.54219">
        <ele>524</ele>
        <time>2017-10-25T12:34:32Z</time>
      </trkpt>
      <trkpt lat="47.3012" lon="9.54198">
        <ele>523</ele>
        <time>2017-10-25T12:36:32Z</time>
      </trkpt>
      <trkpt lat="47.30098" lon="9.54158">
        <ele>518</ele>
        <time>2017-10-25T12:38:32Z</time>
      </trkpt>
      <trkpt lat="47.30083" lon="9.54132">
        <ele>516</ele>
        <time>2017-10-25T12:40:32Z</time>
      </trkpt>
      <trkpt lat="47.30056" lon="9.54096">
        <ele>510</ele>
        <time>2017-10-25T12:42:32Z</time>
      </trkpt>
      <trkpt lat="47.30026" lon="9.54051">
        <ele>501</ele>
        <time>2017-10-25T12:44:32Z</time>
      </trkpt>
      <trkpt lat="47.30023" lon="9.54047">
        <ele>500</ele>
        <time>2017-10-25T12:46:32Z</time>
      </trkpt>
      <trkpt lat="47.30001" lon="9.54017">
        <ele>493</ele>
        <time>2017-10-25T12:48:32Z</time>
      </trkpt>
      <trkpt lat="47.2999" lon="9.53991">
        <ele>491</ele>
        <time>2017-10-25T12:50:32Z</time>
      </trkpt>
      <trkpt lat="47.29984" lon="9.53963">
        <ele>492</ele>
        <time>2017-10-25T12:52:32Z</time>
      </trkpt>
      <trkpt lat="47.29971" lon="9.53898">
        <ele>492</ele>
        <time>2017-10-25T12:54:32Z</time>
      </trkpt>
      <trkpt lat="47.2996" lon="9.53854">
        <ele>488</ele>
        <time>2017-10-25T12:56:32Z</time>
      </trkpt>
      <trkpt lat="47.29959" lon="9.53826">
        <ele>489</ele>
        <time>2017-10-25T12:58:32Z</time>
      </trkpt>
      <trkpt lat="47.29958" lon="9.538">
        <ele>490</ele>
        <time>2017-10-25T13:00:32Z</time>
      </trkpt>
      <trkpt lat="47.29954" lon="9.53781">
        <ele>489</ele>
        <time>2017-10-25T13:02:32Z</time>
      </trkpt>
      <trkpt lat="47.29952" lon="9.53773">
        <ele>488</ele>
        <time>2017-10-25T13:04:32Z</time>
      </trkpt>
      <trkpt lat="47.29949" lon="9.53757">
        <ele>488</ele>
        <time>2017-10-25T13:06:32Z</time>
      </trkpt>
      <trkpt lat="47.29945" lon="9.53746">
        <ele>487</ele>
        <time>2017-10-25T13:08:32Z</time>
      </trkpt>
      <trkpt lat="47.29941" lon="9.5374">
        <ele>486</ele>
        <time>2017-10-25T13:10:32Z</time>
      </trkpt>
      <trkpt lat="47.2993" lon="9.53726">
        <ele>483</ele>
        <time>2017-10-25T13:12:32Z</time>
      </trkpt>
      <trkpt lat="47.29916" lon="9.53708">
        <ele>480</ele>
        <time>2017-10-25T13:14:32Z</time>
      </trkpt>
      <trkpt lat="47.29902" lon="9.53691">
        <ele>479</ele>
        <time>2017-10-25T13:16:32Z</time>
      </trkpt>
      <trkpt lat="47.29898" lon="9.53687">
        <ele>478</ele>
        <time>2017-10-25T13:18:32Z</time>
      </trkpt>
      <trkpt lat="47.29895" lon="9.53681">
        <ele>478</ele>
        <time>2017-10-25T13:20:32Z</time>
      </trkpt>
      <trkpt lat="47.29892" lon="9.53674">
        <ele>479</ele>
        <time>2017-10-25T13:22:32Z</time>
      </trkpt>
      <trkpt lat="47.29888" lon="9.53662">
        <ele>479</ele>
        <time>2017-10-25T13:24:32Z</time>
      </trkpt>
      <trkpt lat="47.29885" lon="9.53652">
        <ele>479</ele>
        <time>2017-10-25T13:26:32Z</time>
      </trkpt>
      <trkpt lat="47.29881" lon="9.53642">
        <ele>478</ele>
        <time>2017-10-25T13:28:32Z</time>
      </trkpt>
      <trkpt lat="47.29879" lon="9.53638">
        <ele>478</ele>
        <time>2017-10-25T13:30:32Z</time>
      </trkpt>
      <trkpt lat="47.29872" lon="9.53627">
        <ele>477</ele>
        <time>2017-10-25T13:32:32Z</time>
      </trkpt>
      <trkpt lat="47.29859" lon="9.53619">
        <ele>474</ele>
        <time>2017-10-25T13:34:32Z</time>
      </trkpt>
      <trkpt lat="47.29848" lon="9.53612">
        <ele>472</ele>
        <time>2017-10-25T13:36:32Z</time>
      </trkpt>
      <trkpt lat="47.29816" lon="9.53594">
        <ele>466</ele>
        <time>2017-10-25T13:38:32Z</time>
      </trkpt>
      <trkpt lat="47.29803" lon="9.53589">
        <ele>465</ele>
        <time>2017-10-25T13:40:32Z</time>
      </trkpt>
      <trkpt lat="47.29795" lon="9.53586">
        <ele>464</ele>
        <time>2017-10-25T13:42:32Z</time>
      </trkpt>
      <trkpt lat="47.29783" lon="9.53594">
        <ele>462</ele>
        <time>2017-10-25T13:44:32Z</time>
      </trkpt>
      <trkpt lat="47.29755" lon="9.53614">
        <ele>457</ele>
        <time>2017-10-25T13:46:32Z</time>
      </trkpt>
      <trkpt lat="47.29752" lon="9.53616">
        <ele>457</ele>
        <time>2017-10-25T13:48:32Z</time>
      </trkpt>
      <trkpt lat="47.29749" lon="9.53618">
        <ele>456</ele>
        <time>2017-10-25T13:50:32Z</time>
      </trkpt>
      <trkpt lat="47.29746" lon="9.53618">
        <ele>456</ele>
        <time>2017-10-25T13:52:32Z</time>
      </trkpt>
      <trkpt lat="47.29743" lon="9.53618">
        <ele>456</ele>
        <time>2017-10-25T13:54:32Z</time>
      </trkpt>
      <trkpt lat="47.29729" lon="9.53616">
        <ele>454</ele>
        <time>2017-10-25T13:56:32Z</time>
      </trkpt>
      <trkpt lat="47.29712" lon="9.53613">
        <ele>453</ele>
        <time>2017-10-25T13:58:32Z</time>
      </trkpt>
      <trkpt lat="47.29695" lon="9.5361">
        <ele>451</ele>
        <time>2017-10-25T14:00:32Z</time>
      </trkpt>
      <trkpt lat="47.29684" lon="9.53608">
        <ele>450</ele>
        <time>2017-10-25T14:02:32Z</time>
      </trkpt>
      <trkpt lat="47.29678" lon="9.53608">
        <ele>449</ele>
        <time>2017-10-25T14:04:32Z</time>
      </trkpt>
      <trkpt lat="47.29678" lon="9.53608">
        <ele>449</ele>
        <time>2017-10-25T14:06:32Z</time>
      </trkpt>
      <trkpt lat="47.29678" lon="9.53604">
        <ele>449</ele>
        <time>2017-10-25T14:08:32Z</time>
      </trkpt>
      <trkpt lat="47.29678" lon="9.53599">
        <ele>450</ele>
        <time>2017-10-25T14:10:32Z</time>
      </trkpt>
      <trkpt lat="47.29678" lon="9.53595">
        <ele>450</ele>
        <time>2017-10-25T14:12:32Z</time>
      </trkpt>
      <trkpt lat="47.29677" lon="9.5359">
        <ele>450</ele>
        <time>2017-10-25T14:14:32Z</time>
      </trkpt>
      <trkpt lat="47.29676" lon="9.53584">
        <ele>450</ele>
        <time>2017-10-25T14:16:32Z</time>
      </trkpt>
      <trkpt lat="47.29673" lon="9.5358">
        <ele>450</ele>
        <time>2017-10-25T14:18:32Z</time>
      </trkpt>
      <trkpt lat="47.2967" lon="9.53576">
        <ele>450</ele>
        <time>2017-10-25T14:20:32Z</time>
      </trkpt>
      <trkpt lat="47.29663" lon="9.53569">
        <ele>450</ele>
        <time>2017-10-25T14:22:32Z</time>
      </trkpt>
      <trkpt lat="47.29614" lon="9.53519">
        <ele>449</ele>
        <time>2017-10-25T14:24:32Z</time>
      </trkpt>
      <trkpt lat="47.29614" lon="9.53519">
        <ele>449</ele>
        <time>2017-10-25T14:26:32Z</time>
      </trkpt>
      <trkpt lat="47.29605" lon="9.53512">
        <ele>449</ele>
        <time>2017-10-25T14:28:32Z</time>
      </trkpt>
      <trkpt lat="47.29582" lon="9.53488">
        <ele>449</ele>
        <time>2017-10-25T14:30:32Z</time>
      </trkpt>
      <trkpt lat="47.29555" lon="9.53461">
        <ele>453</ele>
        <time>2017-10-25T14:32:32Z</time>
      </trkpt>
      <trkpt lat="47.29547" lon="9.53438">
        <ele>456</ele>
        <time>2017-10-25T14:34:32Z</time>
      </trkpt>
      <trkpt lat="47.2954" lon="9.53415">
        <ele>458</ele>
        <time>2017-10-25T14:36:32Z</time>
      </trkpt>
      <trkpt lat="47.29534" lon="9.53396">
        <ele>460</ele>
        <time>2017-10-25T14:38:32Z</time>
      </trkpt>
      <trkpt lat="47.29532" lon="9.5339">
        <ele>461</ele>
        <time>2017-10-25T14:40:32Z</time>
      </trkpt>
      <trkpt lat="47.29531" lon="9.53385">
        <ele>461</ele>
        <time>2017-10-25T14:42:32Z</time>
      </trkpt>
      <trkpt lat="47.2953" lon="9.53381">
        <ele>462</ele>
        <time>2017-10-25T14:44:32Z</time>
      </trkpt>
      <trkpt lat="47.29531" lon="9.53377">
        <ele>462</ele>
        <time>2017-10-25T14:46:32Z</time>
      </trkpt>
      <trkpt lat="47.29533" lon="9.53369">
        <ele>463</ele>
        <time>2017-10-25T14:48:32Z</time>
      </trkpt>
      <trkpt lat="47.29537" lon="9.53354">
        <ele>464</ele>
        <time>2017-10-25T14:50:32Z</time>
      </trkpt>
      <trkpt lat="47.29538" lon="9.53349">
        <ele>465</ele>
        <time>2017-10-25T14:52:32Z</time>
      </trkpt>
      <trkpt lat="47.29538" lon="9.53344">
        <ele>465</ele>
        <time>2017-10-25T14:54:32Z</time>
      </trkpt>
      <trkpt lat="47.29537" lon="9.53339">
        <ele>466</ele>
        <time>2017-10-25T14:56:32Z</time>
      </trkpt>
      <trkpt lat="47.29536" lon="9.53334">
        <ele>466</ele>
        <time>2017-10-25T14:58:32Z</time>
      </trkpt>
      <trkpt lat="47.29534" lon="9.53329">
        <ele>467</ele>
        <time>2017-10-25T15:00:32Z</time>
      </trkpt>
      <trkpt lat="47.29532" lon="9.53325">
        <ele>468</ele>
        <time>2017-10-25T15:02:32Z</time>
      </trkpt>
      <trkpt lat="47.29529" lon="9.53322">
        <ele>469</ele>
        <time>2017-10-25T15:04:32Z</time>
      </trkpt>
      <trkpt lat="47.29526" lon="9.5332">
        <ele>470</ele>
        <time>2017-10-25T15:06:32Z</time>
      </trkpt>
      <trkpt lat="47.29523" lon="9.53319">
        <ele>470</ele>
        <time>2017-10-25T15:08:32Z</time>
      </trkpt>
      <trkpt lat="47.2952" lon="9.53318">
        <ele>471</ele>
        <time>2017-10-25T15:10:32Z</time>
      </trkpt>
      <trkpt lat="47.29517" lon="9.53318">
        <ele>471</ele>
        <time>2017-10-25T15:12:32Z</time>
      </trkpt>
      <trkpt lat="47.29514" lon="9.53319">
        <ele>471</ele>
        <time>2017-10-25T15:14:32Z</time>
      </trkpt>
      <trkpt lat="47.29509" lon="9.53321">
        <ele>471</ele>
        <time>2017-10-25T15:16:32Z</time>
      </trkpt>
      <trkpt lat="47.29497" lon="9.5333">
        <ele>472</ele>
        <time>2017-10-25T15:18:32Z</time>
      </trkpt>
      <trkpt lat="47.29491" lon="9.53335">
        <ele>473</ele>
        <time>2017-10-25T15:20:32Z</time>
      </trkpt>
      <trkpt lat="47.29484" lon="9.53339">
        <ele>475</ele>
        <time>2017-10-25T15:22:32Z</time>
      </trkpt>
      <trkpt lat="47.29472" lon="9.53346">
        <ele>479</ele>
        <time>2017-10-25T15:24:32Z</time>
      </trkpt>
      <trkpt lat="47.29462" lon="9.5335">
        <ele>483</ele>
        <time>2017-10-25T15:26:32Z</time>
      </trkpt>
      <trkpt lat="47.29451" lon="9.53348">
        <ele>487</ele>
        <time>2017-10-25T15:28:32Z</time>
      </trkpt>
      <trkpt lat="47.29443" lon="9.53344">
        <ele>490</ele>
        <time>2017-10-25T15:30:32Z</time>
      </trkpt>
      <trkpt lat="47.29429" lon="9.53332">
        <ele>495</ele>
        <time>2017-10-25T15:32:32Z</time>
      </trkpt>
      <trkpt lat="47.29415" lon="9.53314">
        <ele>498</ele>
        <time>2017-10-25T15:34:32Z</time>
      </trkpt>
      <trkpt lat="47.29393" lon="9.53274">
        <ele>501</ele>
        <time>2017-10-25T15:36:32Z</time>
      </trkpt>
      <trkpt lat="47.29368" lon="9.5323">
        <ele>506</ele>
        <time>2017-10-25T15:38:32Z</time>
      </trkpt>
      <trkpt lat="47.29349" lon="9.53201">
        <ele>508</ele>
        <time>2017-10-25T15:40:32Z</time>
      </trkpt>
      <trkpt lat="47.29339" lon="9.53183">
        <ele>507</ele>
        <time>2017-10-25T15:42:32Z</time>
      </trkpt>
      <trkpt lat="47.29316" lon="9.53147">
        <ele>508</ele>
        <time>2017-10-25T15:44:32Z</time>
      </trkpt>
      <trkpt lat="47.29303" lon="9.53131">
        <ele>509</ele>
        <time>2017-10-25T15:46:32Z</time>
      </trkpt>
      <trkpt lat="47.2928" lon="9.53099">
        <ele>511</ele>
        <time>2017-10-25T15:48:32Z</time>
      </trkpt>
      <trkpt lat="47.29264" lon="9.53078">
        <ele>513</ele>
        <time>2017-10-25T15:50:32Z</time>
      </trkpt>
      <trkpt lat="47.29241" lon="9.53046">
        <ele>515</ele>
        <time>2017-10-25T15:52:32Z</time>
      </trkpt>
      <trkpt lat="47.29233" lon="9.53026">
        <ele>515</ele>
        <time>2017-10-25T15:54:32Z</time>
      </trkpt>
      <trkpt lat="47.29228" lon="9.53006">
        <ele>515</ele>
        <time>2017-10-25T15:56:32Z</time>
      </trkpt>
      <trkpt lat="47.29224" lon="9.52995">
        <ele>515</ele>
        <time>2017-10-25T15:58:32Z</time>
      </trkpt>
      <trkpt lat="47.2922" lon="9.52985">
        <ele>517</ele>
        <time>2017-10-25T16:00:32Z</time>
      </trkpt>
      <trkpt lat="47.29213" lon="9.52966">
        <ele>519</ele>
        <time>2017-10-25T16:02:32Z</time>
      </trkpt>
      <trkpt lat="47.2921" lon="9.52951">
        <ele>520</ele>
        <time>2017-10-25T16:04:32Z</time>
      </trkpt>
      <trkpt lat="47.29208" lon="9.52938">
        <ele>520</ele>
        <time>2017-10-25T16:06:32Z</time>
      </trkpt>
      <trkpt lat="47.29208" lon="9.52927">
        <ele>521</ele>
        <time>2017-10-25T16:08:32Z</time>
      </trkpt>
      <trkpt lat="47.29211" lon="9.52908">
        <ele>521</ele>
        <time>2017-10-25T16:10:32Z</time>
      </trkpt>
      <trkpt lat="47.2921" lon="9.52895">
        <ele>522</ele>
        <time>2017-10-25T16:12:32Z</time>
      </trkpt>
      <trkpt lat="47.29209" lon="9.52887">
        <ele>522</ele>
        <time>2017-10-25T16:14:32Z</time>
      </trkpt>
      <trkpt lat="47.29203" lon="9.5287">
        <ele>524</ele>
        <time>2017-10-25T16:16:32Z</time>
      </trkpt>
      <trkpt lat="47.2919" lon="9.52849">
        <ele>526</ele>
        <time>2017-10-25T16:18:32Z</time>
      </trkpt>
      <trkpt lat="47.29171" lon="9.52821">
        <ele>528</ele>
        <time>2017-10-25T16:20:32Z</time>
      </trkpt>
      <trkpt lat="47.29171" lon="9.52821">
        <ele>528</ele>
        <time>2017-10-25T16:22:32Z</time>
      </trkpt>
      <trkpt lat="47.29168" lon="9.52833">
        <ele>529</ele>
        <time>2017-10-25T16:24:32Z</time>
      </trkpt>
      <trkpt lat="47.29167" lon="9.52843">
        <ele>529</ele>
        <time>2017-10-25T16:26:32Z</time>
      </trkpt>
      <trkpt lat="47.2917" lon="9.52871">
        <ele>529</ele>
        <time>2017-10-25T16:28:32Z</time>
      </trkpt>
      <trkpt lat="47.29171" lon="9.52881">
        <ele>528</ele>
        <time>2017-10-25T16:30:32Z</time>
      </trkpt>
      <trkpt lat="47.29171" lon="9.52887">
        <ele>528</ele>
        <time>2017-10-25T16:32:32Z</time>
      </trkpt>
      <trkpt lat="47.29169" lon="9.52897">
        <ele>529</ele>
        <time>2017-10-25T16:34:32Z</time>
      </trkpt>
      <trkpt lat="47.29166" lon="9.52913">
        <ele>529</ele>
        <time>2017-10-25T16:36:32Z</time>
      </trkpt>
      <trkpt lat="47.29161" lon="9.5293">
        <ele>531</ele>
        <time>2017-10-25T16:38:32Z</time>
      </trkpt>
      <trkpt lat="47.29157" lon="9.52943">
        <ele>531</ele>
        <time>2017-10-25T16:40:32Z</time>
      </trkpt>
      <trkpt lat="47.29143" lon="9.52975">
        <ele>532</ele>
        <time>2017-10-25T16:42:32Z</time>
      </trkpt>
      <trkpt lat="47.29143" lon="9.52975">
        <ele>532</ele>
        <time>2017-10-25T16:44:32Z</time>
      </trkpt>
      <trkpt lat="47.29143" lon="9.52989">
        <ele>530</ele>
        <time>2017-10-25T16:46:32Z</time>
      </trkpt>
      <trkpt lat="47.29143" lon="9.52997">
        <ele>529</ele>
        <time>2017-10-25T16:48:32Z</time>
      </trkpt>
      <trkpt lat="47.29142" lon="9.53006">
        <ele>528</ele>
        <time>2017-10-25T16:50:32Z</time>
      </trkpt>
      <trkpt lat="47.29137" lon="9.53017">
        <ele>528</ele>
        <time>2017-10-25T16:52:32Z</time>
      </trkpt>
      <trkpt lat="47.29128" lon="9.53031">
        <ele>527</ele>
        <time>2017-10-25T16:54:32Z</time>
      </trkpt>
      <trkpt lat="47.29113" lon="9.53044">
        <ele>526</ele>
        <time>2017-10-25T16:56:32Z</time>
      </trkpt>
      <trkpt lat="47.29089" lon="9.53064">
        <ele>522</ele>
        <time>2017-10-25T16:58:32Z</time>
      </trkpt>
      <trkpt lat="47.29082" lon="9.53067">
        <ele>522</ele>
        <time>2017-10-25T17:00:32Z</time>
      </trkpt>
      <trkpt lat="47.29075" lon="9.53069">
        <ele>520</ele>
        <time>2017-10-25T17:02:32Z</time>
      </trkpt>
      <trkpt lat="47.29071" lon="9.53069">
        <ele>519</ele>
        <time>2017-10-25T17:04:32Z</time>
      </trkpt>
      <trkpt lat="47.29062" lon="9.53067">
        <ele>518</ele>
        <time>2017-10-25T17:06:32Z</time>
      </trkpt>
      <trkpt lat="47.29033" lon="9.53056">
        <ele>515</ele>
        <time>2017-10-25T17:08:32Z</time>
      </trkpt>
      <trkpt lat="47.29021" lon="9.53051">
        <ele>514</ele>
        <time>2017-10-25T17:10:32Z</time>
      </trkpt>
      <trkpt lat="47.29011" lon="9.53047">
        <ele>513</ele>
        <time>2017-10-25T17:12:32Z</time>
      </trkpt>
      <trkpt lat="47.29004" lon="9.53043">
        <ele>513</ele>
        <time>2017-10-25T17:14:32Z</time>
      </trkpt>
      <trkpt lat="47.28999" lon="9.53038">
        <ele>513</ele>
        <time>2017-10-25T17:16:32Z</time>
      </trkpt>
      <trkpt lat="47.28993" lon="9.53032">
        <ele>513</ele>
        <time>2017-10-25T17:18:32Z</time>
      </trkpt>
      <trkpt lat="47.2899" lon="9.53032">
        <ele>512</ele>
        <time>2017-10-25T17:20:32Z</time>
      </trkpt>
      <trkpt lat="47.28986" lon="9.53034">
        <ele>511</ele>
        <time>2017-10-25T17:22:32Z</time>
      </trkpt>
      <trkpt lat="47.28983" lon="9.53038">
        <ele>510</ele>
        <time>2017-10-25T17:24:32Z</time>
      </trkpt>
      <trkpt lat="47.28982" lon="9.53045">
        <ele>508</ele>
        <time>2017-10-25T17:26:32Z</time>
      </trkpt>
      <trkpt lat="47.28984" lon="9.53051">
        <ele>507</ele>
        <time>2017-10-25T17:28:32Z</time>
      </trkpt>
      <trkpt lat="47.28993" lon="9.53067">
        <ele>506</ele>
        <time>2017-10-25T17:30:32Z</time>
      </trkpt>
      <trkpt lat="47.29002" lon="9.53079">
        <ele>505</ele>
        <time>2017-10-25T17:32:32Z</time>
      </trkpt>
      <trkpt lat="47.29007" lon="9.53086">
        <ele>505</ele>
        <time>2017-10-25T17:34:32Z</time>
      </trkpt>
      <trkpt lat="47.29011" lon="9.53093">
        <ele>504</ele>
        <time>2017-10-25T17:36:32Z</time>
      </trkpt>
      <trkpt lat="47.29018" lon="9.53119">
        <ele>501</ele>
        <time>2017-10-25T17:38:32Z</time>
      </trkpt>
      <trkpt lat="47.29023" lon="9.53134">
        <ele>500</ele>
        <time>2017-10-25T17:40:32Z</time>
      </trkpt>
      <trkpt lat="47.29027" lon="9.53148">
        <ele>499</ele>
        <time>2017-10-25T17:42:32Z</time>
      </trkpt>
      <trkpt lat="47.29029" lon="9.53158">
        <ele>498</ele>
        <time>2017-10-25T17:44:32Z</time>
      </trkpt>
      <trkpt lat="47.29029" lon="9.53162">
        <ele>497</ele>
        <time>2017-10-25T17:46:32Z</time>
      </trkpt>
      <trkpt lat="47.29028" lon="9.53166">
        <ele>496</ele>
        <time>2017-10-25T17:48:32Z</time>
      </trkpt>
      <trkpt lat="47.29027" lon="9.53169">
        <ele>496</ele>
        <time>2017-10-25T17:50:32Z</time>
      </trkpt>
      <trkpt lat="47.29023" lon="9.53171">
        <ele>494</ele>
        <time>2017-10-25T17:52:32Z</time>
      </trkpt>
      <trkpt lat="47.29021" lon="9.53172">
        <ele>493</ele>
        <time>2017-10-25T17:54:32Z</time>
      </trkpt>
      <trkpt lat="47.29014" lon="9.53167">
        <ele>493</ele>
        <time>2017-10-25T17:56:32Z</time>
      </trkpt>
      <trkpt lat="47.29001" lon="9.53154">
        <ele>492</ele>
        <time>2017-10-25T17:58:32Z</time>
      </trkpt>
      <trkpt lat="47.28979" lon="9.5313">
        <ele>492</ele>
        <time>2017-10-25T18:00:32Z</time>
      </trkpt>
      <trkpt lat="47.28961" lon="9.53114">
        <ele>491</ele>
        <time>2017-10-25T18:02:32Z</time>
      </trkpt>
      <trkpt lat="47.28847" lon="9.53024">
        <ele>482</ele>
        <time>2017-10-25T18:04:32Z</time>
      </trkpt>
      <trkpt lat="47.28809" lon="9.52988">
        <ele>480</ele>
        <time>2017-10-25T18:06:32Z</time>
      </trkpt>
      <trkpt lat="47.28779" lon="9.52959">
        <ele>479</ele>
        <time>2017-10-25T18:08:32Z</time>
      </trkpt>
      <trkpt lat="47.28752" lon="9.52929">
        <ele>477</ele>
        <time>2017-10-25T18:10:32Z</time>
      </trkpt>
      <trkpt lat="47.28723" lon="9.52894">
        <ele>478</ele>
        <time>2017-10-25T18:12:32Z</time>
      </trkpt>
      <trkpt lat="47.28705" lon="9.52871">
        <ele>479</ele>
        <time>2017-10-25T18:14:32Z</time>
      </trkpt>
      <trkpt lat="47.2869" lon="9.52855">
        <ele>478</ele>
        <time>2017-10-25T18:16:32Z</time>
      </trkpt>
      <trkpt lat="47.28663" lon="9.5283">
        <ele>475</ele>
        <time>2017-10-25T18:18:32Z</time>
      </trkpt>
      <trkpt lat="47.28629" lon="9.52796">
        <ele>474</ele>
        <time>2017-10-25T18:20:32Z</time>
      </trkpt>
      <trkpt lat="47.28621" lon="9.52789">
        <ele>473</ele>
        <time>2017-10-25T18:22:32Z</time>
      </trkpt>
      <trkpt lat="47.28616" lon="9.52787">
        <ele>473</ele>
        <time>2017-10-25T18:24:32Z</time>
      </trkpt>
      <trkpt lat="47.28611" lon="9.52786">
        <ele>472</ele>
        <time>2017-10-25T18:26:32Z</time>
      </trkpt>
      <trkpt lat="47.28606" lon="9.52786">
        <ele>470</ele>
        <time>2017-10-25T18:28:32Z</time>
      </trkpt>
      <trkpt lat="47.28603" lon="9.52789">
        <ele>470</ele>
        <time>2017-10-25T18:30:32Z</time>
      </trkpt>
      <trkpt lat="47.286" lon="9.52792">
        <ele>469</ele>
        <time>2017-10-25T18:32:32Z</time>
      </trkpt>
      <trkpt lat="47.28598" lon="9.52797">
        <ele>468</ele>
        <time>2017-10-25T18:34:32Z</time>
      </trkpt>
      <trkpt lat="47.28594" lon="9.52808">
        <ele>466</ele>
        <time>2017-10-25T18:36:32Z</time>
      </trkpt>
      <trkpt lat="47.286" lon="9.52823">
        <ele>466</ele>
        <time>2017-10-25T18:38:32Z</time>
      </trkpt>
      <trkpt lat="47.28608" lon="9.52842">
        <ele>465</ele>
        <time>2017-10-25T18:40:32Z</time>
      </trkpt>
      <trkpt lat="47.28616" lon="9.52859">
        <ele>464</ele>
        <time>2017-10-25T18:42:32Z</time>
      </trkpt>
      <trkpt lat="47.28626" lon="9.52879">
        <ele>464</ele>
        <time>2017-10-25T18:44:32Z</time>
      </trkpt>
      <trkpt lat="47.28641" lon="9.5291">
        <ele>463</ele>
        <time>2017-10-25T18:46:32Z</time>
      </trkpt>
      <trkpt lat="47.28651" lon="9.52932">
        <ele>461</ele>
        <time>2017-10-25T18:48:32Z</time>
      </trkpt>
      <trkpt lat="47.28658" lon="9.52949">
        <ele>460</ele>
        <time>2017-10-25T18:50:32Z</time>
      </trkpt>
      <trkpt lat="47.28666" lon="9.52965">
        <ele>458</ele>
        <time>2017-10-25T18:52:32Z</time>
      </trkpt>
      <trkpt lat="47.28672" lon="9.52976">
        <ele>458</ele>
        <time>2017-10-25T18:54:32Z</time>
      </trkpt>
      <trkpt lat="47.28687" lon="9.52995">
        <ele>457</ele>
        <time>2017-10-25T18:56:32Z</time>
      </trkpt>
      <trkpt lat="47.28707" lon="9.5302">
        <ele>456</ele>
        <time>2017-10-25T18:58:32Z</time>
      </trkpt>
      <trkpt lat="47.28726" lon="9.53046">
        <ele>456</ele>
        <time>2017-10-25T19:00:32Z</time>
      </trkpt>
      <trkpt lat="47.28733" lon="9.53061">
        <ele>456</ele>
        <time>2017-10-25T19:02:32Z</time>
      </trkpt>
      <trkpt lat="47.28737" lon="9.53075">
        <ele>455</ele>
        <time>2017-10-25T19:04:32Z</time>
      </trkpt>
      <trkpt lat="47.28741" lon="9.53091">
        <ele>455</ele>
        <time>2017-10-25T19:06:32Z</time>
      </trkpt>
      <trkpt lat="47.28746" lon="9.53114">
        <ele>454</ele>
        <time>2017-10-25T19:08:32Z</time>
      </trkpt>
      <trkpt lat="47.2875" lon="9.53132">
        <ele>453</ele>
        <time>2017-10-25T19:10:32Z</time>
      </trkpt>
      <trkpt lat="47.28755" lon="9.53146">
        <ele>452</ele>
        <time>2017-10-25T19:12:32Z</time>
      </trkpt>
      <trkpt lat="47.28758" lon="9.53157">
        <ele>452</ele>
        <time>2017-10-25T19:14:32Z</time>
      </trkpt>
      <trkpt lat="47.28762" lon="9.53164">
        <ele>452</ele>
        <time>2017-10-25T19:16:32Z</time>
      </trkpt>
      <trkpt lat="47.28776" lon="9.5319">
        <ele>450</ele>
        <time>2017-10-25T19:18:32Z</time>
      </trkpt>
      <trkpt lat="47.28781" lon="9.532">
        <ele>450</ele>
        <time>2017-10-25T19:20:32Z</time>
      </trkpt>
      <trkpt lat="47.28829" lon="9.53293">
        <ele>444</ele>
        <time>2017-10-25T19:22:32Z</time>
      </trkpt>
      <trkpt lat="47.28833" lon="9.53304">
        <ele>443</ele>
        <time>2017-10-25T19:24:32Z</time>
      </trkpt>
      <trkpt lat="47.28839" lon="9.5333">
        <ele>441</ele>
        <time>2017-10-25T19:26:32Z</time>
      </trkpt>
      <trkpt lat="47.28841" lon="9.53337">
        <ele>440</ele>
        <time>2017-10-25T19:28:32Z</time>
      </trkpt>
      <trkpt lat="47.28843" lon="9.53343">
        <ele>440</ele>
        <time>2017-10-25T19:30:32Z</time>
      </trkpt>
      <trkpt lat="47.28847" lon="9.53351">
        <ele>439</ele>
        <time>2017-10-25T19:32:32Z</time>
      </trkpt>
      <trkpt lat="47.28849" lon="9.53356">
        <ele>438</ele>
        <time>2017-10-25T19:34:32Z</time>
      </trkpt>
      <trkpt lat="47.28849" lon="9.53356">
        <ele>438</ele>
        <time>2017-10-25T19:36:32Z</time>
      </trkpt>
      <trkpt lat="47.28846" lon="9.5336">
        <ele>438</ele>
        <time>2017-10-25T19:38:32Z</time>
      </trkpt>
      <trkpt lat="47.28845" lon="9.53361">
        <ele>437</ele>
        <time>2017-10-25T19:40:32Z</time>
      </trkpt>
      <trkpt lat="47.28843" lon="9.53362">
        <ele>437</ele>
        <time>2017-10-25T19:42:32Z</time>
      </trkpt>
      <trkpt lat="47.28842" lon="9.53362">
        <ele>437</ele>
        <time>2017-10-25T19:44:32Z</time>
      </trkpt>
      <trkpt lat="47.28841" lon="9.53362">
        <ele>437</ele>
        <time>2017-10-25T19:46:32Z</time>
      </trkpt>
      <trkpt lat="47.2884" lon="9.53362">
        <ele>437</ele>
        <time>2017-10-25T19:48:32Z</time>
      </trkpt>
      <trkpt lat="47.28838" lon="9.5336">
        <ele>437</ele>
        <time>2017-10-25T19:50:32Z</time>
      </trkpt>
      <trkpt lat="47.28832" lon="9.53357">
        <ele>437</ele>
        <time>2017-10-25T19:52:32Z</time>
      </trkpt>
      <trkpt lat="47.28803" lon="9.53337">
        <ele>436</ele>
        <time>2017-10-25T19:54:32Z</time>
      </trkpt>
      <trkpt lat="47.28788" lon="9.53324">
        <ele>436</ele>
        <time>2017-10-25T19:56:32Z</time>
      </trkpt>
      <trkpt lat="47.28771" lon="9.53307">
        <ele>436</ele>
        <time>2017-10-25T19:58:32Z</time>
      </trkpt>
      <trkpt lat="47.2876" lon="9.53293">
        <ele>436</ele>
        <time>2017-10-25T20:00:32Z</time>
      </trkpt>
      <trkpt lat="47.28756" lon="9.53286">
        <ele>436</ele>
        <time>2017-10-25T20:02:32Z</time>
      </trkpt>
      <trkpt lat="47.28756" lon="9.53286">
        <ele>436</ele>
        <time>2017-10-25T20:04:32Z</time>
      </trkpt>
      <trkpt lat="47.28753" lon="9.53286">
        <ele>435</ele>
        <time>2017-10-25T20:06:32Z</time>
      </trkpt>
      <trkpt lat="47.2875" lon="9.53285">
        <ele>435</ele>
        <time>2017-10-25T20:08:32Z</time>
      </trkpt>
      <trkpt lat="47.28745" lon="9.53282">
        <ele>435</ele>
        <time>2017-10-25T20:10:32Z</time>
      </trkpt>
      <trkpt lat="47.28737" lon="9.53274">
        <ele>434</ele>
        <time>2017-10-25T20:12:32Z</time>
      </trkpt>
      <trkpt lat="47.28728" lon="9.53264">
        <ele>434</ele>
        <time>2017-10-25T20:14:32Z</time>
      </trkpt>
      <trkpt lat="47.28721" lon="9.53258">
        <ele>433</ele>
        <time>2017-10-25T20:16:32Z</time>
      </trkpt>
      <trkpt lat="47.28716" lon="9.53255">
        <ele>433</ele>
        <time>2017-10-25T20:18:32Z</time>
      </trkpt>
      <trkpt lat="47.28711" lon="9.53254">
        <ele>432</ele>
        <time>2017-10-25T20:20:32Z</time>
      </trkpt>
      <trkpt lat="47.28708" lon="9.53255">
        <ele>432</ele>
        <time>2017-10-25T20:22:32Z</time>
      </trkpt>
      <trkpt lat="47.28706" lon="9.53258">
        <ele>431</ele>
        <time>2017-10-25T20:24:32Z</time>
      </trkpt>
      <trkpt lat="47.28705" lon="9.5326">
        <ele>431</ele>
        <time>2017-10-25T20:26:32Z</time>
      </trkpt>
      <trkpt lat="47.28706" lon="9.53263">
        <ele>431</ele>
        <time>2017-10-25T20:28:32Z</time>
      </trkpt>
      <trkpt lat="47.28707" lon="9.53271">
        <ele>431</ele>
        <time>2017-10-25T20:30:32Z</time>
      </trkpt>
      <trkpt lat="47.2871" lon="9.5328">
        <ele>431</ele>
        <time>2017-10-25T20:32:32Z</time>
      </trkpt>
      <trkpt lat="47.28716" lon="9.53297">
        <ele>431</ele>
        <time>2017-10-25T20:34:32Z</time>
      </trkpt>
      <trkpt lat="47.28718" lon="9.53303">
        <ele>431</ele>
        <time>2017-10-25T20:36:32Z</time>
      </trkpt>
      <trkpt lat="47.28719" lon="9.53314">
        <ele>430</ele>
        <time>2017-10-25T20:38:32Z</time>
      </trkpt>
      <trkpt lat="47.28719" lon="9.53314">
        <ele>430</ele>
        <time>2017-10-25T20:40:32Z</time>
      </trkpt>
      <trkpt lat="47.28649" lon="9.53409">
        <ele>425</ele>
        <time>2017-10-25T20:42:32Z</time>
      </trkpt>
      <trkpt lat="47.28645" lon="9.53415">
        <ele>425</ele>
        <time>2017-10-25T20:44:32Z</time>
      </trkpt>
      <trkpt lat="47.28636" lon="9.53431">
        <ele>425</ele>
        <time>2017-10-25T20:46:32Z</time>
      </trkpt>
      <trkpt lat="47.28633" lon="9.53435">
        <ele>425</ele>
        <time>2017-10-25T20:48:32Z</time>
      </trkpt>
      <trkpt lat="47.28633" lon="9.53435">
        <ele>425</ele>
        <time>2017-10-25T20:50:32Z</time>
      </trkpt>
      <trkpt lat="47.2862" lon="9.5342">
        <ele>425</ele>
        <time>2017-10-25T20:52:32Z</time>
      </trkpt>
      <trkpt lat="47.28576" lon="9.53371">
        <ele>425</ele>
        <time>2017-10-25T20:54:32Z</time>
      </trkpt>
      <trkpt lat="47.28562" lon="9.53357">
        <ele>424</ele>
        <time>2017-10-25T20:56:32Z</time>
      </trkpt>
      <trkpt lat="47.28545" lon="9.53341">
        <ele>425</ele>
        <time>2017-10-25T20:58:32Z</time>
      </trkpt>
      <trkpt lat="47.28496" lon="9.53294">
        <ele>425</ele>
        <time>2017-10-25T21:00:32Z</time>
      </trkpt>
      <trkpt lat="47.28379" lon="9.53177">
        <ele>424</ele>
        <time>2017-10-25T21:02:32Z</time>
      </trkpt>
      <trkpt lat="47.28229" lon="9.53032">
        <ele>425</ele>
        <time>2017-10-25T21:04:32Z</time>
      </trkpt>
      <trkpt lat="47.28173" lon="9.52973">
        <ele>425</ele>
        <time>2017-10-25T21:06:32Z</time>
      </trkpt>
      <trkpt lat="47.28138" lon="9.52939">
        <ele>426</ele>
        <time>2017-10-25T21:08:32Z</time>
      </trkpt>
      <trkpt lat="47.28097" lon="9.52898">
        <ele>426</ele>
        <time>2017-10-25T21:10:32Z</time>
      </trkpt>
      <trkpt lat="47.28025" lon="9.52829">
        <ele>426</ele>
        <time>2017-10-25T21:12:32Z</time>
      </trkpt>
      <trkpt lat="47.28025" lon="9.52829">
        <ele>426</ele>
        <time>2017-10-25T21:14:32Z</time>
      </trkpt>
      <trkpt lat="47.28097" lon="9.52898">
        <ele>426</ele>
        <time>2017-10-25T21:16:32Z</time>
      </trkpt>
      <trkpt lat="47.28138" lon="9.52939">
        <ele>426</ele>
        <time>2017-10-25T21:18:32Z</time>
      </trkpt>
      <trkpt lat="47.28173" lon="9.52973">
        <ele>425</ele>
        <time>2017-10-25T21:20:32Z</time>
      </trkpt>
      <trkpt lat="47.28229" lon="9.53032">
        <ele>425</ele>
        <time>2017-10-25T21:22:32Z</time>
      </trkpt>
      <trkpt lat="47.28379" lon="9.53177">
        <ele>424</ele>
        <time>2017-10-25T21:24:32Z</time>
      </trkpt>
      <trkpt lat="47.28496" lon="9.53294">
        <ele>425</ele>
        <time>2017-10-25T21:26:32Z</time>
      </trkpt>
      <trkpt lat="47.28545" lon="9.53341">
        <ele>425</ele>
        <time>2017-10-25T21:28:32Z</time>
      </trkpt>
      <trkpt lat="47.28562" lon="9.53357">
        <ele>424</ele>
        <time>2017-10-25T21:30:32Z</time>
      </trkpt>
      <trkpt lat="47.28576" lon="9.53371">
        <ele>425</ele>
        <time>2017-10-25T21:32:32Z</time>
      </trkpt>
      <trkpt lat="47.2862" lon="9.5342">
        <ele>425</ele>
        <time>2017-10-25T21:34:32Z</time>
      </trkpt>
      <trkpt lat="47.28633" lon="9.53435">
        <ele>425</ele>
        <time>2017-10-25T21:36:32Z</time>
      </trkpt>
      <trkpt lat="47.28633" lon="9.53435">
        <ele>425</ele>
        <time>2017-10-25T21:38:32Z</time>
      </trkpt>
      <trkpt lat="47.28636" lon="9.53431">
        <ele>425</ele>
        <time>2017-10-25T21:40:32Z</time>
      </trkpt>
      <trkpt lat="47.28645" lon="9.53415">
        <ele>425</ele>
        <time>2017-10-25T21:42:32Z</time>
      </trkpt>
      <trkpt lat="47.28649" lon="9.53409">
        <ele>425</ele>
        <time>2017-10-25T21:44:32Z</time>
      </trkpt>
      <trkpt lat="47.28649" lon="9.53409">
        <ele>425</ele>
        <time>2017-10-25T21:46:32Z</time>
      </trkpt>
      <trkpt lat="47.2859" lon="9.53348">
        <ele>424</ele>
        <time>2017-10-25T21:48:32Z</time>
      </trkpt>
      <trkpt lat="47.28589" lon="9.53347">
        <ele>424</ele>
        <time>2017-10-25T21:50:32Z</time>
      </trkpt>
      <trkpt lat="47.28575" lon="9.53333">
        <ele>424</ele>
        <time>2017-10-25T21:52:32Z</time>
      </trkpt>
      <trkpt lat="47.28401" lon="9.53161">
        <ele>424</ele>
        <time>2017-10-25T21:54:32Z</time>
      </trkpt>
      <trkpt lat="47.28352" lon="9.53113">
        <ele>424</ele>
        <time>2017-10-25T21:56:32Z</time>
      </trkpt>
      <trkpt lat="47.28303" lon="9.53064">
        <ele>425</ele>
        <time>2017-10-25T21:58:32Z</time>
      </trkpt>
      <trkpt lat="47.28232" lon="9.52994">
        <ele>426</ele>
        <time>2017-10-25T22:00:32Z</time>
      </trkpt>
      <trkpt lat="47.28169" lon="9.52933">
        <ele>426</ele>
        <time>2017-10-25T22:02:32Z</time>
      </trkpt>
      <trkpt lat="47.28132" lon="9.52897">
        <ele>426</ele>
        <time>2017-10-25T22:04:32Z</time>
      </trkpt>
      <trkpt lat="47.28086" lon="9.52852">
        <ele>425</ele>
        <time>2017-10-25T22:06:32Z</time>
      </trkpt>
      <trkpt lat="47.28044" lon="9.52811">
        <ele>425</ele>
        <time>2017-10-25T22:08:32Z</time>
      </trkpt>
      <trkpt lat="47.28005" lon="9.52778">
        <ele>425</ele>
        <time>2017-10-25T22:10:32Z</time>
      </trkpt>
      <trkpt lat="47.27979" lon="9.52756">
        <ele>425</ele>
        <time>2017-10-25T22:12:32Z</time>
      </trkpt>
      <trkpt lat="47.27951" lon="9.52736">
        <ele>426</ele>
        <time>2017-10-25T22:14:32Z</time>
      </trkpt>
      <trkpt lat="47.27917" lon="9.52713">
        <ele>426</ele>
        <time>2017-10-25T22:16:32Z</time>
      </trkpt>
      <trkpt lat="47.27891" lon="9.52697">
        <ele>426</ele>
        <time>2017-10-25T22:18:32Z</time>
      </trkpt>
      <trkpt lat="47.27863" lon="9.52682">
        <ele>425</ele>
        <time>2017-10-25T22:20:32Z</time>
      </trkpt>
      <trkpt lat="47.27786" lon="9.52644">
        <ele>426</ele>
        <time>2017-10-25T22:22:32Z</time>
      </trkpt>
      <trkpt lat="47.27762" lon="9.52632">
        <ele>426</ele>
        <time>2017-10-25T22:24:32Z</time>
      </trkpt>
      <trkpt lat="47.27753" lon="9.52628">
        <ele>426</ele>
        <time>2017-10-25T22:26:32Z</time>
      </trkpt>
      <trkpt lat="47.27751" lon="9.52627">
        <ele>427</ele>
        <time>2017-10-25T22:28:32Z</time>
      </trkpt>
      <trkpt lat="47.27731" lon="9.52619">
        <ele>426</ele>
        <time>2017-10-25T22:30:32Z</time>
      </trkpt>
      <trkpt lat="47.27677" lon="9.52598">
        <ele>426</ele>
        <time>2017-10-25T22:32:32Z</time>
      </trkpt>
      <trkpt lat="47.27622" lon="9.52577">
        <ele>426</ele>
        <time>2017-10-25T22:34:32Z</time>
      </trkpt>
      <trkpt lat="47.27569" lon="9.52556">
        <ele>426</ele>
        <time>2017-10-25T22:36:32Z</time>
      </trkpt>
      <trkpt lat="47.2756" lon="9.5255">
        <ele>426</ele>
        <time>2017-10-25T22:38:32Z</time>
      </trkpt>
      <trkpt lat="47.27549" lon="9.52541">
        <ele>426</ele>
        <time>2017-10-25T22:40:32Z</time>
      </trkpt>
      <trkpt lat="47.27543" lon="9.52533">
        <ele>426</ele>
        <time>2017-10-25T22:42:32Z</time>
      </trkpt>
      <trkpt lat="47.27535" lon="9.52529">
        <ele>426</ele>
        <time>2017-10-25T22:44:32Z</time>
      </trkpt>
      <trkpt lat="47.27528" lon="9.52528">
        <ele>426</ele>
        <time>2017-10-25T22:46:32Z</time>
      </trkpt>
      <trkpt lat="47.27521" lon="9.52529">
        <ele>426</ele>
        <time>2017-10-25T22:48:32Z</time>
      </trkpt>
      <trkpt lat="47.27512" lon="9.52531">
        <ele>426</ele>
        <time>2017-10-25T22:50:32Z</time>
      </trkpt>
      <trkpt lat="47.27504" lon="9.52532">
        <ele>426</ele>
        <time>2017-10-25T22:52:32Z</time>
      </trkpt>
      <trkpt lat="47.27496" lon="9.52533">
        <ele>427</ele>
        <time>2017-10-25T22:54:32Z</time>
      </trkpt>
      <trkpt lat="47.27484" lon="9.5253">
        <ele>427</ele>
        <time>2017-10-25T22:56:32Z</time>
      </trkpt>
      <trkpt lat="47.2745" lon="9.52516">
        <ele>429</ele>
        <time>2017-10-25T22:58:32Z</time>
      </trkpt>
      <trkpt lat="47.27404" lon="9.52493">
        <ele>430</ele>
        <time>2017-10-25T23:00:32Z</time>
      </trkpt>
      <trkpt lat="47.27388" lon="9.52485">
        <ele>431</ele>
        <time>2017-10-25T23:02:32Z</time>
      </trkpt>
      <trkpt lat="47.27346" lon="9.52459">
        <ele>432</ele>
        <time>2017-10-25T23:04:32Z</time>
      </trkpt>
      <trkpt lat="47.27299" lon="9.52424">
        <ele>432</ele>
        <time>2017-10-25T23:06:32Z</time>
      </trkpt>
      <trkpt lat="47.27253" lon="9.52391">
        <ele>431</ele>
        <time>2017-10-25T23:08:32Z</time>
      </trkpt>
      <trkpt lat="47.27215" lon="9.52365">
        <ele>433</ele>
        <time>2017-10-25T23:10:32Z</time>
      </trkpt>
      <trkpt lat="47.27205" lon="9.5236">
        <ele>433</ele>
        <time>2017-10-25T23:12:32Z</time>
      </trkpt>
      <trkpt lat="47.27195" lon="9.52356">
        <ele>433</ele>
        <time>2017-10-25T23:14:32Z</time>
      </trkpt>
      <trkpt lat="47.27187" lon="9.5235">
        <ele>433</ele>
        <time>2017-10-25T23:16:32Z</time>
      </trkpt>
      <trkpt lat="47.2718" lon="9.52343">
        <ele>434</ele>
        <time>2017-10-25T23:18:32Z</time>
      </trkpt>
      <trkpt lat="47.27176" lon="9.52339">
        <ele>434</ele>
        <time>2017-10-25T23:20:32Z</time>
      </trkpt>
      <trkpt lat="47.27174" lon="9.52336">
        <ele>434</ele>
        <time>2017-10-25T23:22:32Z</time>
      </trkpt>
      <trkpt lat="47.27171" lon="9.52336">
        <ele>434</ele>
        <time>2017-10-25T23:24:32Z</time>
      </trkpt>
      <trkpt lat="47.27169" lon="9.52338">
        <ele>434</ele>
        <time>2017-10-25T23:26:32Z</time>
      </trkpt>
      <trkpt lat="47.27167" lon="9.52342">
        <ele>434</ele>
        <time>2017-10-25T23:28:32Z</time>
      </trkpt>
      <trkpt lat="47.27165" lon="9.52349">
        <ele>434</ele>
        <time>2017-10-25T23:30:32Z</time>
      </trkpt>
      <trkpt lat="47.27163" lon="9.52354">
        <ele>434</ele>
        <time>2017-10-25T23:32:32Z</time>
      </trkpt>
      <trkpt lat="47.2716" lon="9.52357">
        <ele>434</ele>
        <time>2017-10-25T23:34:32Z</time>
      </trkpt>
      <trkpt lat="47.27156" lon="9.52356">
        <ele>434</ele>
        <time>2017-10-25T23:36:32Z</time>
      </trkpt>
      <trkpt lat="47.27151" lon="9.52353">
        <ele>434</ele>
        <time>2017-10-25T23:38:32Z</time>
      </trkpt>
      <trkpt lat="47.27138" lon="9.52342">
        <ele>433</ele>
        <time>2017-10-25T23:40:32Z</time>
      </trkpt>
      <trkpt lat="47.27091" lon="9.52305">
        <ele>433</ele>
        <time>2017-10-25T23:42:32Z</time>
      </trkpt>
      <trkpt lat="47.2706" lon="9.52285">
        <ele>433</ele>
        <time>2017-10-25T23:44:32Z</time>
      </trkpt>
      <trkpt lat="47.27029" lon="9.52265">
        <ele>433</ele>
        <time>2017-10-25T23:46:32Z</time>
      </trkpt>
      <trkpt lat="47.26964" lon="9.5222">
        <ele>436</ele>
        <time>2017-10-25T23:48:32Z</time>
      </trkpt>
      <trkpt lat="47.26905" lon="9.52179">
        <ele>436</ele>
        <time>2017-10-25T23:50:32Z</time>
      </trkpt>
      <trkpt lat="47.26878" lon="9.52159">
        <ele>437</ele>
        <time>2017-10-25T23:52:32Z</time>
      </trkpt>
      <trkpt lat="47.2683" lon="9.52131">
        <ele>437</ele>
        <time>2017-10-25T23:54:32Z</time>
      </trkpt>
      <trkpt lat="47.26762" lon="9.52082">
        <ele>432</ele>
        <time>2017-10-25T23:56:32Z</time>
      </trkpt>
      <trkpt lat="47.26752" lon="9.52074">
        <ele>431</ele>
        <time>2017-10-25T23:58:32Z</time>
      </trkpt>
      <trkpt lat="47.26742" lon="9.52062">
        <ele>431</ele>
        <time>2017-10-26T00:00:32Z</time>
      </trkpt>
      <trkpt lat="47.26731" lon="9.52032">
        <ele>432</ele>
        <time>2017-10-26T00:02:32Z</time>
      </trkpt>
      <trkpt lat="47.26706" lon="9.51972">
        <ele>432</ele>
        <time>2017-10-26T00:04:32Z</time>
      </trkpt>
      <trkpt lat="47.26666" lon="9.51886">
        <ele>431</ele>
        <time>2017-10-26T00:06:32Z</time>
      </trkpt>
      <trkpt lat="47.26609" lon="9.51762">
        <ele>430</ele>
        <time>2017-10-26T00:08:32Z</time>
      </trkpt>
      <trkpt lat="47.26572" lon="9.51687">
        <ele>430</ele>
        <time>2017-10-26T00:10:32Z</time>
      </trkpt>
      <trkpt lat="47.26518" lon="9.51603">
        <ele>429</ele>
        <time>2017-10-26T00:12:32Z</time>
      </trkpt>
      <trkpt lat="47.26472" lon="9.51547">
        <ele>428</ele>
        <time>2017-10-26T00:14:32Z</time>
      </trkpt>
      <trkpt lat="47.26407" lon="9.51488">
        <ele>428</ele>
        <time>2017-10-26T00:16:32Z</time>
      </trkpt>
      <trkpt lat="47.26346" lon="9.51434">
        <ele>429</ele>
        <time>2017-10-26T00:18:32Z</time>
      </trkpt>
      <trkpt lat="47.26299" lon="9.51401">
        <ele>428</ele>
        <time>2017-10-26T00:20:32Z</time>
      </trkpt>
      <trkpt lat="47.26293" lon="9.51392">
        <ele>428</ele>
        <time>2017-10-26T00:22:32Z</time>
      </trkpt>
      <trkpt lat="47.26287" lon="9.51385">
        <ele>428</ele>
        <time>2017-10-26T00:24:32Z</time>
      </trkpt>
      <trkpt lat="47.26172" lon="9.51286">
        <ele>429</ele>
        <time>2017-10-26T00:26:32Z</time>
      </trkpt>
      <trkpt lat="47.25955" lon="9.51098">
        <ele>429</ele>
        <time>2017-10-26T00:28:32Z</time>
      </trkpt>
      <trkpt lat="47.25923" lon="9.51071">
        <ele>431</ele>
        <time>2017-10-26T00:30:32Z</time>
      </trkpt>
      <trkpt lat="47.25903" lon="9.51052">
        <ele>430</ele>
        <time>2017-10-26T00:32:32Z</time>
      </trkpt>
      <trkpt lat="47.25886" lon="9.51034">
        <ele>430</ele>
        <time>2017-10-26T00:34:32Z</time>
      </trkpt>
      <trkpt lat="47.25865" lon="9.51006">
        <ele>429</ele>
        <time>2017-10-26T00:36:32Z</time>
      </trkpt>
      <trkpt lat="47.25846" lon="9.50974">
        <ele>429</ele>
        <time>2017-10-26T00:38:32Z</time>
      </trkpt>
      <trkpt lat="47.25821" lon="9.50923">
        <ele>430</ele>
        <time>2017-10-26T00:40:32Z</time>
      </trkpt>
      <trkpt lat="47.25821" lon="9.50923">
        <ele>430</ele>
        <time>2017-10-26T00:42:32Z</time>
      </trkpt>
      <trkpt lat="47.25742" lon="9.51053">
        <ele>429</ele>
        <time>2017-10-26T00:44:32Z</time>
      </trkpt>
      <trkpt lat="47.25704" lon="9.51117">
        <ele>429</ele>
        <time>2017-10-26T00:46:32Z</time>
      </trkpt>
      <trkpt lat="47.25687" lon="9.51161">
        <ele>430</ele>
        <time>2017-10-26T00:48:32Z</time>
      </trkpt>
      <trkpt lat="47.25684" lon="9.51171">
        <ele>430</ele>
        <time>2017-10-26T00:50:32Z</time>
      </trkpt>
      <trkpt lat="47.25672" lon="9.5123">
        <ele>431</ele>
        <time>2017-10-26T00:52:32Z</time>
      </trkpt>
      <trkpt lat="47.25661" lon="9.51293">
        <ele>431</ele>
        <time>2017-10-26T00:54:32Z</time>
      </trkpt>
      <trkpt lat="47.25658" lon="9.51317">
        <ele>432</ele>
        <time>2017-10-26T00:56:32Z</time>
      </trkpt>
      <trkpt lat="47.25651" lon="9.51363">
        <ele>432</ele>
        <time>2017-10-26T00:58:32Z</time>
      </trkpt>
      <trkpt lat="47.25649" lon="9.51385">
        <ele>431</ele>
        <time>2017-10-26T01:00:32Z</time>
      </trkpt>
      <trkpt lat="47.25648" lon="9.51395">
        <ele>431</ele>
        <time>2017-10-26T01:02:32Z</time>
      </trkpt>
      <trkpt lat="47.25648" lon="9.51406">
        <ele>431</ele>
        <time>2017-10-26T01:04:32Z</time>
      </trkpt>
      <trkpt lat="47.25648" lon="9.51418">
        <ele>431</ele>
        <time>2017-10-26T01:06:32Z</time>
      </trkpt>
      <trkpt lat="47.25648" lon="9.51428">
        <ele>431</ele>
        <time>2017-10-26T01:08:32Z</time>
      </trkpt>
      <trkpt lat="47.25649" lon="9.51438">
        <ele>430</ele>
        <time>2017-10-26T01:10:32Z</time>
      </trkpt>
      <trkpt lat="47.25651" lon="9.51452">
        <ele>430</ele>
        <time>2017-10-26T01:12:32Z</time>
      </trkpt>
      <trkpt lat="47.25654" lon="9.51467">
        <ele>430</ele>
        <time>2017-10-26T01:14:32Z</time>
      </trkpt>
      <trkpt lat="47.25659" lon="9.51489">
        <ele>429</ele>
        <time>2017-10-26T01:16:32Z</time>
      </trkpt>
      <trkpt lat="47.25669" lon="9.51528">
        <ele>429</ele>
        <time>2017-10-26T01:18:32Z</time>
      </trkpt>
      <trkpt lat="47.25672" lon="9.51542">
        <ele>429</ele>
        <time>2017-10-26T01:20:32Z</time>
      </trkpt>
      <trkpt lat="47.25674" lon="9.5156">
        <ele>429</ele>
        <time>2017-10-26T01:22:32Z</time>
      </trkpt>
      <trkpt lat="47.25674" lon="9.51575">
        <ele>429</ele>
        <time>2017-10-26T01:24:32Z</time>
      </trkpt>
      <trkpt lat="47.25671" lon="9.51608">
        <ele>430</ele>
        <time>2017-10-26T01:26:32Z</time>
      </trkpt>
      <trkpt lat="47.25669" lon="9.5164">
        <ele>430</ele>
        <time>2017-10-26T01:28:32Z</time>
      </trkpt>
      <trkpt lat="47.25669" lon="9.51652">
        <ele>431</ele>
        <time>2017-10-26T01:30:32Z</time>
      </trkpt>
      <trkpt lat="47.25667" lon="9.51676">
        <ele>431</ele>
        <time>2017-10-26T01:32:32Z</time>
      </trkpt>
      <trkpt lat="47.25666" lon="9.51688">
        <ele>431</ele>
        <time>2017-10-26T01:34:32Z</time>
      </trkpt>
      <trkpt lat="47.25666" lon="9.51688">
        <ele>431</ele>
        <time>2017-10-26T01:36:32Z</time>
      </trkpt>
      <trkpt lat="47.25638" lon="9.51688">
        <ele>431</ele>
        <time>2017-10-26T01:38:32Z</time>
      </trkpt>
      <trkpt lat="47.25606" lon="9.51683">
        <ele>430</ele>
        <time>2017-10-26T01:40:32Z</time>
      </trkpt>
      <trkpt lat="47.25541" lon="9.51674">
        <ele>430</ele>
        <time>2017-10-26T01:42:32Z</time>
      </trkpt>
      <trkpt lat="47.25537" lon="9.51673">
        <ele>430</ele>
        <time>2017-10-26T01:44:32Z</time>
      </trkpt>
      <trkpt lat="47.25295" lon="9.51634">
        <ele>430</ele>
        <time>2017-10-26T01:46:32Z</time>
      </trkpt>
      <trkpt lat="47.24914" lon="9.51572">
        <ele>434</ele>
        <time>2017-10-26T01:48:32Z</time>
      </trkpt>
      <trkpt lat="47.24799" lon="9.51554">
        <ele>433</ele>
        <time>2017-10-26T01:50:32Z</time>
      </trkpt>
      <trkpt lat="47.24781" lon="9.51553">
        <ele>433</ele>
        <time>2017-10-26T01:52:32Z</time>
      </trkpt>
      <trkpt lat="47.24758" lon="9.51557">
        <ele>432</ele>
        <time>2017-10-26T01:54:32Z</time>
      </trkpt>
      <trkpt lat="47.24746" lon="9.51559">
        <ele>432</ele>
        <time>2017-10-26T01:56:32Z</time>
      </trkpt>
      <trkpt lat="47.24733" lon="9.5157">
        <ele>432</ele>
        <time>2017-10-26T01:58:32Z</time>
      </trkpt>
      <trkpt lat="47.24725" lon="9.51587">
        <ele>433</ele>
        <time>2017-10-26T02:00:32Z</time>
      </trkpt>
      <trkpt lat="47.24721" lon="9.51604">
        <ele>434</ele>
        <time>2017-10-26T02:02:32Z</time>
      </trkpt>
      <trkpt lat="47.24717" lon="9.51634">
        <ele>435</ele>
        <time>2017-10-26T02:04:32Z</time>
      </trkpt>
      <trkpt lat="47.24714" lon="9.51663">
        <ele>437</ele>
        <time>2017-10-26T02:06:32Z</time>
      </trkpt>
      <trkpt lat="47.24711" lon="9.51723">
        <ele>434</ele>
        <time>2017-10-26T02:08:32Z</time>
      </trkpt>
      <trkpt lat="47.2471" lon="9.51745">
        <ele>433</ele>
        <time>2017-10-26T02:10:32Z</time>
      </trkpt>
      <trkpt lat="47.24709" lon="9.51778">
        <ele>433</ele>
        <time>2017-10-26T02:12:32Z</time>
      </trkpt>
      <trkpt lat="47.24709" lon="9.51778">
        <ele>433</ele>
        <time>2017-10-26T02:14:32Z</time>
      </trkpt>
      <trkpt lat="47.24658" lon="9.51754">
        <ele>434</ele>
        <time>2017-10-26T02:16:32Z</time>
      </trkpt>
      <trkpt lat="47.2461" lon="9.51732">
        <ele>436</ele>
        <time>2017-10-26T02:18:32Z</time>
      </trkpt>
      <trkpt lat="47.2447" lon="9.51665">
        <ele>434</ele>
        <time>2017-10-26T02:20:32Z</time>
      </trkpt>
      <trkpt lat="47.24417" lon="9.51637">
        <ele>435</ele>
        <time>2017-10-26T02:22:32Z</time>
      </trkpt>
      <trkpt lat="47.2441" lon="9.51632">
        <ele>435</ele>
        <time>2017-10-26T02:24:32Z</time>
      </trkpt>
      <trkpt lat="47.2436" lon="9.51598">
        <ele>435</ele>
        <time>2017-10-26T02:26:32Z</time>
      </trkpt>
      <trkpt lat="47.24351" lon="9.51586">
        <ele>436</ele>
        <time>2017-10-26T02:28:32Z</time>
      </trkpt>
      <trkpt lat="47.24328" lon="9.51566">
        <ele>436</ele>
        <time>2017-10-26T02:30:32Z</time>
      </trkpt>
      <trkpt lat="47.24328" lon="9.51566">
        <ele>436</ele>
        <time>2017-10-26T02:32:32Z</time>
      </trkpt>
      <trkpt lat="47.24345" lon="9.51518">
        <ele>436</ele>
        <time>2017-10-26T02:34:32Z</time>
      </trkpt>
      <trkpt lat="47.2436" lon="9.51473">
        <ele>435</ele>
        <time>2017-10-26T02:36:32Z</time>
      </trkpt>
      <trkpt lat="47.2436" lon="9.51473">
        <ele>435</ele>
        <time>2017-10-26T02:38:32Z</time>
      </trkpt>
      <trkpt lat="47.24349" lon="9.51469">
        <ele>435</ele>
        <time>2017-10-26T02:40:32Z</time>
      </trkpt>
      <trkpt lat="47.24333" lon="9.51464">
        <ele>435</ele>
        <time>2017-10-26T02:42:32Z</time>
      </trkpt>
      <trkpt lat="47.24315" lon="9.51461">
        <ele>435</ele>
        <time>2017-10-26T02:44:32Z</time>
      </trkpt>
      <trkpt lat="47.2428" lon="9.51451">
        <ele>434</ele>
        <time>2017-10-26T02:46:32Z</time>
      </trkpt>
      <trkpt lat="47.24254" lon="9.51441">
        <ele>433</ele>
        <time>2017-10-26T02:48:32Z</time>
      </trkpt>
      <trkpt lat="47.24231" lon="9.51431">
        <ele>432</ele>
        <time>2017-10-26T02:50:32Z</time>
      </trkpt>
      <trkpt lat="47.24207" lon="9.51418">
        <ele>431</ele>
        <time>2017-10-26T02:52:32Z</time>
      </trkpt>
      <trkpt lat="47.24174" lon="9.51398">
        <ele>430</ele>
        <time>2017-10-26T02:54:32Z</time>
      </trkpt>
      <trkpt lat="47.24147" lon="9.51379">
        <ele>431</ele>
        <time>2017-10-26T02:56:32Z</time>
      </trkpt>
      <trkpt lat="47.24118" lon="9.51356">
        <ele>432</ele>
        <time>2017-10-26T02:58:32Z</time>
      </trkpt>
      <trkpt lat="47.24086" lon="9.51322">
        <ele>434</ele>
        <time>2017-10-26T03:00:32Z</time>
      </trkpt>
      <trkpt lat="47.24051" lon="9.51279">
        <ele>434</ele>
        <time>2017-10-26T03:02:32Z</time>
      </trkpt>
      <trkpt lat="47.24018" lon="9.51239">
        <ele>435</ele>
        <time>2017-10-26T03:04:32Z</time>
      </trkpt>
      <trkpt lat="47.23986" lon="9.512">
        <ele>435</ele>
        <time>2017-10-26T03:06:32Z</time>
      </trkpt>
      <trkpt lat="47.23944" lon="9.51146">
        <ele>435</ele>
        <time>2017-10-26T03:08:32Z</time>
      </trkpt>
      <trkpt lat="47.23906" lon="9.51097">
        <ele>435</ele>
        <time>2017-10-26T03:10:32Z</time>
      </trkpt>
      <trkpt lat="47.23863" lon="9.51043">
        <ele>435</ele>
        <time>2017-10-26T03:12:32Z</time>
      </trkpt>
      <trkpt lat="47.23825" lon="9.50995">
        <ele>434</ele>
        <time>2017-10-26T03:14:32Z</time>
      </trkpt>
      <trkpt lat="47.23788" lon="9.50948">
        <ele>435</ele>
        <time>2017-10-26T03:16:32Z</time>
      </trkpt>
      <trkpt lat="47.2373" lon="9.50875">
        <ele>435</ele>
        <time>2017-10-26T03:18:32Z</time>
      </trkpt>
      <trkpt lat="47.23676" lon="9.50806">
        <ele>434</ele>
        <time>2017-10-26T03:20:32Z</time>
      </trkpt>
      <trkpt lat="47.2363" lon="9.50748">
        <ele>434</ele>
        <time>2017-10-26T03:22:32Z</time>
      </trkpt>
      <trkpt lat="47.23593" lon="9.50701">
        <ele>434</ele>
        <time>2017-10-26T03:24:32Z</time>
      </trkpt>
      <trkpt lat="47.23583" lon="9.50691">
        <ele>434</ele>
        <time>2017-10-26T03:26:32Z</time>
      </trkpt>
      <trkpt lat="47.23575" lon="9.50685">
        <ele>434</ele>
        <time>2017-10-26T03:28:32Z</time>
      </trkpt>
      <trkpt lat="47.23565" lon="9.50676">
        <ele>434</ele>
        <time>2017-10-26T03:30:32Z</time>
      </trkpt>
      <trkpt lat="47.23557" lon="9.5066">
        <ele>434</ele>
        <time>2017-10-26T03:32:32Z</time>
      </trkpt>
      <trkpt lat="47.23434" lon="9.50498">
        <ele>437</ele>
        <time>2017-10-26T03:34:32Z</time>
      </trkpt>
      <trkpt lat="47.23343" lon="9.50385">
        <ele>436</ele>
        <time>2017-10-26T03:36:32Z</time>
      </trkpt>
      <trkpt lat="47.2318" lon="9.5018">
        <ele>435</ele>
        <time>2017-10-26T03:38:32Z</time>
      </trkpt>
      <trkpt lat="47.23169" lon="9.5017">
        <ele>435</ele>
        <time>2017-10-26T03:40:32Z</time>
      </trkpt>
      <trkpt lat="47.23159" lon="9.50161">
        <ele>435</ele>
        <time>2017-10-26T03:42:32Z</time>
      </trkpt>
      <trkpt lat="47.23159" lon="9.50161">
        <ele>435</ele>
        <time>2017-10-26T03:44:32Z</time>
      </trkpt>
      <trkpt lat="47.23153" lon="9.50187">
        <ele>435</ele>
        <time>2017-10-26T03:46:32Z</time>
      </trkpt>
      <trkpt lat="47.23148" lon="9.50206">
        <ele>435</ele>
        <time>2017-10-26T03:48:32Z</time>
      </trkpt>
      <trkpt lat="47.23138" lon="9.50238">
        <ele>436</ele>
        <time>2017-10-26T03:50:32Z</time>
      </trkpt>
      <trkpt lat="47.23122" lon="9.50287">
        <ele>436</ele>
        <time>2017-10-26T03:52:32Z</time>
      </trkpt>
      <trkpt lat="47.23092" lon="9.5037">
        <ele>437</ele>
        <time>2017-10-26T03:54:32Z</time>
      </trkpt>
      <trkpt lat="47.23039" lon="9.50509">
        <ele>437</ele>
        <time>2017-10-26T03:56:32Z</time>
      </trkpt>
      <trkpt lat="47.2302" lon="9.5056">
        <ele>438</ele>
        <time>2017-10-26T03:58:32Z</time>
      </trkpt>
      <trkpt lat="47.22983" lon="9.50652">
        <ele>442</ele>
        <time>2017-10-26T04:00:32Z</time>
      </trkpt>
      <trkpt lat="47.22976" lon="9.50666">
        <ele>442</ele>
        <time>2017-10-26T04:02:32Z</time>
      </trkpt>
      <trkpt lat="47.22974" lon="9.50669">
        <ele>442</ele>
        <time>2017-10-26T04:04:32Z</time>
      </trkpt>
      <trkpt lat="47.22969" lon="9.50681">
        <ele>442</ele>
        <time>2017-10-26T04:06:32Z</time>
      </trkpt>
      <trkpt lat="47.22962" lon="9.50694">
        <ele>441</ele>
        <time>2017-10-26T04:08:32Z</time>
      </trkpt>
      <trkpt lat="47.22954" lon="9.50714">
        <ele>441</ele>
        <time>2017-10-26T04:10:32Z</time>
      </trkpt>
      <trkpt lat="47.2295" lon="9.50726">
        <ele>440</ele>
        <time>2017-10-26T04:12:32Z</time>
      </trkpt>
      <trkpt lat="47.2295" lon="9.50726">
        <ele>440</ele>
        <time>2017-10-26T04:14:32Z</time>
      </trkpt>
      <trkpt lat="47.2283" lon="9.50625">
        <ele>438</ele>
        <time>2017-10-26T04:16:32Z</time>
      </trkpt>
      <trkpt lat="47.22461" lon="9.50311">
        <ele>439</ele>
        <time>2017-10-26T04:18:32Z</time>
      </trkpt>
      <trkpt lat="47.22372" lon="9.50255">
        <ele>438</ele>
        <time>2017-10-26T04:20:32Z</time>
      </trkpt>
      <trkpt lat="47.22304" lon="9.50219">
        <ele>438</ele>
        <time>2017-10-26T04:22:32Z</time>
      </trkpt>
      <trkpt lat="47.22097" lon="9.50102">
        <ele>442</ele>
        <time>2017-10-26T04:24:32Z</time>
      </trkpt>
      <trkpt lat="47.22046" lon="9.50072">
        <ele>442</ele>
        <time>2017-10-26T04:26:32Z</time>
      </trkpt>
      <trkpt lat="47.22004" lon="9.50054">
        <ele>441</ele>
        <time>2017-10-26T04:28:32Z</time>
      </trkpt>
      <trkpt lat="47.21885" lon="9.50029">
        <ele>441</ele>
        <time>2017-10-26T04:30:32Z</time>
      </trkpt>
      <trkpt lat="47.21798" lon="9.5001">
        <ele>441</ele>
        <time>2017-10-26T04:32:32Z</time>
      </trkpt>
      <trkpt lat="47.21735" lon="9.49999">
        <ele>441</ele>
        <time>2017-10-26T04:34:32Z</time>
      </trkpt>
      <trkpt lat="47.21645" lon="9.49984">
        <ele>440</ele>
        <time>2017-10-26T04:36:32Z</time>
      </trkpt>
      <trkpt lat="47.21548" lon="9.49966">
        <ele>441</ele>
        <time>2017-10-26T04:38:32Z</time>
      </trkpt>
      <trkpt lat="47.21435" lon="9.49942">
        <ele>442</ele>
        <time>2017-10-26T04:40:32Z</time>
      </trkpt>
      <trkpt lat="47.2123" lon="9.49897">
        <ele>443</ele>
        <time>2017-10-26T04:42:32Z</time>
      </trkpt>
      <trkpt lat="47.21189" lon="9.49887">
        <ele>443</ele>
        <time>2017-10-26T04:44:32Z</time>
      </trkpt>
      <trkpt lat="47.21154" lon="9.49874">
        <ele>443</ele>
        <time>2017-10-26T04:46:32Z</time>
      </trkpt>
      <trkpt lat="47.21095" lon="9.49834">
        <ele>443</ele>
        <time>2017-10-26T04:48:32Z</time>
      </trkpt>
      <trkpt lat="47.2106" lon="9.49804">
        <ele>444</ele>
        <time>2017-10-26T04:50:32Z</time>
      </trkpt>
      <trkpt lat="47.21032" lon="9.49777">
        <ele>445</ele>
        <time>2017-10-26T04:52:32Z</time>
      </trkpt>
      <trkpt lat="47.21032" lon="9.49777">
        <ele>445</ele>
        <time>2017-10-26T04:54:32Z</time>
      </trkpt>
      <trkpt lat="47.21027" lon="9.49809">
        <ele>443</ele>
        <time>2017-10-26T04:56:32Z</time>
      </trkpt>
      <trkpt lat="47.21013" lon="9.49903">
        <ele>442</ele>
        <time>2017-10-26T04:58:32Z</time>
      </trkpt>
      <trkpt lat="47.21003" lon="9.49971">
        <ele>445</ele>
        <time>2017-10-26T05:00:32Z</time>
      </trkpt>
      <trkpt lat="47.21003" lon="9.49971">
        <ele>445</ele>
        <time>2017-10-26T05:02:32Z</time>
      </trkpt>
      <trkpt lat="47.21002" lon="9.49983">
        <ele>445</ele>
        <time>2017-10-26T05:04:32Z</time>
      </trkpt>
      <trkpt lat="47.21" lon="9.49995">
        <ele>446</ele>
        <time>2017-10-26T05:06:32Z</time>
      </trkpt>
      <trkpt lat="47.20997" lon="9.50011">
        <ele>446</ele>
        <time>2017-10-26T05:08:32Z</time>
      </trkpt>
      <trkpt lat="47.20995" lon="9.50031">
        <ele>446</ele>
        <time>2017-10-26T05:10:32Z</time>
      </trkpt>
      <trkpt lat="47.20988" lon="9.50076">
        <ele>447</ele>
        <time>2017-10-26T05:12:32Z</time>
      </trkpt>
      <trkpt lat="47.20984" lon="9.50108">
        <ele>446</ele>
        <time>2017-10-26T05:14:32Z</time>
      </trkpt>
      <trkpt lat="47.20981" lon="9.50131">
        <ele>445</ele>
        <time>2017-10-26T05:16:32Z</time>
      </trkpt>
      <trkpt lat="47.20979" lon="9.50155">
        <ele>444</ele>
        <time>2017-10-26T05:18:32Z</time>
      </trkpt>
      <trkpt lat="47.20979" lon="9.50169">
        <ele>444</ele>
        <time>2017-10-26T05:20:32Z</time>
      </trkpt>
      <trkpt lat="47.20978" lon="9.50182">
        <ele>444</ele>
        <time>2017-10-26T05:22:32Z</time>
      </trkpt>
      <trkpt lat="47.20978" lon="9.50191">
        <ele>443</ele>
        <time>2017-10-26T05:24:32Z</time>
      </trkpt>
      <trkpt lat="47.20979" lon="9.502">
        <ele>443</ele>
        <time>2017-10-26T05:26:32Z</time>
      </trkpt>
      <trkpt lat="47.20979" lon="9.50219">
        <ele>443</ele>
        <time>2017-10-26T05:28:32Z</time>
      </trkpt>
      <trkpt lat="47.2098" lon="9.50234">
        <ele>443</ele>
        <time>2017-10-26T05:30:32Z</time>
      </trkpt>
      <trkpt lat="47.20981" lon="9.50241">
        <ele>443</ele>
        <time>2017-10-26T05:32:32Z</time>
      </trkpt>
      <trkpt lat="47.20983" lon="9.5026">
        <ele>443</ele>
        <time>2017-10-26T05:34:32Z</time>
      </trkpt>
      <trkpt lat="47.20985" lon="9.50276">
        <ele>443</ele>
        <time>2017-10-26T05:36:32Z</time>
      </trkpt>
      <trkpt lat="47.20988" lon="9.50293">
        <ele>443</ele>
        <time>2017-10-26T05:38:32Z</time>
      </trkpt>
      <trkpt lat="47.20991" lon="9.5031">
        <ele>444</ele>
        <time>2017-10-26T05:40:32Z</time>
      </trkpt>
      <trkpt lat="47.20995" lon="9.50328">
        <ele>444</ele>
        <time>2017-10-26T05:42:32Z</time>
      </trkpt>
      <trkpt lat="47.21001" lon="9.50348">
        <ele>444</ele>
        <time>2017-10-26T05:44:32Z</time>
      </trkpt>
      <trkpt lat="47.21007" lon="9.50368">
        <ele>444</ele>
        <time>2017-10-26T05:46:32Z</time>
      </trkpt>
      <trkpt lat="47.21015" lon="9.5039">
        <ele>444</ele>
        <time>2017-10-26T05:48:32Z</time>
      </trkpt>
      <trkpt lat="47.21022" lon="9.50424">
        <ele>444</ele>
        <time>2017-10-26T05:50:32Z</time>
      </trkpt>
      <trkpt lat="47.21022" lon="9.50424">
        <ele>444</ele>
        <time>2017-10-26T05:52:32Z</time>
      </trkpt>
      <trkpt lat="47.21021" lon="9.50428">
        <ele>444</ele>
        <time>2017-10-26T05:54:32Z</time>
      </trkpt>
      <trkpt lat="47.21021" lon="9.50432">
        <ele>444</ele>
        <time>2017-10-26T05:56:32Z</time>
      </trkpt>
      <trkpt lat="47.21022" lon="9.50439">
        <ele>444</ele>
        <time>2017-10-26T05:58:32Z</time>
      </trkpt>
      <trkpt lat="47.21023" lon="9.50441">
        <ele>444</ele>
        <time>2017-10-26T06:00:32Z</time>
      </trkpt>
      <trkpt lat="47.21024" lon="9.50444">
        <ele>444</ele>
        <time>2017-10-26T06:02:32Z</time>
      </trkpt>
      <trkpt lat="47.21027" lon="9.50447">
        <ele>445</ele>
        <time>2017-10-26T06:04:32Z</time>
      </trkpt>
      <trkpt lat="47.21031" lon="9.50448">
        <ele>445</ele>
        <time>2017-10-26T06:06:32Z</time>
      </trkpt>
      <trkpt lat="47.21033" lon="9.50448">
        <ele>445</ele>
        <time>2017-10-26T06:08:32Z</time>
      </trkpt>
      <trkpt lat="47.21035" lon="9.50448">
        <ele>445</ele>
        <time>2017-10-26T06:10:32Z</time>
      </trkpt>
      <trkpt lat="47.21038" lon="9.50446">
        <ele>446</ele>
        <time>2017-10-26T06:12:32Z</time>
      </trkpt>
      <trkpt lat="47.2104" lon="9.50443">
        <ele>446</ele>
        <time>2017-10-26T06:14:32Z</time>
      </trkpt>
      <trkpt lat="47.21042" lon="9.50439">
        <ele>446</ele>
        <time>2017-10-26T06:16:32Z</time>
      </trkpt>
      <trkpt lat="47.21043" lon="9.50435">
        <ele>446</ele>
        <time>2017-10-26T06:18:32Z</time>
      </trkpt>
      <trkpt lat="47.21047" lon="9.50431">
        <ele>446</ele>
        <time>2017-10-26T06:20:32Z</time>
      </trkpt>
      <trkpt lat="47.2105" lon="9.50426">
        <ele>447</ele>
        <time>2017-10-26T06:22:32Z</time>
      </trkpt>
      <trkpt lat="47.21053" lon="9.50422">
        <ele>447</ele>
        <time>2017-10-26T06:24:32Z</time>
      </trkpt>
      <trkpt lat="47.21056" lon="9.50417">
        <ele>447</ele>
        <time>2017-10-26T06:26:32Z</time>
      </trkpt>
      <trkpt lat="47.21057" lon="9.50411">
        <ele>447</ele>
        <time>2017-10-26T06:28:32Z</time>
      </trkpt>
      <trkpt lat="47.21057" lon="9.50407">
        <ele>447</ele>
        <time>2017-10-26T06:30:32Z</time>
      </trkpt>
      <trkpt lat="47.21058" lon="9.50405">
        <ele>447</ele>
        <time>2017-10-26T06:32:32Z</time>
      </trkpt>
      <trkpt lat="47.21059" lon="9.50402">
        <ele>447</ele>
        <time>2017-10-26T06:34:32Z</time>
      </trkpt>
      <trkpt lat="47.21072" lon="9.50332">
        <ele>447</ele>
        <time>2017-10-26T06:36:32Z</time>
      </trkpt>
      <trkpt lat="47.21076" lon="9.50315">
        <ele>446</ele>
        <time>2017-10-26T06:38:32Z</time>
      </trkpt>
      <trkpt lat="47.21076" lon="9.50313">
        <ele>446</ele>
        <time>2017-10-26T06:40:32Z</time>
      </trkpt>
      <trkpt lat="47.2108" lon="9.50292">
        <ele>444</ele>
        <time>2017-10-26T06:42:32Z</time>
      </trkpt>
      <trkpt lat="47.21082" lon="9.50279">
        <ele>444</ele>
        <time>2017-10-26T06:44:32Z</time>
      </trkpt>
      <trkpt lat="47.21085" lon="9.5025">
        <ele>442</ele>
        <time>2017-10-26T06:46:32Z</time>
      </trkpt>
      <trkpt lat="47.21085" lon="9.5025">
        <ele>442</ele>
        <time>2017-10-26T06:48:32Z</time>
      </trkpt>
      <trkpt lat="47.21086" lon="9.5025">
        <ele>442</ele>
        <time>2017-10-26T06:50:32Z</time>
      </trkpt>
      <trkpt lat="47.21086" lon="9.50251">
        <ele>442</ele>
        <time>2017-10-26T06:52:32Z</time>
      </trkpt>
      <trkpt lat="47.21087" lon="9.50251">
        <ele>442</ele>
        <time>2017-10-26T06:54:32Z</time>
      </trkpt>
      <trkpt lat="47.21088" lon="9.50251">
        <ele>442</ele>
        <time>2017-10-26T06:56:32Z</time>
      </trkpt>
      <trkpt lat="47.21089" lon="9.5025">
        <ele>442</ele>
        <time>2017-10-26T06:58:32Z</time>
      </trkpt>
      <trkpt lat="47.2109" lon="9.5025">
        <ele>442</ele>
        <time>2017-10-26T07:00:32Z</time>
      </trkpt>
      <trkpt lat="47.21091" lon="9.5025">
        <ele>442</ele>
        <time>2017-10-26T07:02:32Z</time>
      </trkpt>
      <trkpt lat="47.21092" lon="9.50249">
        <ele>443</ele>
        <time>2017-10-26T07:04:32Z</time>
      </trkpt>
      <trkpt lat="47.21093" lon="9.50248">
        <ele>443</ele>
        <time>2017-10-26T07:06:32Z</time>
      </trkpt>
      <trkpt lat="47.21094" lon="9.50247">
        <ele>443</ele>
        <time>2017-10-26T07:08:32Z</time>
      </trkpt>
      <trkpt lat="47.21095" lon="9.50246">
        <ele>443</ele>
        <time>2017-10-26T07:10:32Z</time>
      </trkpt>
      <trkpt lat="47.21096" lon="9.50245">
        <ele>443</ele>
        <time>2017-10-26T07:12:32Z</time>
      </trkpt>
      <trkpt lat="47.21096" lon="9.50244">
        <ele>443</ele>
        <time>2017-10-26T07:14:32Z</time>
      </trkpt>
      <trkpt lat="47.21097" lon="9.50243">
        <ele>443</ele>
        <time>2017-10-26T07:16:32Z</time>
      </trkpt>
      <trkpt lat="47.21097" lon="9.50242">
        <ele>443</ele>
        <time>2017-10-26T07:18:32Z</time>
      </trkpt>
      <trkpt lat="47.21097" lon="9.50241">
        <ele>443</ele>
        <time>2017-10-26T07:20:32Z</time>
      </trkpt>
      <trkpt lat="47.21098" lon="9.50241">
        <ele>443</ele>
        <time>2017-10-26T07:22:32Z</time>
      </trkpt>
      <trkpt lat="47.21098" lon="9.5024">
        <ele>443</ele>
        <time>2017-10-26T07:24:32Z</time>
      </trkpt>
      <trkpt lat="47.21098" lon="9.50239">
        <ele>443</ele>
        <time>2017-10-26T07:26:32Z</time>
      </trkpt>
      <trkpt lat="47.21098" lon="9.50238">
        <ele>443</ele>
        <time>2017-10-26T07:28:32Z</time>
      </trkpt>
      <trkpt lat="47.21098" lon="9.50237">
        <ele>443</ele>
        <time>2017-10-26T07:30:32Z</time>
      </trkpt>
      <trkpt lat="47.21099" lon="9.50236">
        <ele>443</ele>
        <time>2017-10-26T07:32:32Z</time>
      </trkpt>
      <trkpt lat="47.21099" lon="9.50235">
        <ele>443</ele>
        <time>2017-10-26T07:34:32Z</time>
      </trkpt>
      <trkpt lat="47.21099" lon="9.50234">
        <ele>443</ele>
        <time>2017-10-26T07:36:32Z</time>
      </trkpt>
      <trkpt lat="47.21099" lon="9.50233">
        <ele>443</ele>
        <time>2017-10-26T07:38:32Z</time>
      </trkpt>
      <trkpt lat="47.21099" lon="9.50232">
        <ele>443</ele>
        <time>2017-10-26T07:40:32Z</time>
      </trkpt>
      <trkpt lat="47.21099" lon="9.50231">
        <ele>443</ele>
        <time>2017-10-26T07:42:32Z</time>
      </trkpt>
      <trkpt lat="47.21099" lon="9.5023">
        <ele>443</ele>
        <time>2017-10-26T07:44:32Z</time>
      </trkpt>
      <trkpt lat="47.21098" lon="9.50229">
        <ele>442</ele>
        <time>2017-10-26T07:46:32Z</time>
      </trkpt>
      <trkpt lat="47.21098" lon="9.50228">
        <ele>442</ele>
        <time>2017-10-26T07:48:32Z</time>
      </trkpt>
      <trkpt lat="47.21098" lon="9.50227">
        <ele>442</ele>
        <time>2017-10-26T07:50:32Z</time>
      </trkpt>
      <trkpt lat="47.21098" lon="9.50226">
        <ele>442</ele>
        <time>2017-10-26T07:52:32Z</time>
      </trkpt>
      <trkpt lat="47.21097" lon="9.50225">
        <ele>442</ele>
        <time>2017-10-26T07:54:32Z</time>
      </trkpt>
      <trkpt lat="47.21097" lon="9.50224">
        <ele>442</ele>
        <time>2017-10-26T07:56:32Z</time>
      </trkpt>
      <trkpt lat="47.21096" lon="9.50223">
        <ele>442</ele>
        <time>2017-10-26T07:58:32Z</time>
      </trkpt>
      <trkpt lat="47.21096" lon="9.50222">
        <ele>442</ele>
        <time>2017-10-26T08:00:32Z</time>
      </trkpt>
      <trkpt lat="47.21095" lon="9.50221">
        <ele>442</ele>
        <time>2017-10-26T08:02:32Z</time>
      </trkpt>
      <trkpt lat="47.21095" lon="9.5022">
        <ele>442</ele>
        <time>2017-10-26T08:04:32Z</time>
      </trkpt>
      <trkpt lat="47.21094" lon="9.5022">
        <ele>442</ele>
        <time>2017-10-26T08:06:32Z</time>
      </trkpt>
      <trkpt lat="47.21094" lon="9.50219">
        <ele>442</ele>
        <time>2017-10-26T08:08:32Z</time>
      </trkpt>
      <trkpt lat="47.21093" lon="9.50219">
        <ele>442</ele>
        <time>2017-10-26T08:10:32Z</time>
      </trkpt>
      <trkpt lat="47.21093" lon="9.50218">
        <ele>442</ele>
        <time>2017-10-26T08:12:32Z</time>
      </trkpt>
      <trkpt lat="47.21092" lon="9.50218">
        <ele>442</ele>
        <time>2017-10-26T08:14:32Z</time>
      </trkpt>
      <trkpt lat="47.21092" lon="9.50217">
        <ele>442</ele>
        <time>2017-10-26T08:16:32Z</time>
      </trkpt>
      <trkpt lat="47.21091" lon="9.50217">
        <ele>442</ele>
        <time>2017-10-26T08:18:32Z</time>
      </trkpt>
      <trkpt lat="47.2109" lon="9.50217">
        <ele>442</ele>
        <time>2017-10-26T08:20:32Z</time>
      </trkpt>
      <trkpt lat="47.21089" lon="9.50216">
        <ele>442</ele>
        <time>2017-10-26T08:22:32Z</time>
      </trkpt>
      <trkpt lat="47.21088" lon="9.50216">
        <ele>442</ele>
        <time>2017-10-26T08:24:32Z</time>
      </trkpt>
      <trkpt lat="47.21087" lon="9.50216">
        <ele>442</ele>
        <time>2017-10-26T08:26:32Z</time>
      </trkpt>
      <trkpt lat="47.21086" lon="9.50216">
        <ele>442</ele>
        <time>2017-10-26T08:28:32Z</time>
      </trkpt>
      <trkpt lat="47.21085" lon="9.50216">
        <ele>442</ele>
        <time>2017-10-26T08:30:32Z</time>
      </trkpt>
      <trkpt lat="47.21084" lon="9.50216">
        <ele>442</ele>
        <time>2017-10-26T08:32:32Z</time>
      </trkpt>
      <trkpt lat="47.21084" lon="9.50217">
        <ele>442</ele>
        <time>2017-10-26T08:34:32Z</time>
      </trkpt>
      <trkpt lat="47.21081" lon="9.50203">
        <ele>441</ele>
        <time>2017-10-26T08:36:32Z</time>
      </trkpt>
      <trkpt lat="47.21077" lon="9.50191">
        <ele>441</ele>
        <time>2017-10-26T08:38:32Z</time>
      </trkpt>
      <trkpt lat="47.21071" lon="9.50177">
        <ele>442</ele>
        <time>2017-10-26T08:40:32Z</time>
      </trkpt>
      <trkpt lat="47.21065" lon="9.50163">
        <ele>442</ele>
        <time>2017-10-26T08:42:32Z</time>
      </trkpt>
      <trkpt lat="47.21064" lon="9.50159">
        <ele>442</ele>
        <time>2017-10-26T08:44:32Z</time>
      </trkpt>
      <trkpt lat="47.21062" lon="9.50153">
        <ele>442</ele>
        <time>2017-10-26T08:46:32Z</time>
      </trkpt>
      <trkpt lat="47.21061" lon="9.50148">
        <ele>443</ele>
        <time>2017-10-26T08:48:32Z</time>
      </trkpt>
      <trkpt lat="47.2106" lon="9.50142">
        <ele>443</ele>
        <time>2017-10-26T08:50:32Z</time>
      </trkpt>
      <trkpt lat="47.2106" lon="9.50134">
        <ele>443</ele>
        <time>2017-10-26T08:52:32Z</time>
      </trkpt>
      <trkpt lat="47.2106" lon="9.50124">
        <ele>444</ele>
        <time>2017-10-26T08:54:32Z</time>
      </trkpt>
      <trkpt lat="47.21062" lon="9.50105">
        <ele>445</ele>
        <time>2017-10-26T08:56:32Z</time>
      </trkpt>
      <trkpt lat="47.21065" lon="9.50081">
        <ele>445</ele>
        <time>2017-10-26T08:58:32Z</time>
      </trkpt>
      <trkpt lat="47.21068" lon="9.50062">
        <ele>445</ele>
        <time>2017-10-26T09:00:32Z</time>
      </trkpt>
      <trkpt lat="47.21068" lon="9.50062">
        <ele>445</ele>
        <time>2017-10-26T09:02:32Z</time>
      </trkpt>
      <trkpt lat="47.21066" lon="9.5006">
        <ele>445</ele>
        <time>2017-10-26T09:04:32Z</time>
      </trkpt>
      <trkpt lat="47.21065" lon="9.50058">
        <ele>445</ele>
        <time>2017-10-26T09:06:32Z</time>
      </trkpt>
      <trkpt lat="47.21064" lon="9.50056">
        <ele>445</ele>
        <time>2017-10-26T09:08:32Z</time>
      </trkpt>
      <trkpt lat="47.21063" lon="9.50054">
        <ele>445</ele>
        <time>2017-10-26T09:10:32Z</time>
      </trkpt>
      <trkpt lat="47.21059" lon="9.50049">
        <ele>445</ele>
        <time>2017-10-26T09:12:32Z</time>
      </trkpt>
      <trkpt lat="47.21056" lon="9.50046">
        <ele>445</ele>
        <time>2017-10-26T09:14:32Z</time>
      </trkpt>
      <trkpt lat="47.21052" lon="9.50042">
        <ele>445</ele>
        <time>2017-10-26T09:16:32Z</time>
      </trkpt>
      <trkpt lat="47.21004" lon="9.50014">
        <ele>446</ele>
        <time>2017-10-26T09:18:32Z</time>
      </trkpt>
      <trkpt lat="47.20996" lon="9.5001">
        <ele>446</ele>
        <time>2017-10-26T09:20:32Z</time>
      </trkpt>
      <trkpt lat="47.20994" lon="9.50009">
        <ele>446</ele>
        <time>2017-10-26T09:22:32Z</time>
      </trkpt>
      <trkpt lat="47.20987" lon="9.50004">
        <ele>446</ele>
        <time>2017-10-26T09:24:32Z</time>
      </trkpt>
      <trkpt lat="47.20987" lon="9.50004">
        <ele>446</ele>
        <time>2017-10-26T09:26:32Z</time>
      </trkpt>
      <trkpt lat="47.2097" lon="9.4999">
        <ele>446</ele>
        <time>2017-10-26T09:28:32Z</time>
      </trkpt>
      <trkpt lat="47.20951" lon="9.49972">
        <ele>446</ele>
        <time>2017-10-26T09:30:32Z</time>
      </trkpt>
      <trkpt lat="47.20937" lon="9.49959">
        <ele>446</ele>
        <time>2017-10-26T09:32:32Z</time>
      </trkpt>
      <trkpt lat="47.2093" lon="9.49952">
        <ele>446</ele>
        <time>2017-10-26T09:34:32Z</time>
      </trkpt>
      <trkpt lat="47.20924" lon="9.49945">
        <ele>446</ele>
        <time>2017-10-26T09:36:32Z</time>
      </trkpt>
      <trkpt lat="47.2091" lon="9.49931">
        <ele>446</ele>
        <time>2017-10-26T09:38:32Z</time>
      </trkpt>
      <trkpt lat="47.20908" lon="9.49929">
        <ele>446</ele>
        <time>2017-10-26T09:40:32Z</time>
      </trkpt>
      <trkpt lat="47.20898" lon="9.49922">
        <ele>446</ele>
        <time>2017-10-26T09:42:32Z</time>
      </trkpt>
      <trkpt lat="47.20868" lon="9.499">
        <ele>446</ele>
        <time>2017-10-26T09:44:32Z</time>
      </trkpt>
      <trkpt lat="47.2082" lon="9.49864">
        <ele>445</ele>
        <time>2017-10-26T09:46:32Z</time>
      </trkpt>
      <trkpt lat="47.2077" lon="9.49828">
        <ele>446</ele>
        <time>2017-10-26T09:48:32Z</time>
      </trkpt>
      <trkpt lat="47.2073" lon="9.498">
        <ele>445</ele>
        <time>2017-10-26T09:50:32Z</time>
      </trkpt>
      <trkpt lat="47.20628" lon="9.49732">
        <ele>444</ele>
        <time>2017-10-26T09:52:32Z</time>
      </trkpt>
      <trkpt lat="47.20546" lon="9.49677">
        <ele>443</ele>
        <time>2017-10-26T09:54:32Z</time>
      </trkpt>
      <trkpt lat="47.20495" lon="9.49642">
        <ele>444</ele>
        <time>2017-10-26T09:56:32Z</time>
      </trkpt>
      <trkpt lat="47.20427" lon="9.49596">
        <ele>444</ele>
        <time>2017-10-26T09:58:32Z</time>
      </trkpt>
      <trkpt lat="47.20377" lon="9.4956">
        <ele>444</ele>
        <time>2017-10-26T10:00:32Z</time>
      </trkpt>
      <trkpt lat="47.20355" lon="9.49547">
        <ele>444</ele>
        <time>2017-10-26T10:02:32Z</time>
      </trkpt>
      <trkpt lat="47.20315" lon="9.4952">
        <ele>444</ele>
        <time>2017-10-26T10:04:32Z</time>
      </trkpt>
      <trkpt lat="47.20248" lon="9.49475">
        <ele>446</ele>
        <time>2017-10-26T10:06:32Z</time>
      </trkpt>
      <trkpt lat="47.20206" lon="9.49448">
        <ele>447</ele>
        <time>2017-10-26T10:08:32Z</time>
      </trkpt>
      <trkpt lat="47.20074" lon="9.49356">
        <ele>447</ele>
        <time>2017-10-26T10:10:32Z</time>
      </trkpt>
      <trkpt lat="47.19918" lon="9.49251">
        <ele>446</ele>
        <time>2017-10-26T10:12:32Z</time>
      </trkpt>
      <trkpt lat="47.19857" lon="9.49207">
        <ele>446</ele>
        <time>2017-10-26T10:14:32Z</time>
      </trkpt>
      <trkpt lat="47.19794" lon="9.49161">
        <ele>446</ele>
        <time>2017-10-26T10:16:32Z</time>
      </trkpt>
      <trkpt lat="47.19788" lon="9.49147">
        <ele>446</ele>
        <time>2017-10-26T10:18:32Z</time>
      </trkpt>
      <trkpt lat="47.1978" lon="9.49141">
        <ele>446</ele>
        <time>2017-10-26T10:20:32Z</time>
      </trkpt>
      <trkpt lat="47.19695" lon="9.49096">
        <ele>445</ele>
        <time>2017-10-26T10:22:32Z</time>
      </trkpt>
      <trkpt lat="47.19539" lon="9.4903">
        <ele>446</ele>
        <time>2017-10-26T10:24:32Z</time>
      </trkpt>
      <trkpt lat="47.19483" lon="9.49012">
        <ele>445</ele>
        <time>2017-10-26T10:26:32Z</time>
      </trkpt>
      <trkpt lat="47.1926" lon="9.48945">
        <ele>445</ele>
        <time>2017-10-26T10:28:32Z</time>
      </trkpt>
      <trkpt lat="47.19125" lon="9.48903">
        <ele>446</ele>
        <time>2017-10-26T10:30:32Z</time>
      </trkpt>
      <trkpt lat="47.19125" lon="9.48903">
        <ele>446</ele>
        <time>2017-10-26T10:32:32Z</time>
      </trkpt>
      <trkpt lat="47.19001" lon="9.48867">
        <ele>447</ele>
        <time>2017-10-26T10:34:32Z</time>
      </trkpt>
      <trkpt lat="47.18996" lon="9.48866">
        <ele>447</ele>
        <time>2017-10-26T10:36:32Z</time>
      </trkpt>
      <trkpt lat="47.18783" lon="9.48813">
        <ele>447</ele>
        <time>2017-10-26T10:38:32Z</time>
      </trkpt>
      <trkpt lat="47.18717" lon="9.48794">
        <ele>448</ele>
        <time>2017-10-26T10:40:32Z</time>
      </trkpt>
      <trkpt lat="47.18671" lon="9.48784">
        <ele>447</ele>
        <time>2017-10-26T10:42:32Z</time>
      </trkpt>
      <trkpt lat="47.18561" lon="9.48757">
        <ele>449</ele>
        <time>2017-10-26T10:44:32Z</time>
      </trkpt>
      <trkpt lat="47.18447" lon="9.48733">
        <ele>448</ele>
        <time>2017-10-26T10:46:32Z</time>
      </trkpt>
      <trkpt lat="47.183" lon="9.48699">
        <ele>447</ele>
        <time>2017-10-26T10:48:32Z</time>
      </trkpt>
      <trkpt lat="47.18222" lon="9.48684">
        <ele>448</ele>
        <time>2017-10-26T10:50:32Z</time>
      </trkpt>
      <trkpt lat="47.18177" lon="9.48677">
        <ele>447</ele>
        <time>2017-10-26T10:52:32Z</time>
      </trkpt>
      <trkpt lat="47.18134" lon="9.48672">
        <ele>448</ele>
        <time>2017-10-26T10:54:32Z</time>
      </trkpt>
      <trkpt lat="47.18118" lon="9.48674">
        <ele>448</ele>
        <time>2017-10-26T10:56:32Z</time>
      </trkpt>
      <trkpt lat="47.18098" lon="9.48677">
        <ele>449</ele>
        <time>2017-10-26T10:58:32Z</time>
      </trkpt>
      <trkpt lat="47.1807" lon="9.48682">
        <ele>449</ele>
        <time>2017-10-26T11:00:32Z</time>
      </trkpt>
      <trkpt lat="47.17997" lon="9.48701">
        <ele>447</ele>
        <time>2017-10-26T11:02:32Z</time>
      </trkpt>
      <trkpt lat="47.17837" lon="9.48748">
        <ele>451</ele>
        <time>2017-10-26T11:04:32Z</time>
      </trkpt>
      <trkpt lat="47.17742" lon="9.48781">
        <ele>453</ele>
        <time>2017-10-26T11:06:32Z</time>
      </trkpt>
      <trkpt lat="47.17527" lon="9.48846">
        <ele>455</ele>
        <time>2017-10-26T11:08:32Z</time>
      </trkpt>
      <trkpt lat="47.17527" lon="9.48846">
        <ele>455</ele>
        <time>2017-10-26T11:10:32Z</time>
      </trkpt>
      <trkpt lat="47.17503" lon="9.48662">
        <ele>451</ele>
        <time>2017-10-26T11:12:32Z</time>
      </trkpt>
      <trkpt lat="47.17503" lon="9.48662">
        <ele>451</ele>
        <time>2017-10-26T11:14:32Z</time>
      </trkpt>
      <trkpt lat="47.17156" lon="9.48758">
        <ele>453</ele>
        <time>2017-10-26T11:16:32Z</time>
      </trkpt>
      <trkpt lat="47.16945" lon="9.48822">
        <ele>451</ele>
        <time>2017-10-26T11:18:32Z</time>
      </trkpt>
      <trkpt lat="47.16898" lon="9.48836">
        <ele>453</ele>
        <time>2017-10-26T11:20:32Z</time>
      </trkpt>
      <trkpt lat="47.16895" lon="9.48837">
        <ele>453</ele>
        <time>2017-10-26T11:22:32Z</time>
      </trkpt>
      <trkpt lat="47.16889" lon="9.48839">
        <ele>453</ele>
        <time>2017-10-26T11:24:32Z</time>
      </trkpt>
      <trkpt lat="47.16881" lon="9.48842">
        <ele>453</ele>
        <time>2017-10-26T11:26:32Z</time>
      </trkpt>
      <trkpt lat="47.16872" lon="9.48845">
        <ele>452</ele>
        <time>2017-10-26T11:28:32Z</time>
      </trkpt>
      <trkpt lat="47.16779" lon="9.48871">
        <ele>452</ele>
        <time>2017-10-26T11:30:32Z</time>
      </trkpt>
      <trkpt lat="47.16688" lon="9.48899">
        <ele>451</ele>
        <time>2017-10-26T11:32:32Z</time>
      </trkpt>
      <trkpt lat="47.16666" lon="9.48907">
        <ele>451</ele>
        <time>2017-10-26T11:34:32Z</time>
      </trkpt>
      <trkpt lat="47.1663" lon="9.48918">
        <ele>450</ele>
        <time>2017-10-26T11:36:32Z</time>
      </trkpt>
      <trkpt lat="47.16601" lon="9.48921">
        <ele>449</ele>
        <time>2017-10-26T11:38:32Z</time>
      </trkpt>
      <trkpt lat="47.16574" lon="9.48925">
        <ele>449</ele>
        <time>2017-10-26T11:40:32Z</time>
      </trkpt>
      <trkpt lat="47.1656" lon="9.48926">
        <ele>449</ele>
        <time>2017-10-26T11:42:32Z</time>
      </trkpt>
      <trkpt lat="47.16485" lon="9.48935">
        <ele>448</ele>
        <time>2017-10-26T11:44:32Z</time>
      </trkpt>
      <trkpt lat="47.16468" lon="9.48937">
        <ele>448</ele>
        <time>2017-10-26T11:46:32Z</time>
      </trkpt>
      <trkpt lat="47.1646" lon="9.48939">
        <ele>449</ele>
        <time>2017-10-26T11:48:32Z</time>
      </trkpt>
      <trkpt lat="47.16442" lon="9.48944">
        <ele>449</ele>
        <time>2017-10-26T11:50:32Z</time>
      </trkpt>
      <trkpt lat="47.16426" lon="9.4895">
        <ele>449</ele>
        <time>2017-10-26T11:52:32Z</time>
      </trkpt>
      <trkpt lat="47.16403" lon="9.48958">
        <ele>450</ele>
        <time>2017-10-26T11:54:32Z</time>
      </trkpt>
      <trkpt lat="47.16377" lon="9.48969">
        <ele>450</ele>
        <time>2017-10-26T11:56:32Z</time>
      </trkpt>
      <trkpt lat="47.16348" lon="9.4898">
        <ele>451</ele>
        <time>2017-10-26T11:58:32Z</time>
      </trkpt>
      <trkpt lat="47.16326" lon="9.4899">
        <ele>451</ele>
        <time>2017-10-26T12:00:32Z</time>
      </trkpt>
      <trkpt lat="47.16326" lon="9.4899">
        <ele>451</ele>
        <time>2017-10-26T12:02:32Z</time>
      </trkpt>
      <trkpt lat="47.16303" lon="9.49007">
        <ele>451</ele>
        <time>2017-10-26T12:04:32Z</time>
      </trkpt>
      <trkpt lat="47.16279" lon="9.49027">
        <ele>451</ele>
        <time>2017-10-26T12:06:32Z</time>
      </trkpt>
      <trkpt lat="47.16256" lon="9.49046">
        <ele>450</ele>
        <time>2017-10-26T12:08:32Z</time>
      </trkpt>
      <trkpt lat="47.1623" lon="9.49067">
        <ele>450</ele>
        <time>2017-10-26T12:10:32Z</time>
      </trkpt>
      <trkpt lat="47.15709" lon="9.49388">
        <ele>451</ele>
        <time>2017-10-26T12:12:32Z</time>
      </trkpt>
      <trkpt lat="47.15527" lon="9.49502">
        <ele>453</ele>
        <time>2017-10-26T12:14:32Z</time>
      </trkpt>
      <trkpt lat="47.15523" lon="9.49504">
        <ele>453</ele>
        <time>2017-10-26T12:16:32Z</time>
      </trkpt>
      <trkpt lat="47.15433" lon="9.49537">
        <ele>453</ele>
        <time>2017-10-26T12:18:32Z</time>
      </trkpt>
      <trkpt lat="47.1542" lon="9.49541">
        <ele>453</ele>
        <time>2017-10-26T12:20:32Z</time>
      </trkpt>
      <trkpt lat="47.15329" lon="9.49625">
        <ele>454</ele>
        <time>2017-10-26T12:22:32Z</time>
      </trkpt>
      <trkpt lat="47.15305" lon="9.49647">
        <ele>454</ele>
        <time>2017-10-26T12:24:32Z</time>
      </trkpt>
      <trkpt lat="47.1522" lon="9.49699">
        <ele>454</ele>
        <time>2017-10-26T12:26:32Z</time>
      </trkpt>
      <trkpt lat="47.15034" lon="9.49817">
        <ele>452</ele>
        <time>2017-10-26T12:28:32Z</time>
      </trkpt>
      <trkpt lat="47.14969" lon="9.49861">
        <ele>453</ele>
        <time>2017-10-26T12:30:32Z</time>
      </trkpt>
      <trkpt lat="47.14926" lon="9.49894">
        <ele>454</ele>
        <time>2017-10-26T12:32:32Z</time>
      </trkpt>
      <trkpt lat="47.14892" lon="9.49928">
        <ele>454</ele>
        <time>2017-10-26T12:34:32Z</time>
      </trkpt>
      <trkpt lat="47.14849" lon="9.4997">
        <ele>455</ele>
        <time>2017-10-26T12:36:32Z</time>
      </trkpt>
      <trkpt lat="47.14847" lon="9.49971">
        <ele>455</ele>
        <time>2017-10-26T12:38:32Z</time>
      </trkpt>
      <trkpt lat="47.14786" lon="9.50036">
        <ele>455</ele>
        <time>2017-10-26T12:40:32Z</time>
      </trkpt>
      <trkpt lat="47.14648" lon="9.50183">
        <ele>455</ele>
        <time>2017-10-26T12:42:32Z</time>
      </trkpt>
      <trkpt lat="47.14505" lon="9.50338">
        <ele>459</ele>
        <time>2017-10-26T12:44:32Z</time>
      </trkpt>
      <trkpt lat="47.1441" lon="9.5044">
        <ele>459</ele>
        <time>2017-10-26T12:46:32Z</time>
      </trkpt>
      <trkpt lat="47.1435" lon="9.50509">
        <ele>459</ele>
        <time>2017-10-26T12:48:32Z</time>
      </trkpt>
      <trkpt lat="47.14303" lon="9.5056">
        <ele>458</ele>
        <time>2017-10-26T12:50:32Z</time>
      </trkpt>
      <trkpt lat="47.1427" lon="9.50592">
        <ele>459</ele>
        <time>2017-10-26T12:52:32Z</time>
      </trkpt>
      <trkpt lat="47.14236" lon="9.50618">
        <ele>458</ele>
        <time>2017-10-26T12:54:32Z</time>
      </trkpt>
      <trkpt lat="47.14187" lon="9.50654">
        <ele>457</ele>
        <time>2017-10-26T12:56:32Z</time>
      </trkpt>
      <trkpt lat="47.14146" lon="9.5068">
        <ele>457</ele>
        <time>2017-10-26T12:58:32Z</time>
      </trkpt>
      <trkpt lat="47.14083" lon="9.50714">
        <ele>455</ele>
        <time>2017-10-26T13:00:32Z</time>
      </trkpt>
      <trkpt lat="47.13849" lon="9.50812">
        <ele>459</ele>
        <time>2017-10-26T13:02:32Z</time>
      </trkpt>
      <trkpt lat="47.133" lon="9.51039">
        <ele>459</ele>
        <time>2017-10-26T13:04:32Z</time>
      </trkpt>
      <trkpt lat="47.13246" lon="9.5106">
        <ele>459</ele>
        <time>2017-10-26T13:06:32Z</time>
      </trkpt>
      <trkpt lat="47.13226" lon="9.5107">
        <ele>459</ele>
        <time>2017-10-26T13:08:32Z</time>
      </trkpt>
      <trkpt lat="47.13226" lon="9.5107">
        <ele>459</ele>
        <time>2017-10-26T13:10:32Z</time>
      </trkpt>
      <trkpt lat="47.13228" lon="9.51079">
        <ele>459</ele>
        <time>2017-10-26T13:12:32Z</time>
      </trkpt>
      <trkpt lat="47.1323" lon="9.51088">
        <ele>459</ele>
        <time>2017-10-26T13:14:32Z</time>
      </trkpt>
      <trkpt lat="47.13231" lon="9.51097">
        <ele>458</ele>
        <time>2017-10-26T13:16:32Z</time>
      </trkpt>
      <trkpt lat="47.13244" lon="9.51155">
        <ele>456</ele>
        <time>2017-10-26T13:18:32Z</time>
      </trkpt>
      <trkpt lat="47.13257" lon="9.51225">
        <ele>458</ele>
        <time>2017-10-26T13:20:32Z</time>
      </trkpt>
      <trkpt lat="47.13262" lon="9.51248">
        <ele>459</ele>
        <time>2017-10-26T13:22:32Z</time>
      </trkpt>
      <trkpt lat="47.13263" lon="9.51257">
        <ele>459</ele>
        <time>2017-10-26T13:24:32Z</time>
      </trkpt>
      <trkpt lat="47.13265" lon="9.51269">
        <ele>459</ele>
        <time>2017-10-26T13:26:32Z</time>
      </trkpt>
      <trkpt lat="47.13265" lon="9.51269">
        <ele>459</ele>
        <time>2017-10-26T13:28:32Z</time>
      </trkpt>
      <trkpt lat="47.13264" lon="9.5127">
        <ele>459</ele>
        <time>2017-10-26T13:30:32Z</time>
      </trkpt>
      <trkpt lat="47.13263" lon="9.51271">
        <ele>459</ele>
        <time>2017-10-26T13:32:32Z</time>
      </trkpt>
      <trkpt lat="47.13262" lon="9.51272">
        <ele>459</ele>
        <time>2017-10-26T13:34:32Z</time>
      </trkpt>
      <trkpt lat="47.13261" lon="9.51273">
        <ele>459</ele>
        <time>2017-10-26T13:36:32Z</time>
      </trkpt>
      <trkpt lat="47.13261" lon="9.51274">
        <ele>459</ele>
        <time>2017-10-26T13:38:32Z</time>
      </trkpt>
      <trkpt lat="47.1326" lon="9.51275">
        <ele>459</ele>
        <time>2017-10-26T13:40:32Z</time>
      </trkpt>
      <trkpt lat="47.13259" lon="9.51276">
        <ele>459</ele>
        <time>2017-10-26T13:42:32Z</time>
      </trkpt>
      <trkpt lat="47.13259" lon="9.51277">
        <ele>459</ele>
        <time>2017-10-26T13:44:32Z</time>
      </trkpt>
      <trkpt lat="47.13258" lon="9.51278">
        <ele>459</ele>
        <time>2017-10-26T13:46:32Z</time>
      </trkpt>
      <trkpt lat="47.13258" lon="9.51279">
        <ele>459</ele>
        <time>2017-10-26T13:48:32Z</time>
      </trkpt>
      <trkpt lat="47.13257" lon="9.51281">
        <ele>459</ele>
        <time>2017-10-26T13:50:32Z</time>
      </trkpt>
      <trkpt lat="47.13257" lon="9.51282">
        <ele>459</ele>
        <time>2017-10-26T13:52:32Z</time>
      </trkpt>
      <trkpt lat="47.13256" lon="9.51283">
        <ele>459</ele>
        <time>2017-10-26T13:54:32Z</time>
      </trkpt>
      <trkpt lat="47.13256" lon="9.51284">
        <ele>459</ele>
        <time>2017-10-26T13:56:32Z</time>
      </trkpt>
      <trkpt lat="47.13237" lon="9.51284">
        <ele>459</ele>
        <time>2017-10-26T13:58:32Z</time>
      </trkpt>
      <trkpt lat="47.13225" lon="9.51286">
        <ele>459</ele>
        <time>2017-10-26T14:00:32Z</time>
      </trkpt>
      <trkpt lat="47.13213" lon="9.51287">
        <ele>459</ele>
        <time>2017-10-26T14:02:32Z</time>
      </trkpt>
      <trkpt lat="47.13173" lon="9.51304">
        <ele>459</ele>
        <time>2017-10-26T14:04:32Z</time>
      </trkpt>
      <trkpt lat="47.13143" lon="9.51316">
        <ele>459</ele>
        <time>2017-10-26T14:06:32Z</time>
      </trkpt>
      <trkpt lat="47.13128" lon="9.51323">
        <ele>459</ele>
        <time>2017-10-26T14:08:32Z</time>
      </trkpt>
      <trkpt lat="47.13113" lon="9.51329">
        <ele>459</ele>
        <time>2017-10-26T14:10:32Z</time>
      </trkpt>
      <trkpt lat="47.13104" lon="9.51335">
        <ele>459</ele>
        <time>2017-10-26T14:12:32Z</time>
      </trkpt>
      <trkpt lat="47.13095" lon="9.51341">
        <ele>459</ele>
        <time>2017-10-26T14:14:32Z</time>
      </trkpt>
      <trkpt lat="47.13087" lon="9.51347">
        <ele>459</ele>
        <time>2017-10-26T14:16:32Z</time>
      </trkpt>
      <trkpt lat="47.1308" lon="9.51352">
        <ele>459</ele>
        <time>2017-10-26T14:18:32Z</time>
      </trkpt>
      <trkpt lat="47.13072" lon="9.51357">
        <ele>459</ele>
        <time>2017-10-26T14:20:32Z</time>
      </trkpt>
      <trkpt lat="47.13068" lon="9.51358">
        <ele>459</ele>
        <time>2017-10-26T14:22:32Z</time>
      </trkpt>
      <trkpt lat="47.13066" lon="9.51358">
        <ele>459</ele>
        <time>2017-10-26T14:24:32Z</time>
      </trkpt>
      <trkpt lat="47.13062" lon="9.51357">
        <ele>459</ele>
        <time>2017-10-26T14:26:32Z</time>
      </trkpt>
      <trkpt lat="47.13059" lon="9.51354">
        <ele>459</ele>
        <time>2017-10-26T14:28:32Z</time>
      </trkpt>
      <trkpt lat="47.13059" lon="9.51354">
        <ele>459</ele>
        <time>2017-10-26T14:30:32Z</time>
      </trkpt>
      <trkpt lat="47.13056" lon="9.51356">
        <ele>459</ele>
        <time>2017-10-26T14:32:32Z</time>
      </trkpt>
      <trkpt lat="47.13054" lon="9.51358">
        <ele>459</ele>
        <time>2017-10-26T14:34:32Z</time>
      </trkpt>
      <trkpt lat="47.13051" lon="9.51358">
        <ele>459</ele>
        <time>2017-10-26T14:36:32Z</time>
      </trkpt>
      <trkpt lat="47.13048" lon="9.51358">
        <ele>459</ele>
        <time>2017-10-26T14:38:32Z</time>
      </trkpt>
      <trkpt lat="47.13043" lon="9.51358">
        <ele>459</ele>
        <time>2017-10-26T14:40:32Z</time>
      </trkpt>
      <trkpt lat="47.13037" lon="9.51357">
        <ele>459</ele>
        <time>2017-10-26T14:42:32Z</time>
      </trkpt>
      <trkpt lat="47.13031" lon="9.51356">
        <ele>460</ele>
        <time>2017-10-26T14:44:32Z</time>
      </trkpt>
      <trkpt lat="47.13025" lon="9.51356">
        <ele>460</ele>
        <time>2017-10-26T14:46:32Z</time>
      </trkpt>
      <trkpt lat="47.13019" lon="9.51356">
        <ele>460</ele>
        <time>2017-10-26T14:48:32Z</time>
      </trkpt>
      <trkpt lat="47.13007" lon="9.51358">
        <ele>460</ele>
        <time>2017-10-26T14:50:32Z</time>
      </trkpt>
      <trkpt lat="47.12983" lon="9.51363">
        <ele>460</ele>
        <time>2017-10-26T14:52:32Z</time>
      </trkpt>
      <trkpt lat="47.12958" lon="9.51368">
        <ele>459</ele>
        <time>2017-10-26T14:54:32Z</time>
      </trkpt>
      <trkpt lat="47.12931" lon="9.51374">
        <ele>459</ele>
        <time>2017-10-26T14:56:32Z</time>
      </trkpt>
      <trkpt lat="47.12895" lon="9.51382">
        <ele>460</ele>
        <time>2017-10-26T14:58:32Z</time>
      </trkpt>
      <trkpt lat="47.12802" lon="9.51404">
        <ele>463</ele>
        <time>2017-10-26T15:00:32Z</time>
      </trkpt>
      <trkpt lat="47.1271" lon="9.51426">
        <ele>462</ele>
        <time>2017-10-26T15:02:32Z</time>
      </trkpt>
      <trkpt lat="47.12639" lon="9.51445">
        <ele>461</ele>
        <time>2017-10-26T15:04:32Z</time>
      </trkpt>
      <trkpt lat="47.12568" lon="9.51461">
        <ele>461</ele>
        <time>2017-10-26T15:06:32Z</time>
      </trkpt>
      <trkpt lat="47.1252" lon="9.51471">
        <ele>461</ele>
        <time>2017-10-26T15:08:32Z</time>
      </trkpt>
      <trkpt lat="47.12482" lon="9.5148">
        <ele>460</ele>
        <time>2017-10-26T15:10:32Z</time>
      </trkpt>
      <trkpt lat="47.12213" lon="9.5155">
        <ele>461</ele>
        <time>2017-10-26T15:12:32Z</time>
      </trkpt>
      <trkpt lat="47.12195" lon="9.51554">
        <ele>461</ele>
        <time>2017-10-26T15:14:32Z</time>
      </trkpt>
      <trkpt lat="47.12152" lon="9.51567">
        <ele>462</ele>
        <time>2017-10-26T15:16:32Z</time>
      </trkpt>
      <trkpt lat="47.12115" lon="9.51578">
        <ele>461</ele>
        <time>2017-10-26T15:18:32Z</time>
      </trkpt>
      <trkpt lat="47.12084" lon="9.51588">
        <ele>461</ele>
        <time>2017-10-26T15:20:32Z</time>
      </trkpt>
      <trkpt lat="47.12081" lon="9.51589">
        <ele>461</ele>
        <time>2017-10-26T15:22:32Z</time>
      </trkpt>
      <trkpt lat="47.12078" lon="9.5159">
        <ele>461</ele>
        <time>2017-10-26T15:24:32Z</time>
      </trkpt>
      <trkpt lat="47.12075" lon="9.51593">
        <ele>461</ele>
        <time>2017-10-26T15:26:32Z</time>
      </trkpt>
      <trkpt lat="47.12072" lon="9.51595">
        <ele>461</ele>
        <time>2017-10-26T15:28:32Z</time>
      </trkpt>
      <trkpt lat="47.1207" lon="9.516">
        <ele>461</ele>
        <time>2017-10-26T15:30:32Z</time>
      </trkpt>
      <trkpt lat="47.12068" lon="9.51605">
        <ele>461</ele>
        <time>2017-10-26T15:32:32Z</time>
      </trkpt>
      <trkpt lat="47.12067" lon="9.51609">
        <ele>461</ele>
        <time>2017-10-26T15:34:32Z</time>
      </trkpt>
      <trkpt lat="47.12066" lon="9.51616">
        <ele>461</ele>
        <time>2017-10-26T15:36:32Z</time>
      </trkpt>
      <trkpt lat="47.12067" lon="9.51623">
        <ele>461</ele>
        <time>2017-10-26T15:38:32Z</time>
      </trkpt>
      <trkpt lat="47.12075" lon="9.51714">
        <ele>462</ele>
        <time>2017-10-26T15:40:32Z</time>
      </trkpt>
      <trkpt lat="47.12075" lon="9.51714">
        <ele>462</ele>
        <time>2017-10-26T15:42:32Z</time>
      </trkpt>
      <trkpt lat="47.12037" lon="9.51724">
        <ele>461</ele>
        <time>2017-10-26T15:44:32Z</time>
      </trkpt>
      <trkpt lat="47.11925" lon="9.51756">
        <ele>462</ele>
        <time>2017-10-26T15:46:32Z</time>
      </trkpt>
      <trkpt lat="47.11917" lon="9.51759">
        <ele>462</ele>
        <time>2017-10-26T15:48:32Z</time>
      </trkpt>
      <trkpt lat="47.11914" lon="9.5176">
        <ele>462</ele>
        <time>2017-10-26T15:50:32Z</time>
      </trkpt>
      <trkpt lat="47.11911" lon="9.51762">
        <ele>462</ele>
        <time>2017-10-26T15:52:32Z</time>
      </trkpt>
      <trkpt lat="47.11909" lon="9.51764">
        <ele>462</ele>
        <time>2017-10-26T15:54:32Z</time>
      </trkpt>
      <trkpt lat="47.11906" lon="9.51766">
        <ele>462</ele>
        <time>2017-10-26T15:56:32Z</time>
      </trkpt>
      <trkpt lat="47.11904" lon="9.51769">
        <ele>462</ele>
        <time>2017-10-26T15:58:32Z</time>
      </trkpt>
      <trkpt lat="47.11901" lon="9.51774">
        <ele>462</ele>
        <time>2017-10-26T16:00:32Z</time>
      </trkpt>
      <trkpt lat="47.119" lon="9.5178">
        <ele>462</ele>
        <time>2017-10-26T16:02:32Z</time>
      </trkpt>
      <trkpt lat="47.11898" lon="9.51786">
        <ele>462</ele>
        <time>2017-10-26T16:04:32Z</time>
      </trkpt>
      <trkpt lat="47.11898" lon="9.51792">
        <ele>463</ele>
        <time>2017-10-26T16:06:32Z</time>
      </trkpt>
      <trkpt lat="47.11898" lon="9.51798">
        <ele>463</ele>
        <time>2017-10-26T16:08:32Z</time>
      </trkpt>
      <trkpt lat="47.11898" lon="9.51803">
        <ele>463</ele>
        <time>2017-10-26T16:10:32Z</time>
      </trkpt>
      <trkpt lat="47.11899" lon="9.51807">
        <ele>463</ele>
        <time>2017-10-26T16:12:32Z</time>
      </trkpt>
      <trkpt lat="47.119" lon="9.51815">
        <ele>463</ele>
        <time>2017-10-26T16:14:32Z</time>
      </trkpt>
      <trkpt lat="47.11904" lon="9.51834">
        <ele>463</ele>
        <time>2017-10-26T16:16:32Z</time>
      </trkpt>
      <trkpt lat="47.11914" lon="9.5187">
        <ele>463</ele>
        <time>2017-10-26T16:18:32Z</time>
      </trkpt>
      <trkpt lat="47.11914" lon="9.5187">
        <ele>463</ele>
        <time>2017-10-26T16:20:32Z</time>
      </trkpt>
      <trkpt lat="47.1191" lon="9.51872">
        <ele>463</ele>
        <time>2017-10-26T16:22:32Z</time>
      </trkpt>
      <trkpt lat="47.11905" lon="9.51873">
        <ele>463</ele>
        <time>2017-10-26T16:24:32Z</time>
      </trkpt>
      <trkpt lat="47.11867" lon="9.51881">
        <ele>462</ele>
        <time>2017-10-26T16:26:32Z</time>
      </trkpt>
      <trkpt lat="47.11818" lon="9.51887">
        <ele>462</ele>
        <time>2017-10-26T16:28:32Z</time>
      </trkpt>
      <trkpt lat="47.11782" lon="9.51897">
        <ele>462</ele>
        <time>2017-10-26T16:30:32Z</time>
      </trkpt>
      <trkpt lat="47.11744" lon="9.51905">
        <ele>462</ele>
        <time>2017-10-26T16:32:32Z</time>
      </trkpt>
      <trkpt lat="47.1164" lon="9.51928">
        <ele>459</ele>
        <time>2017-10-26T16:34:32Z</time>
      </trkpt>
      <trkpt lat="47.11429" lon="9.51979">
        <ele>462</ele>
        <time>2017-10-26T16:36:32Z</time>
      </trkpt>
      <trkpt lat="47.11429" lon="9.51979">
        <ele>462</ele>
        <time>2017-10-26T16:38:32Z</time>
      </trkpt>
      <trkpt lat="47.11422" lon="9.51879">
        <ele>463</ele>
        <time>2017-10-26T16:40:32Z</time>
      </trkpt>
      <trkpt lat="47.11417" lon="9.51788">
        <ele>462</ele>
        <time>2017-10-26T16:42:32Z</time>
      </trkpt>
      <trkpt lat="47.11209" lon="9.51828">
        <ele>462</ele>
        <time>2017-10-26T16:44:32Z</time>
      </trkpt>
      <trkpt lat="47.1094" lon="9.51898">
        <ele>464</ele>
        <time>2017-10-26T16:46:32Z</time>
      </trkpt>
      <trkpt lat="47.10748" lon="9.5195">
        <ele>464</ele>
        <time>2017-10-26T16:48:32Z</time>
      </trkpt>
      <trkpt lat="47.10586" lon="9.5199">
        <ele>464</ele>
        <time>2017-10-26T16:50:32Z</time>
      </trkpt>
      <trkpt lat="47.10496" lon="9.52002">
        <ele>465</ele>
        <time>2017-10-26T16:52:32Z</time>
      </trkpt>
      <trkpt lat="47.10241" lon="9.52044">
        <ele>465</ele>
        <time>2017-10-26T16:54:32Z</time>
      </trkpt>
      <trkpt lat="47.10179" lon="9.52051">
        <ele>465</ele>
        <time>2017-10-26T16:56:32Z</time>
      </trkpt>
      <trkpt lat="47.10093" lon="9.52059">
        <ele>466</ele>
        <time>2017-10-26T16:58:32Z</time>
      </trkpt>
      <trkpt lat="47.09977" lon="9.52065">
        <ele>466</ele>
        <time>2017-10-26T17:00:32Z</time>
      </trkpt>
      <trkpt lat="47.0985" lon="9.52062">
        <ele>464</ele>
        <time>2017-10-26T17:02:32Z</time>
      </trkpt>
      <trkpt lat="47.0973" lon="9.52051">
        <ele>466</ele>
        <time>2017-10-26T17:04:32Z</time>
      </trkpt>
      <trkpt lat="47.09655" lon="9.52037">
        <ele>467</ele>
        <time>2017-10-26T17:06:32Z</time>
      </trkpt>
      <trkpt lat="47.09524" lon="9.51997">
        <ele>467</ele>
        <time>2017-10-26T17:08:32Z</time>
      </trkpt>
      <trkpt lat="47.09404" lon="9.51951">
        <ele>470</ele>
        <time>2017-10-26T17:10:32Z</time>
      </trkpt>
      <trkpt lat="47.09313" lon="9.51905">
        <ele>470</ele>
        <time>2017-10-26T17:12:32Z</time>
      </trkpt>
      <trkpt lat="47.09217" lon="9.51865">
        <ele>469</ele>
        <time>2017-10-26T17:14:32Z</time>
      </trkpt>
      <trkpt lat="47.09095" lon="9.51808">
        <ele>470</ele>
        <time>2017-10-26T17:16:32Z</time>
      </trkpt>
      <trkpt lat="47.08955" lon="9.51743">
        <ele>470</ele>
        <time>2017-10-26T17:18:32Z</time>
      </trkpt>
      <trkpt lat="47.08797" lon="9.51671">
        <ele>470</ele>
        <time>2017-10-26T17:20:32Z</time>
      </trkpt>
      <trkpt lat="47.08698" lon="9.51613">
        <ele>470</ele>
        <time>2017-10-26T17:22:32Z</time>
      </trkpt>
      <trkpt lat="47.08655" lon="9.51581">
        <ele>471</ele>
        <time>2017-10-26T17:24:32Z</time>
      </trkpt>
      <trkpt lat="47.08554" lon="9.51467">
        <ele>471</ele>
        <time>2017-10-26T17:26:32Z</time>
      </trkpt>
      <trkpt lat="47.08495" lon="9.51393">
        <ele>472</ele>
        <time>2017-10-26T17:28:32Z</time>
      </trkpt>
      <trkpt lat="47.08427" lon="9.51284">
        <ele>476</ele>
        <time>2017-10-26T17:30:32Z</time>
      </trkpt>
      <trkpt lat="47.08345" lon="9.51141">
        <ele>476</ele>
        <time>2017-10-26T17:32:32Z</time>
      </trkpt>
      <trkpt lat="47.08253" lon="9.5097">
        <ele>477</ele>
        <time>2017-10-26T17:34:32Z</time>
      </trkpt>
      <trkpt lat="47.07959" lon="9.50432">
        <ele>477</ele>
        <time>2017-10-26T17:36:32Z</time>
      </trkpt>
      <trkpt lat="47.07925" lon="9.50368">
        <ele>477</ele>
        <time>2017-10-26T17:38:32Z</time>
      </trkpt>
      <trkpt lat="47.0784" lon="9.50206">
        <ele>474</ele>
        <time>2017-10-26T17:40:32Z</time>
      </trkpt>
      <trkpt lat="47.07321" lon="9.49262">
        <ele>475</ele>
        <time>2017-10-26T17:42:32Z</time>
      </trkpt>
      <trkpt lat="47.07317" lon="9.49252">
        <ele>475</ele>
        <time>2017-10-26T17:44:32Z</time>
      </trkpt>
      <trkpt lat="47.07314" lon="9.49244">
        <ele>476</ele>
        <time>2017-10-26T17:46:32Z</time>
      </trkpt>
      <trkpt lat="47.0731" lon="9.49237">
        <ele>476</ele>
        <time>2017-10-26T17:48:32Z</time>
      </trkpt>
      <trkpt lat="47.07301" lon="9.4922">
        <ele>476</ele>
        <time>2017-10-26T17:50:32Z</time>
      </trkpt>
      <trkpt lat="47.07298" lon="9.49212">
        <ele>477</ele>
        <time>2017-10-26T17:52:32Z</time>
      </trkpt>
      <trkpt lat="47.07293" lon="9.49198">
        <ele>477</ele>
        <time>2017-10-26T17:54:32Z</time>
      </trkpt>
      <trkpt lat="47.07286" lon="9.49183">
        <ele>478</ele>
        <time>2017-10-26T17:56:32Z</time>
      </trkpt>
      <trkpt lat="47.07276" lon="9.49154">
        <ele>478</ele>
        <time>2017-10-26T17:58:32Z</time>
      </trkpt>
      <trkpt lat="47.0723" lon="9.49059">
        <ele>479</ele>
        <time>2017-10-26T18:00:32Z</time>
      </trkpt>
      <trkpt lat="47.07224" lon="9.49045">
        <ele>479</ele>
        <time>2017-10-26T18:02:32Z</time>
      </trkpt>
      <trkpt lat="47.07223" lon="9.49044">
        <ele>479</ele>
        <time>2017-10-26T18:04:32Z</time>
      </trkpt>
      <trkpt lat="47.07219" lon="9.49032">
        <ele>479</ele>
        <time>2017-10-26T18:06:32Z</time>
      </trkpt>
      <trkpt lat="47.07194" lon="9.48967">
        <ele>480</ele>
        <time>2017-10-26T18:08:32Z</time>
      </trkpt>
      <trkpt lat="47.07177" lon="9.48914">
        <ele>480</ele>
        <time>2017-10-26T18:10:32Z</time>
      </trkpt>
      <trkpt lat="47.07138" lon="9.48815">
        <ele>479</ele>
        <time>2017-10-26T18:12:32Z</time>
      </trkpt>
      <trkpt lat="47.07098" lon="9.4871">
        <ele>480</ele>
        <time>2017-10-26T18:14:32Z</time>
      </trkpt>
      <trkpt lat="47.07063" lon="9.48622">
        <ele>479</ele>
        <time>2017-10-26T18:16:32Z</time>
      </trkpt>
      <trkpt lat="47.07019" lon="9.48511">
        <ele>478</ele>
        <time>2017-10-26T18:18:32Z</time>
      </trkpt>
      <trkpt lat="47.06943" lon="9.48307">
        <ele>480</ele>
        <time>2017-10-26T18:20:32Z</time>
      </trkpt>
      <trkpt lat="47.06873" lon="9.48132">
        <ele>477</ele>
        <time>2017-10-26T18:22:32Z</time>
      </trkpt>
      <trkpt lat="47.06851" lon="9.48081">
        <ele>478</ele>
        <time>2017-10-26T18:24:32Z</time>
      </trkpt>
      <trkpt lat="47.06774" lon="9.47871">
        <ele>476</ele>
        <time>2017-10-26T18:26:32Z</time>
      </trkpt>
      <trkpt lat="47.06741" lon="9.47798">
        <ele>477</ele>
        <time>2017-10-26T18:28:32Z</time>
      </trkpt>
      <trkpt lat="47.06721" lon="9.47756">
        <ele>478</ele>
        <time>2017-10-26T18:30:32Z</time>
      </trkpt>
      <trkpt lat="47.06704" lon="9.47717">
        <ele>478</ele>
        <time>2017-10-26T18:32:32Z</time>
      </trkpt>
      <trkpt lat="47.06666" lon="9.47632">
        <ele>478</ele>
        <time>2017-10-26T18:34:32Z</time>
      </trkpt>
      <trkpt lat="47.06635" lon="9.47553">
        <ele>478</ele>
        <time>2017-10-26T18:36:32Z</time>
      </trkpt>
      <trkpt lat="47.06578" lon="9.4745">
        <ele>479</ele>
        <time>2017-10-26T18:38:32Z</time>
      </trkpt>
      <trkpt lat="47.06525" lon="9.47368">
        <ele>479</ele>
        <time>2017-10-26T18:40:32Z</time>
      </trkpt>
      <trkpt lat="47.06499" lon="9.47339">
        <ele>479</ele>
        <time>2017-10-26T18:42:32Z</time>
      </trkpt>
      <trkpt lat="47.06466" lon="9.4731">
        <ele>478</ele>
        <time>2017-10-26T18:44:32Z</time>
      </trkpt>
      <trkpt lat="47.06412" lon="9.47281">
        <ele>477</ele>
        <time>2017-10-26T18:46:32Z</time>
      </trkpt>
      <trkpt lat="47.06391" lon="9.47272">
        <ele>477</ele>
        <time>2017-10-26T18:48:32Z</time>
      </trkpt>
      <trkpt lat="47.06354" lon="9.47266">
        <ele>479</ele>
        <time>2017-10-26T18:50:32Z</time>
      </trkpt>
      <trkpt lat="47.06284" lon="9.47266">
        <ele>479</ele>
        <time>2017-10-26T18:52:32Z</time>
      </trkpt>
      <trkpt lat="47.06239" lon="9.4727">
        <ele>479</ele>
        <time>2017-10-26T18:54:32Z</time>
      </trkpt>
      <trkpt lat="47.06164" lon="9.47276">
        <ele>480</ele>
        <time>2017-10-26T18:56:32Z</time>
      </trkpt>
      <trkpt lat="47.06114" lon="9.47286">
        <ele>480</ele>
        <time>2017-10-26T18:58:32Z</time>
      </trkpt>
      <trkpt lat="47.06011" lon="9.47323">
        <ele>480</ele>
        <time>2017-10-26T19:00:32Z</time>
      </trkpt>
      <trkpt lat="47.05938" lon="9.47354">
        <ele>481</ele>
        <time>2017-10-26T19:02:32Z</time>
      </trkpt>
      <trkpt lat="47.05892" lon="9.47373">
        <ele>481</ele>
        <time>2017-10-26T19:04:32Z</time>
      </trkpt>
      <trkpt lat="47.05713" lon="9.47447">
        <ele>481</ele>
        <time>2017-10-26T19:06:32Z</time>
      </trkpt>
      <trkpt lat="47.05536" lon="9.47522">
        <ele>480</ele>
        <time>2017-10-26T19:08:32Z</time>
      </trkpt>
      <trkpt lat="47.05422" lon="9.47572">
        <ele>486</ele>
        <time>2017-10-26T19:10:32Z</time>
      </trkpt>
      <trkpt lat="47.05422" lon="9.47572">
        <ele>486</ele>
        <time>2017-10-26T19:12:32Z</time>
      </trkpt>
      <trkpt lat="47.05425" lon="9.47582">
        <ele>487</ele>
        <time>2017-10-26T19:14:32Z</time>
      </trkpt>
      <trkpt lat="47.05426" lon="9.47588">
        <ele>488</ele>
        <time>2017-10-26T19:16:32Z</time>
      </trkpt>
      <trkpt lat="47.0543" lon="9.47604">
        <ele>490</ele>
        <time>2017-10-26T19:18:32Z</time>
      </trkpt>
      <trkpt lat="47.05438" lon="9.47627">
        <ele>492</ele>
        <time>2017-10-26T19:20:32Z</time>
      </trkpt>
      <trkpt lat="47.0545" lon="9.47651">
        <ele>494</ele>
        <time>2017-10-26T19:22:32Z</time>
      </trkpt>
      <trkpt lat="47.05457" lon="9.47672">
        <ele>496</ele>
        <time>2017-10-26T19:24:32Z</time>
      </trkpt>
      <trkpt lat="47.05473" lon="9.47692">
        <ele>497</ele>
        <time>2017-10-26T19:26:32Z</time>
      </trkpt>
      <trkpt lat="47.0548" lon="9.47708">
        <ele>498</ele>
        <time>2017-10-26T19:28:32Z</time>
      </trkpt>
      <trkpt lat="47.05483" lon="9.47728">
        <ele>500</ele>
        <time>2017-10-26T19:30:32Z</time>
      </trkpt>
      <trkpt lat="47.05492" lon="9.4775">
        <ele>497</ele>
        <time>2017-10-26T19:32:32Z</time>
      </trkpt>
      <trkpt lat="47.05501" lon="9.47765">
        <ele>493</ele>
        <time>2017-10-26T19:34:32Z</time>
      </trkpt>
      <trkpt lat="47.05512" lon="9.4778">
        <ele>493</ele>
        <time>2017-10-26T19:36:32Z</time>
      </trkpt>
      <trkpt lat="47.05521" lon="9.47791">
        <ele>492</ele>
        <time>2017-10-26T19:38:32Z</time>
      </trkpt>
      <trkpt lat="47.05545" lon="9.47827">
        <ele>491</ele>
        <time>2017-10-26T19:40:32Z</time>
      </trkpt>
      <trkpt lat="47.05608" lon="9.47931">
        <ele>504</ele>
        <time>2017-10-26T19:42:32Z</time>
      </trkpt>
      <trkpt lat="47.05615" lon="9.47933">
        <ele>504</ele>
        <time>2017-10-26T19:44:32Z</time>
      </trkpt>
      <trkpt lat="47.05621" lon="9.47934">
        <ele>502</ele>
        <time>2017-10-26T19:46:32Z</time>
      </trkpt>
      <trkpt lat="47.05627" lon="9.4793">
        <ele>497</ele>
        <time>2017-10-26T19:48:32Z</time>
      </trkpt>
      <trkpt lat="47.05642" lon="9.47909">
        <ele>484</ele>
        <time>2017-10-26T19:50:32Z</time>
      </trkpt>
      <trkpt lat="47.05675" lon="9.47871">
        <ele>480</ele>
        <time>2017-10-26T19:52:32Z</time>
      </trkpt>
      <trkpt lat="47.05688" lon="9.47864">
        <ele>479</ele>
        <time>2017-10-26T19:54:32Z</time>
      </trkpt>
      <trkpt lat="47.05695" lon="9.47864">
        <ele>479</ele>
        <time>2017-10-26T19:56:32Z</time>
      </trkpt>
      <trkpt lat="47.05702" lon="9.4787">
        <ele>479</ele>
        <time>2017-10-26T19:58:32Z</time>
      </trkpt>
      <trkpt lat="47.05735" lon="9.47933">
        <ele>479</ele>
        <time>2017-10-26T20:00:32Z</time>
      </trkpt>
      <trkpt lat="47.05775" lon="9.48009">
        <ele>479</ele>
        <time>2017-10-26T20:02:32Z</time>
      </trkpt>
      <trkpt lat="47.05837" lon="9.48131">
        <ele>479</ele>
        <time>2017-10-26T20:04:32Z</time>
      </trkpt>
      <trkpt lat="47.05919" lon="9.48294">
        <ele>479</ele>
        <time>2017-10-26T20:06:32Z</time>
      </trkpt>
      <trkpt lat="47.05919" lon="9.48294">
        <ele>479</ele>
        <time>2017-10-26T20:08:32Z</time>
      </trkpt>
      <trkpt lat="47.05923" lon="9.48311">
        <ele>479</ele>
        <time>2017-10-26T20:10:32Z</time>
      </trkpt>
      <trkpt lat="47.05926" lon="9.48336">
        <ele>479</ele>
        <time>2017-10-26T20:12:32Z</time>
      </trkpt>
      <trkpt lat="47.05932" lon="9.48404">
        <ele>478</ele>
        <time>2017-10-26T20:14:32Z</time>
      </trkpt>
      <trkpt lat="47.05943" lon="9.48516">
        <ele>477</ele>
        <time>2017-10-26T20:16:32Z</time>
      </trkpt>
      <trkpt lat="47.05956" lon="9.48662">
        <ele>479</ele>
        <time>2017-10-26T20:18:32Z</time>
      </trkpt>
      <trkpt lat="47.0596" lon="9.48713">
        <ele>479</ele>
        <time>2017-10-26T20:20:32Z</time>
      </trkpt>
      <trkpt lat="47.05966" lon="9.48776">
        <ele>478</ele>
        <time>2017-10-26T20:22:32Z</time>
      </trkpt>
      <trkpt lat="47.05969" lon="9.48809">
        <ele>478</ele>
        <time>2017-10-26T20:24:32Z</time>
      </trkpt>
      <trkpt lat="47.05971" lon="9.48822">
        <ele>478</ele>
        <time>2017-10-26T20:26:32Z</time>
      </trkpt>
      <trkpt lat="47.05972" lon="9.48831">
        <ele>478</ele>
        <time>2017-10-26T20:28:32Z</time>
      </trkpt>
      <trkpt lat="47.05976" lon="9.48842">
        <ele>478</ele>
        <time>2017-10-26T20:30:32Z</time>
      </trkpt>
      <trkpt lat="47.05981" lon="9.48854">
        <ele>478</ele>
        <time>2017-10-26T20:32:32Z</time>
      </trkpt>
      <trkpt lat="47.05992" lon="9.48876">
        <ele>479</ele>
        <time>2017-10-26T20:34:32Z</time>
      </trkpt>
      <trkpt lat="47.0601" lon="9.48913">
        <ele>479</ele>
        <time>2017-10-26T20:36:32Z</time>
      </trkpt>
      <trkpt lat="47.06023" lon="9.48941">
        <ele>479</ele>
        <time>2017-10-26T20:38:32Z</time>
      </trkpt>
      <trkpt lat="47.06061" lon="9.4902">
        <ele>478</ele>
        <time>2017-10-26T20:40:32Z</time>
      </trkpt>
      <trkpt lat="47.06071" lon="9.49042">
        <ele>478</ele>
        <time>2017-10-26T20:42:32Z</time>
      </trkpt>
      <trkpt lat="47.06076" lon="9.49053">
        <ele>477</ele>
        <time>2017-10-26T20:44:32Z</time>
      </trkpt>
      <trkpt lat="47.06078" lon="9.49058">
        <ele>477</ele>
        <time>2017-10-26T20:46:32Z</time>
      </trkpt>
      <trkpt lat="47.0608" lon="9.49064">
        <ele>477</ele>
        <time>2017-10-26T20:48:32Z</time>
      </trkpt>
      <trkpt lat="47.06082" lon="9.49071">
        <ele>477</ele>
        <time>2017-10-26T20:50:32Z</time>
      </trkpt>
      <trkpt lat="47.06084" lon="9.49077">
        <ele>477</ele>
        <time>2017-10-26T20:52:32Z</time>
      </trkpt>
      <trkpt lat="47.06085" lon="9.49084">
        <ele>477</ele>
        <time>2017-10-26T20:54:32Z</time>
      </trkpt>
      <trkpt lat="47.06086" lon="9.49091">
        <ele>477</ele>
        <time>2017-10-26T20:56:32Z</time>
      </trkpt>
      <trkpt lat="47.06086" lon="9.49104">
        <ele>477</ele>
        <time>2017-10-26T20:58:32Z</time>
      </trkpt>
      <trkpt lat="47.06085" lon="9.49118">
        <ele>477</ele>
        <time>2017-10-26T21:00:32Z</time>
      </trkpt>
      <trkpt lat="47.06083" lon="9.49198">
        <ele>477</ele>
        <time>2017-10-26T21:02:32Z</time>
      </trkpt>
      <trkpt lat="47.06083" lon="9.49213">
        <ele>476</ele>
        <time>2017-10-26T21:04:32Z</time>
      </trkpt>
      <trkpt lat="47.06082" lon="9.49224">
        <ele>476</ele>
        <time>2017-10-26T21:06:32Z</time>
      </trkpt>
      <trkpt lat="47.06082" lon="9.49244">
        <ele>476</ele>
        <time>2017-10-26T21:08:32Z</time>
      </trkpt>
      <trkpt lat="47.06078" lon="9.49367">
        <ele>477</ele>
        <time>2017-10-26T21:10:32Z</time>
      </trkpt>
      <trkpt lat="47.06078" lon="9.49379">
        <ele>477</ele>
        <time>2017-10-26T21:12:32Z</time>
      </trkpt>
      <trkpt lat="47.06078" lon="9.49379">
        <ele>477</ele>
        <time>2017-10-26T21:14:32Z</time>
      </trkpt>
      <trkpt lat="47.06076" lon="9.49474">
        <ele>477</ele>
        <time>2017-10-26T21:16:32Z</time>
      </trkpt>
      <trkpt lat="47.06076" lon="9.49487">
        <ele>477</ele>
        <time>2017-10-26T21:18:32Z</time>
      </trkpt>
      <trkpt lat="47.06077" lon="9.49498">
        <ele>477</ele>
        <time>2017-10-26T21:20:32Z</time>
      </trkpt>
      <trkpt lat="47.06077" lon="9.49504">
        <ele>477</ele>
        <time>2017-10-26T21:22:32Z</time>
      </trkpt>
      <trkpt lat="47.06078" lon="9.4951">
        <ele>477</ele>
        <time>2017-10-26T21:24:32Z</time>
      </trkpt>
      <trkpt lat="47.0608" lon="9.49517">
        <ele>477</ele>
        <time>2017-10-26T21:26:32Z</time>
      </trkpt>
      <trkpt lat="47.06082" lon="9.49525">
        <ele>477</ele>
        <time>2017-10-26T21:28:32Z</time>
      </trkpt>
      <trkpt lat="47.06089" lon="9.49548">
        <ele>477</ele>
        <time>2017-10-26T21:30:32Z</time>
      </trkpt>
      <trkpt lat="47.06099" lon="9.49581">
        <ele>477</ele>
        <time>2017-10-26T21:32:32Z</time>
      </trkpt>
      <trkpt lat="47.06099" lon="9.49581">
        <ele>477</ele>
        <time>2017-10-26T21:34:32Z</time>
      </trkpt>
      <trkpt lat="47.06097" lon="9.49584">
        <ele>477</ele>
        <time>2017-10-26T21:36:32Z</time>
      </trkpt>
      <trkpt lat="47.06095" lon="9.49587">
        <ele>477</ele>
        <time>2017-10-26T21:38:32Z</time>
      </trkpt>
      <trkpt lat="47.06093" lon="9.49592">
        <ele>477</ele>
        <time>2017-10-26T21:40:32Z</time>
      </trkpt>
      <trkpt lat="47.06092" lon="9.49596">
        <ele>477</ele>
        <time>2017-10-26T21:42:32Z</time>
      </trkpt>
      <trkpt lat="47.06091" lon="9.49601">
        <ele>477</ele>
        <time>2017-10-26T21:44:32Z</time>
      </trkpt>
      <trkpt lat="47.0609" lon="9.49606">
        <ele>477</ele>
        <time>2017-10-26T21:46:32Z</time>
      </trkpt>
      <trkpt lat="47.0609" lon="9.49606">
        <ele>477</ele>
        <time>2017-10-26T21:48:32Z</time>
      </trkpt>
      <trkpt lat="47.06087" lon="9.49605">
        <ele>477</ele>
        <time>2017-10-26T21:50:32Z</time>
      </trkpt>
      <trkpt lat="47.06083" lon="9.49605">
        <ele>477</ele>
        <time>2017-10-26T21:52:32Z</time>
      </trkpt>
      <trkpt lat="47.06079" lon="9.49607">
        <ele>477</ele>
        <time>2017-10-26T21:54:32Z</time>
      </trkpt>
      <trkpt lat="47.06076" lon="9.49609">
        <ele>478</ele>
        <time>2017-10-26T21:56:32Z</time>
      </trkpt>
      <trkpt lat="47.06072" lon="9.49613">
        <ele>478</ele>
        <time>2017-10-26T21:58:32Z</time>
      </trkpt>
      <trkpt lat="47.06066" lon="9.4962">
        <ele>479</ele>
        <time>2017-10-26T22:00:32Z</time>
      </trkpt>
      <trkpt lat="47.0606" lon="9.49628">
        <ele>479</ele>
        <time>2017-10-26T22:02:32Z</time>
      </trkpt>
      <trkpt lat="47.0605" lon="9.49643">
        <ele>480</ele>
        <time>2017-10-26T22:04:32Z</time>
      </trkpt>
      <trkpt lat="47.06042" lon="9.49662">
        <ele>480</ele>
        <time>2017-10-26T22:06:32Z</time>
      </trkpt>
      <trkpt lat="47.0604" lon="9.49669">
        <ele>480</ele>
        <time>2017-10-26T22:08:32Z</time>
      </trkpt>
      <trkpt lat="47.06039" lon="9.49675">
        <ele>480</ele>
        <time>2017-10-26T22:10:32Z</time>
      </trkpt>
      <trkpt lat="47.06028" lon="9.4968">
        <ele>481</ele>
        <time>2017-10-26T22:12:32Z</time>
      </trkpt>
      <trkpt lat="47.06021" lon="9.49684">
        <ele>481</ele>
        <time>2017-10-26T22:14:32Z</time>
      </trkpt>
      <trkpt lat="47.06017" lon="9.49688">
        <ele>481</ele>
        <time>2017-10-26T22:16:32Z</time>
      </trkpt>
      <trkpt lat="47.06013" lon="9.49693">
        <ele>482</ele>
        <time>2017-10-26T22:18:32Z</time>
      </trkpt>
      <trkpt lat="47.0601" lon="9.49698">
        <ele>482</ele>
        <time>2017-10-26T22:20:32Z</time>
      </trkpt>
      <trkpt lat="47.06007" lon="9.49703">
        <ele>482</ele>
        <time>2017-10-26T22:22:32Z</time>
      </trkpt>
      <trkpt lat="47.06004" lon="9.49709">
        <ele>482</ele>
        <time>2017-10-26T22:24:32Z</time>
      </trkpt>
      <trkpt lat="47.06002" lon="9.49716">
        <ele>482</ele>
        <time>2017-10-26T22:26:32Z</time>
      </trkpt>
      <trkpt lat="47.06001" lon="9.49724">
        <ele>482</ele>
        <time>2017-10-26T22:28:32Z</time>
      </trkpt>
      <trkpt lat="47.05998" lon="9.49752">
        <ele>481</ele>
        <time>2017-10-26T22:30:32Z</time>
      </trkpt>
      <trkpt lat="47.05996" lon="9.49766">
        <ele>481</ele>
        <time>2017-10-26T22:32:32Z</time>
      </trkpt>
      <trkpt lat="47.05993" lon="9.49791">
        <ele>481</ele>
        <time>2017-10-26T22:34:32Z</time>
      </trkpt>
      <trkpt lat="47.0599" lon="9.49809">
        <ele>481</ele>
        <time>2017-10-26T22:36:32Z</time>
      </trkpt>
      <trkpt lat="47.05987" lon="9.49827">
        <ele>481</ele>
        <time>2017-10-26T22:38:32Z</time>
      </trkpt>
      <trkpt lat="47.05985" lon="9.49831">
        <ele>481</ele>
        <time>2017-10-26T22:40:32Z</time>
      </trkpt>
      <trkpt lat="47.05982" lon="9.49837">
        <ele>481</ele>
        <time>2017-10-26T22:42:32Z</time>
      </trkpt>
      <trkpt lat="47.05976" lon="9.49846">
        <ele>482</ele>
        <time>2017-10-26T22:44:32Z</time>
      </trkpt>
      <trkpt lat="47.0597" lon="9.49858">
        <ele>482</ele>
        <time>2017-10-26T22:46:32Z</time>
      </trkpt>
      <trkpt lat="47.05961" lon="9.49877">
        <ele>483</ele>
        <time>2017-10-26T22:48:32Z</time>
      </trkpt>
      <trkpt lat="47.05961" lon="9.49877">
        <ele>483</ele>
        <time>2017-10-26T22:50:32Z</time>
      </trkpt>
      <trkpt lat="47.05954" lon="9.4989">
        <ele>483</ele>
        <time>2017-10-26T22:52:32Z</time>
      </trkpt>
      <trkpt lat="47.0595" lon="9.49896">
        <ele>483</ele>
        <time>2017-10-26T22:54:32Z</time>
      </trkpt>
      <trkpt lat="47.05944" lon="9.49902">
        <ele>484</ele>
        <time>2017-10-26T22:56:32Z</time>
      </trkpt>
      <trkpt lat="47.05939" lon="9.49905">
        <ele>484</ele>
        <time>2017-10-26T22:58:32Z</time>
      </trkpt>
      <trkpt lat="47.05932" lon="9.49909">
        <ele>484</ele>
        <time>2017-10-26T23:00:32Z</time>
      </trkpt>
      <trkpt lat="47.05928" lon="9.4991">
        <ele>484</ele>
        <time>2017-10-26T23:02:32Z</time>
      </trkpt>
      <trkpt lat="47.05924" lon="9.49911">
        <ele>485</ele>
        <time>2017-10-26T23:04:32Z</time>
      </trkpt>
      <trkpt lat="47.05912" lon="9.49912">
        <ele>485</ele>
        <time>2017-10-26T23:06:32Z</time>
      </trkpt>
      <trkpt lat="47.05899" lon="9.49912">
        <ele>486</ele>
        <time>2017-10-26T23:08:32Z</time>
      </trkpt>
      <trkpt lat="47.05886" lon="9.49912">
        <ele>486</ele>
        <time>2017-10-26T23:10:32Z</time>
      </trkpt>
      <trkpt lat="47.05858" lon="9.49908">
        <ele>487</ele>
        <time>2017-10-26T23:12:32Z</time>
      </trkpt>
      <trkpt lat="47.05823" lon="9.49905">
        <ele>488</ele>
        <time>2017-10-26T23:14:32Z</time>
      </trkpt>
      <trkpt lat="47.0579" lon="9.49905">
        <ele>489</ele>
        <time>2017-10-26T23:16:32Z</time>
      </trkpt>
      <trkpt lat="47.05773" lon="9.49912">
        <ele>489</ele>
        <time>2017-10-26T23:18:32Z</time>
      </trkpt>
      <trkpt lat="47.0576" lon="9.49919">
        <ele>488</ele>
        <time>2017-10-26T23:20:32Z</time>
      </trkpt>
      <trkpt lat="47.0575" lon="9.4993">
        <ele>487</ele>
        <time>2017-10-26T23:22:32Z</time>
      </trkpt>
      <trkpt lat="47.0573" lon="9.49957">
        <ele>490</ele>
        <time>2017-10-26T23:24:32Z</time>
      </trkpt>
      <trkpt lat="47.0573" lon="9.49957">
        <ele>490</ele>
        <time>2017-10-26T23:26:32Z</time>
      </trkpt>
      <trkpt lat="47.05696" lon="9.50029">
        <ele>496</ele>
        <time>2017-10-26T23:28:32Z</time>
      </trkpt>
      <trkpt lat="47.05696" lon="9.50029">
        <ele>496</ele>
        <time>2017-10-26T23:30:32Z</time>
      </trkpt>
      <trkpt lat="47.05688" lon="9.50084">
        <ele>495</ele>
        <time>2017-10-26T23:32:32Z</time>
      </trkpt>
      <trkpt lat="47.05673" lon="9.50174">
        <ele>496</ele>
        <time>2017-10-26T23:34:32Z</time>
      </trkpt>
      <trkpt lat="47.05635" lon="9.50255">
        <ele>507</ele>
        <time>2017-10-26T23:36:32Z</time>
      </trkpt>
      <trkpt lat="47.05611" lon="9.50286">
        <ele>512</ele>
        <time>2017-10-26T23:38:32Z</time>
      </trkpt>
      <trkpt lat="47.05611" lon="9.50286">
        <ele>512</ele>
        <time>2017-10-26T23:40:32Z</time>
      </trkpt>
      <trkpt lat="47.05604" lon="9.50295">
        <ele>512</ele>
        <time>2017-10-26T23:42:32Z</time>
      </trkpt>
      <trkpt lat="47.05567" lon="9.50349">
        <ele>509</ele>
        <time>2017-10-26T23:44:32Z</time>
      </trkpt>
      <trkpt lat="47.05527" lon="9.50405">
        <ele>512</ele>
        <time>2017-10-26T23:46:32Z</time>
      </trkpt>
      <trkpt lat="47.05447" lon="9.50478">
        <ele>510</ele>
        <time>2017-10-26T23:48:32Z</time>
      </trkpt>
      <trkpt lat="47.05428" lon="9.50493">
        <ele>509</ele>
        <time>2017-10-26T23:50:32Z</time>
      </trkpt>
      <trkpt lat="47.05405" lon="9.50525">
        <ele>505</ele>
        <time>2017-10-26T23:52:32Z</time>
      </trkpt>
      <trkpt lat="47.05403" lon="9.50532">
        <ele>504</ele>
        <time>2017-10-26T23:54:32Z</time>
      </trkpt>
      <trkpt lat="47.05397" lon="9.50538">
        <ele>503</ele>
        <time>2017-10-26T23:56:32Z</time>
      </trkpt>
      <trkpt lat="47.0537" lon="9.50551">
        <ele>504</ele>
        <time>2017-10-26T23:58:32Z</time>
      </trkpt>
      <trkpt lat="47.05329" lon="9.50569">
        <ele>505</ele>
        <time>2017-10-27T00:00:32Z</time>
      </trkpt>
      <trkpt lat="47.05299" lon="9.50582">
        <ele>503</ele>
        <time>2017-10-27T00:02:32Z</time>
      </trkpt>
      <trkpt lat="47.05281" lon="9.50589">
        <ele>504</ele>
        <time>2017-10-27T00:04:32Z</time>
      </trkpt>
      <trkpt lat="47.05266" lon="9.50589">
        <ele>504</ele>
        <time>2017-10-27T00:06:32Z</time>
      </trkpt>
      <trkpt lat="47.05245" lon="9.50581">
        <ele>508</ele>
        <time>2017-10-27T00:08:32Z</time>
      </trkpt>
      <trkpt lat="47.05227" lon="9.50577">
        <ele>513</ele>
        <time>2017-10-27T00:10:32Z</time>
      </trkpt>
      <trkpt lat="47.05217" lon="9.50578">
        <ele>515</ele>
        <time>2017-10-27T00:12:32Z</time>
      </trkpt>
      <trkpt lat="47.05199" lon="9.50588">
        <ele>517</ele>
        <time>2017-10-27T00:14:32Z</time>
      </trkpt>
      <trkpt lat="47.05175" lon="9.50609">
        <ele>517</ele>
        <time>2017-10-27T00:16:32Z</time>
      </trkpt>
      <trkpt lat="47.05162" lon="9.50619">
        <ele>517</ele>
        <time>2017-10-27T00:18:32Z</time>
      </trkpt>
      <trkpt lat="47.0515" lon="9.50624">
        <ele>519</ele>
        <time>2017-10-27T00:20:32Z</time>
      </trkpt>
      <trkpt lat="47.05142" lon="9.50625">
        <ele>521</ele>
        <time>2017-10-27T00:22:32Z</time>
      </trkpt>
      <trkpt lat="47.05136" lon="9.50627">
        <ele>521</ele>
        <time>2017-10-27T00:24:32Z</time>
      </trkpt>
      <trkpt lat="47.0513" lon="9.50627">
        <ele>523</ele>
        <time>2017-10-27T00:26:32Z</time>
      </trkpt>
      <trkpt lat="47.05122" lon="9.50627">
        <ele>525</ele>
        <time>2017-10-27T00:28:32Z</time>
      </trkpt>
      <trkpt lat="47.05108" lon="9.50634">
        <ele>525</ele>
        <time>2017-10-27T00:30:32Z</time>
      </trkpt>
      <trkpt lat="47.05096" lon="9.50642">
        <ele>525</ele>
        <time>2017-10-27T00:32:32Z</time>
      </trkpt>
      <trkpt lat="47.05086" lon="9.50654">
        <ele>521</ele>
        <time>2017-10-27T00:34:32Z</time>
      </trkpt>
      <trkpt lat="47.05077" lon="9.50667">
        <ele>519</ele>
        <time>2017-10-27T00:36:32Z</time>
      </trkpt>
      <trkpt lat="47.05062" lon="9.50685">
        <ele>522</ele>
        <time>2017-10-27T00:38:32Z</time>
      </trkpt>
      <trkpt lat="47.05049" lon="9.50695">
        <ele>525</ele>
        <time>2017-10-27T00:40:32Z</time>
      </trkpt>
      <trkpt lat="47.05031" lon="9.50713">
        <ele>528</ele>
        <time>2017-10-27T00:42:32Z</time>
      </trkpt>
      <trkpt lat="47.04999" lon="9.50742">
        <ele>530</ele>
        <time>2017-10-27T00:44:32Z</time>
      </trkpt>
      <trkpt lat="47.04982" lon="9.50762">
        <ele>533</ele>
        <time>2017-10-27T00:46:32Z</time>
      </trkpt>
      <trkpt lat="47.04966" lon="9.50793">
        <ele>534</ele>
        <time>2017-10-27T00:48:32Z</time>
      </trkpt>
      <trkpt lat="47.04956" lon="9.50818">
        <ele>532</ele>
        <time>2017-10-27T00:50:32Z</time>
      </trkpt>
      <trkpt lat="47.04942" lon="9.50837">
        <ele>534</ele>
        <time>2017-10-27T00:52:32Z</time>
      </trkpt>
      <trkpt lat="47.04921" lon="9.50864">
        <ele>534</ele>
        <time>2017-10-27T00:54:32Z</time>
      </trkpt>
      <trkpt lat="47.04899" lon="9.50888">
        <ele>542</ele>
        <time>2017-10-27T00:56:32Z</time>
      </trkpt>
      <trkpt lat="47.04883" lon="9.50915">
        <ele>546</ele>
        <time>2017-10-27T00:58:32Z</time>
      </trkpt>
      <trkpt lat="47.04874" lon="9.5094">
        <ele>549</ele>
        <time>2017-10-27T01:00:32Z</time>
      </trkpt>
      <trkpt lat="47.04869" lon="9.50965">
        <ele>549</ele>
        <time>2017-10-27T01:02:32Z</time>
      </trkpt>
      <trkpt lat="47.04861" lon="9.51007">
        <ele>547</ele>
        <time>2017-10-27T01:04:32Z</time>
      </trkpt>
      <trkpt lat="47.04844" lon="9.51061">
        <ele>547</ele>
        <time>2017-10-27T01:06:32Z</time>
      </trkpt>
      <trkpt lat="47.04838" lon="9.51074">
        <ele>546</ele>
        <time>2017-10-27T01:08:32Z</time>
      </trkpt>
      <trkpt lat="47.04831" lon="9.51086">
        <ele>547</ele>
        <time>2017-10-27T01:10:32Z</time>
      </trkpt>
      <trkpt lat="47.0481" lon="9.51114">
        <ele>555</ele>
        <time>2017-10-27T01:12:32Z</time>
      </trkpt>
      <trkpt lat="47.04792" lon="9.51135">
        <ele>560</ele>
        <time>2017-10-27T01:14:32Z</time>
      </trkpt>
      <trkpt lat="47.04782" lon="9.51153">
        <ele>561</ele>
        <time>2017-10-27T01:16:32Z</time>
      </trkpt>
      <trkpt lat="47.04771" lon="9.512">
        <ele>557</ele>
        <time>2017-10-27T01:18:32Z</time>
      </trkpt>
      <trkpt lat="47.04762" lon="9.51239">
        <ele>553</ele>
        <time>2017-10-27T01:20:32Z</time>
      </trkpt>
      <trkpt lat="47.04746" lon="9.51309">
        <ele>555</ele>
        <time>2017-10-27T01:22:32Z</time>
      </trkpt>
      <trkpt lat="47.04742" lon="9.51335">
        <ele>557</ele>
        <time>2017-10-27T01:24:32Z</time>
      </trkpt>
      <trkpt lat="47.04724" lon="9.51382">
        <ele>564</ele>
        <time>2017-10-27T01:26:32Z</time>
      </trkpt>
      <trkpt lat="47.04702" lon="9.51407">
        <ele>571</ele>
        <time>2017-10-27T01:28:32Z</time>
      </trkpt>
      <trkpt lat="47.04676" lon="9.51425">
        <ele>578</ele>
        <time>2017-10-27T01:30:32Z</time>
      </trkpt>
      <trkpt lat="47.04643" lon="9.51444">
        <ele>581</ele>
        <time>2017-10-27T01:32:32Z</time>
      </trkpt>
      <trkpt lat="47.04586" lon="9.51464">
        <ele>584</ele>
        <time>2017-10-27T01:34:32Z</time>
      </trkpt>
      <trkpt lat="47.04546" lon="9.51479">
        <ele>583</ele>
        <time>2017-10-27T01:36:32Z</time>
      </trkpt>
      <trkpt lat="47.04522" lon="9.5148">
        <ele>585</ele>
        <time>2017-10-27T01:38:32Z</time>
      </trkpt>
      <trkpt lat="47.04502" lon="9.51474">
        <ele>588</ele>
        <time>2017-10-27T01:40:32Z</time>
      </trkpt>
      <trkpt lat="47.04489" lon="9.51475">
        <ele>590</ele>
        <time>2017-10-27T01:42:32Z</time>
      </trkpt>
      <trkpt lat="47.0447" lon="9.51476">
        <ele>593</ele>
        <time>2017-10-27T01:44:32Z</time>
      </trkpt>
      <trkpt lat="47.04461" lon="9.51477">
        <ele>594</ele>
        <time>2017-10-27T01:46:32Z</time>
      </trkpt>
      <trkpt lat="47.04456" lon="9.5148">
        <ele>594</ele>
        <time>2017-10-27T01:48:32Z</time>
      </trkpt>
      <trkpt lat="47.04451" lon="9.51486">
        <ele>594</ele>
        <time>2017-10-27T01:50:32Z</time>
      </trkpt>
      <trkpt lat="47.0444" lon="9.51503">
        <ele>592</ele>
        <time>2017-10-27T01:52:32Z</time>
      </trkpt>
      <trkpt lat="47.04424" lon="9.51538">
        <ele>592</ele>
        <time>2017-10-27T01:54:32Z</time>
      </trkpt>
      <trkpt lat="47.04412" lon="9.51567">
        <ele>591</ele>
        <time>2017-10-27T01:56:32Z</time>
      </trkpt>
      <trkpt lat="47.04402" lon="9.51589">
        <ele>592</ele>
        <time>2017-10-27T01:58:32Z</time>
      </trkpt>
      <trkpt lat="47.04394" lon="9.51612">
        <ele>593</ele>
        <time>2017-10-27T02:00:32Z</time>
      </trkpt>
      <trkpt lat="47.04393" lon="9.51618">
        <ele>593</ele>
        <time>2017-10-27T02:02:32Z</time>
      </trkpt>
      <trkpt lat="47.04392" lon="9.51625">
        <ele>593</ele>
        <time>2017-10-27T02:04:32Z</time>
      </trkpt>
      <trkpt lat="47.04392" lon="9.51632">
        <ele>593</ele>
        <time>2017-10-27T02:06:32Z</time>
      </trkpt>
      <trkpt lat="47.04392" lon="9.51638">
        <ele>593</ele>
        <time>2017-10-27T02:08:32Z</time>
      </trkpt>
      <trkpt lat="47.04392" lon="9.51643">
        <ele>593</ele>
        <time>2017-10-27T02:10:32Z</time>
      </trkpt>
      <trkpt lat="47.04395" lon="9.51651">
        <ele>592</ele>
        <time>2017-10-27T02:12:32Z</time>
      </trkpt>
      <trkpt lat="47.04415" lon="9.51696">
        <ele>587</ele>
        <time>2017-10-27T02:14:32Z</time>
      </trkpt>
      <trkpt lat="47.04417" lon="9.51704">
        <ele>587</ele>
        <time>2017-10-27T02:16:32Z</time>
      </trkpt>
      <trkpt lat="47.04422" lon="9.5171">
        <ele>586</ele>
        <time>2017-10-27T02:18:32Z</time>
      </trkpt>
      <trkpt lat="47.04427" lon="9.5172">
        <ele>586</ele>
        <time>2017-10-27T02:20:32Z</time>
      </trkpt>
      <trkpt lat="47.0445" lon="9.51775">
        <ele>587</ele>
        <time>2017-10-27T02:22:32Z</time>
      </trkpt>
      <trkpt lat="47.04456" lon="9.51792">
        <ele>588</ele>
        <time>2017-10-27T02:24:32Z</time>
      </trkpt>
      <trkpt lat="47.04462" lon="9.51806">
        <ele>589</ele>
        <time>2017-10-27T02:26:32Z</time>
      </trkpt>
      <trkpt lat="47.04469" lon="9.51816">
        <ele>589</ele>
        <time>2017-10-27T02:28:32Z</time>
      </trkpt>
      <trkpt lat="47.0448" lon="9.51827">
        <ele>590</ele>
        <time>2017-10-27T02:30:32Z</time>
      </trkpt>
      <trkpt lat="47.04502" lon="9.51841">
        <ele>591</ele>
        <time>2017-10-27T02:32:32Z</time>
      </trkpt>
      <trkpt lat="47.04502" lon="9.51841">
        <ele>591</ele>
        <time>2017-10-27T02:34:32Z</time>
      </trkpt>
      <trkpt lat="47.04466" lon="9.5188">
        <ele>599</ele>
        <time>2017-10-27T02:36:32Z</time>
      </trkpt>
      <trkpt lat="47.04422" lon="9.51926">
        <ele>607</ele>
        <time>2017-10-27T02:38:32Z</time>
      </trkpt>
      <trkpt lat="47.04383" lon="9.51964">
        <ele>617</ele>
        <time>2017-10-27T02:40:32Z</time>
      </trkpt>
      <trkpt lat="47.04373" lon="9.51973">
        <ele>619</ele>
        <time>2017-10-27T02:42:32Z</time>
      </trkpt>
      <trkpt lat="47.04341" lon="9.51987">
        <ele>624</ele>
        <time>2017-10-27T02:44:32Z</time>
      </trkpt>
      <trkpt lat="47.0427" lon="9.52014">
        <ele>629</ele>
        <time>2017-10-27T02:46:32Z</time>
      </trkpt>
      <trkpt lat="47.04166" lon="9.52056">
        <ele>636</ele>
        <time>2017-10-27T02:48:32Z</time>
      </trkpt>
      <trkpt lat="47.0414" lon="9.52067">
        <ele>638</ele>
        <time>2017-10-27T02:50:32Z</time>
      </trkpt>
      <trkpt lat="47.04124" lon="9.52071">
        <ele>638</ele>
        <time>2017-10-27T02:52:32Z</time>
      </trkpt>
      <trkpt lat="47.04115" lon="9.52073">
        <ele>639</ele>
        <time>2017-10-27T02:54:32Z</time>
      </trkpt>
      <trkpt lat="47.04112" lon="9.52076">
        <ele>639</ele>
        <time>2017-10-27T02:56:32Z</time>
      </trkpt>
      <trkpt lat="47.04099" lon="9.52095">
        <ele>641</ele>
        <time>2017-10-27T02:58:32Z</time>
      </trkpt>
      <trkpt lat="47.04063" lon="9.5215">
        <ele>645</ele>
        <time>2017-10-27T03:00:32Z</time>
      </trkpt>
      <trkpt lat="47.04053" lon="9.52162">
        <ele>645</ele>
        <time>2017-10-27T03:02:32Z</time>
      </trkpt>
      <trkpt lat="47.04053" lon="9.52162">
        <ele>645</ele>
        <time>2017-10-27T03:04:32Z</time>
      </trkpt>
      <trkpt lat="47.04054" lon="9.52164">
        <ele>645</ele>
        <time>2017-10-27T03:06:32Z</time>
      </trkpt>
      <trkpt lat="47.04058" lon="9.52169">
        <ele>646</ele>
        <time>2017-10-27T03:08:32Z</time>
      </trkpt>
      <trkpt lat="47.04086" lon="9.52202">
        <ele>653</ele>
        <time>2017-10-27T03:10:32Z</time>
      </trkpt>
      <trkpt lat="47.04086" lon="9.52202">
        <ele>653</ele>
        <time>2017-10-27T03:12:32Z</time>
      </trkpt>
      <trkpt lat="47.04064" lon="9.52239">
        <ele>656</ele>
        <time>2017-10-27T03:14:32Z</time>
      </trkpt>
      <trkpt lat="47.04055" lon="9.52255">
        <ele>657</ele>
        <time>2017-10-27T03:16:32Z</time>
      </trkpt>
      <trkpt lat="47.04044" lon="9.52271">
        <ele>659</ele>
        <time>2017-10-27T03:18:32Z</time>
      </trkpt>
      <trkpt lat="47.04035" lon="9.52285">
        <ele>660</ele>
        <time>2017-10-27T03:20:32Z</time>
      </trkpt>
      <trkpt lat="47.04029" lon="9.52293">
        <ele>661</ele>
        <time>2017-10-27T03:22:32Z</time>
      </trkpt>
      <trkpt lat="47.0402" lon="9.52305">
        <ele>663</ele>
        <time>2017-10-27T03:24:32Z</time>
      </trkpt>
      <trkpt lat="47.04009" lon="9.52319">
        <ele>664</ele>
        <time>2017-10-27T03:26:32Z</time>
      </trkpt>
      <trkpt lat="47.03997" lon="9.52333">
        <ele>666</ele>
        <time>2017-10-27T03:28:32Z</time>
      </trkpt>
      <trkpt lat="47.03985" lon="9.52348">
        <ele>667</ele>
        <time>2017-10-27T03:30:32Z</time>
      </trkpt>
      <trkpt lat="47.03981" lon="9.52354">
        <ele>668</ele>
        <time>2017-10-27T03:32:32Z</time>
      </trkpt>
      <trkpt lat="47.03975" lon="9.52364">
        <ele>668</ele>
        <time>2017-10-27T03:34:32Z</time>
      </trkpt>
      <trkpt lat="47.03966" lon="9.52376">
        <ele>669</ele>
        <time>2017-10-27T03:36:32Z</time>
      </trkpt>
      <trkpt lat="47.03957" lon="9.52396">
        <ele>670</ele>
        <time>2017-10-27T03:38:32Z</time>
      </trkpt>
      <trkpt lat="47.03951" lon="9.52419">
        <ele>670</ele>
        <time>2017-10-27T03:40:32Z</time>
      </trkpt>
      <trkpt lat="47.03941" lon="9.52461">
        <ele>672</ele>
        <time>2017-10-27T03:42:32Z</time>
      </trkpt>
      <trkpt lat="47.03927" lon="9.52526">
        <ele>674</ele>
        <time>2017-10-27T03:44:32Z</time>
      </trkpt>
      <trkpt lat="47.03918" lon="9.52567">
        <ele>675</ele>
        <time>2017-10-27T03:46:32Z</time>
      </trkpt>
      <trkpt lat="47.03906" lon="9.52601">
        <ele>677</ele>
        <time>2017-10-27T03:48:32Z</time>
      </trkpt>
      <trkpt lat="47.03898" lon="9.52619">
        <ele>678</ele>
        <time>2017-10-27T03:50:32Z</time>
      </trkpt>
      <trkpt lat="47.03883" lon="9.52646">
        <ele>680</ele>
        <time>2017-10-27T03:52:32Z</time>
      </trkpt>
      <trkpt lat="47.03839" lon="9.52712">
        <ele>684</ele>
        <time>2017-10-27T03:54:32Z</time>
      </trkpt>
      <trkpt lat="47.03818" lon="9.52746">
        <ele>688</ele>
        <time>2017-10-27T03:56:32Z</time>
      </trkpt>
      <trkpt lat="47.03811" lon="9.5276">
        <ele>689</ele>
        <time>2017-10-27T03:58:32Z</time>
      </trkpt>
      <trkpt lat="47.03808" lon="9.52764">
        <ele>690</ele>
        <time>2017-10-27T04:00:32Z</time>
      </trkpt>
      <trkpt lat="47.03806" lon="9.52767">
        <ele>690</ele>
        <time>2017-10-27T04:02:32Z</time>
      </trkpt>
      <trkpt lat="47.03804" lon="9.52769">
        <ele>691</ele>
        <time>2017-10-27T04:04:32Z</time>
      </trkpt>
      <trkpt lat="47.03801" lon="9.5277">
        <ele>691</ele>
        <time>2017-10-27T04:06:32Z</time>
      </trkpt>
      <trkpt lat="47.03799" lon="9.52771">
        <ele>691</ele>
        <time>2017-10-27T04:08:32Z</time>
      </trkpt>
      <trkpt lat="47.03796" lon="9.5277">
        <ele>691</ele>
        <time>2017-10-27T04:10:32Z</time>
      </trkpt>
      <trkpt lat="47.03793" lon="9.52769">
        <ele>691</ele>
        <time>2017-10-27T04:12:32Z</time>
      </trkpt>
      <trkpt lat="47.0379" lon="9.52765">
        <ele>691</ele>
        <time>2017-10-27T04:14:32Z</time>
      </trkpt>
      <trkpt lat="47.03784" lon="9.52758">
        <ele>691</ele>
        <time>2017-10-27T04:16:32Z</time>
      </trkpt>
      <trkpt lat="47.03781" lon="9.52754">
        <ele>691</ele>
        <time>2017-10-27T04:18:32Z</time>
      </trkpt>
      <trkpt lat="47.03778" lon="9.52752">
        <ele>691</ele>
        <time>2017-10-27T04:20:32Z</time>
      </trkpt>
      <trkpt lat="47.03775" lon="9.5275">
        <ele>691</ele>
        <time>2017-10-27T04:22:32Z</time>
      </trkpt>
      <trkpt lat="47.0377" lon="9.52748">
        <ele>691</ele>
        <time>2017-10-27T04:24:32Z</time>
      </trkpt>
      <trkpt lat="47.03766" lon="9.52746">
        <ele>692</ele>
        <time>2017-10-27T04:26:32Z</time>
      </trkpt>
      <trkpt lat="47.0376" lon="9.52745">
        <ele>692</ele>
        <time>2017-10-27T04:28:32Z</time>
      </trkpt>
      <trkpt lat="47.03751" lon="9.52744">
        <ele>692</ele>
        <time>2017-10-27T04:30:32Z</time>
      </trkpt>
      <trkpt lat="47.03733" lon="9.52742">
        <ele>694</ele>
        <time>2017-10-27T04:32:32Z</time>
      </trkpt>
      <trkpt lat="47.03694" lon="9.5274">
        <ele>696</ele>
        <time>2017-10-27T04:34:32Z</time>
      </trkpt>
      <trkpt lat="47.03668" lon="9.52738">
        <ele>698</ele>
        <time>2017-10-27T04:36:32Z</time>
      </trkpt>
      <trkpt lat="47.03609" lon="9.52731">
        <ele>701</ele>
        <time>2017-10-27T04:38:32Z</time>
      </trkpt>
      <trkpt lat="47.03593" lon="9.52728">
        <ele>702</ele>
        <time>2017-10-27T04:40:32Z</time>
      </trkpt>
      <trkpt lat="47.03583" lon="9.52727">
        <ele>703</ele>
        <time>2017-10-27T04:42:32Z</time>
      </trkpt>
      <trkpt lat="47.03583" lon="9.52725">
        <ele>703</ele>
        <time>2017-10-27T04:44:32Z</time>
      </trkpt>
      <trkpt lat="47.03583" lon="9.52724">
        <ele>703</ele>
        <time>2017-10-27T04:46:32Z</time>
      </trkpt>
      <trkpt lat="47.03583" lon="9.52723">
        <ele>703</ele>
        <time>2017-10-27T04:48:32Z</time>
      </trkpt>
      <trkpt lat="47.03583" lon="9.52722">
        <ele>703</ele>
        <time>2017-10-27T04:50:32Z</time>
      </trkpt>
      <trkpt lat="47.03582" lon="9.52721">
        <ele>703</ele>
        <time>2017-10-27T04:52:32Z</time>
      </trkpt>
      <trkpt lat="47.03582" lon="9.5272">
        <ele>703</ele>
        <time>2017-10-27T04:54:32Z</time>
      </trkpt>
      <trkpt lat="47.03582" lon="9.52719">
        <ele>703</ele>
        <time>2017-10-27T04:56:32Z</time>
      </trkpt>
      <trkpt lat="47.03582" lon="9.52718">
        <ele>703</ele>
        <time>2017-10-27T04:58:32Z</time>
      </trkpt>
      <trkpt lat="47.03581" lon="9.52717">
        <ele>703</ele>
        <time>2017-10-27T05:00:32Z</time>
      </trkpt>
      <trkpt lat="47.03581" lon="9.52716">
        <ele>703</ele>
        <time>2017-10-27T05:02:32Z</time>
      </trkpt>
      <trkpt lat="47.03581" lon="9.52715">
        <ele>703</ele>
        <time>2017-10-27T05:04:32Z</time>
      </trkpt>
      <trkpt lat="47.0358" lon="9.52715">
        <ele>703</ele>
        <time>2017-10-27T05:06:32Z</time>
      </trkpt>
      <trkpt lat="47.0358" lon="9.52714">
        <ele>703</ele>
        <time>2017-10-27T05:08:32Z</time>
      </trkpt>
      <trkpt lat="47.03579" lon="9.52713">
        <ele>703</ele>
        <time>2017-10-27T05:10:32Z</time>
      </trkpt>
      <trkpt lat="47.03578" lon="9.52712">
        <ele>703</ele>
        <time>2017-10-27T05:12:32Z</time>
      </trkpt>
      <trkpt lat="47.03577" lon="9.52711">
        <ele>703</ele>
        <time>2017-10-27T05:14:32Z</time>
      </trkpt>
      <trkpt lat="47.03576" lon="9.5271">
        <ele>703</ele>
        <time>2017-10-27T05:16:32Z</time>
      </trkpt>
      <trkpt lat="47.03575" lon="9.5271">
        <ele>703</ele>
        <time>2017-10-27T05:18:32Z</time>
      </trkpt>
      <trkpt lat="47.03574" lon="9.52709">
        <ele>703</ele>
        <time>2017-10-27T05:20:32Z</time>
      </trkpt>
      <trkpt lat="47.03573" lon="9.52709">
        <ele>703</ele>
        <time>2017-10-27T05:22:32Z</time>
      </trkpt>
      <trkpt lat="47.03572" lon="9.52709">
        <ele>703</ele>
        <time>2017-10-27T05:24:32Z</time>
      </trkpt>
      <trkpt lat="47.03571" lon="9.52709">
        <ele>703</ele>
        <time>2017-10-27T05:26:32Z</time>
      </trkpt>
      <trkpt lat="47.0357" lon="9.52709">
        <ele>703</ele>
        <time>2017-10-27T05:28:32Z</time>
      </trkpt>
      <trkpt lat="47.03569" lon="9.52709">
        <ele>703</ele>
        <time>2017-10-27T05:30:32Z</time>
      </trkpt>
      <trkpt lat="47.03569" lon="9.5271">
        <ele>703</ele>
        <time>2017-10-27T05:32:32Z</time>
      </trkpt>
      <trkpt lat="47.03568" lon="9.5271">
        <ele>704</ele>
        <time>2017-10-27T05:34:32Z</time>
      </trkpt>
      <trkpt lat="47.03567" lon="9.5271">
        <ele>704</ele>
        <time>2017-10-27T05:36:32Z</time>
      </trkpt>
      <trkpt lat="47.03567" lon="9.52711">
        <ele>704</ele>
        <time>2017-10-27T05:38:32Z</time>
      </trkpt>
      <trkpt lat="47.03566" lon="9.52711">
        <ele>704</ele>
        <time>2017-10-27T05:40:32Z</time>
      </trkpt>
      <trkpt lat="47.03565" lon="9.52712">
        <ele>704</ele>
        <time>2017-10-27T05:42:32Z</time>
      </trkpt>
      <trkpt lat="47.03565" lon="9.52713">
        <ele>704</ele>
        <time>2017-10-27T05:44:32Z</time>
      </trkpt>
      <trkpt lat="47.03564" lon="9.52713">
        <ele>704</ele>
        <time>2017-10-27T05:46:32Z</time>
      </trkpt>
      <trkpt lat="47.03564" lon="9.52714">
        <ele>704</ele>
        <time>2017-10-27T05:48:32Z</time>
      </trkpt>
      <trkpt lat="47.03563" lon="9.52715">
        <ele>704</ele>
        <time>2017-10-27T05:50:32Z</time>
      </trkpt>
      <trkpt lat="47.03563" lon="9.52716">
        <ele>704</ele>
        <time>2017-10-27T05:52:32Z</time>
      </trkpt>
      <trkpt lat="47.03562" lon="9.52716">
        <ele>704</ele>
        <time>2017-10-27T05:54:32Z</time>
      </trkpt>
      <trkpt lat="47.03562" lon="9.52717">
        <ele>704</ele>
        <time>2017-10-27T05:56:32Z</time>
      </trkpt>
      <trkpt lat="47.03562" lon="9.52718">
        <ele>704</ele>
        <time>2017-10-27T05:58:32Z</time>
      </trkpt>
      <trkpt lat="47.03562" lon="9.52719">
        <ele>704</ele>
        <time>2017-10-27T06:00:32Z</time>
      </trkpt>
      <trkpt lat="47.03561" lon="9.52719">
        <ele>704</ele>
        <time>2017-10-27T06:02:32Z</time>
      </trkpt>
      <trkpt lat="47.03561" lon="9.5272">
        <ele>704</ele>
        <time>2017-10-27T06:04:32Z</time>
      </trkpt>
      <trkpt lat="47.03561" lon="9.52721">
        <ele>704</ele>
        <time>2017-10-27T06:06:32Z</time>
      </trkpt>
      <trkpt lat="47.03561" lon="9.52722">
        <ele>704</ele>
        <time>2017-10-27T06:08:32Z</time>
      </trkpt>
      <trkpt lat="47.03561" lon="9.52723">
        <ele>704</ele>
        <time>2017-10-27T06:10:32Z</time>
      </trkpt>
      <trkpt lat="47.03561" lon="9.52724">
        <ele>704</ele>
        <time>2017-10-27T06:12:32Z</time>
      </trkpt>
      <trkpt lat="47.03551" lon="9.52722">
        <ele>705</ele>
        <time>2017-10-27T06:14:32Z</time>
      </trkpt>
      <trkpt lat="47.03519" lon="9.52718">
        <ele>707</ele>
        <time>2017-10-27T06:16:32Z</time>
      </trkpt>
      <trkpt lat="47.03479" lon="9.52712">
        <ele>708</ele>
        <time>2017-10-27T06:18:32Z</time>
      </trkpt>
      <trkpt lat="47.0344" lon="9.52709">
        <ele>708</ele>
        <time>2017-10-27T06:20:32Z</time>
      </trkpt>
      <trkpt lat="47.03391" lon="9.52713">
        <ele>709</ele>
        <time>2017-10-27T06:22:32Z</time>
      </trkpt>
      <trkpt lat="47.03334" lon="9.52727">
        <ele>709</ele>
        <time>2017-10-27T06:24:32Z</time>
      </trkpt>
      <trkpt lat="47.03315" lon="9.52728">
        <ele>709</ele>
        <time>2017-10-27T06:26:32Z</time>
      </trkpt>
      <trkpt lat="47.0329" lon="9.52727">
        <ele>709</ele>
        <time>2017-10-27T06:28:32Z</time>
      </trkpt>
      <trkpt lat="47.03235" lon="9.52725">
        <ele>710</ele>
        <time>2017-10-27T06:30:32Z</time>
      </trkpt>
      <trkpt lat="47.03219" lon="9.52726">
        <ele>710</ele>
        <time>2017-10-27T06:32:32Z</time>
      </trkpt>
      <trkpt lat="47.03181" lon="9.52744">
        <ele>712</ele>
        <time>2017-10-27T06:34:32Z</time>
      </trkpt>
      <trkpt lat="47.03139" lon="9.52764">
        <ele>714</ele>
        <time>2017-10-27T06:36:32Z</time>
      </trkpt>
      <trkpt lat="47.03122" lon="9.52772">
        <ele>715</ele>
        <time>2017-10-27T06:38:32Z</time>
      </trkpt>
      <trkpt lat="47.03099" lon="9.5278">
        <ele>716</ele>
        <time>2017-10-27T06:40:32Z</time>
      </trkpt>
      <trkpt lat="47.03067" lon="9.52788">
        <ele>717</ele>
        <time>2017-10-27T06:42:32Z</time>
      </trkpt>
      <trkpt lat="47.03011" lon="9.52803">
        <ele>719</ele>
        <time>2017-10-27T06:44:32Z</time>
      </trkpt>
      <trkpt lat="47.02976" lon="9.52815">
        <ele>718</ele>
        <time>2017-10-27T06:46:32Z</time>
      </trkpt>
      <trkpt lat="47.02948" lon="9.52828">
        <ele>717</ele>
        <time>2017-10-27T06:48:32Z</time>
      </trkpt>
      <trkpt lat="47.02924" lon="9.52845">
        <ele>716</ele>
        <time>2017-10-27T06:50:32Z</time>
      </trkpt>
      <trkpt lat="47.02913" lon="9.52857">
        <ele>716</ele>
        <time>2017-10-27T06:52:32Z</time>
      </trkpt>
      <trkpt lat="47.02891" lon="9.52884">
        <ele>718</ele>
        <time>2017-10-27T06:54:32Z</time>
      </trkpt>
      <trkpt lat="47.02863" lon="9.5292">
        <ele>717</ele>
        <time>2017-10-27T06:56:32Z</time>
      </trkpt>
      <trkpt lat="47.02859" lon="9.52926">
        <ele>718</ele>
        <time>2017-10-27T06:58:32Z</time>
      </trkpt>
      <trkpt lat="47.02847" lon="9.52937">
        <ele>717</ele>
        <time>2017-10-27T07:00:32Z</time>
      </trkpt>
      <trkpt lat="47.02834" lon="9.52948">
        <ele>717</ele>
        <time>2017-10-27T07:02:32Z</time>
      </trkpt>
      <trkpt lat="47.02821" lon="9.52955">
        <ele>717</ele>
        <time>2017-10-27T07:04:32Z</time>
      </trkpt>
      <trkpt lat="47.02803" lon="9.52964">
        <ele>716</ele>
        <time>2017-10-27T07:06:32Z</time>
      </trkpt>
      <trkpt lat="47.02781" lon="9.5297">
        <ele>715</ele>
        <time>2017-10-27T07:08:32Z</time>
      </trkpt>
      <trkpt lat="47.02759" lon="9.52974">
        <ele>714</ele>
        <time>2017-10-27T07:10:32Z</time>
      </trkpt>
      <trkpt lat="47.02712" lon="9.52981">
        <ele>709</ele>
        <time>2017-10-27T07:12:32Z</time>
      </trkpt>
      <trkpt lat="47.02649" lon="9.52989">
        <ele>704</ele>
        <time>2017-10-27T07:14:32Z</time>
      </trkpt>
      <trkpt lat="47.02638" lon="9.52991">
        <ele>703</ele>
        <time>2017-10-27T07:16:32Z</time>
      </trkpt>
      <trkpt lat="47.02626" lon="9.52994">
        <ele>702</ele>
        <time>2017-10-27T07:18:32Z</time>
      </trkpt>
      <trkpt lat="47.0262" lon="9.52995">
        <ele>702</ele>
        <time>2017-10-27T07:20:32Z</time>
      </trkpt>
      <trkpt lat="47.02612" lon="9.52995">
        <ele>702</ele>
        <time>2017-10-27T07:22:32Z</time>
      </trkpt>
      <trkpt lat="47.02604" lon="9.52994">
        <ele>701</ele>
        <time>2017-10-27T07:24:32Z</time>
      </trkpt>
      <trkpt lat="47.0258" lon="9.52995">
        <ele>700</ele>
        <time>2017-10-27T07:26:32Z</time>
      </trkpt>
      <trkpt lat="47.02545" lon="9.52992">
        <ele>698</ele>
        <time>2017-10-27T07:28:32Z</time>
      </trkpt>
      <trkpt lat="47.02505" lon="9.52988">
        <ele>696</ele>
        <time>2017-10-27T07:30:32Z</time>
      </trkpt>
      <trkpt lat="47.02469" lon="9.52986">
        <ele>693</ele>
        <time>2017-10-27T07:32:32Z</time>
      </trkpt>
      <trkpt lat="47.02461" lon="9.52986">
        <ele>692</ele>
        <time>2017-10-27T07:34:32Z</time>
      </trkpt>
      <trkpt lat="47.02439" lon="9.5299">
        <ele>692</ele>
        <time>2017-10-27T07:36:32Z</time>
      </trkpt>
      <trkpt lat="47.02384" lon="9.53009">
        <ele>689</ele>
        <time>2017-10-27T07:38:32Z</time>
      </trkpt>
      <trkpt lat="47.02384" lon="9.53009">
        <ele>689</ele>
        <time>2017-10-27T07:40:32Z</time>
      </trkpt>
      <trkpt lat="47.02373" lon="9.53015">
        <ele>688</ele>
        <time>2017-10-27T07:42:32Z</time>
      </trkpt>
      <trkpt lat="47.02355" lon="9.53026">
        <ele>687</ele>
        <time>2017-10-27T07:44:32Z</time>
      </trkpt>
      <trkpt lat="47.02332" lon="9.53045">
        <ele>686</ele>
        <time>2017-10-27T07:46:32Z</time>
      </trkpt>
      <trkpt lat="47.02308" lon="9.53074">
        <ele>685</ele>
        <time>2017-10-27T07:48:32Z</time>
      </trkpt>
      <trkpt lat="47.02297" lon="9.53095">
        <ele>684</ele>
        <time>2017-10-27T07:50:32Z</time>
      </trkpt>
      <trkpt lat="47.02289" lon="9.53122">
        <ele>684</ele>
        <time>2017-10-27T07:52:32Z</time>
      </trkpt>
      <trkpt lat="47.02282" lon="9.53132">
        <ele>684</ele>
        <time>2017-10-27T07:54:32Z</time>
      </trkpt>
      <trkpt lat="47.02274" lon="9.5314">
        <ele>683</ele>
        <time>2017-10-27T07:56:32Z</time>
      </trkpt>
      <trkpt lat="47.02264" lon="9.53148">
        <ele>681</ele>
        <time>2017-10-27T07:58:32Z</time>
      </trkpt>
      <trkpt lat="47.02254" lon="9.53165">
        <ele>680</ele>
        <time>2017-10-27T08:00:32Z</time>
      </trkpt>
      <trkpt lat="47.02249" lon="9.53183">
        <ele>679</ele>
        <time>2017-10-27T08:02:32Z</time>
      </trkpt>
      <trkpt lat="47.02241" lon="9.53198">
        <ele>679</ele>
        <time>2017-10-27T08:04:32Z</time>
      </trkpt>
      <trkpt lat="47.02231" lon="9.53214">
        <ele>679</ele>
        <time>2017-10-27T08:06:32Z</time>
      </trkpt>
      <trkpt lat="47.02209" lon="9.53247">
        <ele>678</ele>
        <time>2017-10-27T08:08:32Z</time>
      </trkpt>
      <trkpt lat="47.02197" lon="9.53272">
        <ele>678</ele>
        <time>2017-10-27T08:10:32Z</time>
      </trkpt>
      <trkpt lat="47.02197" lon="9.53272">
        <ele>678</ele>
        <time>2017-10-27T08:12:32Z</time>
      </trkpt>
      <trkpt lat="47.02187" lon="9.53295">
        <ele>679</ele>
        <time>2017-10-27T08:14:32Z</time>
      </trkpt>
      <trkpt lat="47.02181" lon="9.53319">
        <ele>679</ele>
        <time>2017-10-27T08:16:32Z</time>
      </trkpt>
      <trkpt lat="47.02175" lon="9.53353">
        <ele>681</ele>
        <time>2017-10-27T08:18:32Z</time>
      </trkpt>
      <trkpt lat="47.02168" lon="9.53378">
        <ele>681</ele>
        <time>2017-10-27T08:20:32Z</time>
      </trkpt>
      <trkpt lat="47.02149" lon="9.53428">
        <ele>683</ele>
        <time>2017-10-27T08:22:32Z</time>
      </trkpt>
      <trkpt lat="47.02132" lon="9.53486">
        <ele>687</ele>
        <time>2017-10-27T08:24:32Z</time>
      </trkpt>
      <trkpt lat="47.02121" lon="9.53519">
        <ele>687</ele>
        <time>2017-10-27T08:26:32Z</time>
      </trkpt>
      <trkpt lat="47.02102" lon="9.53559">
        <ele>685</ele>
        <time>2017-10-27T08:28:32Z</time>
      </trkpt>
      <trkpt lat="47.02092" lon="9.53592">
        <ele>683</ele>
        <time>2017-10-27T08:30:32Z</time>
      </trkpt>
      <trkpt lat="47.02084" lon="9.53622">
        <ele>682</ele>
        <time>2017-10-27T08:32:32Z</time>
      </trkpt>
      <trkpt lat="47.02077" lon="9.5365">
        <ele>681</ele>
        <time>2017-10-27T08:34:32Z</time>
      </trkpt>
      <trkpt lat="47.02066" lon="9.53675">
        <ele>680</ele>
        <time>2017-10-27T08:36:32Z</time>
      </trkpt>
      <trkpt lat="47.02054" lon="9.53689">
        <ele>679</ele>
        <time>2017-10-27T08:38:32Z</time>
      </trkpt>
      <trkpt lat="47.02022" lon="9.53714">
        <ele>677</ele>
        <time>2017-10-27T08:40:32Z</time>
      </trkpt>
      <trkpt lat="47.02006" lon="9.53733">
        <ele>675</ele>
        <time>2017-10-27T08:42:32Z</time>
      </trkpt>
      <trkpt lat="47.01993" lon="9.53758">
        <ele>674</ele>
        <time>2017-10-27T08:44:32Z</time>
      </trkpt>
      <trkpt lat="47.01982" lon="9.53789">
        <ele>674</ele>
        <time>2017-10-27T08:46:32Z</time>
      </trkpt>
      <trkpt lat="47.01969" lon="9.53813">
        <ele>673</ele>
        <time>2017-10-27T08:48:32Z</time>
      </trkpt>
      <trkpt lat="47.01942" lon="9.53849">
        <ele>670</ele>
        <time>2017-10-27T08:50:32Z</time>
      </trkpt>
      <trkpt lat="47.01905" lon="9.53893">
        <ele>666</ele>
        <time>2017-10-27T08:52:32Z</time>
      </trkpt>
      <trkpt lat="47.01861" lon="9.53958">
        <ele>661</ele>
        <time>2017-10-27T08:54:32Z</time>
      </trkpt>
      <trkpt lat="47.01805" lon="9.54038">
        <ele>654</ele>
        <time>2017-10-27T08:56:32Z</time>
      </trkpt>
      <trkpt lat="47.01769" lon="9.54088">
        <ele>651</ele>
        <time>2017-10-27T08:58:32Z</time>
      </trkpt>
      <trkpt lat="47.01756" lon="9.54113">
        <ele>650</ele>
        <time>2017-10-27T09:00:32Z</time>
      </trkpt>
      <trkpt lat="47.01734" lon="9.5415">
        <ele>649</ele>
        <time>2017-10-27T09:02:32Z</time>
      </trkpt>
      <trkpt lat="47.01733" lon="9.54151">
        <ele>648</ele>
        <time>2017-10-27T09:04:32Z</time>
      </trkpt>
      <trkpt lat="47.01724" lon="9.54167">
        <ele>648</ele>
        <time>2017-10-27T09:06:32Z</time>
      </trkpt>
      <trkpt lat="47.01724" lon="9.54167">
        <ele>648</ele>
        <time>2017-10-27T09:08:32Z</time>
      </trkpt>
      <trkpt lat="47.01701" lon="9.54181">
        <ele>645</ele>
        <time>2017-10-27T09:10:32Z</time>
      </trkpt>
      <trkpt lat="47.01693" lon="9.54186">
        <ele>644</ele>
        <time>2017-10-27T09:12:32Z</time>
      </trkpt>
      <trkpt lat="47.01685" lon="9.54189">
        <ele>643</ele>
        <time>2017-10-27T09:14:32Z</time>
      </trkpt>
      <trkpt lat="47.01677" lon="9.54186">
        <ele>642</ele>
        <time>2017-10-27T09:16:32Z</time>
      </trkpt>
      <trkpt lat="47.01671" lon="9.54183">
        <ele>641</ele>
        <time>2017-10-27T09:18:32Z</time>
      </trkpt>
      <trkpt lat="47.01665" lon="9.54178">
        <ele>640</ele>
        <time>2017-10-27T09:20:32Z</time>
      </trkpt>
      <trkpt lat="47.01659" lon="9.54171">
        <ele>639</ele>
        <time>2017-10-27T09:22:32Z</time>
      </trkpt>
      <trkpt lat="47.01652" lon="9.54162">
        <ele>638</ele>
        <time>2017-10-27T09:24:32Z</time>
      </trkpt>
      <trkpt lat="47.01645" lon="9.54149">
        <ele>637</ele>
        <time>2017-10-27T09:26:32Z</time>
      </trkpt>
      <trkpt lat="47.01629" lon="9.54123">
        <ele>635</ele>
        <time>2017-10-27T09:28:32Z</time>
      </trkpt>
      <trkpt lat="47.01619" lon="9.54106">
        <ele>633</ele>
        <time>2017-10-27T09:30:32Z</time>
      </trkpt>
      <trkpt lat="47.01598" lon="9.54079">
        <ele>629</ele>
        <time>2017-10-27T09:32:32Z</time>
      </trkpt>
      <trkpt lat="47.01574" lon="9.54049">
        <ele>626</ele>
        <time>2017-10-27T09:34:32Z</time>
      </trkpt>
      <trkpt lat="47.01555" lon="9.54028">
        <ele>624</ele>
        <time>2017-10-27T09:36:32Z</time>
      </trkpt>
      <trkpt lat="47.01546" lon="9.54016">
        <ele>623</ele>
        <time>2017-10-27T09:38:32Z</time>
      </trkpt>
      <trkpt lat="47.01537" lon="9.54002">
        <ele>622</ele>
        <time>2017-10-27T09:40:32Z</time>
      </trkpt>
      <trkpt lat="47.0153" lon="9.53989">
        <ele>621</ele>
        <time>2017-10-27T09:42:32Z</time>
      </trkpt>
      <trkpt lat="47.01518" lon="9.53961">
        <ele>618</ele>
        <time>2017-10-27T09:44:32Z</time>
      </trkpt>
      <trkpt lat="47.01508" lon="9.53937">
        <ele>616</ele>
        <time>2017-10-27T09:46:32Z</time>
      </trkpt>
      <trkpt lat="47.01497" lon="9.53914">
        <ele>615</ele>
        <time>2017-10-27T09:48:32Z</time>
      </trkpt>
      <trkpt lat="47.01486" lon="9.53899">
        <ele>613</ele>
        <time>2017-10-27T09:50:32Z</time>
      </trkpt>
      <trkpt lat="47.01467" lon="9.53881">
        <ele>611</ele>
        <time>2017-10-27T09:52:32Z</time>
      </trkpt>
      <trkpt lat="47.01444" lon="9.53861">
        <ele>608</ele>
        <time>2017-10-27T09:54:32Z</time>
      </trkpt>
      <trkpt lat="47.01429" lon="9.53849">
        <ele>606</ele>
        <time>2017-10-27T09:56:32Z</time>
      </trkpt>
      <trkpt lat="47.0142" lon="9.53842">
        <ele>605</ele>
        <time>2017-10-27T09:58:32Z</time>
      </trkpt>
      <trkpt lat="47.01414" lon="9.53838">
        <ele>605</ele>
        <time>2017-10-27T10:00:32Z</time>
      </trkpt>
      <trkpt lat="47.01406" lon="9.53836">
        <ele>603</ele>
        <time>2017-10-27T10:02:32Z</time>
      </trkpt>
      <trkpt lat="47.01388" lon="9.53833">
        <ele>600</ele>
        <time>2017-10-27T10:04:32Z</time>
      </trkpt>
      <trkpt lat="47.01371" lon="9.5383">
        <ele>597</ele>
        <time>2017-10-27T10:06:32Z</time>
      </trkpt>
      <trkpt lat="47.01362" lon="9.53828">
        <ele>596</ele>
        <time>2017-10-27T10:08:32Z</time>
      </trkpt>
      <trkpt lat="47.01346" lon="9.53817">
        <ele>593</ele>
        <time>2017-10-27T10:10:32Z</time>
      </trkpt>
      <trkpt lat="47.01338" lon="9.53812">
        <ele>591</ele>
        <time>2017-10-27T10:12:32Z</time>
      </trkpt>
      <trkpt lat="47.01327" lon="9.53803">
        <ele>590</ele>
        <time>2017-10-27T10:14:32Z</time>
      </trkpt>
      <trkpt lat="47.0132" lon="9.53798">
        <ele>589</ele>
        <time>2017-10-27T10:16:32Z</time>
      </trkpt>
      <trkpt lat="47.01315" lon="9.53791">
        <ele>589</ele>
        <time>2017-10-27T10:18:32Z</time>
      </trkpt>
      <trkpt lat="47.01309" lon="9.5378">
        <ele>588</ele>
        <time>2017-10-27T10:20:32Z</time>
      </trkpt>
      <trkpt lat="47.01305" lon="9.53772">
        <ele>587</ele>
        <time>2017-10-27T10:22:32Z</time>
      </trkpt>
      <trkpt lat="47.01289" lon="9.5374">
        <ele>585</ele>
        <time>2017-10-27T10:24:32Z</time>
      </trkpt>
      <trkpt lat="47.01274" lon="9.53707">
        <ele>582</ele>
        <time>2017-10-27T10:26:32Z</time>
      </trkpt>
      <trkpt lat="47.01263" lon="9.53682">
        <ele>581</ele>
        <time>2017-10-27T10:28:32Z</time>
      </trkpt>
      <trkpt lat="47.01253" lon="9.53649">
        <ele>579</ele>
        <time>2017-10-27T10:30:32Z</time>
      </trkpt>
      <trkpt lat="47.01247" lon="9.53634">
        <ele>579</ele>
        <time>2017-10-27T10:32:32Z</time>
      </trkpt>
      <trkpt lat="47.01243" lon="9.53625">
        <ele>578</ele>
        <time>2017-10-27T10:34:32Z</time>
      </trkpt>
      <trkpt lat="47.0124" lon="9.5362">
        <ele>578</ele>
        <time>2017-10-27T10:36:32Z</time>
      </trkpt>
      <trkpt lat="47.01236" lon="9.53615">
        <ele>577</ele>
        <time>2017-10-27T10:38:32Z</time>
      </trkpt>
      <trkpt lat="47.01228" lon="9.53608">
        <ele>576</ele>
        <time>2017-10-27T10:40:32Z</time>
      </trkpt>
      <trkpt lat="47.01221" lon="9.53602">
        <ele>575</ele>
        <time>2017-10-27T10:42:32Z</time>
      </trkpt>
      <trkpt lat="47.01205" lon="9.53586">
        <ele>573</ele>
        <time>2017-10-27T10:44:32Z</time>
      </trkpt>
      <trkpt lat="47.01194" lon="9.53577">
        <ele>571</ele>
        <time>2017-10-27T10:46:32Z</time>
      </trkpt>
      <trkpt lat="47.01169" lon="9.53554">
        <ele>568</ele>
        <time>2017-10-27T10:48:32Z</time>
      </trkpt>
      <trkpt lat="47.01162" lon="9.53546">
        <ele>567</ele>
        <time>2017-10-27T10:50:32Z</time>
      </trkpt>
      <trkpt lat="47.01157" lon="9.53537">
        <ele>566</ele>
        <time>2017-10-27T10:52:32Z</time>
      </trkpt>
      <trkpt lat="47.01149" lon="9.53524">
        <ele>565</ele>
        <time>2017-10-27T10:54:32Z</time>
      </trkpt>
      <trkpt lat="47.01142" lon="9.5351">
        <ele>564</ele>
        <time>2017-10-27T10:56:32Z</time>
      </trkpt>
      <trkpt lat="47.01141" lon="9.53507">
        <ele>564</ele>
        <time>2017-10-27T10:58:32Z</time>
      </trkpt>
      <trkpt lat="47.0113" lon="9.53489">
        <ele>563</ele>
        <time>2017-10-27T11:00:32Z</time>
      </trkpt>
      <trkpt lat="47.0112" lon="9.53475">
        <ele>561</ele>
        <time>2017-10-27T11:02:32Z</time>
      </trkpt>
      <trkpt lat="47.01113" lon="9.53465">
        <ele>561</ele>
        <time>2017-10-27T11:04:32Z</time>
      </trkpt>
      <trkpt lat="47.011" lon="9.53449">
        <ele>559</ele>
        <time>2017-10-27T11:06:32Z</time>
      </trkpt>
      <trkpt lat="47.01096" lon="9.53442">
        <ele>559</ele>
        <time>2017-10-27T11:08:32Z</time>
      </trkpt>
      <trkpt lat="47.01092" lon="9.53435">
        <ele>558</ele>
        <time>2017-10-27T11:10:32Z</time>
      </trkpt>
      <trkpt lat="47.0109" lon="9.53428">
        <ele>558</ele>
        <time>2017-10-27T11:12:32Z</time>
      </trkpt>
      <trkpt lat="47.01089" lon="9.53419">
        <ele>557</ele>
        <time>2017-10-27T11:14:32Z</time>
      </trkpt>
      <trkpt lat="47.01088" lon="9.53408">
        <ele>557</ele>
        <time>2017-10-27T11:16:32Z</time>
      </trkpt>
      <trkpt lat="47.01087" lon="9.53403">
        <ele>557</ele>
        <time>2017-10-27T11:18:32Z</time>
      </trkpt>
      <trkpt lat="47.01086" lon="9.53399">
        <ele>556</ele>
        <time>2017-10-27T11:20:32Z</time>
      </trkpt>
      <trkpt lat="47.01084" lon="9.53394">
        <ele>556</ele>
        <time>2017-10-27T11:22:32Z</time>
      </trkpt>
      <trkpt lat="47.01081" lon="9.5339">
        <ele>556</ele>
        <time>2017-10-27T11:24:32Z</time>
      </trkpt>
      <trkpt lat="47.01076" lon="9.53385">
        <ele>555</ele>
        <time>2017-10-27T11:26:32Z</time>
      </trkpt>
      <trkpt lat="47.01068" lon="9.53377">
        <ele>554</ele>
        <time>2017-10-27T11:28:32Z</time>
      </trkpt>
      <trkpt lat="47.01061" lon="9.53368">
        <ele>553</ele>
        <time>2017-10-27T11:30:32Z</time>
      </trkpt>
      <trkpt lat="47.01048" lon="9.53353">
        <ele>552</ele>
        <time>2017-10-27T11:32:32Z</time>
      </trkpt>
      <trkpt lat="47.01041" lon="9.53341">
        <ele>551</ele>
        <time>2017-10-27T11:34:32Z</time>
      </trkpt>
      <trkpt lat="47.01035" lon="9.53333">
        <ele>550</ele>
        <time>2017-10-27T11:36:32Z</time>
      </trkpt>
      <trkpt lat="47.0103" lon="9.53323">
        <ele>549</ele>
        <time>2017-10-27T11:38:32Z</time>
      </trkpt>
      <trkpt lat="47.0102" lon="9.533">
        <ele>548</ele>
        <time>2017-10-27T11:40:32Z</time>
      </trkpt>
      <trkpt lat="47.01014" lon="9.5329">
        <ele>547</ele>
        <time>2017-10-27T11:42:32Z</time>
      </trkpt>
      <trkpt lat="47.01014" lon="9.5329">
        <ele>547</ele>
        <time>2017-10-27T11:44:32Z</time>
      </trkpt>
      <trkpt lat="47.01012" lon="9.53271">
        <ele>546</ele>
        <time>2017-10-27T11:46:32Z</time>
      </trkpt>
      <trkpt lat="47.01009" lon="9.53241">
        <ele>545</ele>
        <time>2017-10-27T11:48:32Z</time>
      </trkpt>
      <trkpt lat="47.01005" lon="9.53234">
        <ele>544</ele>
        <time>2017-10-27T11:50:32Z</time>
      </trkpt>
      <trkpt lat="47.01003" lon="9.5323">
        <ele>544</ele>
        <time>2017-10-27T11:52:32Z</time>
      </trkpt>
      <trkpt lat="47.00999" lon="9.53226">
        <ele>544</ele>
        <time>2017-10-27T11:54:32Z</time>
      </trkpt>
      <trkpt lat="47.00973" lon="9.53204">
        <ele>541</ele>
        <time>2017-10-27T11:56:32Z</time>
      </trkpt>
      <trkpt lat="47.00965" lon="9.53196">
        <ele>540</ele>
        <time>2017-10-27T11:58:32Z</time>
      </trkpt>
      <trkpt lat="47.00956" lon="9.53188">
        <ele>539</ele>
        <time>2017-10-27T12:00:32Z</time>
      </trkpt>
      <trkpt lat="47.00937" lon="9.53173">
        <ele>537</ele>
        <time>2017-10-27T12:02:32Z</time>
      </trkpt>
      <trkpt lat="47.00908" lon="9.53151">
        <ele>535</ele>
        <time>2017-10-27T12:04:32Z</time>
      </trkpt>
      <trkpt lat="47.0088" lon="9.5313">
        <ele>532</ele>
        <time>2017-10-27T12:06:32Z</time>
      </trkpt>
      <trkpt lat="47.00844" lon="9.53107">
        <ele>529</ele>
        <time>2017-10-27T12:08:32Z</time>
      </trkpt>
      <trkpt lat="47.00838" lon="9.5308">
        <ele>528</ele>
        <time>2017-10-27T12:10:32Z</time>
      </trkpt>
      <trkpt lat="47.00836" lon="9.5307">
        <ele>527</ele>
        <time>2017-10-27T12:12:32Z</time>
      </trkpt>
      <trkpt lat="47.00836" lon="9.5307">
        <ele>527</ele>
        <time>2017-10-27T12:14:32Z</time>
      </trkpt>
      <trkpt lat="47.00784" lon="9.52985">
        <ele>518</ele>
        <time>2017-10-27T12:16:32Z</time>
      </trkpt>
      <trkpt lat="47.0075" lon="9.52941">
        <ele>513</ele>
        <time>2017-10-27T12:18:32Z</time>
      </trkpt>
      <trkpt lat="47.00744" lon="9.52936">
        <ele>513</ele>
        <time>2017-10-27T12:20:32Z</time>
      </trkpt>
      <trkpt lat="47.0074" lon="9.52934">
        <ele>512</ele>
        <time>2017-10-27T12:22:32Z</time>
      </trkpt>
      <trkpt lat="47.00734" lon="9.52934">
        <ele>512</ele>
        <time>2017-10-27T12:24:32Z</time>
      </trkpt>
      <trkpt lat="47.00728" lon="9.52935">
        <ele>512</ele>
        <time>2017-10-27T12:26:32Z</time>
      </trkpt>
      <trkpt lat="47.00722" lon="9.52937">
        <ele>512</ele>
        <time>2017-10-27T12:28:32Z</time>
      </trkpt>
      <trkpt lat="47.00714" lon="9.52938">
        <ele>511</ele>
        <time>2017-10-27T12:30:32Z</time>
      </trkpt>
      <trkpt lat="47.00705" lon="9.52938">
        <ele>511</ele>
        <time>2017-10-27T12:32:32Z</time>
      </trkpt>
      <trkpt lat="47.00697" lon="9.52937">
        <ele>510</ele>
        <time>2017-10-27T12:34:32Z</time>
      </trkpt>
      <trkpt lat="47.00683" lon="9.52932">
        <ele>509</ele>
        <time>2017-10-27T12:36:32Z</time>
      </trkpt>
      <trkpt lat="47.00657" lon="9.52926">
        <ele>508</ele>
        <time>2017-10-27T12:38:32Z</time>
      </trkpt>
      <trkpt lat="47.00657" lon="9.52926">
        <ele>508</ele>
        <time>2017-10-27T12:40:32Z</time>
      </trkpt>
      <trkpt lat="47.00663" lon="9.52915">
        <ele>508</ele>
        <time>2017-10-27T12:42:32Z</time>
      </trkpt>
      <trkpt lat="47.00671" lon="9.5285">
        <ele>507</ele>
        <time>2017-10-27T12:44:32Z</time>
      </trkpt>
      <trkpt lat="47.00677" lon="9.52816">
        <ele>506</ele>
        <time>2017-10-27T12:46:32Z</time>
      </trkpt>
      <trkpt lat="47.00681" lon="9.52794">
        <ele>506</ele>
        <time>2017-10-27T12:48:32Z</time>
      </trkpt>
      <trkpt lat="47.00686" lon="9.5278">
        <ele>505</ele>
        <time>2017-10-27T12:50:32Z</time>
      </trkpt>
      <trkpt lat="47.00692" lon="9.52764">
        <ele>505</ele>
        <time>2017-10-27T12:52:32Z</time>
      </trkpt>
      <trkpt lat="47.00692" lon="9.52764">
        <ele>505</ele>
        <time>2017-10-27T12:54:32Z</time>
      </trkpt>
      <trkpt lat="47.00666" lon="9.52737">
        <ele>504</ele>
        <time>2017-10-27T12:56:32Z</time>
      </trkpt>
      <trkpt lat="47.00618" lon="9.52688">
        <ele>504</ele>
        <time>2017-10-27T12:58:32Z</time>
      </trkpt>
      <trkpt lat="47.00614" lon="9.52684">
        <ele>503</ele>
        <time>2017-10-27T13:00:32Z</time>
      </trkpt>
      <trkpt lat="47.00609" lon="9.52682">
        <ele>503</ele>
        <time>2017-10-27T13:02:32Z</time>
      </trkpt>
      <trkpt lat="47.00606" lon="9.52681">
        <ele>503</ele>
        <time>2017-10-27T13:04:32Z</time>
      </trkpt>
      <trkpt lat="47.00604" lon="9.52681">
        <ele>503</ele>
        <time>2017-10-27T13:06:32Z</time>
      </trkpt>
      <trkpt lat="47.00603" lon="9.52682">
        <ele>503</ele>
        <time>2017-10-27T13:08:32Z</time>
      </trkpt>
      <trkpt lat="47.00587" lon="9.52696">
        <ele>503</ele>
        <time>2017-10-27T13:10:32Z</time>
      </trkpt>
      <trkpt lat="47.00585" lon="9.52697">
        <ele>503</ele>
        <time>2017-10-27T13:12:32Z</time>
      </trkpt>
      <trkpt lat="47.00583" lon="9.52697">
        <ele>503</ele>
        <time>2017-10-27T13:14:32Z</time>
      </trkpt>
      <trkpt lat="47.0058" lon="9.52695">
        <ele>503</ele>
        <time>2017-10-27T13:16:32Z</time>
      </trkpt>
      <trkpt lat="47.00576" lon="9.52691">
        <ele>503</ele>
        <time>2017-10-27T13:18:32Z</time>
      </trkpt>
      <trkpt lat="47.00536" lon="9.52652">
        <ele>503</ele>
        <time>2017-10-27T13:20:32Z</time>
      </trkpt>
      <trkpt lat="47.00536" lon="9.52652">
        <ele>503</ele>
        <time>2017-10-27T13:22:32Z</time>
      </trkpt>
      <trkpt lat="47.0049" lon="9.52742">
        <ele>504</ele>
        <time>2017-10-27T13:24:32Z</time>
      </trkpt>
      <trkpt lat="47.00484" lon="9.52753">
        <ele>504</ele>
        <time>2017-10-27T13:26:32Z</time>
      </trkpt>
      <trkpt lat="47.00471" lon="9.52779">
        <ele>505</ele>
        <time>2017-10-27T13:28:32Z</time>
      </trkpt>
      <trkpt lat="47.00467" lon="9.52787">
        <ele>505</ele>
        <time>2017-10-27T13:30:32Z</time>
      </trkpt>
      <trkpt lat="47.00461" lon="9.52797">
        <ele>505</ele>
        <time>2017-10-27T13:32:32Z</time>
      </trkpt>
      <trkpt lat="47.00454" lon="9.52812">
        <ele>505</ele>
        <time>2017-10-27T13:34:32Z</time>
      </trkpt>
      <trkpt lat="47.00446" lon="9.52829">
        <ele>506</ele>
        <time>2017-10-27T13:36:32Z</time>
      </trkpt>
      <trkpt lat="47.00423" lon="9.52872">
        <ele>505</ele>
        <time>2017-10-27T13:38:32Z</time>
      </trkpt>
      <trkpt lat="47.00417" lon="9.52886">
        <ele>505</ele>
        <time>2017-10-27T13:40:32Z</time>
      </trkpt>
      <trkpt lat="47.00409" lon="9.52901">
        <ele>504</ele>
        <time>2017-10-27T13:42:32Z</time>
      </trkpt>
      <trkpt lat="47.00402" lon="9.52913">
        <ele>504</ele>
        <time>2017-10-27T13:44:32Z</time>
      </trkpt>
      <trkpt lat="47.00373" lon="9.52956">
        <ele>504</ele>
        <time>2017-10-27T13:46:32Z</time>
      </trkpt>
      <trkpt lat="47.00339" lon="9.53007">
        <ele>505</ele>
        <time>2017-10-27T13:48:32Z</time>
      </trkpt>
      <trkpt lat="47.00319" lon="9.53037">
        <ele>505</ele>
        <time>2017-10-27T13:50:32Z</time>
      </trkpt>
      <trkpt lat="47.00303" lon="9.53054">
        <ele>506</ele>
        <time>2017-10-27T13:52:32Z</time>
      </trkpt>
      <trkpt lat="47.00293" lon="9.53068">
        <ele>506</ele>
        <time>2017-10-27T13:54:32Z</time>
      </trkpt>
      <trkpt lat="47.00273" lon="9.53102">
        <ele>506</ele>
        <time>2017-10-27T13:56:32Z</time>
      </trkpt>
      <trkpt lat="47.00248" lon="9.53135">
        <ele>505</ele>
        <time>2017-10-27T13:58:32Z</time>
      </trkpt>
      <trkpt lat="47.00247" lon="9.53137">
        <ele>505</ele>
        <time>2017-10-27T14:00:32Z</time>
      </trkpt>
      <trkpt lat="47.00246" lon="9.5314">
        <ele>505</ele>
        <time>2017-10-27T14:02:32Z</time>
      </trkpt>
      <trkpt lat="47.00246" lon="9.53141">
        <ele>505</ele>
        <time>2017-10-27T14:04:32Z</time>
      </trkpt>
      <trkpt lat="47.00246" lon="9.53144">
        <ele>505</ele>
        <time>2017-10-27T14:06:32Z</time>
      </trkpt>
      <trkpt lat="47.00246" lon="9.53147">
        <ele>505</ele>
        <time>2017-10-27T14:08:32Z</time>
      </trkpt>
      <trkpt lat="47.00252" lon="9.53166">
        <ele>505</ele>
        <time>2017-10-27T14:10:32Z</time>
      </trkpt>
      <trkpt lat="47.00252" lon="9.53166">
        <ele>505</ele>
        <time>2017-10-27T14:12:32Z</time>
      </trkpt>
      <trkpt lat="47.00237" lon="9.53181">
        <ele>506</ele>
        <time>2017-10-27T14:14:32Z</time>
      </trkpt>
      <trkpt lat="47.00208" lon="9.53212">
        <ele>507</ele>
        <time>2017-10-27T14:16:32Z</time>
      </trkpt>
      <trkpt lat="47.00175" lon="9.53246">
        <ele>507</ele>
        <time>2017-10-27T14:18:32Z</time>
      </trkpt>
      <trkpt lat="47.00136" lon="9.53287">
        <ele>506</ele>
        <time>2017-10-27T14:20:32Z</time>
      </trkpt>
      <trkpt lat="47.00123" lon="9.533">
        <ele>506</ele>
        <time>2017-10-27T14:22:32Z</time>
      </trkpt>
      <trkpt lat="47.00088" lon="9.53337">
        <ele>506</ele>
        <time>2017-10-27T14:24:32Z</time>
      </trkpt>
      <trkpt lat="47.00023" lon="9.534">
        <ele>506</ele>
        <time>2017-10-27T14:26:32Z</time>
      </trkpt>
      <trkpt lat="46.99907" lon="9.53515">
        <ele>507</ele>
        <time>2017-10-27T14:28:32Z</time>
      </trkpt>
      <trkpt lat="46.99861" lon="9.53561">
        <ele>507</ele>
        <time>2017-10-27T14:30:32Z</time>
      </trkpt>
      <trkpt lat="46.99824" lon="9.53607">
        <ele>507</ele>
        <time>2017-10-27T14:32:32Z</time>
      </trkpt>
      <trkpt lat="46.99788" lon="9.53662">
        <ele>509</ele>
        <time>2017-10-27T14:34:32Z</time>
      </trkpt>
      <trkpt lat="46.99769" lon="9.53691">
        <ele>510</ele>
        <time>2017-10-27T14:36:32Z</time>
      </trkpt>
      <trkpt lat="46.99737" lon="9.5373">
        <ele>509</ele>
        <time>2017-10-27T14:38:32Z</time>
      </trkpt>
      <trkpt lat="46.99674" lon="9.53801">
        <ele>509</ele>
        <time>2017-10-27T14:40:32Z</time>
      </trkpt>
      <trkpt lat="46.99607" lon="9.53874">
        <ele>508</ele>
        <time>2017-10-27T14:42:32Z</time>
      </trkpt>
      <trkpt lat="46.9957" lon="9.53913">
        <ele>508</ele>
        <time>2017-10-27T14:44:32Z</time>
      </trkpt>
      <trkpt lat="46.9957" lon="9.53913">
        <ele>508</ele>
        <time>2017-10-27T14:46:32Z</time>
      </trkpt>
      <trkpt lat="46.99522" lon="9.53831">
        <ele>506</ele>
        <time>2017-10-27T14:48:32Z</time>
      </trkpt>
      <trkpt lat="46.99522" lon="9.53831">
        <ele>506</ele>
        <time>2017-10-27T14:50:32Z</time>
      </trkpt>
      <trkpt lat="46.99518" lon="9.53833">
        <ele>506</ele>
        <time>2017-10-27T14:52:32Z</time>
      </trkpt>
      <trkpt lat="46.99516" lon="9.53833">
        <ele>506</ele>
        <time>2017-10-27T14:54:32Z</time>
      </trkpt>
      <trkpt lat="46.99513" lon="9.53833">
        <ele>506</ele>
        <time>2017-10-27T14:56:32Z</time>
      </trkpt>
      <trkpt lat="46.99511" lon="9.53832">
        <ele>506</ele>
        <time>2017-10-27T14:58:32Z</time>
      </trkpt>
      <trkpt lat="46.99509" lon="9.5383">
        <ele>506</ele>
        <time>2017-10-27T15:00:32Z</time>
      </trkpt>
      <trkpt lat="46.99506" lon="9.53826">
        <ele>506</ele>
        <time>2017-10-27T15:02:32Z</time>
      </trkpt>
      <trkpt lat="46.99503" lon="9.53822">
        <ele>506</ele>
        <time>2017-10-27T15:04:32Z</time>
      </trkpt>
      <trkpt lat="46.99499" lon="9.5382">
        <ele>506</ele>
        <time>2017-10-27T15:06:32Z</time>
      </trkpt>
      <trkpt lat="46.99494" lon="9.53819">
        <ele>506</ele>
        <time>2017-10-27T15:08:32Z</time>
      </trkpt>
      <trkpt lat="46.99492" lon="9.53819">
        <ele>506</ele>
        <time>2017-10-27T15:10:32Z</time>
      </trkpt>
      <trkpt lat="46.99487" lon="9.53819">
        <ele>506</ele>
        <time>2017-10-27T15:12:32Z</time>
      </trkpt>
      <trkpt lat="46.99484" lon="9.53821">
        <ele>506</ele>
        <time>2017-10-27T15:14:32Z</time>
      </trkpt>
      <trkpt lat="46.99459" lon="9.53839">
        <ele>506</ele>
        <time>2017-10-27T15:16:32Z</time>
      </trkpt>
      <trkpt lat="46.99144" lon="9.54097">
        <ele>507</ele>
        <time>2017-10-27T15:18:32Z</time>
      </trkpt>
      <trkpt lat="46.98861" lon="9.54337">
        <ele>510</ele>
        <time>2017-10-27T15:20:32Z</time>
      </trkpt>
      <trkpt lat="46.98851" lon="9.54348">
        <ele>510</ele>
        <time>2017-10-27T15:22:32Z</time>
      </trkpt>
      <trkpt lat="46.98843" lon="9.54359">
        <ele>510</ele>
        <time>2017-10-27T15:24:32Z</time>
      </trkpt>
      <trkpt lat="46.98841" lon="9.54363">
        <ele>510</ele>
        <time>2017-10-27T15:26:32Z</time>
      </trkpt>
      <trkpt lat="46.98841" lon="9.54369">
        <ele>510</ele>
        <time>2017-10-27T15:28:32Z</time>
      </trkpt>
      <trkpt lat="46.98842" lon="9.54374">
        <ele>510</ele>
        <time>2017-10-27T15:30:32Z</time>
      </trkpt>
      <trkpt lat="46.98845" lon="9.54382">
        <ele>511</ele>
        <time>2017-10-27T15:32:32Z</time>
      </trkpt>
      <trkpt lat="46.98855" lon="9.54405">
        <ele>511</ele>
        <time>2017-10-27T15:34:32Z</time>
      </trkpt>
      <trkpt lat="46.98865" lon="9.54427">
        <ele>511</ele>
        <time>2017-10-27T15:36:32Z</time>
      </trkpt>
      <trkpt lat="46.98889" lon="9.54478">
        <ele>511</ele>
        <time>2017-10-27T15:38:32Z</time>
      </trkpt>
      <trkpt lat="46.98889" lon="9.54478">
        <ele>511</ele>
        <time>2017-10-27T15:40:32Z</time>
      </trkpt>
      <trkpt lat="46.98825" lon="9.54512">
        <ele>512</ele>
        <time>2017-10-27T15:42:32Z</time>
      </trkpt>
      <trkpt lat="46.98748" lon="9.54554">
        <ele>510</ele>
        <time>2017-10-27T15:44:32Z</time>
      </trkpt>
      <trkpt lat="46.987" lon="9.5458">
        <ele>510</ele>
        <time>2017-10-27T15:46:32Z</time>
      </trkpt>
      <trkpt lat="46.98655" lon="9.54605">
        <ele>511</ele>
        <time>2017-10-27T15:48:32Z</time>
      </trkpt>
      <trkpt lat="46.98575" lon="9.5465">
        <ele>512</ele>
        <time>2017-10-27T15:50:32Z</time>
      </trkpt>
      <trkpt lat="46.98518" lon="9.54681">
        <ele>511</ele>
        <time>2017-10-27T15:52:32Z</time>
      </trkpt>
      <trkpt lat="46.98432" lon="9.54725">
        <ele>512</ele>
        <time>2017-10-27T15:54:32Z</time>
      </trkpt>
      <trkpt lat="46.98365" lon="9.54765">
        <ele>513</ele>
        <time>2017-10-27T15:56:32Z</time>
      </trkpt>
      <trkpt lat="46.9834" lon="9.54781">
        <ele>513</ele>
        <time>2017-10-27T15:58:32Z</time>
      </trkpt>
      <trkpt lat="46.98312" lon="9.54801">
        <ele>512</ele>
        <time>2017-10-27T16:00:32Z</time>
      </trkpt>
      <trkpt lat="46.98295" lon="9.54815">
        <ele>512</ele>
        <time>2017-10-27T16:02:32Z</time>
      </trkpt>
      <trkpt lat="46.98293" lon="9.54817">
        <ele>512</ele>
        <time>2017-10-27T16:04:32Z</time>
      </trkpt>
      <trkpt lat="46.98255" lon="9.54845">
        <ele>511</ele>
        <time>2017-10-27T16:06:32Z</time>
      </trkpt>
      <trkpt lat="46.98211" lon="9.5488">
        <ele>511</ele>
        <time>2017-10-27T16:08:32Z</time>
      </trkpt>
      <trkpt lat="46.98149" lon="9.54926">
        <ele>513</ele>
        <time>2017-10-27T16:10:32Z</time>
      </trkpt>
      <trkpt lat="46.98091" lon="9.54971">
        <ele>515</ele>
        <time>2017-10-27T16:12:32Z</time>
      </trkpt>
      <trkpt lat="46.98045" lon="9.55006">
        <ele>515</ele>
        <time>2017-10-27T16:14:32Z</time>
      </trkpt>
      <trkpt lat="46.98011" lon="9.55032">
        <ele>515</ele>
        <time>2017-10-27T16:16:32Z</time>
      </trkpt>
      <trkpt lat="46.97961" lon="9.5507">
        <ele>515</ele>
        <time>2017-10-27T16:18:32Z</time>
      </trkpt>
      <trkpt lat="46.97902" lon="9.55114">
        <ele>516</ele>
        <time>2017-10-27T16:20:32Z</time>
      </trkpt>
      <trkpt lat="46.9785" lon="9.55153">
        <ele>517</ele>
        <time>2017-10-27T16:22:32Z</time>
      </trkpt>
      <trkpt lat="46.97811" lon="9.55183">
        <ele>519</ele>
        <time>2017-10-27T16:24:32Z</time>
      </trkpt>
      <trkpt lat="46.97767" lon="9.55215">
        <ele>520</ele>
        <time>2017-10-27T16:26:32Z</time>
      </trkpt>
      <trkpt lat="46.97722" lon="9.55252">
        <ele>519</ele>
        <time>2017-10-27T16:28:32Z</time>
      </trkpt>
      <trkpt lat="46.97711" lon="9.55263">
        <ele>519</ele>
        <time>2017-10-27T16:30:32Z</time>
      </trkpt>
      <trkpt lat="46.97703" lon="9.55272">
        <ele>519</ele>
        <time>2017-10-27T16:32:32Z</time>
      </trkpt>
      <trkpt lat="46.97679" lon="9.553">
        <ele>518</ele>
        <time>2017-10-27T16:34:32Z</time>
      </trkpt>
      <trkpt lat="46.97638" lon="9.55347">
        <ele>518</ele>
        <time>2017-10-27T16:36:32Z</time>
      </trkpt>
      <trkpt lat="46.97613" lon="9.55376">
        <ele>518</ele>
        <time>2017-10-27T16:38:32Z</time>
      </trkpt>
      <trkpt lat="46.97581" lon="9.55415">
        <ele>518</ele>
        <time>2017-10-27T16:40:32Z</time>
      </trkpt>
      <trkpt lat="46.97509" lon="9.55517">
        <ele>520</ele>
        <time>2017-10-27T16:42:32Z</time>
      </trkpt>
      <trkpt lat="46.97478" lon="9.55565">
        <ele>522</ele>
        <time>2017-10-27T16:44:32Z</time>
      </trkpt>
      <trkpt lat="46.9745" lon="9.55611">
        <ele>521</ele>
        <time>2017-10-27T16:46:32Z</time>
      </trkpt>
      <trkpt lat="46.97417" lon="9.55664">
        <ele>520</ele>
        <time>2017-10-27T16:48:32Z</time>
      </trkpt>
      <trkpt lat="46.97417" lon="9.55664">
        <ele>520</ele>
        <time>2017-10-27T16:50:32Z</time>
      </trkpt>
      <trkpt lat="46.97361" lon="9.55552">
        <ele>519</ele>
        <time>2017-10-27T16:52:32Z</time>
      </trkpt>
      <trkpt lat="46.97274" lon="9.55373">
        <ele>518</ele>
        <time>2017-10-27T16:54:32Z</time>
      </trkpt>
      <trkpt lat="46.97262" lon="9.55349">
        <ele>518</ele>
        <time>2017-10-27T16:56:32Z</time>
      </trkpt>
      <trkpt lat="46.97257" lon="9.55341">
        <ele>518</ele>
        <time>2017-10-27T16:58:32Z</time>
      </trkpt>
      <trkpt lat="46.97251" lon="9.55334">
        <ele>518</ele>
        <time>2017-10-27T17:00:32Z</time>
      </trkpt>
      <trkpt lat="46.97247" lon="9.5533">
        <ele>518</ele>
        <time>2017-10-27T17:02:32Z</time>
      </trkpt>
      <trkpt lat="46.97243" lon="9.55328">
        <ele>518</ele>
        <time>2017-10-27T17:04:32Z</time>
      </trkpt>
      <trkpt lat="46.97233" lon="9.55326">
        <ele>518</ele>
        <time>2017-10-27T17:06:32Z</time>
      </trkpt>
      <trkpt lat="46.97223" lon="9.55324">
        <ele>519</ele>
        <time>2017-10-27T17:08:32Z</time>
      </trkpt>
      <trkpt lat="46.97214" lon="9.55323">
        <ele>519</ele>
        <time>2017-10-27T17:10:32Z</time>
      </trkpt>
      <trkpt lat="46.972" lon="9.55328">
        <ele>519</ele>
        <time>2017-10-27T17:12:32Z</time>
      </trkpt>
      <trkpt lat="46.972" lon="9.55328">
        <ele>519</ele>
        <time>2017-10-27T17:14:32Z</time>
      </trkpt>
      <trkpt lat="46.972" lon="9.55323">
        <ele>519</ele>
        <time>2017-10-27T17:16:32Z</time>
      </trkpt>
      <trkpt lat="46.972" lon="9.55321">
        <ele>519</ele>
        <time>2017-10-27T17:18:32Z</time>
      </trkpt>
      <trkpt lat="46.972" lon="9.5532">
        <ele>519</ele>
        <time>2017-10-27T17:20:32Z</time>
      </trkpt>
      <trkpt lat="46.972" lon="9.55319">
        <ele>519</ele>
        <time>2017-10-27T17:22:32Z</time>
      </trkpt>
      <trkpt lat="46.97199" lon="9.55319">
        <ele>519</ele>
        <time>2017-10-27T17:24:32Z</time>
      </trkpt>
      <trkpt lat="46.97198" lon="9.55319">
        <ele>519</ele>
        <time>2017-10-27T17:26:32Z</time>
      </trkpt>
      <trkpt lat="46.97198" lon="9.55318">
        <ele>519</ele>
        <time>2017-10-27T17:28:32Z</time>
      </trkpt>
      <trkpt lat="46.97197" lon="9.55318">
        <ele>519</ele>
        <time>2017-10-27T17:30:32Z</time>
      </trkpt>
      <trkpt lat="46.97173" lon="9.55316">
        <ele>520</ele>
        <time>2017-10-27T17:32:32Z</time>
      </trkpt>
      <trkpt lat="46.9716" lon="9.55317">
        <ele>520</ele>
        <time>2017-10-27T17:34:32Z</time>
      </trkpt>
      <trkpt lat="46.97144" lon="9.5532">
        <ele>520</ele>
        <time>2017-10-27T17:36:32Z</time>
      </trkpt>
      <trkpt lat="46.97126" lon="9.55323">
        <ele>520</ele>
        <time>2017-10-27T17:38:32Z</time>
      </trkpt>
      <trkpt lat="46.97123" lon="9.55324">
        <ele>520</ele>
        <time>2017-10-27T17:40:32Z</time>
      </trkpt>
      <trkpt lat="46.97119" lon="9.55325">
        <ele>519</ele>
        <time>2017-10-27T17:42:32Z</time>
      </trkpt>
      <trkpt lat="46.97105" lon="9.55328">
        <ele>519</ele>
        <time>2017-10-27T17:44:32Z</time>
      </trkpt>
      <trkpt lat="46.97103" lon="9.55329">
        <ele>519</ele>
        <time>2017-10-27T17:46:32Z</time>
      </trkpt>
      <trkpt lat="46.97101" lon="9.5533">
        <ele>519</ele>
        <time>2017-10-27T17:48:32Z</time>
      </trkpt>
      <trkpt lat="46.97099" lon="9.55331">
        <ele>519</ele>
        <time>2017-10-27T17:50:32Z</time>
      </trkpt>
      <trkpt lat="46.97098" lon="9.55332">
        <ele>519</ele>
        <time>2017-10-27T17:52:32Z</time>
      </trkpt>
      <trkpt lat="46.97096" lon="9.55334">
        <ele>519</ele>
        <time>2017-10-27T17:54:32Z</time>
      </trkpt>
      <trkpt lat="46.97095" lon="9.55336">
        <ele>519</ele>
        <time>2017-10-27T17:56:32Z</time>
      </trkpt>
      <trkpt lat="46.97094" lon="9.55338">
        <ele>519</ele>
        <time>2017-10-27T17:58:32Z</time>
      </trkpt>
      <trkpt lat="46.97093" lon="9.5534">
        <ele>519</ele>
        <time>2017-10-27T18:00:32Z</time>
      </trkpt>
      <trkpt lat="46.97093" lon="9.55342">
        <ele>519</ele>
        <time>2017-10-27T18:02:32Z</time>
      </trkpt>
      <trkpt lat="46.97092" lon="9.55345">
        <ele>519</ele>
        <time>2017-10-27T18:04:32Z</time>
      </trkpt>
      <trkpt lat="46.97092" lon="9.55348">
        <ele>519</ele>
        <time>2017-10-27T18:06:32Z</time>
      </trkpt>
      <trkpt lat="46.97092" lon="9.55352">
        <ele>520</ele>
        <time>2017-10-27T18:08:32Z</time>
      </trkpt>
      <trkpt lat="46.97092" lon="9.55355">
        <ele>520</ele>
        <time>2017-10-27T18:10:32Z</time>
      </trkpt>
      <trkpt lat="46.97092" lon="9.55358">
        <ele>520</ele>
        <time>2017-10-27T18:12:32Z</time>
      </trkpt>
      <trkpt lat="46.97092" lon="9.55361">
        <ele>520</ele>
        <time>2017-10-27T18:14:32Z</time>
      </trkpt>
      <trkpt lat="46.97093" lon="9.55365">
        <ele>520</ele>
        <time>2017-10-27T18:16:32Z</time>
      </trkpt>
      <trkpt lat="46.97093" lon="9.55365">
        <ele>520</ele>
        <time>2017-10-27T18:18:32Z</time>
      </trkpt>
      <trkpt lat="46.97085" lon="9.55363">
        <ele>520</ele>
        <time>2017-10-27T18:20:32Z</time>
      </trkpt>
      <trkpt lat="46.97071" lon="9.55364">
        <ele>520</ele>
        <time>2017-10-27T18:22:32Z</time>
      </trkpt>
      <trkpt lat="46.97063" lon="9.55366">
        <ele>520</ele>
        <time>2017-10-27T18:24:32Z</time>
      </trkpt>
      <trkpt lat="46.97047" lon="9.55371">
        <ele>521</ele>
        <time>2017-10-27T18:26:32Z</time>
      </trkpt>
      <trkpt lat="46.97031" lon="9.55373">
        <ele>522</ele>
        <time>2017-10-27T18:28:32Z</time>
      </trkpt>
      <trkpt lat="46.97018" lon="9.55376">
        <ele>522</ele>
        <time>2017-10-27T18:30:32Z</time>
      </trkpt>
      <trkpt lat="46.9699" lon="9.55382">
        <ele>522</ele>
        <time>2017-10-27T18:32:32Z</time>
      </trkpt>
      <trkpt lat="46.96963" lon="9.55387">
        <ele>522</ele>
        <time>2017-10-27T18:34:32Z</time>
      </trkpt>
      <trkpt lat="46.96942" lon="9.55391">
        <ele>521</ele>
        <time>2017-10-27T18:36:32Z</time>
      </trkpt>
      <trkpt lat="46.96926" lon="9.55391">
        <ele>521</ele>
        <time>2017-10-27T18:38:32Z</time>
      </trkpt>
      <trkpt lat="46.96926" lon="9.55391">
        <ele>521</ele>
        <time>2017-10-27T18:40:32Z</time>
      </trkpt>
      <trkpt lat="46.96922" lon="9.55384">
        <ele>521</ele>
        <time>2017-10-27T18:42:32Z</time>
      </trkpt>
      <trkpt lat="46.96919" lon="9.55378">
        <ele>521</ele>
        <time>2017-10-27T18:44:32Z</time>
      </trkpt>
      <trkpt lat="46.96917" lon="9.55377">
        <ele>521</ele>
        <time>2017-10-27T18:46:32Z</time>
      </trkpt>
      <trkpt lat="46.96915" lon="9.55376">
        <ele>521</ele>
        <time>2017-10-27T18:48:32Z</time>
      </trkpt>
      <trkpt lat="46.96914" lon="9.55375">
        <ele>521</ele>
        <time>2017-10-27T18:50:32Z</time>
      </trkpt>
      <trkpt lat="46.96912" lon="9.55375">
        <ele>521</ele>
        <time>2017-10-27T18:52:32Z</time>
      </trkpt>
      <trkpt lat="46.969" lon="9.55377">
        <ele>521</ele>
        <time>2017-10-27T18:54:32Z</time>
      </trkpt>
      <trkpt lat="46.96899" lon="9.55373">
        <ele>521</ele>
        <time>2017-10-27T18:56:32Z</time>
      </trkpt>
      <trkpt lat="46.96898" lon="9.5537">
        <ele>521</ele>
        <time>2017-10-27T18:58:32Z</time>
      </trkpt>
      <trkpt lat="46.96897" lon="9.55368">
        <ele>521</ele>
        <time>2017-10-27T19:00:32Z</time>
      </trkpt>
      <trkpt lat="46.96896" lon="9.55367">
        <ele>521</ele>
        <time>2017-10-27T19:02:32Z</time>
      </trkpt>
      <trkpt lat="46.96896" lon="9.55366">
        <ele>521</ele>
        <time>2017-10-27T19:04:32Z</time>
      </trkpt>
      <trkpt lat="46.96895" lon="9.55365">
        <ele>521</ele>
        <time>2017-10-27T19:06:32Z</time>
      </trkpt>
      <trkpt lat="46.96894" lon="9.55365">
        <ele>521</ele>
        <time>2017-10-27T19:08:32Z</time>
      </trkpt>
      <trkpt lat="46.96893" lon="9.55364">
        <ele>521</ele>
        <time>2017-10-27T19:10:32Z</time>
      </trkpt>
      <trkpt lat="46.96881" lon="9.55367">
        <ele>522</ele>
        <time>2017-10-27T19:12:32Z</time>
      </trkpt>
      <trkpt lat="46.96864" lon="9.55371">
        <ele>522</ele>
        <time>2017-10-27T19:14:32Z</time>
      </trkpt>
      <trkpt lat="46.96859" lon="9.55371">
        <ele>523</ele>
        <time>2017-10-27T19:16:32Z</time>
      </trkpt>
      <trkpt lat="46.96858" lon="9.55372">
        <ele>523</ele>
        <time>2017-10-27T19:18:32Z</time>
      </trkpt>
      <trkpt lat="46.96853" lon="9.55373">
        <ele>523</ele>
        <time>2017-10-27T19:20:32Z</time>
      </trkpt>
      <trkpt lat="46.96852" lon="9.55374">
        <ele>523</ele>
        <time>2017-10-27T19:22:32Z</time>
      </trkpt>
      <trkpt lat="46.96851" lon="9.55375">
        <ele>523</ele>
        <time>2017-10-27T19:24:32Z</time>
      </trkpt>
      <trkpt lat="46.96851" lon="9.55376">
        <ele>523</ele>
        <time>2017-10-27T19:26:32Z</time>
      </trkpt>
      <trkpt lat="46.9685" lon="9.5538">
        <ele>523</ele>
        <time>2017-10-27T19:28:32Z</time>
      </trkpt>
      <trkpt lat="46.96849" lon="9.55384">
        <ele>523</ele>
        <time>2017-10-27T19:30:32Z</time>
      </trkpt>
      <trkpt lat="46.96846" lon="9.5539">
        <ele>523</ele>
        <time>2017-10-27T19:32:32Z</time>
      </trkpt>
      <trkpt lat="46.96844" lon="9.55393">
        <ele>523</ele>
        <time>2017-10-27T19:34:32Z</time>
      </trkpt>
      <trkpt lat="46.96843" lon="9.55394">
        <ele>523</ele>
        <time>2017-10-27T19:36:32Z</time>
      </trkpt>
      <trkpt lat="46.96836" lon="9.55394">
        <ele>524</ele>
        <time>2017-10-27T19:38:32Z</time>
      </trkpt>
      <trkpt lat="46.96826" lon="9.55396">
        <ele>524</ele>
        <time>2017-10-27T19:40:32Z</time>
      </trkpt>
      <trkpt lat="46.96801" lon="9.55399">
        <ele>524</ele>
        <time>2017-10-27T19:42:32Z</time>
      </trkpt>
      <trkpt lat="46.96797" lon="9.554">
        <ele>524</ele>
        <time>2017-10-27T19:44:32Z</time>
      </trkpt>
      <trkpt lat="46.96797" lon="9.554">
        <ele>524</ele>
        <time>2017-10-27T19:46:32Z</time>
      </trkpt>
      <trkpt lat="46.96797" lon="9.55401">
        <ele>524</ele>
        <time>2017-10-27T19:48:32Z</time>
      </trkpt>
      <trkpt lat="46.96798" lon="9.55416">
        <ele>524</ele>
        <time>2017-10-27T19:50:32Z</time>
      </trkpt>
      <trkpt lat="46.96798" lon="9.55417">
        <ele>524</ele>
        <time>2017-10-27T19:52:32Z</time>
      </trkpt>
      <trkpt lat="46.96843" lon="9.55412">
        <ele>524</ele>
        <time>2017-10-27T19:54:32Z</time>
      </trkpt>
      <trkpt lat="46.96848" lon="9.55413">
        <ele>523</ele>
        <time>2017-10-27T19:56:32Z</time>
      </trkpt>
      <trkpt lat="46.96848" lon="9.55413">
        <ele>523</ele>
        <time>2017-10-27T19:58:32Z</time>
      </trkpt>
      <trkpt lat="46.9685" lon="9.55406">
        <ele>523</ele>
        <time>2017-10-27T20:00:32Z</time>
      </trkpt>
      <trkpt lat="46.96856" lon="9.55379">
        <ele>523</ele>
        <time>2017-10-27T20:02:32Z</time>
      </trkpt>
      <trkpt lat="46.96857" lon="9.55374">
        <ele>523</ele>
        <time>2017-10-27T20:04:32Z</time>
      </trkpt>
      <trkpt lat="46.96857" lon="9.5537">
        <ele>523</ele>
        <time>2017-10-27T20:06:32Z</time>
      </trkpt>
      <trkpt lat="46.96856" lon="9.55362">
        <ele>523</ele>
        <time>2017-10-27T20:08:32Z</time>
      </trkpt>
      <trkpt lat="46.96856" lon="9.5535">
        <ele>522</ele>
        <time>2017-10-27T20:10:32Z</time>
      </trkpt>
      <trkpt lat="46.96855" lon="9.55347">
        <ele>522</ele>
        <time>2017-10-27T20:12:32Z</time>
      </trkpt>
      <trkpt lat="46.96855" lon="9.55341">
        <ele>522</ele>
        <time>2017-10-27T20:14:32Z</time>
      </trkpt>
      <trkpt lat="46.96852" lon="9.55337">
        <ele>522</ele>
        <time>2017-10-27T20:16:32Z</time>
      </trkpt>
      <trkpt lat="46.96848" lon="9.55333">
        <ele>522</ele>
        <time>2017-10-27T20:18:32Z</time>
      </trkpt>
      <trkpt lat="46.96844" lon="9.55326">
        <ele>522</ele>
        <time>2017-10-27T20:20:32Z</time>
      </trkpt>
      <trkpt lat="46.96843" lon="9.55322">
        <ele>522</ele>
        <time>2017-10-27T20:22:32Z</time>
      </trkpt>
      <trkpt lat="46.96839" lon="9.55311">
        <ele>522</ele>
        <time>2017-10-27T20:24:32Z</time>
      </trkpt>
      <trkpt lat="46.96835" lon="9.55307">
        <ele>522</ele>
        <time>2017-10-27T20:26:32Z</time>
      </trkpt>
      <trkpt lat="46.96832" lon="9.55303">
        <ele>522</ele>
        <time>2017-10-27T20:28:32Z</time>
      </trkpt>
      <trkpt lat="46.96829" lon="9.55294">
        <ele>522</ele>
        <time>2017-10-27T20:30:32Z</time>
      </trkpt>
      <trkpt lat="46.96825" lon="9.55285">
        <ele>522</ele>
        <time>2017-10-27T20:32:32Z</time>
      </trkpt>
      <trkpt lat="46.96822" lon="9.55281">
        <ele>522</ele>
        <time>2017-10-27T20:34:32Z</time>
      </trkpt>
      <trkpt lat="46.9682" lon="9.55279">
        <ele>522</ele>
        <time>2017-10-27T20:36:32Z</time>
      </trkpt>
      <trkpt lat="46.96818" lon="9.55278">
        <ele>522</ele>
        <time>2017-10-27T20:38:32Z</time>
      </trkpt>
      <trkpt lat="46.96785" lon="9.55274">
        <ele>522</ele>
        <time>2017-10-27T20:40:32Z</time>
      </trkpt>
      <trkpt lat="46.96729" lon="9.55263">
        <ele>521</ele>
        <time>2017-10-27T20:42:32Z</time>
      </trkpt>
      <trkpt lat="46.96694" lon="9.55257">
        <ele>522</ele>
        <time>2017-10-27T20:44:32Z</time>
      </trkpt>
      <trkpt lat="46.96669" lon="9.55254">
        <ele>522</ele>
        <time>2017-10-27T20:46:32Z</time>
      </trkpt>
      <trkpt lat="46.96646" lon="9.55252">
        <ele>522</ele>
        <time>2017-10-27T20:48:32Z</time>
      </trkpt>
      <trkpt lat="46.9662" lon="9.55253">
        <ele>522</ele>
        <time>2017-10-27T20:50:32Z</time>
      </trkpt>
      <trkpt lat="46.96612" lon="9.55254">
        <ele>522</ele>
        <time>2017-10-27T20:52:32Z</time>
      </trkpt>
      <trkpt lat="46.96582" lon="9.5526">
        <ele>522</ele>
        <time>2017-10-27T20:54:32Z</time>
      </trkpt>
      <trkpt lat="46.9657" lon="9.55264">
        <ele>522</ele>
        <time>2017-10-27T20:56:32Z</time>
      </trkpt>
      <trkpt lat="46.96567" lon="9.55266">
        <ele>522</ele>
        <time>2017-10-27T20:58:32Z</time>
      </trkpt>
      <trkpt lat="46.96564" lon="9.55267">
        <ele>522</ele>
        <time>2017-10-27T21:00:32Z</time>
      </trkpt>
      <trkpt lat="46.96562" lon="9.5527">
        <ele>522</ele>
        <time>2017-10-27T21:02:32Z</time>
      </trkpt>
      <trkpt lat="46.9656" lon="9.55273">
        <ele>522</ele>
        <time>2017-10-27T21:04:32Z</time>
      </trkpt>
      <trkpt lat="46.96558" lon="9.55277">
        <ele>522</ele>
        <time>2017-10-27T21:06:32Z</time>
      </trkpt>
      <trkpt lat="46.96557" lon="9.55281">
        <ele>522</ele>
        <time>2017-10-27T21:08:32Z</time>
      </trkpt>
      <trkpt lat="46.96556" lon="9.55283">
        <ele>522</ele>
        <time>2017-10-27T21:10:32Z</time>
      </trkpt>
      <trkpt lat="46.96554" lon="9.55285">
        <ele>522</ele>
        <time>2017-10-27T21:12:32Z</time>
      </trkpt>
      <trkpt lat="46.96552" lon="9.55286">
        <ele>522</ele>
        <time>2017-10-27T21:14:32Z</time>
      </trkpt>
      <trkpt lat="46.9655" lon="9.55287">
        <ele>522</ele>
        <time>2017-10-27T21:16:32Z</time>
      </trkpt>
      <trkpt lat="46.96538" lon="9.5529">
        <ele>522</ele>
        <time>2017-10-27T21:18:32Z</time>
      </trkpt>
      <trkpt lat="46.96535" lon="9.5529">
        <ele>522</ele>
        <time>2017-10-27T21:20:32Z</time>
      </trkpt>
      <trkpt lat="46.96534" lon="9.55289">
        <ele>522</ele>
        <time>2017-10-27T21:22:32Z</time>
      </trkpt>
      <trkpt lat="46.96532" lon="9.55288">
        <ele>522</ele>
        <time>2017-10-27T21:24:32Z</time>
      </trkpt>
      <trkpt lat="46.9653" lon="9.55286">
        <ele>522</ele>
        <time>2017-10-27T21:26:32Z</time>
      </trkpt>
      <trkpt lat="46.96527" lon="9.55282">
        <ele>522</ele>
        <time>2017-10-27T21:28:32Z</time>
      </trkpt>
      <trkpt lat="46.96524" lon="9.55275">
        <ele>522</ele>
        <time>2017-10-27T21:30:32Z</time>
      </trkpt>
      <trkpt lat="46.96522" lon="9.55268">
        <ele>522</ele>
        <time>2017-10-27T21:32:32Z</time>
      </trkpt>
      <trkpt lat="46.96522" lon="9.55255">
        <ele>522</ele>
        <time>2017-10-27T21:34:32Z</time>
      </trkpt>
      <trkpt lat="46.96522" lon="9.55255">
        <ele>522</ele>
        <time>2017-10-27T21:36:32Z</time>
      </trkpt>
      <trkpt lat="46.96519" lon="9.5525">
        <ele>522</ele>
        <time>2017-10-27T21:38:32Z</time>
      </trkpt>
      <trkpt lat="46.96518" lon="9.55248">
        <ele>522</ele>
        <time>2017-10-27T21:40:32Z</time>
      </trkpt>
      <trkpt lat="46.96515" lon="9.55248">
        <ele>522</ele>
        <time>2017-10-27T21:42:32Z</time>
      </trkpt>
      <trkpt lat="46.96444" lon="9.55262">
        <ele>524</ele>
        <time>2017-10-27T21:44:32Z</time>
      </trkpt>
      <trkpt lat="46.96283" lon="9.55294">
        <ele>522</ele>
        <time>2017-10-27T21:46:32Z</time>
      </trkpt>
      <trkpt lat="46.96216" lon="9.55307">
        <ele>522</ele>
        <time>2017-10-27T21:48:32Z</time>
      </trkpt>
      <trkpt lat="46.96216" lon="9.55307">
        <ele>522</ele>
        <time>2017-10-27T21:50:32Z</time>
      </trkpt>
      <trkpt lat="46.96218" lon="9.55326">
        <ele>522</ele>
        <time>2017-10-27T21:52:32Z</time>
      </trkpt>
      <trkpt lat="46.96218" lon="9.55326">
        <ele>522</ele>
        <time>2017-10-27T21:54:32Z</time>
      </trkpt>
      <trkpt lat="46.96175" lon="9.55354">
        <ele>521</ele>
        <time>2017-10-27T21:56:32Z</time>
      </trkpt>
      <trkpt lat="46.96139" lon="9.55369">
        <ele>522</ele>
        <time>2017-10-27T21:58:32Z</time>
      </trkpt>
      <trkpt lat="46.96124" lon="9.55372">
        <ele>523</ele>
        <time>2017-10-27T22:00:32Z</time>
      </trkpt>
      <trkpt lat="46.96107" lon="9.55373">
        <ele>523</ele>
        <time>2017-10-27T22:02:32Z</time>
      </trkpt>
      <trkpt lat="46.96092" lon="9.55371">
        <ele>524</ele>
        <time>2017-10-27T22:04:32Z</time>
      </trkpt>
      <trkpt lat="46.9609" lon="9.55371">
        <ele>524</ele>
        <time>2017-10-27T22:06:32Z</time>
      </trkpt>
      <trkpt lat="46.96083" lon="9.55371">
        <ele>524</ele>
        <time>2017-10-27T22:08:32Z</time>
      </trkpt>
      <trkpt lat="46.96077" lon="9.55369">
        <ele>524</ele>
        <time>2017-10-27T22:10:32Z</time>
      </trkpt>
      <trkpt lat="46.96066" lon="9.55367">
        <ele>525</ele>
        <time>2017-10-27T22:12:32Z</time>
      </trkpt>
      <trkpt lat="46.96057" lon="9.55365">
        <ele>526</ele>
        <time>2017-10-27T22:14:32Z</time>
      </trkpt>
      <trkpt lat="46.96022" lon="9.55354">
        <ele>528</ele>
        <time>2017-10-27T22:16:32Z</time>
      </trkpt>
      <trkpt lat="46.96007" lon="9.55349">
        <ele>529</ele>
        <time>2017-10-27T22:18:32Z</time>
      </trkpt>
      <trkpt lat="46.95983" lon="9.55347">
        <ele>529</ele>
        <time>2017-10-27T22:20:32Z</time>
      </trkpt>
      <trkpt lat="46.95952" lon="9.55349">
        <ele>529</ele>
        <time>2017-10-27T22:22:32Z</time>
      </trkpt>
      <trkpt lat="46.95927" lon="9.55354">
        <ele>528</ele>
        <time>2017-10-27T22:24:32Z</time>
      </trkpt>
      <trkpt lat="46.95892" lon="9.55367">
        <ele>529</ele>
        <time>2017-10-27T22:26:32Z</time>
      </trkpt>
      <trkpt lat="46.95874" lon="9.55377">
        <ele>529</ele>
        <time>2017-10-27T22:28:32Z</time>
      </trkpt>
      <trkpt lat="46.95849" lon="9.55382">
        <ele>530</ele>
        <time>2017-10-27T22:30:32Z</time>
      </trkpt>
      <trkpt lat="46.95814" lon="9.55389">
        <ele>529</ele>
        <time>2017-10-27T22:32:32Z</time>
      </trkpt>
      <trkpt lat="46.95771" lon="9.55398">
        <ele>528</ele>
        <time>2017-10-27T22:34:32Z</time>
      </trkpt>
      <trkpt lat="46.95748" lon="9.55402">
        <ele>527</ele>
        <time>2017-10-27T22:36:32Z</time>
      </trkpt>
      <trkpt lat="46.95473" lon="9.55456">
        <ele>523</ele>
        <time>2017-10-27T22:38:32Z</time>
      </trkpt>
      <trkpt lat="46.95473" lon="9.55456">
        <ele>523</ele>
        <time>2017-10-27T22:40:32Z</time>
      </trkpt>
      <trkpt lat="46.9547" lon="9.55438">
        <ele>524</ele>
        <time>2017-10-27T22:42:32Z</time>
      </trkpt>
      <trkpt lat="46.9547" lon="9.55438">
        <ele>524</ele>
        <time>2017-10-27T22:44:32Z</time>
      </trkpt>
      <trkpt lat="46.95466" lon="9.55441">
        <ele>523</ele>
        <time>2017-10-27T22:46:32Z</time>
      </trkpt>
      <trkpt lat="46.95461" lon="9.55444">
        <ele>523</ele>
        <time>2017-10-27T22:48:32Z</time>
      </trkpt>
      <trkpt lat="46.95457" lon="9.55446">
        <ele>523</ele>
        <time>2017-10-27T22:50:32Z</time>
      </trkpt>
      <trkpt lat="46.9545" lon="9.55448">
        <ele>523</ele>
        <time>2017-10-27T22:52:32Z</time>
      </trkpt>
      <trkpt lat="46.95413" lon="9.55456">
        <ele>523</ele>
        <time>2017-10-27T22:54:32Z</time>
      </trkpt>
      <trkpt lat="46.95376" lon="9.55464">
        <ele>522</ele>
        <time>2017-10-27T22:56:32Z</time>
      </trkpt>
      <trkpt lat="46.95352" lon="9.55473">
        <ele>522</ele>
        <time>2017-10-27T22:58:32Z</time>
      </trkpt>
      <trkpt lat="46.95331" lon="9.55488">
        <ele>522</ele>
        <time>2017-10-27T23:00:32Z</time>
      </trkpt>
      <trkpt lat="46.95306" lon="9.55511">
        <ele>522</ele>
        <time>2017-10-27T23:02:32Z</time>
      </trkpt>
      <trkpt lat="46.95288" lon="9.55529">
        <ele>522</ele>
        <time>2017-10-27T23:04:32Z</time>
      </trkpt>
      <trkpt lat="46.95279" lon="9.55537">
        <ele>522</ele>
        <time>2017-10-27T23:06:32Z</time>
      </trkpt>
      <trkpt lat="46.95272" lon="9.55541">
        <ele>522</ele>
        <time>2017-10-27T23:08:32Z</time>
      </trkpt>
      <trkpt lat="46.9527" lon="9.55542">
        <ele>522</ele>
        <time>2017-10-27T23:10:32Z</time>
      </trkpt>
      <trkpt lat="46.95265" lon="9.55543">
        <ele>522</ele>
        <time>2017-10-27T23:12:32Z</time>
      </trkpt>
      <trkpt lat="46.94545" lon="9.55674">
        <ele>525</ele>
        <time>2017-10-27T23:14:32Z</time>
      </trkpt>
      <trkpt lat="46.94494" lon="9.55679">
        <ele>526</ele>
        <time>2017-10-27T23:16:32Z</time>
      </trkpt>
      <trkpt lat="46.94411" lon="9.55687">
        <ele>525</ele>
        <time>2017-10-27T23:18:32Z</time>
      </trkpt>
      <trkpt lat="46.94315" lon="9.55697">
        <ele>525</ele>
        <time>2017-10-27T23:20:32Z</time>
      </trkpt>
      <trkpt lat="46.9426" lon="9.55702">
        <ele>525</ele>
        <time>2017-10-27T23:22:32Z</time>
      </trkpt>
      <trkpt lat="46.94211" lon="9.55708">
        <ele>527</ele>
        <time>2017-10-27T23:24:32Z</time>
      </trkpt>
      <trkpt lat="46.94179" lon="9.55712">
        <ele>528</ele>
        <time>2017-10-27T23:26:32Z</time>
      </trkpt>
      <trkpt lat="46.94135" lon="9.55716">
        <ele>527</ele>
        <time>2017-10-27T23:28:32Z</time>
      </trkpt>
      <trkpt lat="46.94074" lon="9.55722">
        <ele>526</ele>
        <time>2017-10-27T23:30:32Z</time>
      </trkpt>
      <trkpt lat="46.94074" lon="9.55722">
        <ele>526</ele>
        <time>2017-10-27T23:32:32Z</time>
      </trkpt>
      <trkpt lat="46.94076" lon="9.55712">
        <ele>526</ele>
        <time>2017-10-27T23:34:32Z</time>
      </trkpt>
      <trkpt lat="46.94078" lon="9.55698">
        <ele>526</ele>
        <time>2017-10-27T23:36:32Z</time>
      </trkpt>
      <trkpt lat="46.94081" lon="9.55629">
        <ele>526</ele>
        <time>2017-10-27T23:38:32Z</time>
      </trkpt>
      <trkpt lat="46.94082" lon="9.55604">
        <ele>525</ele>
        <time>2017-10-27T23:40:32Z</time>
      </trkpt>
      <trkpt lat="46.94087" lon="9.55525">
        <ele>526</ele>
        <time>2017-10-27T23:42:32Z</time>
      </trkpt>
      <trkpt lat="46.94089" lon="9.5548">
        <ele>526</ele>
        <time>2017-10-27T23:44:32Z</time>
      </trkpt>
      <trkpt lat="46.94093" lon="9.55418">
        <ele>526</ele>
        <time>2017-10-27T23:46:32Z</time>
      </trkpt>
      <trkpt lat="46.94092" lon="9.55385">
        <ele>526</ele>
        <time>2017-10-27T23:48:32Z</time>
      </trkpt>
      <trkpt lat="46.94092" lon="9.55377">
        <ele>526</ele>
        <time>2017-10-27T23:50:32Z</time>
      </trkpt>
      <trkpt lat="46.94092" lon="9.55377">
        <ele>526</ele>
        <time>2017-10-27T23:52:32Z</time>
      </trkpt>
      <trkpt lat="46.94086" lon="9.5538">
        <ele>526</ele>
        <time>2017-10-27T23:54:32Z</time>
      </trkpt>
      <trkpt lat="46.94081" lon="9.55383">
        <ele>526</ele>
        <time>2017-10-27T23:56:32Z</time>
      </trkpt>
      <trkpt lat="46.94078" lon="9.55386">
        <ele>526</ele>
        <time>2017-10-27T23:58:32Z</time>
      </trkpt>
      <trkpt lat="46.94074" lon="9.55389">
        <ele>526</ele>
        <time>2017-10-28T00:00:32Z</time>
      </trkpt>
      <trkpt lat="46.94068" lon="9.55394">
        <ele>526</ele>
        <time>2017-10-28T00:02:32Z</time>
      </trkpt>
      <trkpt lat="46.94056" lon="9.55405">
        <ele>526</ele>
        <time>2017-10-28T00:04:32Z</time>
      </trkpt>
      <trkpt lat="46.94034" lon="9.55419">
        <ele>526</ele>
        <time>2017-10-28T00:06:32Z</time>
      </trkpt>
      <trkpt lat="46.94011" lon="9.55431">
        <ele>526</ele>
        <time>2017-10-28T00:08:32Z</time>
      </trkpt>
      <trkpt lat="46.93991" lon="9.55443">
        <ele>526</ele>
        <time>2017-10-28T00:10:32Z</time>
      </trkpt>
      <trkpt lat="46.93975" lon="9.55452">
        <ele>526</ele>
        <time>2017-10-28T00:12:32Z</time>
      </trkpt>
      <trkpt lat="46.93963" lon="9.55459">
        <ele>526</ele>
        <time>2017-10-28T00:14:32Z</time>
      </trkpt>
      <trkpt lat="46.93949" lon="9.55465">
        <ele>526</ele>
        <time>2017-10-28T00:16:32Z</time>
      </trkpt>
      <trkpt lat="46.93937" lon="9.55471">
        <ele>526</ele>
        <time>2017-10-28T00:18:32Z</time>
      </trkpt>
      <trkpt lat="46.93923" lon="9.55476">
        <ele>526</ele>
        <time>2017-10-28T00:20:32Z</time>
      </trkpt>
      <trkpt lat="46.93911" lon="9.5548">
        <ele>526</ele>
        <time>2017-10-28T00:22:32Z</time>
      </trkpt>
      <trkpt lat="46.9389" lon="9.55485">
        <ele>526</ele>
        <time>2017-10-28T00:24:32Z</time>
      </trkpt>
      <trkpt lat="46.93857" lon="9.55493">
        <ele>527</ele>
        <time>2017-10-28T00:26:32Z</time>
      </trkpt>
      <trkpt lat="46.93828" lon="9.555">
        <ele>527</ele>
        <time>2017-10-28T00:28:32Z</time>
      </trkpt>
      <trkpt lat="46.938" lon="9.55505">
        <ele>527</ele>
        <time>2017-10-28T00:30:32Z</time>
      </trkpt>
      <trkpt lat="46.93754" lon="9.55517">
        <ele>526</ele>
        <time>2017-10-28T00:32:32Z</time>
      </trkpt>
      <trkpt lat="46.93716" lon="9.55525">
        <ele>527</ele>
        <time>2017-10-28T00:34:32Z</time>
      </trkpt>
      <trkpt lat="46.93688" lon="9.55534">
        <ele>527</ele>
        <time>2017-10-28T00:36:32Z</time>
      </trkpt>
      <trkpt lat="46.93658" lon="9.55545">
        <ele>528</ele>
        <time>2017-10-28T00:38:32Z</time>
      </trkpt>
      <trkpt lat="46.9364" lon="9.55551">
        <ele>528</ele>
        <time>2017-10-28T00:40:32Z</time>
      </trkpt>
    </trkseg>
  </trk>
</gpx>